<<back to data home page

    Month/Day/Year       Maximum   Minimum    Rel    Dew       Rainfall  Seasonal  Soil     Soil      Baro       Wind    Wind        Peak    Peak Gust  Evap     Leaf     Net
    and                  Air Temp  Air Temp   Hum    Point     Inches    Rainfall  Temp     Moisture  Pressure   Speed   Direction   Gust    Direction  Pan      Wetness  Radiation
    Local Time           Deg F     Deg F      %      Deg F               Inches    Deg F    dS/m      mbar       knots   comp deg    knots   comp deg   Inches   mV       W_m2
----------------------------------------------------------------------------------------------------------------------------------------------------------------------------------
   05/24/2016 18:10      66.3      65.8       44     43.6      0.00      8.37      72.5     0.34      1015.0     6       168         9       135        9.44     264      104.2
   05/24/2016 18:00      67.4      66.3       43     43.8      0.00      8.37      72.3     0.34      1015.0     6       152         9       155        9.45     264      130.7
   05/24/2016 17:50      67.1      66.8       43     43.9      0.00      8.37      72.4     0.34      1015.0     6       154         8       159        9.45     264      159.4
   05/24/2016 17:40      67.7      67.2       43     44.1      0.00      8.37      72.3     0.34      1015.0     7       158        13       159        9.45     264      182.0
   05/24/2016 17:30      68.3      67.1       43     44.5      0.00      8.37      72.4     0.34      1015.0     6       165         9       168        9.46     263      209.8
   05/24/2016 17:20      68.3      67.3       43     44.5      0.00      8.37      72.2     0.34      1015.0     7       143        10       123        9.46     264      212.0
   05/24/2016 17:10      68.3      66.9       43     44.5      0.00      8.37      72.1     0.34      1015.0     6       154        11       163        9.47     264      137.7
   05/24/2016 17:00      68.0      67.3       43     44.6      0.00      8.37      72.3     0.34      1015.0     6       140        10       160        9.49     263      138.0
   05/24/2016 16:50      68.3      67.6       44     45.0      0.00      8.37      72.3     0.34      1015.0     7       145        10       137        9.49     264      272.4
   05/24/2016 16:40      68.6      67.6       43     45.0      0.00      8.37      72.2     0.34      1015.0     7       162        11       154        9.50     264      333.5
   05/24/2016 16:30      68.3      67.6       44     45.1      0.00      8.37      71.9     0.34      1015.0     7       154        12       143        9.50     264      367.7
   05/24/2016 16:20      68.3      67.8       43     44.9      0.00      8.37      72.0     0.34      1015.0     7       144        12       142        9.50     264      373.3
   05/24/2016 16:10      68.8      67.9       44     45.3      0.00      8.37      72.2     0.34      1015.0     6       158        10       135        9.50     264      394.8
   05/24/2016 16:00      68.7      67.9       44     45.5      0.00      8.37      72.0     0.34      1015.0     8       146        11       168        9.50     264      419.5
   05/24/2016 15:50      69.0      68.2       44     45.8      0.00      8.37      71.8     0.34      1015.0     7       173        10       170        9.50     264      442.7
   05/24/2016 15:40      69.1      67.9       44     45.9      0.00      8.37      71.8     0.34      1015.0     8       158        12       182        9.51     264      456.1
   05/24/2016 15:30      69.0      67.9       45     46.1      0.00      8.37      72.2     0.34      1015.0     7       175        10       192        9.51     264      436.9
   05/24/2016 15:20      69.6      68.8       44     46.3      0.00      8.37      71.9     0.34      1015.0     6       192        10       177        9.51     264      436.7
   05/24/2016 15:10      69.6      68.7       44     46.5      0.00      8.37      71.9     0.34      1015.0     6       193         9       251        9.51     264      614.1
   05/24/2016 15:00      69.1      68.6       45     46.6      0.00      8.37      71.6     0.34      1015.0     4       153         7       153        9.51     264      357.2
   05/24/2016 14:50      70.2      68.3       45     46.8      0.00      8.37      71.8     0.34      1015.0     5       193         9       216        9.51     264      421.8
   05/24/2016 14:40      69.4      68.1       45     46.7      0.00      8.37      71.7     0.34      1015.0     5       178         8       231        9.51     265      669.0
   05/24/2016 14:30      68.2      67.2       47     46.5      0.00      8.37      71.9     0.34      1015.0     4       101         7       126        9.51     265      308.1
   05/24/2016 14:20      69.1      68.3       46     46.7      0.00      8.37      72.0     0.34      1015.0     4       210         6       192        9.51     264      300.7
   05/24/2016 14:10      70.3      68.5       44     46.9      0.00      8.37      71.9     0.34      1015.0     3       198         6       164        9.51     265      444.2
   05/24/2016 14:00      69.5      67.4       46     46.6      0.00      8.37      71.9     0.34      1015.0     4       223         6       264        9.51     266      656.4
   05/24/2016 13:50      67.8      67.1       48     46.9      0.00      8.37      71.8     0.34      1015.0     5       149         7       203        9.51     266      561.5
   05/24/2016 13:40      67.3      66.4       49     47.2      0.00      8.37      71.7     0.34      1015.0     4       152         6       184        9.51     266      395.7
   05/24/2016 13:30      66.3      65.7       50     47.0      0.00      8.37      72.0     0.34      1016.0     5       157         8       159        9.51     266      261.9
   05/24/2016 13:20      66.4      65.7       51     47.3      0.00      8.37      71.8     0.34      1016.0     4       135         6       142        9.51     266      257.7
   05/24/2016 13:10      65.8      65.2       52     47.3      0.00      8.37      71.9     0.34      1016.0     4       146         6       116        9.51     266      239.4
   05/24/2016 13:00      66.0      65.4       52     47.4      0.00      8.37      71.8     0.34      1016.0     3        99         5       107        9.51     266      145.4
   05/24/2016 12:50      67.0      65.4       51     47.4      0.00      8.37      71.6     0.34      1016.0     4       108         6       129        9.51     266      212.5
   05/24/2016 12:40      67.2      65.7       51     47.7      0.00      8.37      71.5     0.34      1016.0     2       105         7        61        9.51     266      271.6
   05/24/2016 12:30      65.6      64.5       53     47.4      0.00      8.37      72.1     0.34      1016.0     2       174         3       138        9.51     266      275.6
   05/24/2016 12:20      64.8      64.2       53     47.2      0.00      8.37      72.0     0.34      1016.0     3       134         6       113        9.51     266      218.6
   05/24/2016 12:10      64.7      64.3       53     47.3      0.00      8.37      71.7     0.34      1016.0     3       255         5       216        9.51     266      243.8
   05/24/2016 12:00      64.9      62.8       56     47.6      0.00      8.37      71.7     0.34      1016.0     3       159         5       138        9.51     266      243.1
   05/24/2016 11:50      62.9      62.6       57     47.5      0.00      8.37      71.4     0.34      1016.0     2       123         3       126        9.51     266       95.7
   05/24/2016 11:40      63.1      62.5       57     47.5      0.00      8.37      71.6     0.34      1016.0     3       166         5       221        9.51     266       64.3
   05/24/2016 11:30      63.1      62.6       58     47.7      0.00      8.37      71.9     0.34      1016.0     3       155         6       142        9.51     266       62.2
   05/24/2016 11:20      65.1      63.0       55     47.4      0.00      8.37      71.9     0.34      1016.0     3       161         6       152        9.51     266       59.8
   05/24/2016 11:10      65.7      63.5       54     48.1      0.00      8.37      71.4     0.34      1016.0     3        30         7        86        9.51     266      290.6
   05/24/2016 11:00      63.5      62.7       57     47.5      0.00      8.37      72.0     0.34      1016.0     3        73         5        65        9.51     267      379.3
   05/24/2016 10:50      62.5      61.1       59     47.4      0.00      8.37      71.7     0.34      1016.0     2        76         4        52        9.51     267      238.4
   05/24/2016 10:40      61.1      60.6       61     47.2      0.00      8.37      72.0     0.34      1016.0     4       120         6       129        9.51     266      123.5
   05/24/2016 10:30      60.7      60.3       62     47.3      0.00      8.37      71.9     0.34      1015.0     4       146         6       159        9.51     266       62.0
   05/24/2016 10:20      60.6      60.3       62     47.5      0.00      8.37      71.9     0.34      1015.0     5       151         6       143        9.51     266       39.3
   05/24/2016 10:10      60.7      60.3       62     47.6      0.00      8.37      72.0     0.34      1015.0     4       139         6       146        9.51     266       26.9
   05/24/2016 10:00      60.7      60.2       62     47.6      0.00      8.37      71.7     0.34      1015.0     2        37         4       191        9.51     266       17.1
   05/24/2016 09:50      60.8      60.2       62     47.4      0.00      8.37      71.8     0.34      1015.0     2       150         4       181        9.44     267       28.3
   05/24/2016 09:40      61.0      60.4       61     47.3      0.00      8.37      71.9     0.34      1015.0     2       207         4       211        9.44     266       64.7
   05/24/2016 09:30      61.4      60.8       61     47.6      0.00      8.37      71.9     0.34      1015.0     3       238         4       215        9.44     266      112.8
   05/24/2016 09:20      61.6      60.5       62     48.0      0.00      8.37      71.9     0.34      1015.0     2       157         4       205        9.23     267      248.8
   05/24/2016 09:10      61.0      60.0       64     48.3      0.00      8.37      72.2     0.34      1015.0     3       220         5       233        8.43     267      186.1
   05/24/2016 09:00      61.0      60.2       64     48.4      0.00      8.37      72.0     0.34      1015.0     2       193         3       130        8.43     267      217.1
   05/24/2016 08:50      60.0      58.9       67     48.7      0.00      8.37      72.0     0.34      1015.0     1       141         4       178        8.43     267      189.6
   05/24/2016 08:40      59.0      58.5       69     48.7      0.00      8.37      72.2     0.34      1015.0     2       109         4       208        8.43     267      209.0
   05/24/2016 08:30      58.8      58.2       70     48.6      0.00      8.37      72.1     0.34      1015.0     3       111         5        94        8.43     267      136.6
   05/24/2016 08:20      59.0      58.2       70     48.8      0.00      8.37      71.8     0.34      1015.0     2       131         5       136        8.43     267      108.1
   05/24/2016 08:10      58.3      57.8       72     49.0      0.00      8.37      72.3     0.34      1014.0     3        75         5       138        8.43     267       87.1
   05/24/2016 08:00      57.7      57.2       74     49.4      0.00      8.37      72.4     0.34      1014.0     2        72         2       110        8.43     267       75.1
   05/24/2016 07:50      57.2      56.9       76     49.4      0.00      8.37      72.3     0.34      1014.0     2       125         4       115        8.43     267       58.2
   05/24/2016 07:40      57.3      57.0       76     49.7      0.00      8.37      72.5     0.34      1014.0     1       101         3       117        8.43     267       46.7
   05/24/2016 07:30      57.1      56.6       77     49.8      0.00      8.37      72.2     0.34      1014.0     1        43         3        78        8.43     267       39.1
   05/24/2016 07:20      56.8      56.4       78     49.9      0.00      8.37      72.6     0.34      1014.0     1        69         2        30        8.43     267       20.5
   05/24/2016 07:10      56.5      56.0       79     49.9      0.00      8.37      72.2     0.34      1014.0     1        92         2       137        8.44     267       13.6
   05/24/2016 07:00      56.2      55.8       80     49.7      0.00      8.37      72.2     0.34      1014.0     1       138         2        92        8.44     267       14.5
   05/24/2016 06:50      56.0      55.8       80     49.8      0.00      8.37      72.4     0.34      1014.0     2       127         3       169        8.44     267        7.6
   05/24/2016 06:40      56.0      55.5       81     49.9      0.00      8.37      72.7     0.34      1014.0     2       100         2        90        8.44     267        3.1
   05/24/2016 06:30      55.7      55.4       81     49.8      0.00      8.37      72.7     0.34      1014.0     2        99         2       100        8.44     266       -2.8
   05/24/2016 06:20      55.5      55.3       81     49.8      0.00      8.37      72.1     0.34      1014.0     1        73         2        82        8.44     267       -9.4
   05/24/2016 06:10      55.4      55.1       82     49.7      0.00      8.37      72.7     0.34      1013.0     1        80         2        84        8.44     267      -16.6
   05/24/2016 06:00      55.2      54.9       82     49.6      0.00      8.37      72.7     0.34      1013.0     1        87         1        86        8.44     267      -21.4
   05/24/2016 05:50      55.1      54.9       82     49.5      0.00      8.37      72.5     0.34      1013.0     1        81         2        81        8.44     267      -31.4
   05/24/2016 05:40      55.3      55.1       81     49.5      0.00      8.37      72.4     0.34      1013.0     1        94         1       109        8.44     266      -43.5
   05/24/2016 05:30      55.6      55.3       81     49.5      0.00      8.37      72.8     0.34      1013.0     1        66         2        64        8.44     266      -35.7
   05/24/2016 05:20      55.4      55.1       81     49.5      0.00      8.37      72.7     0.34      1013.0     1        63         1        72        8.44     266      -25.4
   05/24/2016 05:10      55.2      55.1       81     49.4      0.00      8.37      72.7     0.34      1013.0     1        56         3        73        8.44     266      -18.6
   05/24/2016 05:00      55.2      54.9       81     49.2      0.00      8.37      72.5     0.34      1013.0     1        85         2        84        8.44     266      -22.1
   05/24/2016 04:50      55.1      54.9       80     49.1      0.00      8.37      72.7     0.34      1013.0     2        82         2        91        8.44     266      -21.2
   05/24/2016 04:40      55.1      54.9       80     48.9      0.00      8.37      72.6     0.34      1013.0     2        96         2        85        8.44     266      -21.5
   05/24/2016 04:30      55.1      54.6       80     48.8      0.00      8.37      72.8     0.34      1013.0     1        59         2        13        8.44     266      -24.1
   05/24/2016 04:20      54.8      54.1       80     48.5      0.00      8.37      72.5     0.34      1013.0     1       101         1        41        8.44     266      -21.7
   05/24/2016 04:10      54.3      53.6       82     48.5      0.00      8.37      72.8     0.34      1013.0     1       107         1       149        8.44     266      -22.8
   05/24/2016 04:00      54.2      53.7       81     48.4      0.00      8.37      72.6     0.34      1013.0     1       149         2       179        8.44     266      -29.6
   05/24/2016 03:50      54.3      54.0       82     48.7      0.00      8.37      72.8     0.34      1013.0     1        69         2        93        8.44     266      -39.6
   05/24/2016 03:40      54.1      53.7       82     48.6      0.00      8.37      72.8     0.34      1013.0     2       102         4        82        8.44     266      -50.5
   05/24/2016 03:30      53.9      53.5       81     48.1      0.00      8.37      72.8     0.34      1013.0     2        84         3        77        8.44     266      -58.3
   05/24/2016 03:20      53.7      53.2       81     47.6      0.00      8.37      72.9     0.34      1013.0     1        63         2        74        8.44     266      -51.3
   05/24/2016 03:10      53.3      52.6       80     47.1      0.00      8.37      72.8     0.34      1013.0     1       139         1       158        8.45     266      -40.5
   05/24/2016 03:00      52.8      52.5       81     46.8      0.00      8.37      72.9     0.34      1013.0     1       167         2       143        8.45     266      -34.4
   05/24/2016 02:50      52.9      52.6       80     46.6      0.00      8.37      73.0     0.34      1013.0     1       136         2       126        8.45     266      -47.5
   05/24/2016 02:40      53.6      53.0       78     46.7      0.00      8.37      73.2     0.34      1013.0     1       103         1       127        8.45     266      -57.3
   05/24/2016 02:30      54.0      53.6       78     47.0      0.00      8.37      73.1     0.34      1013.0     0        70         1        76        8.45     265      -62.8
   05/24/2016 02:20      54.6      54.0       77     47.3      0.00      8.37      73.0     0.34      1013.0     1        96         1        16        8.45     266      -64.3
   05/24/2016 02:10      54.6      54.4       79     48.1      0.00      8.37      73.1     0.34      1013.0     1        18         2       357        8.45     265      -60.1
   05/24/2016 02:00      55.0      54.6       78     48.1      0.00      8.37      73.3     0.34      1013.0     0        53         1        10        8.45     265      -60.1
   05/24/2016 01:50      55.2      55.0       78     48.4      0.00      8.37      73.4     0.34      1013.0     2       150         3       152        8.45     265      -55.4
   05/24/2016 01:40      55.3      55.1       77     48.1      0.00      8.37      73.0     0.34      1013.0     4       133         5       123        8.45     265      -60.5
   05/24/2016 01:30      55.3      55.1       78     48.5      0.00      8.37      73.2     0.34      1013.0     2       132         3       142        8.45     265      -52.0
   05/24/2016 01:20      55.3      54.7       77     47.9      0.00      8.37      73.4     0.34      1013.0     2        97         3       109        8.45     265      -46.8
   05/24/2016 01:10      55.1      54.7       72     46.1      0.00      8.37      73.0     0.34      1013.0     1        48         1        58        8.45     265      -55.1
   05/24/2016 01:00      55.7      55.1       71     46.1      0.00      8.37      73.0     0.34      1013.0     1       116         1       132        8.46     265      -60.3
   05/24/2016 00:50      56.3      56.0       70     46.6      0.00      8.37      73.3     0.34      1013.0     1       105         2        84        8.46     265      -67.1
   05/24/2016 00:40      56.6      56.3       70     46.8      0.00      8.37      73.6     0.34      1013.0     1       115         3       128        8.46     265      -61.5
   05/24/2016 00:30      56.9      56.6       70     47.0      0.00      8.37      73.3     0.34      1013.0     2        93         3       107        8.46     265      -57.1
   05/24/2016 00:20      56.9      56.8       69     46.9      0.00      8.37      73.1     0.34      1013.0     3       122         5       149        8.46     265      -47.8
   05/24/2016 00:10      57.1      56.8       69     46.9      0.00      8.37      73.4     0.34      1013.0     2       123         3       128        8.46     265      -53.9
   05/24/2016 00:00      57.6      57.0       68     46.7      0.00      8.37      73.5     0.34      1013.0     2       128         2       140        8.47     265      -61.2
   05/23/2016 23:50      57.6      57.4       67     46.6      0.00      8.37      73.4     0.34      1013.0     2       131         3       140        8.47     265      -59.8
   05/23/2016 23:40      58.0      57.7       66     46.4      0.00      8.37      73.5     0.34      1013.0     2       108         4       143        8.47     265      -44.3
   05/23/2016 23:30      58.2      57.9       64     46.1      0.00      8.37      73.5     0.34      1013.0     1       100         2        67        8.47     265      -45.3
   05/23/2016 23:20      58.0      57.7       64     45.9      0.00      8.37      73.3     0.34      1013.0     2       133         3       161        8.47     265      -30.5
   05/23/2016 23:10      58.1      57.9       64     45.9      0.00      8.37      73.4     0.34      1013.0     2       161         3       163        8.47     265      -50.6
   05/23/2016 23:00      58.5      58.1       64     46.1      0.00      8.37      73.4     0.34      1013.0     2       169         3       158        8.48     265      -61.9
   05/23/2016 22:50      58.6      58.3       64     46.4      0.00      8.37      73.6     0.34      1013.0     2       170         3       159        8.48     265      -49.1
   05/23/2016 22:40      58.3      58.0       66     46.9      0.00      8.37      73.6     0.34      1013.0     2       165         3       173        8.48     265      -45.7
   05/23/2016 22:30      58.2      57.7       67     47.1      0.00      8.37      73.5     0.34      1013.0     1       164         2       186        8.48     265      -47.3
   05/23/2016 22:20      58.3      57.8       65     46.5      0.00      8.37      73.4     0.34      1013.0     1       186         2       211        8.48     265      -48.5
   05/23/2016 22:10      58.5      58.1       65     46.8      0.00      8.37      73.4     0.34      1013.0     1       154         1       162        8.48     265      -54.9
   05/23/2016 22:00      58.9      58.7       64     46.8      0.00      8.37      73.3     0.34      1013.0     1       128         2        77        8.48     265      -56.7
   05/23/2016 21:50      59.7      58.9       63     46.8      0.00      8.37      73.5     0.34      1013.0     2       212         2       237        8.48     264      -68.1
   05/23/2016 21:40      60.4      59.9       63     47.3      0.00      8.37      73.4     0.34      1012.0     2       261         2       268        8.48     264      -72.9
   05/23/2016 21:30      60.5      60.3       62     47.5      0.00      8.37      73.1     0.34      1012.0     2       285         2       314        8.48     264      -75.5
   05/23/2016 21:20      60.9      60.6       62     47.6      0.00      8.37      73.5     0.34      1012.0     2       306         3       304        8.48     264      -74.3
   05/23/2016 21:10      61.0      60.8       61     47.5      0.00      8.37      73.6     0.34      1012.0     2       301         4       327        8.49     264      -70.4
   05/23/2016 21:00      61.1      60.8       59     46.5      0.00      8.37      73.5     0.34      1012.0     2       271         4       325        8.49     264      -63.5
   05/23/2016 20:50      61.0      60.9       55     44.8      0.00      8.37      73.4     0.34      1012.0     2       222         3       213        8.49     264      -62.1
   05/23/2016 20:40      61.1      60.9       49     41.5      0.00      8.37      73.1     0.34      1012.0     2       167         3       166        8.49     264      -54.0
   05/23/2016 20:30      61.1      60.9       47     40.9      0.00      8.37      73.3     0.34      1012.0     3       181         4       142        8.49     264      -63.4
   05/23/2016 20:20      61.4      61.1       45     39.9      0.00      8.37      73.0     0.34      1012.0     2       194         3       192        8.49     264      -76.3
   05/23/2016 20:10      61.9      61.5       43     39.2      0.00      8.37      73.3     0.34      1012.0     2       178         4       202        8.49     264      -79.9
   05/23/2016 20:00      62.6      62.0       42     38.7      0.00      8.37      73.3     0.34      1011.0     4       153         6       128        8.49     264      -80.7
   05/23/2016 19:50      62.9      62.5       41     38.9      0.00      8.37      73.0     0.34      1011.0     4       164         7       154        8.49     264      -79.1
   05/23/2016 19:40      63.3      62.9       41     39.4      0.00      8.37      73.2     0.34      1011.0     4       169         6       145        8.49     264      -74.0
   05/23/2016 19:30      64.0      63.5       42     39.9      0.00      8.37      73.2     0.34      1011.0     5       169         6       180        8.49     264      -62.8
   05/23/2016 19:20      64.8      64.1       45     42.5      0.00      8.37      72.9     0.34      1011.0     6       176         8       161        8.50     264      -48.5
   05/23/2016 19:10      65.5      64.9       47     44.4      0.00      8.37      73.3     0.34      1011.0     6       168         7       190        8.50     264      -30.7
   05/23/2016 19:00      65.8      65.6       47     45.1      0.00      8.37      73.1     0.34      1011.0     5       167         7       183        8.50     264       -9.9
   05/23/2016 18:50      67.0      65.9       46     45.1      0.00      8.37      73.0     0.34      1011.0     6       170        10       171        8.50     264       13.3
   05/23/2016 18:40      67.4      66.9       46     45.5      0.00      8.37      73.3     0.34      1011.0     5       170         9       161        8.50     264       35.9
   05/23/2016 18:30      67.5      67.2       46     45.8      0.00      8.37      73.2     0.34      1011.0     5       170         8       123        8.51     264       61.9
   05/23/2016 18:20      68.1      67.7       47     46.7      0.00      8.37      73.2     0.34      1011.0     7       138         9       134        8.51     264      105.9
   05/23/2016 18:10      68.2      67.8       46     46.7      0.00      8.37      73.1     0.34      1011.0     5       134         8       148        8.52     264      155.9
   05/23/2016 18:00      67.7      67.3       47     46.3      0.00      8.37      72.9     0.34      1011.0     5       147         9       141        8.52     264      104.9
   05/23/2016 17:50      68.3      67.7       46     46.7      0.00      8.37      72.9     0.34      1011.0     7       155         8       152        8.52     264       56.4
   05/23/2016 17:40      68.7      68.4       46     47.1      0.00      8.37      72.9     0.34      1011.0     4       173         6       159        8.53     264       80.0
   05/23/2016 17:30      68.6      67.8       47     47.4      0.00      8.37      72.5     0.34      1011.0     5       158         8       171        8.53     264      159.8
   05/23/2016 17:20      68.1      67.5       48     47.3      0.00      8.37      72.9     0.34      1011.0     3       178         4       121        8.53     264       85.3
   05/23/2016 17:10      69.4      67.5       47     47.4      0.00      8.37      73.0     0.34      1011.0     4       180        11       213        8.54     264      100.4
   05/23/2016 17:00      68.8      68.2       47     47.5      0.00      8.37      72.7     0.34      1011.0     3       202         6       208        8.54     264      231.2
   05/23/2016 16:50      68.7      67.3       47     47.2      0.00      8.37      72.8     0.34      1011.0     5       156         7       150        8.54     264      331.6
   05/23/2016 16:40      68.1      67.3       47     46.8      0.00      8.37      72.6     0.34      1011.0     5       172         8       210        8.55     264       50.5
   05/23/2016 16:30      68.7      68.0       46     46.9      0.00      8.37      72.6     0.34      1011.0     5       151         9       146        8.55     264      228.1
   05/23/2016 16:20      69.1      68.2       46     46.8      0.00      8.37      72.4     0.34      1011.0     6       168         8       149        8.55     264      298.3
   05/23/2016 16:10      69.4      68.0       46     46.9      0.00      8.37      72.5     0.34      1011.0     5       181         8       164        8.55     264      265.1
   05/23/2016 16:00      69.1      68.6       46     47.0      0.00      8.37      72.3     0.34      1011.0     3       165         7       131        8.55     264      154.1
   05/23/2016 15:50      69.4      68.5       45     46.9      0.00      8.37      72.5     0.34      1012.0     5       152         7       170        8.55     264      177.5
   05/23/2016 15:40      69.2      68.4       46     46.9      0.00      8.37      72.6     0.34      1012.0     4       153         8       139        8.56     264      135.5
   05/23/2016 15:30      69.6      67.7       45     46.7      0.00      8.37      72.3     0.34      1012.0     6       162         9       130        8.56     264      304.8
   05/23/2016 15:20      70.2      68.6       44     46.7      0.00      8.37      72.4     0.34      1012.0     7       169        10       199        8.56     264      508.4
   05/23/2016 15:10      69.5      68.0       45     46.6      0.00      8.37      72.5     0.34      1012.0     7       144        11       133        8.56     264      488.8
   05/23/2016 15:00      69.3      68.1       45     46.6      0.00      8.37      72.4     0.34      1012.0     7       161        10       163        8.57     264      385.8
   05/23/2016 14:50      70.1      69.1       44     47.0      0.00      8.37      72.3     0.34      1012.0     6       175         9       187        8.57     264      476.9
   05/23/2016 14:40      70.0      67.6       46     47.3      0.00      8.37      72.2     0.34      1012.0     7       163        10       153        8.57     264      537.7
   05/23/2016 14:30      71.2      68.1       45     47.1      0.00      8.37      72.3     0.34      1012.0     6       178         8       157        8.58     264      367.8
   05/23/2016 14:20      70.9      68.9       45     47.5      0.00      8.37      72.0     0.34      1012.0     6       150         9       171        8.58     264      475.5
   05/23/2016 14:10      69.7      68.7       47     48.0      0.00      8.37      71.8     0.34      1012.0     6       145         9       147        8.58     266      676.9
   05/23/2016 14:00      68.6      67.7       48     47.9      0.00      8.37      72.4     0.34      1012.0     8       135        12       131        8.58     266      488.0
   05/23/2016 13:50      68.6      67.2       48     47.8      0.00      8.37      71.8     0.34      1012.0     6       129         9       126        8.58     265      260.1
   05/23/2016 13:40      68.1      67.6       48     47.5      0.00      8.37      71.9     0.34      1012.0     7       127        13       150        8.58     265      314.8
   05/23/2016 13:30      68.2      67.4       48     47.2      0.00      8.37      72.2     0.34      1012.0     6       131        12       147        8.58     264      199.5
   05/23/2016 13:20      68.9      67.0       48     47.3      0.00      8.37      72.0     0.34      1013.0     6       133         8       133        8.58     264      554.1
   05/23/2016 13:10      67.7      67.3       49     47.6      0.00      8.37      72.1     0.34      1013.0     6       135         8       131        8.58     264      480.8
   05/23/2016 13:00      67.4      65.8       51     47.9      0.00      8.37      71.9     0.34      1013.0     5       132         6       162        8.59     266      261.2
   05/23/2016 12:50      66.9      65.9       51     47.8      0.00      8.37      71.8     0.34      1013.0     6       162         8       169        8.59     265      100.4
   05/23/2016 12:40      66.6      66.0       51     47.6      0.00      8.37      71.5     0.34      1013.0     5       143         9       128        8.59     265      135.5
   05/23/2016 12:30      66.9      66.2       50     47.3      0.00      8.37      71.9     0.34      1013.0     5       156        10       200        8.59     265      132.1
   05/23/2016 12:20      67.3      66.6       48     47.0      0.00      8.37      71.9     0.34      1013.0     5       106        10       145        8.59     265      148.6
   05/23/2016 12:10      67.5      66.5       49     47.1      0.00      8.37      71.5     0.34      1013.0     6       108        11       105        8.59     265      422.4
   05/23/2016 12:00      67.5      66.6       48     46.6      0.00      8.37      71.7     0.34      1013.0     6       147        10       136        8.59     265      338.2
   05/23/2016 11:50      67.8      67.2       47     46.3      0.00      8.37      71.9     0.34      1013.0     5       128         6       156        8.59     265      403.1
   05/23/2016 11:40      67.9      66.7       47     46.4      0.00      8.37      71.8     0.34      1013.0     5       129        10       157        8.59     265      281.8
   05/23/2016 11:30      68.4      66.5       48     46.8      0.00      8.37      72.0     0.34      1013.0     3       147         6       200        8.59     265      249.3
   05/23/2016 11:20      67.8      65.8       50     47.0      0.00      8.37      72.0     0.34      1013.0     3       117         6       150        8.59     266      541.2
   05/23/2016 11:10      67.4      66.0       50     47.4      0.00      8.37      72.1     0.34      1013.0     3       113         5       122        8.59     265      267.7
   05/23/2016 11:00      67.5      65.8       50     47.4      0.00      8.37      72.0     0.34      1013.0     4        90         7        76        8.59     266      459.1
   05/23/2016 10:50      65.8      65.0       53     47.7      0.00      8.37      72.0     0.34      1013.0     3        73         6        73        8.59     266      484.1
   05/23/2016 10:40      66.3      65.8       52     47.7      0.00      8.37      72.1     0.34      1013.0     5        77         8        82        8.59     266      529.4
   05/23/2016 10:30      66.9      65.8       51     47.8      0.00      8.37      72.3     0.34      1013.0     4        68         5        76        8.59     266      503.2
   05/23/2016 10:20      66.6      64.5       52     47.8      0.00      8.37      71.8     0.34      1013.0     2        57         4        76        8.59     267      481.2
   05/23/2016 10:10      65.4      63.9       54     47.5      0.00      8.37      72.1     0.34      1013.0     3        25         4        51        8.59     267      460.7
   05/23/2016 10:00      64.1      63.0       56     47.5      0.00      8.37      72.0     0.34      1014.0     3       107         5        86        8.60     267      462.8
   05/23/2016 09:50      64.3      63.1       56     47.9      0.00      8.37      71.8     0.34      1014.0     3        59         4        48        8.60     267      471.9
   05/23/2016 09:40      63.1      61.8       59     48.0      0.00      8.37      72.3     0.34      1014.0     3        39         5        29        8.60     267      452.1
   05/23/2016 09:30      63.4      62.3       58     48.2      0.00      8.37      72.3     0.34      1014.0     3        56         5        63        8.60     267      223.1
   05/23/2016 09:20      63.2      62.0       59     48.0      0.00      8.37      72.2     0.34      1014.0     3        65         5        68        8.61     267      420.5
   05/23/2016 09:10      62.3      61.5       61     48.4      0.00      8.37      72.1     0.34      1014.0     4        60         7        36        8.61     267      417.6
   05/23/2016 09:00      61.6      60.4       63     48.3      0.00      8.37      72.0     0.34      1014.0     3        38         5        10        8.61     267      372.4
   05/23/2016 08:50      60.2      59.4       67     48.5      0.00      8.37      72.6     0.34      1014.0     3        68         5        84        8.61     267      261.9
   05/23/2016 08:40      59.2      58.5       69     48.7      0.00      8.37      72.3     0.34      1014.0     2        62         5        70        8.62     267      128.7
   05/23/2016 08:30      58.8      57.6       71     49.0      0.00      8.37      72.6     0.34      1014.0     4        78         8        77        8.62     267       -5.6
   05/23/2016 08:20      58.7      58.0       72     49.5      0.00      8.37      72.4     0.34      1014.0     4        87         6       111        8.62     267       22.9
   05/23/2016 08:10      58.1      57.3       74     49.6      0.00      8.37      72.1     0.34      1014.0     3        77         4        96        8.62     267       58.9
   05/23/2016 08:00      57.4      57.0       74     48.9      0.00      8.37      72.6     0.34      1014.0     2        84         4       116        8.62     267       39.1
   05/23/2016 07:50      57.2      56.1       73     48.1      0.00      8.37      72.2     0.34      1014.0     2        66         4        99        8.62     267       56.1
   05/23/2016 07:40      56.1      55.4       75     47.9      0.00      8.37      72.7     0.34      1014.0     2        54         3        78        8.62     267       18.6
   05/23/2016 07:30      55.5      55.1       75     47.6      0.00      8.37      72.8     0.34      1014.0     2        18         3       349        8.62     267       14.7
   05/23/2016 07:20      55.1      54.5       77     47.7      0.00      8.37      72.6     0.34      1014.0     1        32         2       350        8.62     267       15.2
   05/23/2016 07:10      54.6      53.6       80     48.1      0.00      8.37      72.8     0.34      1014.0     1       126         2       124        8.62     267       16.4
   05/23/2016 07:00      53.6      52.4       85     48.6      0.00      8.37      72.5     0.34      1014.0     1       161         1       163        8.62     267       11.9
   05/23/2016 06:50      52.4      51.3       88     48.3      0.00      8.37      72.8     0.34      1014.0     1       143         2       143        8.62     267        5.5
   05/23/2016 06:40      51.2      50.0       90     47.9      0.00      8.37      72.5     0.34      1013.0     1       151         1       135        8.62     267       -0.1
   05/23/2016 06:30      49.9      48.7       92     46.8      0.00      8.37      72.8     0.34      1013.0     2       155         2       155        8.62     267       -6.1
   05/23/2016 06:20      48.9      48.2       92     46.5      0.00      8.37      72.9     0.34      1013.0     2       147         3       157        8.62     266      -10.8
   05/23/2016 06:10      48.4      48.2       92     46.1      0.00      8.37      72.8     0.34      1013.0     2       149         2       153        8.62     266      -15.3
   05/23/2016 06:00      48.9      48.4       93     46.7      0.00      8.37      72.8     0.35      1013.0     1       151         2       139        8.62     266      -20.4
   05/23/2016 05:50      49.1      48.7       92     46.8      0.00      8.37      73.1     0.35      1013.0     1       162         2       145        8.62     266      -23.9
   05/23/2016 05:40      49.3      48.7       92     46.8      0.00      8.37      73.2     0.35      1013.0     1       132         1       147        8.62     266      -27.1
   05/23/2016 05:30      49.0      48.4       91     46.1      0.00      8.37      73.1     0.35      1013.0     1       130         2       140        8.62     266      -29.2
   05/23/2016 05:20      49.6      49.3       92     47.3      0.00      8.37      73.1     0.35      1013.0     1       137         2       131        8.62     266      -29.7
   05/23/2016 05:10      49.9      49.6       92     47.6      0.00      8.37      72.8     0.35      1013.0     1       184         1       206        8.62     266      -30.6
   05/23/2016 05:00      49.8      49.6       92     47.4      0.00      8.37      72.9     0.35      1013.0     1       200         1       184        8.62     266      -33.2
   05/23/2016 04:50      49.9      49.4       90     46.8      0.00      8.37      73.1     0.35      1013.0     1       146         1       126        8.62     266      -36.2
   05/23/2016 04:40      50.4      49.9       89     47.0      0.00      8.37      73.1     0.35      1013.0     2       136         2       140        8.62     266      -37.4
   05/23/2016 04:30      50.2      49.5       91     47.1      0.00      8.37      73.0     0.35      1013.0     2       156         3       166        8.62     266      -39.1
   05/23/2016 04:20      49.9      49.5       90     46.8      0.00      8.37      73.2     0.35      1013.0     2       140         2       141        8.62     266      -39.6
   05/23/2016 04:10      50.5      49.7       88     46.8      0.00      8.37      73.2     0.35      1013.0     2       151         2       152        8.62     266      -42.0
   05/23/2016 04:00      50.7      49.9       89     47.1      0.00      8.37      73.2     0.35      1013.0     2       138         2       143        8.62     266      -43.4
   05/23/2016 03:50      50.7      50.4       89     47.5      0.00      8.37      73.2     0.35      1013.0     2       137         2       142        8.62     266      -43.5
   05/23/2016 03:40      51.2      50.7       89     47.8      0.00      8.37      73.3     0.35      1013.0     1       142         1       144        8.62     266      -44.8
   05/23/2016 03:30      51.2      50.7       89     47.8      0.00      8.37      73.5     0.35      1013.0     0       163         1       145        8.62     266      -49.1
   05/23/2016 03:20      51.3      50.8       87     47.2      0.00      8.37      73.4     0.35      1013.0     1       141         2       143        8.62     266      -52.6
   05/23/2016 03:10      52.2      51.6       87     48.0      0.00      8.37      73.6     0.35      1013.0     1       151         2       134        8.62     266      -52.8
   05/23/2016 03:00      52.2      51.6       86     47.8      0.00      8.37      73.5     0.35      1013.0     1       148         1       146        8.62     266      -57.6
   05/23/2016 02:50      52.3      51.6       83     47.0      0.00      8.37      73.4     0.35      1013.0     1       121         2       139        8.62     266      -60.7
   05/23/2016 02:40      52.3      51.7       81     46.3      0.00      8.37      73.6     0.35      1013.0     1        72         1        41        8.62     266      -62.6
   05/23/2016 02:30      52.2      51.7       82     46.5      0.00      8.37      73.6     0.35      1013.0     0       358         1        28        8.63     266      -63.1
   05/23/2016 02:20      51.7      51.5       81     46.1      0.00      8.37      73.6     0.35      1013.0     1       143         2       137        8.63     266      -63.6
   05/23/2016 02:10      52.4      51.9       80     46.1      0.00      8.37      73.7     0.35      1013.0     1       143         1       143        8.63     266      -63.7
   05/23/2016 02:00      52.4      51.7       79     45.8      0.00      8.37      73.9     0.35      1013.0     1       149         2       148        8.63     266      -63.8
   05/23/2016 01:50      52.4      51.7       77     45.1      0.00      8.37      73.8     0.35      1013.0     1       139         2       141        8.63     266      -65.0
   05/23/2016 01:40      52.8      52.1       78     45.7      0.00      8.37      73.7     0.35      1013.0     1       152         1       138        8.63     266      -64.7
   05/23/2016 01:30      52.5      52.1       77     45.2      0.00      8.37      73.8     0.35      1014.0     1       128         2       132        8.63     265      -65.7
   05/23/2016 01:20      52.6      52.5       75     45.1      0.00      8.37      74.1     0.35      1014.0     1       139         2       135        8.63     265      -66.5
   05/23/2016 01:10      53.4      52.8       74     45.0      0.00      8.37      73.7     0.35      1014.0     1       154         2       138        8.63     265      -66.3
   05/23/2016 01:00      53.6      52.8       74     45.2      0.00      8.37      73.8     0.35      1014.0     1       188         1       184        8.63     265      -66.9
   05/23/2016 00:50      53.1      52.6       72     44.2      0.00      8.37      74.0     0.35      1014.0     1       155         2       130        8.63     265      -67.6
   05/23/2016 00:40      53.6      53.3       71     44.3      0.00      8.37      73.8     0.35      1014.0     1       161         2       143        8.63     265      -67.3
   05/23/2016 00:30      53.7      53.4       71     44.4      0.00      8.37      74.2     0.35      1014.0     1       156         1       187        8.63     265      -67.3
   05/23/2016 00:20      53.9      53.6       71     44.5      0.00      8.37      74.0     0.35      1014.0     0       136         1       130        8.63     265      -67.7
   05/23/2016 00:10      53.8      53.5       70     44.1      0.00      8.37      74.1     0.35      1014.0     1       143         2       138        8.63     265      -68.5
   05/23/2016 00:00      54.3      53.7       67     43.6      0.00      8.37      74.0     0.35      1014.0     2       140         2       139        8.63     265      -69.1
   05/22/2016 23:50      54.6      54.2       66     43.5      0.00      8.37      74.0     0.35      1014.0     1       143         2       126        8.63     265      -70.1
   05/22/2016 23:40      55.1      54.6       65     43.4      0.00      8.37      74.1     0.35      1014.0     1       142         2       144        8.63     265      -70.7
   05/22/2016 23:30      55.1      54.8       64     42.9      0.00      8.37      74.0     0.35      1014.0     2       144         2       138        8.63     265      -70.9
   05/22/2016 23:20      55.3      55.1       62     42.6      0.00      8.37      73.9     0.35      1014.0     2       147         2       157        8.63     264      -71.8
   05/22/2016 23:10      55.7      55.1       63     43.2      0.00      8.37      74.2     0.35      1014.0     1       162         2       166        8.63     264      -72.2
   05/22/2016 23:00      55.9      55.4       63     43.1      0.00      8.37      74.1     0.35      1014.0     1        85         2        75        8.63     264      -73.7
   05/22/2016 22:50      56.0      55.8       63     43.4      0.00      8.37      74.1     0.35      1014.0     1       103         1        38        8.63     264      -74.2
   05/22/2016 22:40      56.6      56.0       61     43.3      0.00      8.37      74.0     0.35      1014.0     1       134         2       125        8.63     264      -74.4
   05/22/2016 22:30      57.1      56.6       60     43.2      0.00      8.37      74.2     0.35      1014.0     0        88         1        40        8.63     264      -75.6
   05/22/2016 22:20      57.5      57.2       59     43.1      0.00      8.37      74.0     0.35      1014.0     1       164         2       156        8.63     264      -76.1
   05/22/2016 22:10      58.0      57.2       58     43.0      0.00      8.37      74.2     0.35      1014.0     2       168         2       171        8.63     264      -77.3
   05/22/2016 22:00      58.5      57.6       58     43.4      0.00      8.37      74.1     0.35      1014.0     2       164         3       161        8.63     264      -77.7
   05/22/2016 21:50      58.0      57.5       58     43.2      0.00      8.37      74.2     0.35      1014.0     2       147         3       164        8.63     264      -78.5
   05/22/2016 21:40      58.8      58.0       56     42.7      0.00      8.37      74.0     0.35      1014.0     1       134         1       128        8.63     264      -79.7
   05/22/2016 21:30      60.3      59.0       53     42.5      0.00      8.37      74.3     0.35      1014.0     1       164         2       125        8.63     264      -81.0
   05/22/2016 21:20      61.0      60.5       51     42.8      0.00      8.37      74.0     0.35      1014.0     2       226         3       224        8.63     264      -82.7
   05/22/2016 21:10      61.1      60.9       51     42.9      0.00      8.37      73.9     0.35      1014.0     2       207         2       208        8.64     264      -84.5
   05/22/2016 21:00      61.3      61.1       51     43.0      0.00      8.37      74.1     0.35      1014.0     3       204         5       203        8.64     264      -85.6
   05/22/2016 20:50      61.5      61.3       51     43.2      0.00      8.37      73.8     0.35      1014.0     3       204         3       201        8.64     264      -86.6
   05/22/2016 20:40      61.8      61.5       51     43.5      0.00      8.37      74.0     0.35      1014.0     3       207         4       197        8.64     264      -87.4
   05/22/2016 20:30      62.1      61.8       51     43.7      0.00      8.37      73.6     0.35      1014.0     3       221         5       237        8.64     263      -88.1
   05/22/2016 20:20      62.4      62.1       51     43.9      0.00      8.37      73.8     0.35      1014.0     4       196         5       169        8.64     263      -89.1
   05/22/2016 20:10      63.0      62.6       50     44.1      0.00      8.37      73.9     0.35      1014.0     3       219         5       208        8.64     263      -89.5
   05/22/2016 20:00      63.5      63.0       50     44.0      0.00      8.37      74.2     0.35      1014.0     4       227         6       214        8.65     263      -88.6
   05/22/2016 19:50      64.2      63.5       48     43.9      0.00      8.37      73.7     0.35      1014.0     5       206         9       198        8.65     263      -86.4
   05/22/2016 19:40      64.7      64.3       47     44.0      0.00      8.37      73.5     0.35      1013.0     4       219         6       235        8.65     263      -83.3
   05/22/2016 19:30      66.0      64.9       45     43.8      0.00      8.37      73.5     0.35      1013.0     4       218         7       210        8.65     262      -72.2
   05/22/2016 19:20      66.5      65.9       43     43.3      0.00      8.37      73.8     0.35      1013.0     5       230         9       236        8.66     262      -58.5
   05/22/2016 19:10      66.9      66.4       41     42.2      0.00      8.37      73.7     0.35      1013.0     5       219         6       193        8.66     262      -40.6
   05/22/2016 19:00      68.3      67.1       37     40.5      0.00      8.37      73.6     0.35      1013.0     6       219         8       203        8.66     262      -21.1
   05/22/2016 18:50      68.8      68.1       33     38.2      0.00      8.37      73.5     0.35      1013.0     4       240         6       268        8.66     262        1.8
   05/22/2016 18:40      68.9      68.1       31     36.5      0.00      8.37      73.7     0.35      1013.0     6       229         8       229        8.67     262       23.1
   05/22/2016 18:30      69.3      68.9       30     36.8      0.00      8.37      73.3     0.35      1013.0     6       249         9       255        8.67     262       47.0
   05/22/2016 18:20      68.9      68.7       31     37.3      0.00      8.37      73.5     0.35      1013.0     6       222        10       203        8.67     262       71.6
   05/22/2016 18:10      69.9      69.2       32     38.5      0.00      8.37      73.4     0.35      1013.0     7       242        11       228        8.67     262       97.0
   05/22/2016 18:00      70.6      69.7       33     39.6      0.00      8.37      73.4     0.35      1013.0     7       240         9       261        8.67     263      124.0
   05/22/2016 17:50      70.9      70.6       33     40.3      0.00      8.37      73.3     0.35      1013.0     5       254         6       265        8.68     263      147.1
   05/22/2016 17:40      70.6      70.0       34     40.3      0.00      8.37      73.3     0.35      1013.0     6       229         8       270        8.68     263      170.1
   05/22/2016 17:30      71.2      70.5       33     40.2      0.00      8.37      73.3     0.34      1013.0     5       254         8       233        8.68     262      192.0
   05/22/2016 17:20      71.2      70.6       33     40.3      0.00      8.37      73.1     0.34      1013.0     6       242         8       199        8.68     263      219.7
   05/22/2016 17:10      71.5      70.1       33     40.5      0.00      8.37      73.1     0.34      1013.0     5       262         8       248        8.69     263      245.1
   05/22/2016 17:00      71.5      70.3       34     40.8      0.00      8.37      72.9     0.34      1013.0     6       228         8       230        8.69     263      267.9
   05/22/2016 16:50      71.3      70.6       34     40.8      0.00      8.37      72.8     0.34      1014.0     6       232         8       200        8.69     262      291.0
   05/22/2016 16:40      71.3      70.4       34     41.1      0.00      8.37      72.9     0.34      1014.0     6       249         8       220        8.70     263      313.5
   05/22/2016 16:30      71.2      70.3       34     41.2      0.00      8.37      72.9     0.34      1014.0     6       245        10       224        8.70     263      336.5
   05/22/2016 16:20      70.6      70.0       35     41.2      0.00      8.37      72.8     0.34      1014.0     6       246        11       236        8.70     263      357.2
   05/22/2016 16:10      71.3      70.3       34     41.4      0.00      8.37      72.7     0.34      1014.0     7       258        10       255        8.70     263      377.2
   05/22/2016 16:00      71.2      70.5       34     41.4      0.00      8.37      72.4     0.34      1014.0     8       274        10       275        8.71     263      397.3
   05/22/2016 15:50      71.5      70.8       34     41.5      0.00      8.37      72.6     0.34      1014.0     7       276        10       264        8.71     263      417.1
   05/22/2016 15:40      71.6      70.8       34     41.4      0.00      8.37      72.4     0.34      1014.0     9       244        15       246        8.71     263      434.1
   05/22/2016 15:30      71.9      70.5       35     42.3      0.00      8.37      72.3     0.34      1014.0     7       235        12       226        8.71     263      448.6
   05/22/2016 15:20      71.5      70.7       36     43.2      0.00      8.37      72.3     0.34      1014.0     7       222        11       239        8.72     263      463.1
   05/22/2016 15:10      71.7      70.5       37     43.5      0.00      8.37      72.3     0.34      1014.0     5       260         9       247        8.72     263      475.4
   05/22/2016 15:00      71.7      70.7       36     42.9      0.00      8.37      72.2     0.34      1014.0     5       239        10       244        8.72     263      489.1
   05/22/2016 14:50      71.9      70.6       36     42.9      0.00      8.37      72.2     0.34      1015.0     6       217         9       230        8.72     263      503.0
   05/22/2016 14:40      70.8      70.3       38     43.8      0.00      8.37      72.1     0.34      1015.0     5       209         8       225        8.73     263      517.9
   05/22/2016 14:30      71.2      70.0       39     44.7      0.00      8.37      71.9     0.34      1015.0     7       175        11       160        8.73     264      532.1
   05/22/2016 14:20      71.5      69.4       40     45.1      0.00      8.37      71.8     0.34      1015.0     7       146        13       112        8.73     264      546.1
   05/22/2016 14:10      70.5      69.0       42     45.4      0.00      8.37      71.8     0.34      1015.0     8       146        16       145        8.74     265      558.7
   05/22/2016 14:00      70.1      69.3       42     45.4      0.00      8.37      71.8     0.34      1015.0     8       134        12       127        8.75     264      568.9
   05/22/2016 13:50      70.6      69.2       41     45.1      0.00      8.37      71.8     0.34      1015.0     7       136        10       134        8.76     264      573.0
   05/22/2016 13:40      70.3      69.0       41     45.2      0.00      8.37      71.8     0.34      1015.0     9       150        15       143        8.76     264      582.5
   05/22/2016 13:30      70.1      69.3       42     45.8      0.00      8.37      71.6     0.34      1015.0     7       154        10       132        8.77     264      587.3
   05/22/2016 13:20      69.8      68.8       44     46.2      0.00      8.37      71.4     0.34      1015.0    10       141        12       147        8.77     264      589.6
   05/22/2016 13:10      70.8      69.9       43     46.6      0.00      8.37      71.4     0.34      1015.0     8       147        12       157        8.77     264      587.7
   05/22/2016 13:00      70.1      69.2       43     46.1      0.00      8.37      71.4     0.34      1015.0     9       165        12       185        8.77     264      603.5
   05/22/2016 12:50      71.2      69.5       42     46.4      0.00      8.37      71.5     0.34      1015.0     9       153        12       178        8.77     264      600.8
   05/22/2016 12:40      72.7      70.5       36     43.4      0.00      8.37      71.5     0.34      1015.0     7       146        11       147        8.77     264      586.4
   05/22/2016 12:30      72.6      71.5       30     39.2      0.00      8.37      71.3     0.34      1016.0     4        95         7        68        8.78     265      578.8
   05/22/2016 12:20      71.7      71.0       31     38.7      0.00      8.37      71.3     0.34      1016.0     2       233         6       256        8.78     265      576.5
   05/22/2016 12:10      72.4      70.4       30     38.8      0.00      8.37      71.6     0.34      1016.0     3       321         8       234        8.78     265      571.4
   05/22/2016 12:00      71.4      70.0       31     38.5      0.00      8.37      71.5     0.34      1016.0     3        82         7       124        8.78     265      566.6
   05/22/2016 11:50      70.7      69.8       32     38.7      0.00      8.37      71.4     0.34      1016.0     5       128         6       127        8.78     265      564.2
   05/22/2016 11:40      70.1      68.8       34     39.9      0.00      8.37      71.6     0.34      1016.0     4       199         6       163        8.78     265      556.6
   05/22/2016 11:30      69.6      69.0       35     40.3      0.00      8.37      71.4     0.34      1016.0     3       257         4       260        8.78     265      547.9
   05/22/2016 11:20      69.2      68.1       36     41.1      0.00      8.37      71.5     0.34      1017.0     3       287         4       278        8.78     266      539.5
   05/22/2016 11:10      68.3      67.2       38     41.4      0.00      8.37      71.5     0.34      1017.0     2       291         4       290        8.78     266      531.0
   05/22/2016 11:00      68.0      66.1       39     41.4      0.00      8.37      71.4     0.34      1017.0     3       234         6       247        8.78     266      525.0
   05/22/2016 10:50      66.7      66.0       40     41.3      0.00      8.37      71.5     0.34      1017.0     3       250         5       229        8.78     266      512.6
   05/22/2016 10:40      66.9      66.1       41     41.9      0.00      8.37      71.6     0.34      1017.0     4       300         7       277        8.79     267      499.2
   05/22/2016 10:30      66.3      65.0       40     41.1      0.00      8.37      71.6     0.34      1017.0     3       240         5       228        8.79     268      487.9
   05/22/2016 10:20      65.9      63.7       41     40.2      0.00      8.37      71.6     0.34      1017.0     3       221         4       269        8.79     267      474.6
   05/22/2016 10:10      64.2      63.4       44     41.7      0.00      8.37      71.5     0.34      1017.0     4       200         6       231        8.79     267      458.6
   05/22/2016 10:00      63.3      62.8       47     42.5      0.00      8.37      71.5     0.34      1018.0     2       343         3        12        8.79     267      440.4
   05/22/2016 09:50      62.8      62.1       48     42.6      0.00      8.37      71.7     0.34      1018.0     3         5         5       356        8.79     267      424.7
   05/22/2016 09:40      62.4      61.9       49     42.9      0.00      8.37      71.8     0.34      1018.0     3       307         4       307        8.79     267      407.4
   05/22/2016 09:30      62.4      61.6       52     44.2      0.00      8.37      71.7     0.34      1018.0     2       349         4       357        8.79     267      388.2
   05/22/2016 09:20      61.9      60.2       54     44.4      0.00      8.37      71.5     0.34      1018.0     2        22         4       321        8.80     267      372.1
   05/22/2016 09:10      60.3      59.5       56     44.1      0.00      8.37      72.0     0.34      1018.0     3       350         4       355        8.80     267      354.8
   05/22/2016 09:00      59.7      58.7       59     44.9      0.00      8.37      71.8     0.35      1018.0     3       331         4       337        8.80     267      343.4
   05/22/2016 08:50      58.5      56.9       63     45.2      0.00      8.37      71.6     0.35      1018.0     1       355         2        47        8.81     268      345.6
   05/22/2016 08:40      56.9      55.9       67     45.6      0.00      8.37      71.7     0.35      1018.0     2       330         3       330        8.81     268      109.8
   05/22/2016 08:30      56.0      55.3       69     45.5      0.00      8.37      72.2     0.35      1018.0     2       304         3       354        8.81     268      -35.3
   05/22/2016 08:20      55.4      54.7       70     45.4      0.00      8.37      72.0     0.35      1018.0     1       283         2       355        8.81     268      -32.2
   05/22/2016 08:10      54.8      54.5       71     45.5      0.00      8.37      72.1     0.35      1018.0     2       351         3       334        8.81     267      -21.8
   05/22/2016 08:00      54.6      53.9       71     45.1      0.00      8.37      71.6     0.35      1018.0     1        19         2        33        8.81     268       -5.3
   05/22/2016 07:50      54.0      53.1       71     44.3      0.00      8.37      72.0     0.35      1018.0     1       268         2       330        8.81     268       42.8
   05/22/2016 07:40      53.1      52.5       72     43.9      0.00      8.37      71.9     0.35      1018.0     2       314         3         0        8.81     268        6.2
   05/22/2016 07:30      52.7      52.1       73     43.9      0.00      8.37      72.1     0.35      1018.0     1       307         2       291        8.81     267        6.7
   05/22/2016 07:20      52.2      51.5       75     44.0      0.00      8.37      72.0     0.35      1018.0     2       282         2       259        8.81     267        7.8
   05/22/2016 07:10      51.5      50.7       78     44.4      0.00      8.37      72.4     0.35      1017.0     2       254         2       241        8.81     267       13.1
   05/22/2016 07:00      50.7      49.5       83     45.1      0.00      8.37      71.9     0.35      1018.0     2       262         3       260        8.81     268        8.8
   05/22/2016 06:50      49.4      48.4       90     45.9      0.00      8.37      72.0     0.35      1017.0     1       316         2       245        8.81     267        4.2
   05/22/2016 06:40      48.3      47.3       92     45.6      0.00      8.37      72.4     0.35      1017.0     1       194         2       136        8.81     268       -0.1
   05/22/2016 06:30      47.3      46.6       93     45.1      0.00      8.37      72.5     0.35      1017.0     1       180         1       148        8.81     267       -5.6
   05/22/2016 06:20      46.8      46.3       93     44.7      0.00      8.37      72.4     0.35      1017.0     1       162         2       166        8.81     267       -9.9
   05/22/2016 06:10      46.5      45.9       94     44.5      0.00      8.37      72.3     0.35      1017.0     1       186         1       195        8.81     267      -12.4
   05/22/2016 06:00      46.2      45.9       93     44.1      0.00      8.37      72.7     0.35      1017.0     1       114         2       138        8.81     267      -17.9
   05/22/2016 05:50      46.3      46.0       93     44.3      0.00      8.37      73.0     0.35      1017.0     1       137         2       143        8.81     267      -21.0
   05/22/2016 05:40      46.6      46.3       94     44.7      0.00      8.37      72.5     0.35      1017.0     1       180         2       198        8.81     267      -22.9
   05/22/2016 05:30      46.6      46.5       93     44.7      0.00      8.37      72.7     0.35      1017.0     1       168         1       205        8.81     267      -23.9
   05/22/2016 05:20      46.7      46.2       93     44.4      0.00      8.37      72.2     0.35      1017.0     1       153         1       150        8.81     267      -25.4
   05/22/2016 05:10      46.7      46.5       93     44.6      0.00      8.37      72.8     0.35      1017.0     1       159         2       138        8.81     267      -26.1
   05/22/2016 05:00      46.9      46.6       92     44.7      0.00      8.37      72.6     0.35      1017.0     1       165         1       202        8.81     267      -26.6
   05/22/2016 04:50      47.1      46.6       92     44.4      0.00      8.37      72.6     0.35      1017.0     0       119         1        96        8.81     267      -27.9
   05/22/2016 04:40      46.8      46.4       92     44.4      0.00      8.37      73.0     0.35      1017.0     2       126         2       140        8.81     267      -29.1
   05/22/2016 04:30      47.3      46.8       91     44.6      0.00      8.37      73.0     0.35      1017.0     1       177         2       195        8.81     267      -29.5
   05/22/2016 04:20      47.4      47.3       91     44.8      0.00      8.37      72.8     0.35      1017.0     1       153         1       151        8.81     267      -30.4
   05/22/2016 04:10      47.6      47.3       92     45.1      0.00      8.37      73.0     0.35      1017.0     1       127         1       126        8.81     267      -31.6
   05/22/2016 04:00      47.6      47.3       91     44.8      0.00      8.37      72.9     0.35      1017.0     1       145         2       164        8.81     267      -33.3
   05/22/2016 03:50      48.0      47.8       91     45.4      0.00      8.37      72.8     0.35      1017.0     1       141         2       140        8.81     267      -33.8
   05/22/2016 03:40      48.2      47.9       91     45.6      0.00      8.37      73.0     0.35      1017.0     1       118         1       134        8.81     267      -35.7
   05/22/2016 03:30      48.0      47.4       90     45.1      0.00      8.37      72.7     0.35      1017.0     1       204         2       145        8.81     266      -39.3
   05/22/2016 03:20      48.1      47.8       91     45.3      0.00      8.37      73.2     0.35      1017.0     2       138         3       145        8.81     267      -39.4
   05/22/2016 03:10      48.4      48.0       90     45.5      0.00      8.37      73.1     0.35      1017.0     1       179         1       190        8.81     267      -38.1
   05/22/2016 03:00      48.5      48.3       90     45.6      0.00      8.37      73.3     0.35      1017.0     1       162         1       164        8.81     267      -37.3
   05/22/2016 02:50      48.8      48.3       90     45.8      0.00      8.37      73.0     0.35      1017.0     1       146         2       131        8.81     266      -40.3
   05/22/2016 02:40      49.1      48.7       90     46.1      0.00      8.37      73.1     0.35      1017.0     1       152         1       139        8.81     266      -45.1
   05/22/2016 02:30      49.4      49.1       90     46.3      0.00      8.37      73.1     0.35      1017.0     0       171         1       142        8.81     266      -48.5
   05/22/2016 02:20      49.5      49.3       89     46.2      0.00      8.37      73.4     0.35      1017.0     1       178         1       153        8.81     266      -52.2
   05/22/2016 02:10      49.4      49.3       89     46.2      0.00      8.37      73.5     0.35      1017.0     0       182         1       198        8.81     266      -56.4
   05/22/2016 02:00      49.7      49.5       88     46.2      0.00      8.37      73.5     0.35      1017.0     1       180         1       204        8.81     266      -60.5
   05/22/2016 01:50      50.1      49.4       86     45.7      0.00      8.37      73.6     0.35      1017.0     2       168         2       164        8.81     266      -63.3
   05/22/2016 01:40      50.4      49.9       86     46.1      0.00      8.37      73.5     0.35      1017.0     3       167         4       170        8.81     266      -63.4
   05/22/2016 01:30      50.9      50.0       84     45.8      0.00      8.37      73.5     0.35      1017.0     2       137         3       164        8.81     266      -64.9
   05/22/2016 01:20      51.0      50.7       85     46.3      0.00      8.37      73.6     0.35      1017.0     1       340         2       324        8.81     266      -63.9
   05/22/2016 01:10      51.5      50.9       83     46.3      0.00      8.37      73.2     0.35      1017.0     1       331         1       320        8.81     266      -65.0
   05/22/2016 01:00      51.9      51.4       82     46.4      0.00      8.37      73.5     0.35      1017.0     1         6         1       334        8.81     266      -67.1
   05/22/2016 00:50      51.9      51.5       82     46.4      0.00      8.37      73.7     0.35      1017.0     1        45         2        36        8.81     266      -68.3
   05/22/2016 00:40      52.3      52.1       81     46.7      0.00      8.37      73.5     0.35      1017.0     1        75         2       170        8.81     266      -69.5
   05/22/2016 00:30      52.5      52.3       81     46.8      0.00      8.37      73.7     0.35      1017.0     2       167         4       212        8.81     266      -69.7
   05/22/2016 00:20      52.5      52.0       81     46.7      0.00      8.37      73.6     0.35      1017.0     2       208         2       211        8.81     266      -69.8
   05/22/2016 00:10      53.1      52.5       80     46.7      0.00      8.37      73.9     0.35      1017.0     1       138         2       194        8.81     265      -70.8
   05/22/2016 00:00      53.2      53.1       80     47.0      0.00      8.37      73.5     0.35      1017.0     2       218         3       217        8.81     265      -71.6
   05/21/2016 23:50      53.2      53.1       79     47.0      0.00      8.37      73.9     0.35      1017.0     2       189         3       196        8.81     265      -72.2
   05/21/2016 23:40      53.4      53.1       79     46.8      0.00      8.37      73.6     0.35      1017.0     3       191         4       223        8.81     265      -72.5
   05/21/2016 23:30      53.7      53.4       78     46.9      0.00      8.37      73.7     0.35      1017.0     3       203         4       195        8.81     265      -73.1
   05/21/2016 23:20      53.8      53.5       77     46.7      0.00      8.37      73.7     0.35      1017.0     2       216         4       219        8.81     265      -73.4
   05/21/2016 23:10      53.9      53.5       76     46.5      0.00      8.37      73.7     0.35      1017.0     3       208         5       231        8.81     265      -74.0
   05/21/2016 23:00      54.1      54.0       75     46.5      0.00      8.37      73.8     0.35      1017.0     2       221         4       204        8.81     265      -74.4
   05/21/2016 22:50      54.3      54.1       75     46.4      0.00      8.37      73.7     0.35      1017.0     3       210         5       204        8.81     265      -74.5
   05/21/2016 22:40      54.6      54.2       74     46.3      0.00      8.37      73.8     0.35      1017.0     3       217         4       207        8.82     265      -75.0
   05/21/2016 22:30      54.7      54.5       73     46.2      0.00      8.37      73.9     0.35      1017.0     3       214         5       215        8.82     265      -75.1
   05/21/2016 22:20      54.9      54.6       73     46.0      0.00      8.37      73.8     0.35      1017.0     3       222         6       239        8.82     265      -75.8
   05/21/2016 22:10      55.1      54.8       71     46.0      0.00      8.37      73.9     0.35      1017.0     3       225         5       235        8.82     265      -76.1
   05/21/2016 22:00      55.2      55.1       71     45.8      0.00      8.37      73.6     0.35      1017.0     4       242         6       256        8.82     265      -76.2
   05/21/2016 21:50      55.4      55.1       70     45.8      0.00      8.37      73.8     0.35      1017.0     4       213         6       247        8.82     265      -76.4
   05/21/2016 21:40      55.4      55.2       70     45.7      0.00      8.37      73.8     0.35      1017.0     4       205         6       213        8.82     265      -76.8
   05/21/2016 21:30      55.6      55.3       70     45.7      0.00      8.37      73.8     0.35      1017.0     4       200         6       206        8.82     265      -77.4
   05/21/2016 21:20      56.0      55.5       68     45.2      0.00      8.37      73.9     0.35      1016.0     3       211         4       205        8.82     265      -78.1
   05/21/2016 21:10      56.5      56.0       64     44.4      0.00      8.37      73.8     0.35      1016.0     3       217         3       201        8.82     264      -78.7
   05/21/2016 21:00      56.6      56.5       62     43.6      0.00      8.37      73.7     0.35      1016.0     4       217         5       226        8.82     264      -79.2
   05/21/2016 20:50      57.1      56.9       60     43.2      0.00      8.37      73.4     0.35      1016.0     3       242         4       255        8.82     264      -80.2
   05/21/2016 20:40      58.1      57.3       57     42.8      0.00      8.37      73.8     0.35      1016.0     4       229         6       201        8.82     264      -80.9
   05/21/2016 20:30      58.4      58.1       55     42.1      0.00      8.37      73.7     0.35      1016.0     5       246         7       212        8.82     264      -81.4
   05/21/2016 20:20      58.7      58.6       54     42.1      0.00      8.37      73.9     0.35      1016.0     5       250         8       269        8.83     264      -82.1
   05/21/2016 20:10      58.9      58.7       54     42.3      0.00      8.37      73.6     0.35      1016.0     5       253         8       279        8.83     264      -82.1
   05/21/2016 20:00      58.9      58.6       54     42.4      0.00      8.37      73.6     0.35      1016.0     4       241         8       273        8.83     264      -80.7
   05/21/2016 19:50      59.3      58.9       53     42.2      0.00      8.37      73.8     0.35      1016.0     6       225         8       225        8.83     264      -77.5
   05/21/2016 19:40      60.2      59.4       51     41.7      0.00      8.37      73.7     0.35      1016.0     6       237         9       243        8.83     264      -73.3
   05/21/2016 19:30      61.1      60.4       49     41.3      0.00      8.37      73.5     0.35      1016.0     6       266        12       216        8.83     264      -65.4
   05/21/2016 19:20      61.6      61.0       47     40.6      0.00      8.37      73.6     0.35      1016.0     7       266        11       266        8.83     264      -50.9
   05/21/2016 19:10      61.7      61.3       45     39.9      0.00      8.37      73.6     0.35      1016.0     7       244        10       259        8.84     264      -33.9
   05/21/2016 19:00      62.1      61.3       45     39.9      0.00      8.37      73.8     0.35      1015.0     7       246        10       228        8.84     264      -51.1
   05/21/2016 18:50      63.1      62.4       45     41.1      0.00      8.37      73.4     0.35      1015.0     7       248         9       247        8.84     264      -13.4
   05/21/2016 18:40      64.5      63.3       44     41.6      0.00      8.37      73.6     0.35      1015.0     6       260         9       269        8.84     264       80.6
   05/21/2016 18:30      64.8      64.1       42     41.0      0.00      8.37      73.5     0.35      1015.0     6       242        12       256        8.84     264      135.5
   05/21/2016 18:20      64.4      64.1       41     40.1      0.00      8.37      73.6     0.35      1015.0     3       210         5       160        8.85     264       39.9
   05/21/2016 18:10      64.5      64.1       40     39.6      0.00      8.37      73.6     0.35      1015.0     4       179         6       158        8.85     264       27.0
   05/21/2016 18:00      64.5      64.2       39     38.7      0.00      8.37      73.3     0.35      1015.0     2       169         4       185        8.85     264       31.7
   05/21/2016 17:50      64.3      64.0       39     38.7      0.00      8.37      73.3     0.35      1015.0     3       165         5       163        8.85     264       45.8
   05/21/2016 17:40      64.2      63.9       39     38.6      0.00      8.37      73.3     0.35      1015.0     4       133         6       130        8.85     264       61.7
   05/21/2016 17:30      64.2      63.5       40     38.9      0.00      8.37      73.5     0.35      1015.0     3       149         6       135        8.86     264       53.2
   05/21/2016 17:20      64.1      63.7       40     38.8      0.00      8.37      73.2     0.35      1015.0     4       149         6       175        8.86     264       13.3
   05/21/2016 17:10      65.1      64.2       37     38.1      0.00      8.37      73.4     0.35      1015.0     4       166         7       192        8.86     264       38.7
   05/21/2016 17:00      65.8      65.1       37     38.3      0.00      8.37      73.0     0.35      1015.0     4       174         7       142        8.86     264      163.2
   05/21/2016 16:50      65.5      64.9       38     39.0      0.00      8.37      73.2     0.35      1015.0     5       181         7       149        8.87     264      190.4
   05/21/2016 16:40      65.4      64.5       40     39.9      0.00      8.37      73.0     0.35      1015.0     4       208         6       208        8.87     264      191.1
   05/21/2016 16:30      65.9      65.2       40     40.3      0.00      8.37      73.0     0.35      1015.0     5       169         8       160        8.87     264      254.6
   05/21/2016 16:20      65.3      64.0       42     40.6      0.00      8.37      73.0     0.35      1015.0     5       214         8       216        8.88     264      278.3
   05/21/2016 16:10      64.8      63.7       42     40.7      0.00      8.37      73.1     0.35      1015.0     4       202         9       210        8.88     264       88.8
   05/21/2016 16:00      64.6      63.4       42     40.6      0.00      8.37      72.9     0.35      1015.0     5       174         9       146        8.89     264       87.1
   05/21/2016 15:50      65.7      64.7       41     40.9      0.00      8.37      72.9     0.35      1015.0     5       136        10       143        8.89     264      122.7
   05/21/2016 15:40      65.7      64.9       41     40.8      0.00      8.37      72.8     0.35      1015.0     5       183         9       152        8.90     264      235.8
   05/21/2016 15:30      66.2      64.8       41     41.2      0.00      8.37      73.0     0.35      1015.0     6       147        10       138        8.90     264      369.5
   05/21/2016 15:20      64.8      64.2       42     41.1      0.00      8.37      73.0     0.35      1015.0     7       186         9       201        8.90     264      254.3
   05/21/2016 15:10      66.1      64.2       42     41.4      0.00      8.37      73.0     0.35      1015.0     6       144        10       181        8.90     264      219.6
   05/21/2016 15:00      66.1      64.9       43     42.1      0.00      8.37      72.9     0.35      1015.0     8       140        11       125        8.91     264      536.5
   05/21/2016 14:50      66.3      65.0       43     42.4      0.00      8.37      72.5     0.35      1015.0     5       150         9       130        8.91     264      298.1
   05/21/2016 14:40      66.3      64.9       43     42.3      0.00      8.37      73.0     0.35      1015.0     6       156         7       152        8.92     264      530.4
   05/21/2016 14:30      64.8      64.3       44     42.4      0.00      8.37      72.8     0.35      1015.0     7       159        11       164        8.92     264      301.2
   05/21/2016 14:20      66.2      64.3       44     42.5      0.00      8.37      72.8     0.35      1015.0     6       165         9       170        8.92     264      189.2
   05/21/2016 14:10      66.8      66.3       42     42.8      0.00      8.37      72.9     0.35      1015.0     4       142         9       151        8.92     264      243.8
   05/21/2016 14:00      66.7      65.0       42     41.9      0.00      8.37      72.7     0.35      1015.0     5       153         9       116        8.92     264      442.6
   05/21/2016 13:50      65.3      64.4       44     42.4      0.00      8.37      72.6     0.35      1015.0     6       128         9       106        8.93     265      319.8
   05/21/2016 13:40      65.0      64.1       45     42.7      0.00      8.37      72.8     0.35      1015.0     4       133         7       127        8.93     264      192.2
   05/21/2016 13:30      65.5      64.1       44     42.5      0.00      8.37      72.5     0.34      1015.0     7       154        11       162        8.93     264      182.3
   05/21/2016 13:20      66.4      65.4       43     43.0      0.00      8.37      72.5     0.34      1015.0     6       161         9       166        8.93     264      525.0
   05/21/2016 13:10      65.3      64.2       45     43.0      0.00      8.37      72.3     0.34      1015.0     7       173        14       134        8.93     265      716.3
   05/21/2016 13:00      64.4      63.2       47     43.0      0.00      8.37      72.6     0.34      1015.0     6       160         8       144        8.93     265      549.6
   05/21/2016 12:50      64.7      63.0       47     43.3      0.00      8.37      72.3     0.34      1015.0     7       165        10       193        8.94     264      241.2
   05/21/2016 12:40      65.1      63.7       46     43.5      0.00      8.37      72.5     0.34      1015.0     9       170        13       194        8.94     265      780.9
   05/21/2016 12:30      65.1      63.5       47     43.5      0.00      8.37      72.4     0.35      1015.0     9       154        12       151        8.94     265      367.4
   05/21/2016 12:20      65.7      64.3       45     43.4      0.00      8.37      72.6     0.35      1015.0     6       128         9       128        8.94     266      700.9
   05/21/2016 12:10      65.2      64.1       45     42.9      0.00      8.37      72.7     0.35      1015.0     8       123        11       127        8.94     266      775.8
   05/21/2016 12:00      65.1      62.4       46     42.2      0.00      8.37      72.7     0.35      1015.0     4       157         6       152        8.95     266      435.7
   05/21/2016 11:50      62.6      62.3       47     42.0      0.00      8.37      72.5     0.35      1015.0     6       116        10       136        8.95     266      200.8
   05/21/2016 11:40      63.8      62.8       45     41.7      0.00      8.37      72.5     0.35      1015.0     6       142         9       170        8.95     266      363.1
   05/21/2016 11:30      63.4      62.3       46     41.8      0.00      8.37      72.6     0.35      1015.0     3       158         7       115        8.95     267      395.6
   05/21/2016 11:20      63.1      62.3       44     40.5      0.00      8.37      72.3     0.35      1015.0     4       148         5       134        8.95     266      138.1
   05/21/2016 11:10      63.6      62.3       45     41.2      0.00      8.37      72.4     0.35      1015.0     5       104         8        75        8.95     267      133.8
   05/21/2016 11:00      63.7      62.0       44     41.0      0.00      8.37      72.5     0.35      1015.0     2        84         3       137        8.95     267      246.1
   05/21/2016 10:50      62.5      62.3       44     40.4      0.00      8.37      72.4     0.35      1015.0     2       118         4       154        8.95     266      142.8
   05/21/2016 10:40      62.4      61.6       45     40.5      0.00      8.37      72.7     0.35      1015.0     4       106         8       118        8.95     267      329.1
   05/21/2016 10:30      62.9      61.6       44     40.0      0.00      8.37      72.6     0.35      1015.0     4       119         5       120        8.95     266      144.4
   05/21/2016 10:20      63.2      62.6       43     40.1      0.00      8.37      72.8     0.35      1015.0     2        54         5       141        8.95     267      169.9
   05/21/2016 10:10      64.2      62.4       44     40.9      0.00      8.37      72.6     0.34      1015.0     4       162         6       193        8.95     267      449.2
   05/21/2016 10:00      64.0      62.4       46     41.7      0.00      8.37      72.7     0.35      1015.0     4       106         6       142        8.96     267      560.1
   05/21/2016 09:50      63.0      61.9       46     41.4      0.00      8.37      72.6     0.35      1015.0     5       105         7       144        8.96     267      549.4
   05/21/2016 09:40      62.6      61.1       48     42.0      0.00      8.37      73.0     0.35      1015.0     3       106         4       145        8.96     267      526.0
   05/21/2016 09:30      61.6      61.2       51     43.1      0.00      8.37      72.8     0.35      1015.0     4        97         6       133        8.96     267      471.5
   05/21/2016 09:20      61.7      60.9       52     43.8      0.00      8.37      73.0     0.35      1015.0     4        46         5        64        8.97     267      432.0
   05/21/2016 09:10      60.9      59.0       55     43.9      0.00      8.37      72.8     0.35      1015.0     3        69         6        65        8.97     267      417.2
   05/21/2016 09:00      60.2      59.2       57     44.4      0.00      8.37      73.1     0.35      1015.0     3        33         5        82        8.97     268      247.2
   05/21/2016 08:50      59.9      57.9       59     44.7      0.00      8.37      73.0     0.35      1015.0     4        31         6        90        8.97     268      389.5
   05/21/2016 08:40      58.0      56.8       63     44.8      0.00      8.37      72.8     0.35      1015.0     2        58         4        75        8.98     268      118.1
   05/21/2016 08:30      56.7      55.9       66     45.3      0.00      8.37      72.9     0.35      1015.0     3        36         4        36        8.98     267      -15.4
   05/21/2016 08:20      56.2      56.0       67     45.3      0.00      8.37      73.0     0.35      1015.0     3        82         4        25        8.98     267      -18.1
   05/21/2016 08:10      56.0      55.3       68     45.4      0.00      8.37      73.1     0.35      1015.0     2        86         5        88        8.98     268      -17.7
   05/21/2016 08:00      55.5      54.8       69     45.2      0.00      8.37      73.0     0.35      1015.0     2        42         4        88        8.98     268      -25.4
   05/21/2016 07:50      55.1      54.5       72     45.8      0.00      8.37      73.0     0.35      1015.0     3       113         5       133        8.98     268        2.2
   05/21/2016 07:40      54.7      54.4       73     46.1      0.00      8.37      73.7     0.35      1015.0     3       113         4       132        8.98     268      -27.4
   05/21/2016 07:30      54.4      53.5       77     46.7      0.00      8.37      73.1     0.35      1014.0     2       109         4       145        8.98     268      -31.5
   05/21/2016 07:20      53.7      53.1       80     47.2      0.00      8.37      73.1     0.35      1014.0     3       123         4       136        8.98     268      -34.7
   05/21/2016 07:10      53.3      52.4       81     47.1      0.00      8.37      73.0     0.35      1014.0     2       116         2       136        8.98     268      -26.0
   05/21/2016 07:00      52.4      51.4       83     47.1      0.00      8.37      73.5     0.35      1014.0     2       136         3       128        8.98     268      -25.0
   05/21/2016 06:50      51.4      50.2       87     46.9      0.00      8.37      73.5     0.35      1014.0     2       144         2       145        8.98     268      -27.6
   05/21/2016 06:40      50.3      49.8       89     46.7      0.00      8.37      73.3     0.35      1014.0     1       144         2       151        8.98     268      -29.8
   05/21/2016 06:30      49.9      49.4       89     46.6      0.00      8.37      73.5     0.35      1014.0     1       169         1       171        8.98     268      -38.8
   05/21/2016 06:20      49.8      49.4       88     46.2      0.00      8.37      73.5     0.35      1014.0     2       167         2       161        8.98     268      -40.8
   05/21/2016 06:10      50.0      49.6       89     46.6      0.00      8.37      73.7     0.35      1014.0     2       142         3       142        8.98     268      -43.6
   05/21/2016 06:00      49.9      49.5       88     46.4      0.00      8.37      73.7     0.35      1014.0     1       139         2       144        8.98     268      -47.0
   05/21/2016 05:50      50.6      50.1       88     47.0      0.00      8.37      73.5     0.35      1014.0     1       162         2       143        8.98     268      -53.2
   05/21/2016 05:40      50.8      50.6       87     47.0      0.00      8.37      73.5     0.35      1014.0     1       159         1       148        8.98     268      -52.4
   05/21/2016 05:30      50.7      50.3       87     46.8      0.00      8.37      73.5     0.35      1014.0     1       176         2       165        8.98     268      -36.8
   05/21/2016 05:20      50.5      50.2       88     46.7      0.00      8.37      74.0     0.35      1014.0     1       153         1       154        8.98     268      -28.4
   05/21/2016 05:10      50.3      49.9       88     46.6      0.00      8.37      73.7     0.35      1013.0     1       107         1       111        8.99     268      -23.1
   05/21/2016 05:00      50.1      49.7       89     46.7      0.00      8.37      73.7     0.35      1013.0     1        99         1        94        8.98     267      -23.8
   05/21/2016 04:50      49.9      49.7       90     46.9      0.00      8.37      73.8     0.35      1013.0     1       197         1       231        8.98     268      -39.7
   05/21/2016 04:40      50.1      49.7       88     46.6      0.00      8.37      73.9     0.35      1013.0     1       154         1       167        8.98     268      -57.9
   05/21/2016 04:30      50.6      50.2       88     47.1      0.00      8.37      74.0     0.35      1013.0     1       152         2       151        8.98     267      -62.5
   05/21/2016 04:20      50.7      50.5       88     47.1      0.00      8.37      74.0     0.35      1013.0     1       124         2       145        8.98     267      -67.0
   05/21/2016 04:10      51.8      50.7       85     46.8      0.00      8.37      73.7     0.35      1013.0     1       114         2       102        8.99     267      -70.2
   05/21/2016 04:00      51.9      51.7       85     47.5      0.00      8.37      74.0     0.35      1013.0     1        87         2       105        8.99     267      -64.9
   05/21/2016 03:50      52.0      51.7       85     47.3      0.00      8.37      73.7     0.35      1013.0     1       124         2       140        8.99     267      -64.4
   05/21/2016 03:40      52.3      52.0       85     47.8      0.00      8.37      73.8     0.35      1013.0     2       152         3       150        8.99     267      -56.1
   05/21/2016 03:30      52.4      52.2       84     47.5      0.00      8.37      74.0     0.35      1013.0     1       141         2       124        8.99     267      -56.4
   05/21/2016 03:20      52.5      52.2       83     47.5      0.00      8.37      74.2     0.35      1013.0     1       155         3       153        8.99     267      -50.9
   05/21/2016 03:10      52.3      51.7       83     47.1      0.00      8.37      74.0     0.35      1013.0     2       148         3       148        8.99     267      -45.0
   05/21/2016 03:00      51.9      51.4       82     46.5      0.00      8.37      74.0     0.35      1013.0     2       148         3       154        8.99     267      -38.3
   05/21/2016 02:50      51.4      50.8       84     46.3      0.00      8.37      74.2     0.35      1013.0     2       162         3       153        8.99     267      -33.6
   05/21/2016 02:40      51.1      50.6       83     46.1      0.00      8.37      73.9     0.35      1013.0     2       150         2       139        8.99     267      -63.7
   05/21/2016 02:30      51.1      50.8       81     45.5      0.00      8.37      74.5     0.35      1013.0     2       141         2       132        8.99     267      -62.6
   05/21/2016 02:20      51.7      51.2       79     45.2      0.00      8.37      74.2     0.35      1013.0     2       137         2       136        8.99     267      -68.0
   05/21/2016 02:10      52.1      51.8       78     45.3      0.00      8.37      74.4     0.35      1013.0     1       175         2       170        8.99     267      -67.7
   05/21/2016 02:00      52.1      51.7       78     45.3      0.00      8.37      74.3     0.35      1013.0     1       139         1       138        8.99     266      -61.0
   05/21/2016 01:50      52.6      52.1       76     45.0      0.00      8.37      74.5     0.35      1013.0     1       138         1       125        8.99     266      -71.7
   05/21/2016 01:40      53.4      52.6       75     45.2      0.00      8.37      74.2     0.35      1013.0     1       153         1       130        8.99     266      -70.4
   05/21/2016 01:30      53.7      53.4       73     45.1      0.00      8.37      74.5     0.35      1013.0     0       128         1       149        8.99     266      -62.0
   05/21/2016 01:20      53.9      53.6       73     45.3      0.00      8.37      74.6     0.35      1013.0     1       187         1       194        8.99     266      -48.3
   05/21/2016 01:10      53.8      53.6       72     45.0      0.00      8.37      74.5     0.35      1013.0     1       155         1       185        8.99     266      -42.7
   05/21/2016 01:00      54.0      53.7       73     45.4      0.00      8.37      74.2     0.35      1014.0     1       162         2       150        8.99     266      -46.6
   05/21/2016 00:50      54.2      53.8       72     45.4      0.00      8.37      74.2     0.35      1014.0     1       159         2       172        8.99     266      -50.4
   05/21/2016 00:40      54.5      54.3       72     45.4      0.00      8.37      74.6     0.35      1014.0     1        99         2       100        8.99     266      -52.0
   05/21/2016 00:30      54.6      54.4       72     45.6      0.00      8.37      74.7     0.35      1014.0     2       144         3       134        8.99     266      -56.7
   05/21/2016 00:20      54.8      54.5       71     45.4      0.00      8.37      74.6     0.35      1014.0     2       162         3       167        8.99     266      -59.5
   05/21/2016 00:10      55.0      54.8       70     45.3      0.00      8.37      74.7     0.35      1014.0     2       196         2       202        8.99     266      -49.6
   05/21/2016 00:00      55.2      54.9       70     45.4      0.00      8.37      74.6     0.35      1014.0     2       215         2       228        9.00     265      -42.4
   05/20/2016 23:50      55.2      55.0       70     45.4      0.00      8.37      74.6     0.35      1014.0     2       230         3       243        9.00     266      -38.9
   05/20/2016 23:40      55.3      55.1       70     45.5      0.00      8.37      74.7     0.35      1014.0     2       229         3       225        9.00     265      -42.5
   05/20/2016 23:30      55.5      55.0       71     45.8      0.00      8.37      74.3     0.35      1014.0     3       237         4       237        9.00     265      -43.5
   05/20/2016 23:20      55.2      55.0       70     45.6      0.00      8.37      74.6     0.35      1014.0     2       234         3       227        9.00     265      -48.3
   05/20/2016 23:10      55.4      55.1       72     46.5      0.00      8.37      74.7     0.35      1014.0     2       255         3       229        9.00     266      -59.4
   05/20/2016 23:00      55.5      55.2       69     45.3      0.00      8.37      74.6     0.35      1014.0     2       225         3       203        9.00     265      -62.2
   05/20/2016 22:50      55.5      55.4       68     45.2      0.00      8.37      74.8     0.35      1014.0     3       241         4       241        9.00     265      -63.3
   05/20/2016 22:40      55.5      55.3       69     45.5      0.00      8.37      74.8     0.35      1013.0     2       275         3       307        9.00     265      -65.8
   05/20/2016 22:30      55.5      55.3       68     45.2      0.00      8.37      74.9     0.35      1013.0     1       244         2       217        9.00     265      -64.5
   05/20/2016 22:20      55.5      55.4       68     45.1      0.00      8.37      74.8     0.35      1013.0     2       208         3       191        9.00     265      -67.8
   05/20/2016 22:10      55.7      55.4       68     45.0      0.00      8.37      74.8     0.35      1013.0     3       230         3       231        9.01     265      -74.4
   05/20/2016 22:00      56.4      55.8       66     44.9      0.00      8.37      74.8     0.35      1013.0     3       219         5       243        9.01     265      -78.5
   05/20/2016 21:50      57.4      56.6       63     44.5      0.00      8.37      74.8     0.35      1013.0     3       236         6       250        9.01     265      -79.5
   05/20/2016 21:40      57.6      57.4       60     43.7      0.00      8.37      74.8     0.35      1013.0     2       332         5       333        9.01     265      -81.3
   05/20/2016 21:30      57.8      57.5       58     43.2      0.00      8.37      74.7     0.35      1013.0     2       329         3        16        9.01     265      -82.4
   05/20/2016 21:20      58.1      57.8       58     43.2      0.00      8.37      74.7     0.35      1012.0     3       309         6       296        9.01     265      -82.6
   05/20/2016 21:10      58.5      58.1       57     43.3      0.00      8.37      74.8     0.35      1012.0     3       304         5       342        9.01     265      -82.6
   05/20/2016 21:00      58.8      58.5       57     43.4      0.00      8.37      74.5     0.35      1012.0     3       295         6       248        9.01     265      -83.0
   05/20/2016 20:50      58.8      58.5       58     43.8      0.00      8.37      74.7     0.35      1012.0     3       279         5       323        9.01     265      -81.5
   05/20/2016 20:40      58.7      58.1       59     44.1      0.00      8.37      74.8     0.35      1012.0     3       234         4       262        9.01     265      -76.5
   05/20/2016 20:30      58.5      58.1       59     44.2      0.00      8.37      74.5     0.35      1012.0     3       180         5       200        9.02     265      -70.5
   05/20/2016 20:20      58.5      58.3       59     44.0      0.00      8.37      74.9     0.35      1012.0     3       186         5       204        9.02     265      -61.2
   05/20/2016 20:10      58.7      58.4       57     43.5      0.00      8.37      74.7     0.35      1012.0     3       168         3       178        9.02     265      -67.1
   05/20/2016 20:00      58.8      58.5       57     43.4      0.00      8.37      75.0     0.35      1011.0     4       168         6       161        9.02     264      -71.3
   05/20/2016 19:50      59.1      58.7       56     43.0      0.00      8.37      74.5     0.35      1011.0     5       161         8       160        9.02     264      -57.5
   05/20/2016 19:40      59.9      59.2       55     43.3      0.00      8.37      74.6     0.35      1011.0     3       179         5       195        9.02     264      -54.7
   05/20/2016 19:30      60.5      60.0       53     42.8      0.00      8.37      74.5     0.35      1011.0     4       152         6       144        9.02     264      -61.4
   05/20/2016 19:20      61.2      60.5       51     42.8      0.00      8.37      74.7     0.35      1011.0     5       151         7       150        9.02     264      -53.2
   05/20/2016 19:10      61.5      61.2       51     43.1      0.00      8.37      74.7     0.35      1011.0     5       155         8       141        9.02     264      -37.6
   05/20/2016 19:00      61.8      61.7       50     43.1      0.00      8.37      74.6     0.35      1011.0     5       164         7       156        9.02     264      -21.9
   05/20/2016 18:50      61.9      61.5       50     42.8      0.00      8.37      74.7     0.35      1011.0     6       154         8       165        9.03     264      -45.4
   05/20/2016 18:40      62.3      61.7       49     42.4      0.00      8.37      74.4     0.35      1011.0     6       161         7       155        9.03     264      -33.0
   05/20/2016 18:30      62.9      61.9       48     42.5      0.00      8.37      74.6     0.35      1010.0     6       174         8       183        9.03     264       14.1
   05/20/2016 18:20      63.7      63.2       46     42.5      0.00      8.37      74.5     0.35      1010.0     6       168         8       163        9.03     264       85.2
   05/20/2016 18:10      64.3      63.0       45     42.1      0.00      8.37      74.4     0.35      1010.0     6       168         9       183        9.03     264      112.1
   05/20/2016 18:00      65.0      64.0       44     42.2      0.00      8.37      74.5     0.35      1010.0     6       160        10       158        9.04     264      129.6
   05/20/2016 17:50      65.4      64.4       45     43.1      0.00      8.37      74.7     0.35      1010.0     6       169         8       186        9.04     264      144.2
   05/20/2016 17:40      65.4      64.2       46     43.4      0.00      8.37      74.5     0.35      1010.0     5       152         9       169        9.04     264      222.4
   05/20/2016 17:30      65.4      64.3       45     43.2      0.00      8.37      74.4     0.35      1010.0     6       123         8       140        9.04     264       96.7
   05/20/2016 17:20      65.7      64.8       45     43.4      0.00      8.37      74.5     0.35      1010.0     7       148         8       146        9.04     264      218.8
   05/20/2016 17:10      65.8      64.9       45     43.6      0.00      8.37      74.4     0.35      1010.0     6       158         9       196        9.05     264      271.5
   05/20/2016 17:00      66.2      65.5       44     43.7      0.00      8.37      74.3     0.35      1010.0     6       161         8       167        9.05     264      316.3
   05/20/2016 16:50      65.5      64.5       46     43.7      0.00      8.37      74.3     0.35      1010.0     6       140         9       123        9.05     264      319.2
   05/20/2016 16:40      65.8      64.6       45     43.6      0.00      8.37      74.3     0.35      1010.0     7       168         9       176        9.06     264      232.8
   05/20/2016 16:30      66.0      65.0       46     44.3      0.00      8.37      74.1     0.35      1010.0     7       136        12       135        9.06     264      328.2
   05/20/2016 16:20      65.9      65.3       47     44.6      0.00      8.37      74.2     0.35      1010.0     7       149        10       154        9.07     264      332.3
   05/20/2016 16:10      65.8      65.1       47     44.7      0.00      8.37      74.1     0.35      1010.0     8       166        14       155        9.08     264      368.9
   05/20/2016 16:00      66.0      65.0       48     45.1      0.00      8.37      74.5     0.35      1010.0     8       169        11       130        9.08     264      423.3
   05/20/2016 15:50      66.2      65.3       47     45.1      0.00      8.37      74.1     0.35      1010.0     7       172        10       171        9.09     265      439.3
   05/20/2016 15:40      66.4      65.5       47     45.4      0.00      8.37      74.2     0.35      1010.0     7       165        12       154        9.09     269      471.3
   05/20/2016 15:30      66.5      65.3       48     45.8      0.00      8.37      74.0     0.35      1010.0     7       175        11       176        9.09     269      399.9
   05/20/2016 15:20      66.4      65.8       48     46.2      0.00      8.37      74.1     0.35      1010.0     8       154        10       155        9.09     268      437.9
   05/20/2016 15:10      66.0      65.2       49     46.1      0.00      8.37      74.1     0.35      1010.0     7       163        12       175        9.10     267      471.1
   05/20/2016 15:00      66.7      66.0       49     46.5      0.00      8.37      73.7     0.35      1010.0     6       136        10       189        9.10     266      247.9
   05/20/2016 14:50      66.6      66.2       48     46.2      0.00      8.37      73.9     0.35      1011.0     7       110        10       125        9.10     265      289.8
   05/20/2016 14:40      67.4      66.4       47     46.2      0.00      8.37      73.9     0.35      1011.0     5       118         9       127        9.10     267      386.4
   05/20/2016 14:30      68.6      67.2       46     46.6      0.00      8.37      74.0     0.35      1011.0     5       102         7        77        9.11     265      456.6
   05/20/2016 14:20      68.6      66.8       48     46.9      0.00      8.37      73.7     0.35      1011.0     6       135        10       150        9.11     266      548.3
   05/20/2016 14:10      67.2      66.4       49     46.9      0.00      8.37      73.8     0.35      1011.0     6       149        11       139        9.11     267      310.4
   05/20/2016 14:00      67.4      65.8       49     46.9      0.00      8.37      73.9     0.35      1011.0     7       159         9       145        9.11     265      674.1
   05/20/2016 13:50      66.5      65.8       48     45.9      0.00      8.37      73.6     0.35      1011.0     5       105         8       119        9.11     266      294.6
   05/20/2016 13:40      66.8      66.0       47     45.8      0.00      8.37      74.0     0.35      1011.0     4       103         9       143        9.11     266      237.9
   05/20/2016 13:30      68.2      67.1       46     46.3      0.00      8.37      74.0     0.35      1011.0     4        63         6        67        9.11     266      282.4
   05/20/2016 13:20      67.7      65.0       48     45.9      0.00      8.37      73.9     0.35      1011.0     4       107         6       139        9.11     266      487.4
   05/20/2016 13:10      65.7      65.0       49     45.9      0.00      8.37      73.9     0.35      1011.0     6       110         8        78        9.11     266      359.3
   05/20/2016 13:00      65.5      64.3       50     45.8      0.00      8.37      73.7     0.35      1011.0     6       127        10       140        9.11     266      425.9
   05/20/2016 12:50      66.9      65.7       48     46.2      0.00      8.37      73.8     0.35      1011.0     5        90        11       121        9.11     266      434.2
   05/20/2016 12:40      66.0      65.2       50     46.4      0.00      8.37      73.8     0.35      1011.0     5       105        11       133        9.12     267      623.4
   05/20/2016 12:30      65.8      64.4       50     46.3      0.00      8.37      73.9     0.35      1011.0     5       105        10       139        9.12     267      679.3
   05/20/2016 12:20      65.1      63.4       52     46.3      0.00      8.37      73.6     0.35      1011.0     6       125        10       113        9.12     267      527.0
   05/20/2016 12:10      65.2      64.0       52     46.9      0.00      8.37      73.8     0.35      1011.0     6       117         9       149        9.12     267      455.1
   05/20/2016 12:00      65.3      64.2       53     47.2      0.00      8.37      74.1     0.35      1011.0     4       144         6       178        9.12     267      618.3
   05/20/2016 11:50      64.3      62.4       56     47.1      0.00      8.37      73.7     0.35      1011.0     5       161         9       188        9.12     267      441.6
   05/20/2016 11:40      63.9      62.8       56     47.4      0.00      8.37      73.8     0.35      1011.0     6       131         9       114        9.12     267      355.0
   05/20/2016 11:30      63.6      62.3       57     47.5      0.00      8.37      74.1     0.35      1011.0     6       136         9       144        9.12     267      520.5
   05/20/2016 11:20      62.6      62.2       58     47.6      0.00      8.37      73.9     0.35      1011.0     7       135        12       125        9.12     268      432.8
   05/20/2016 11:10      62.3      61.9       59     47.8      0.00      8.37      73.8     0.35      1011.0     7       130        10       152        9.12     268      445.5
   05/20/2016 11:00      63.5      61.6       58     47.7      0.00      8.37      73.8     0.35      1011.0     5       124         8       142        9.12     268      346.3
   05/20/2016 10:50      62.7      61.2       61     48.0      0.00      8.37      74.0     0.35      1011.0     5       143         7       135        9.12     268      360.9
   05/20/2016 10:40      61.5      60.3       63     48.1      0.00      8.37      73.8     0.35      1011.0     5       109        10        73        9.12     268      249.2
   05/20/2016 10:30      61.3      60.5       62     47.5      0.00      8.37      74.2     0.35      1011.0     6       124         9       141        9.13     268      154.2
   05/20/2016 10:20      60.8      59.8       63     47.8      0.00      8.37      73.8     0.35      1011.0     5       146         8       142        9.12     268      204.5
   05/20/2016 10:10      60.7      60.0       63     47.8      0.00      8.37      74.0     0.35      1011.0     7       144        10       122        9.13     268      137.9
   05/20/2016 10:00      60.8      59.6       63     47.9      0.00      8.37      74.1     0.35      1011.0     5       127         7       131        9.13     268      200.6
   05/20/2016 09:50      60.1      59.6       64     47.9      0.00      8.37      73.9     0.35      1011.0     5       108        11       148        9.13     268      208.9
   05/20/2016 09:40      59.8      59.6       65     47.7      0.00      8.37      74.1     0.35      1011.0     6       126         8       169        9.13     268      174.2
   05/20/2016 09:30      60.0      59.4       64     47.7      0.00      8.37      74.3     0.35      1011.0     6       139         9       149        9.13     268      131.8
   05/20/2016 09:20      59.8      59.3       65     47.8      0.00      8.37      74.2     0.35      1011.0     6       139        11       124        9.13     268      136.1
   05/20/2016 09:10      60.0      59.5       65     47.9      0.00      8.37      74.1     0.35      1011.0     5       141        10       139        9.13     268      138.1
   05/20/2016 09:00      60.1      59.4       65     48.1      0.00      8.37      74.3     0.35      1011.0     5       134         7       136        9.13     268      235.2
   05/20/2016 08:50      59.5      58.9       67     48.3      0.00      8.37      74.3     0.36      1011.0     4       131         6       155        9.13     268      145.6
   05/20/2016 08:40      59.2      58.9       68     48.4      0.00      8.37      74.0     0.36      1011.0     4       131         6       140        9.13     268       91.6
   05/20/2016 08:30      58.9      58.3       69     48.5      0.00      8.37      74.3     0.36      1011.0     3       146         4       118        9.13     268       85.0
   05/20/2016 08:20      58.4      57.8       70     48.3      0.00      8.37      74.2     0.36      1011.0     2       177         5       221        9.13     268       63.8
   05/20/2016 08:10      58.2      57.9       70     48.2      0.00      8.37      74.1     0.36      1011.0     4       162         6       137        9.13     268       83.1
   05/20/2016 08:00      58.0      57.5       70     48.1      0.00      8.37      74.5     0.36      1011.0     5       160         6       193        9.13     268       52.9
   05/20/2016 07:50      57.6      57.5       70     48.0      0.00      8.37      74.6     0.36      1011.0     5       177         9       146        9.13     268       30.8
   05/20/2016 07:40      57.8      57.4       71     48.3      0.00      8.37      74.5     0.36      1011.0     3       179         5       208        9.13     268       32.2
   05/20/2016 07:30      57.6      57.2       72     48.5      0.00      8.37      74.4     0.36      1011.0     2       171         3       176        9.13     269       35.4
   05/20/2016 07:20      57.6      57.0       73     48.8      0.00      8.37      74.4     0.36      1011.0     2       207         3       264        9.13     269       25.9
   05/20/2016 07:10      57.2      56.9       74     48.9      0.00      8.37      74.5     0.36      1010.0     1       143         3       122        9.13     269       22.7
   05/20/2016 07:00      57.0      56.6       75     49.0      0.00      8.37      74.7     0.36      1010.0     2       125         3       132        9.13     269       20.3
   05/20/2016 06:50      56.9      56.6       76     49.1      0.00      8.37      74.4     0.36      1010.0     2        98         4       145        9.13     269       12.8
   05/20/2016 06:40      56.8      56.4       76     49.2      0.00      8.37      74.3     0.36      1010.0     2        73         3        58        9.13     268       -3.2
   05/20/2016 06:30      56.5      56.4       77     49.1      0.00      8.37      74.7     0.36      1010.0     2       139         4       176        9.13     269      -12.9
   05/20/2016 06:20      56.6      56.3       77     49.1      0.00      8.37      74.6     0.36      1010.0     2       169         4       147        9.13     268      -18.9
   05/20/2016 06:10      56.5      56.3       77     49.3      0.00      8.37      74.8     0.36      1010.0     5       181         7       215        9.13     268      -27.0
   05/20/2016 06:00      56.8      56.5       77     49.5      0.00      8.37      74.5     0.36      1010.0     4       181         5       182        9.13     268      -27.5
   05/20/2016 05:50      57.0      56.8       76     49.6      0.00      8.37      75.0     0.36      1010.0     4       178         6       175        9.13     268      -32.2
   05/20/2016 05:40      57.3      57.0       76     49.6      0.00      8.37      74.5     0.36      1010.0     4       153         6       116        9.13     268      -37.9
   05/20/2016 05:30      57.6      57.2       76     49.9      0.00      8.37      74.5     0.36      1010.0     4       119         7       126        9.13     269      -18.4
   05/20/2016 05:20      57.6      57.4       76     50.0      0.00      8.37      74.5     0.36      1010.0     3       145         5       124        9.13     269      -16.5
   05/20/2016 05:10      57.6      57.4       77     50.3      0.00      8.37      74.8     0.36      1010.0     4       165         8       158        9.14     268      -16.6
   05/20/2016 05:00      57.5      57.4       78     50.6      0.00      8.37      74.9     0.36      1010.0     2       134         3       151        9.14     269      -16.2
   05/20/2016 04:50      57.6      57.3       77     50.3      0.00      8.37      74.8     0.36      1010.0     3       111         5        72        9.14     269      -17.9
   05/20/2016 04:40      57.6      57.4       77     50.5      0.00      8.37      74.8     0.36      1010.0     4       118         6       139        9.14     269      -24.1
   05/20/2016 04:30      57.6      57.3       79     51.0      0.00      8.37      75.2     0.36      1010.0     3       117         6       110        9.14     269      -14.5
   05/20/2016 04:20      57.3      56.6       81     51.1      0.00      8.37      75.2     0.36      1010.0     2       104         3        88        9.14     268      -13.3
   05/20/2016 04:10      56.6      56.0       82     51.0      0.00      8.37      75.0     0.36      1010.0     1       155         2       151        9.14     269      -15.5
   05/20/2016 04:00      56.0      55.2       84     50.8      0.00      8.37      74.9     0.36      1009.0     1       185         1       157        9.14     268      -17.1
   05/20/2016 03:50      55.3      54.8       85     50.5      0.00      8.37      75.0     0.36      1009.0     1       230         2       214        9.14     268      -41.3
   05/20/2016 03:40      55.7      54.8       84     50.2      0.00      8.37      75.5     0.36      1010.0     1       152         1       178        9.14     269      -43.6
   05/20/2016 03:30      56.0      55.8       83     50.7      0.00      8.37      75.1     0.36      1010.0     1       217         1       144        9.14     268      -68.3
   05/20/2016 03:20      56.0      55.9       83     50.9      0.00      8.37      75.1     0.36      1010.0     2       225         3       228        9.14     268      -73.4
   05/20/2016 03:10      56.0      55.9       83     50.9      0.00      8.37      74.8     0.36      1010.0     1       199         2       223        9.14     268      -41.4
   05/20/2016 03:00      56.0      55.9       83     51.0      0.00      8.37      75.1     0.36      1010.0     1       172         1       109        9.14     268      -40.6
   05/20/2016 02:50      56.0      55.8       83     51.0      0.00      8.37      75.5     0.36      1010.0     2       182         3       180        9.14     268      -69.0
   05/20/2016 02:40      56.2      56.0       83     51.0      0.00      8.37      75.2     0.36      1010.0     3       161         5       154        9.14     268      -69.1
   05/20/2016 02:30      56.4      56.1       83     51.1      0.00      8.37      75.0     0.36      1010.0     3       168         4       155        9.14     268      -58.3
   05/20/2016 02:20      56.3      56.0       83     51.0      0.00      8.37      75.5     0.36      1010.0     3       183         3       172        9.14     268      -55.7
   05/20/2016 02:10      56.9      56.3       81     51.1      0.00      8.37      75.1     0.36      1010.0     2       176         2       212        9.14     268      -67.3
   05/20/2016 02:00      57.1      56.9       81     51.1      0.00      8.37      75.3     0.36      1010.0     2       151         2       224        9.14     268      -61.0
   05/20/2016 01:50      57.1      57.0       80     51.1      0.00      8.37      75.4     0.36      1010.0     3       165         5       192        9.14     268      -60.2
   05/20/2016 01:40      57.5      57.2       80     51.3      0.00      8.37      75.4     0.36      1010.0     5       155         7       163        9.14     268      -70.1
   05/20/2016 01:30      57.7      57.6       80     51.4      0.00      8.37      75.3     0.36      1010.0     4       149         6       159        9.14     268      -72.6
   05/20/2016 01:20      58.0      57.7       80     51.7      0.00      8.37      75.3     0.36      1010.0     5       147         7       170        9.14     268      -51.0
   05/20/2016 01:10      58.2      57.9       79     51.7      0.00      8.37      75.4     0.36      1010.0     5       140         9       123        9.14     268      -32.0
   05/20/2016 01:00      58.1      58.0       80     51.9      0.00      8.37      75.5     0.36      1010.0     4       143         8       125        9.14     268      -23.7
   05/20/2016 00:50      58.3      58.1       81     52.2      0.00      8.37      75.4     0.36      1010.0     4       124         5       126        9.14     268      -23.8
   05/20/2016 00:40      58.2      57.9       82     52.5      0.00      8.37      75.3     0.36      1010.0     3       119         5       132        9.15     268      -21.8
   05/20/2016 00:30      58.0      57.8       83     52.8      0.00      8.37      75.6     0.36      1010.0     4       130         9       120        9.15     268      -36.4
   05/20/2016 00:20      58.1      57.9       83     53.0      0.00      8.37      75.3     0.36      1010.0     4       133         6       140        9.15     268      -39.4
   05/20/2016 00:10      58.2      58.1       83     53.1      0.00      8.37      75.0     0.36      1010.0     4       133         7       120        9.15     268      -21.6
   05/20/2016 00:00      58.3      58.1       83     53.1      0.00      8.37      75.3     0.36      1010.0     4       112         7       114        9.15     268      -18.1
   05/19/2016 23:50      58.4      58.1       84     53.3      0.00      8.37      75.5     0.36      1010.0     4       130         5       131        9.15     268      -18.3
   05/19/2016 23:40      58.6      58.0       83     53.3      0.00      8.37      75.1     0.36      1010.0     3       135         5       158        9.15     268      -18.4
   05/19/2016 23:30      58.5      58.1       84     53.3      0.00      8.37      75.4     0.36      1011.0     4       127         6       123        9.15     268      -18.8
   05/19/2016 23:20      58.7      58.5       82     53.2      0.00      8.37      75.5     0.36      1011.0     4       127         6       133        9.15     267      -18.4
   05/19/2016 23:10      59.1      58.8       81     53.2      0.00      8.37      75.2     0.36      1011.0     4       127         6       124        9.15     267      -18.8
   05/19/2016 23:00      59.6      59.2       80     53.2      0.00      8.37      75.0     0.36      1011.0     4       130         6       127        9.15     267      -19.2
   05/19/2016 22:50      59.8      59.5       79     53.3      0.00      8.37      75.4     0.36      1011.0     2       132         4       147        9.15     267      -19.6
   05/19/2016 22:40      59.6      59.4       80     53.4      0.00      8.37      75.5     0.36      1011.0     2        94         3        76        9.15     267      -19.4
   05/19/2016 22:30      60.4      59.9       79     53.6      0.00      8.37      75.7     0.36      1011.0     3       109         4       125        9.15     267      -19.3
   05/19/2016 22:20      60.6      60.4       78     53.6      0.00      8.37      75.6     0.36      1011.0     3       118         4        60        9.15     267      -19.2
   05/19/2016 22:10      60.4      60.0       79     53.6      0.00      8.37      75.4     0.36      1010.0     2       164         3       162        9.15     267      -19.4
   05/19/2016 22:00      60.1      59.9       79     53.5      0.00      8.37      75.5     0.36      1010.0     3       162         4       166        9.15     267      -19.4
   05/19/2016 21:50      60.3      59.9       79     53.6      0.00      8.37      75.6     0.36      1010.0     4       156         7       161        9.15     267      -19.3
   05/19/2016 21:40      60.4      60.3       78     53.6      0.00      8.37      75.1     0.36      1010.0     4       138         6       164        9.16     267      -19.6
   05/19/2016 21:30      60.6      60.4       78     53.5      0.00      8.37      75.7     0.36      1010.0     4       170         6       166        9.16     267      -20.1
   05/19/2016 21:20      60.6      60.4       78     53.7      0.00      8.37      75.6     0.36      1010.0     3       168         5       145        9.16     267      -20.2
   05/19/2016 21:10      61.3      60.6       77     53.9      0.00      8.37      75.7     0.36      1010.0     4       168         5       186        9.16     267      -22.1
   05/19/2016 21:00      61.5      61.1       77     54.0      0.00      8.37      75.4     0.36      1010.0     3       158         4       132        9.16     267      -25.2
   05/19/2016 20:50      61.4      61.2       77     54.1      0.00      8.37      75.3     0.36      1010.0     3       152         4       162        9.16     267      -35.9
   05/19/2016 20:40      61.6      61.3       77     54.0      0.00      8.37      75.4     0.36      1010.0     3       160         4       153        9.16     267      -41.0
   05/19/2016 20:30      62.2      61.6       76     54.1      0.00      8.37      75.3     0.36      1010.0     3       193         5       174        9.16     267      -74.4
   05/19/2016 20:20      62.5      62.2       75     54.3      0.00      8.37      75.4     0.36      1010.0     3       181         4       198        9.17     266      -80.3
   05/19/2016 20:10      63.0      62.6       74     54.4      0.00      8.37      75.2     0.36      1010.0     4       177         5       184        9.17     266      -83.5
   05/19/2016 20:00      64.1      63.3       72     54.6      0.00      8.37      75.3     0.36      1009.0     3       164         4       158        9.17     266      -83.5
   05/19/2016 19:50      64.8      64.2       71     54.8      0.00      8.37      75.4     0.36      1009.0     3       192         5       201        9.17     267      -80.2
   05/19/2016 19:40      65.4      64.9       70     54.9      0.00      8.37      75.4     0.36      1009.0     4       178         5       202        9.17     266      -74.8
   05/19/2016 19:30      66.1      65.5       68     55.1      0.00      8.37      75.4     0.36      1009.0     5       170         6       163        9.18     266      -63.8
   05/19/2016 19:20      67.1      66.4       66     55.2      0.00      8.37      75.3     0.36      1009.0     5       166         6       162        9.18     266      -51.5
   05/19/2016 19:10      68.3      67.2       65     55.3      0.00      8.37      75.4     0.36      1009.0     5       170         8       162        9.18     266      -36.0
   05/19/2016 19:00      69.2      68.3       62     55.5      0.00      8.37      75.2     0.36      1009.0     4       181         6       202        9.19     266      -17.4
   05/19/2016 18:50      69.9      69.2       61     55.6      0.00      8.37      75.0     0.36      1009.0     5       180         7       204        9.19     266        4.6
   05/19/2016 18:40      71.1      70.3       59     55.7      0.00      8.37      75.0     0.36      1009.0     5       170         8       159        9.20     266       27.4
   05/19/2016 18:30      72.3      71.2       57     55.9      0.00      8.37      75.3     0.36      1009.0     5       190         8       209        9.20     266       49.9
   05/19/2016 18:20      73.7      72.1       55     55.9      0.00      8.37      75.0     0.36      1009.0     4       200         6       211        9.20     266       71.9
   05/19/2016 18:10      73.5      72.7       54     55.7      0.00      8.37      75.1     0.36      1009.0     5       222         8       234        9.20     266       95.9
   05/19/2016 18:00      73.4      73.1       55     56.1      0.00      8.37      74.9     0.36      1009.0     4       171         6       168        9.21     266      121.9
   05/19/2016 17:50      73.8      72.9       55     56.1      0.00      8.37      75.1     0.36      1009.0     5       169         7       165        9.21     266      146.0
   05/19/2016 17:40      73.8      73.2       54     56.1      0.00      8.37      74.7     0.36      1009.0     4       179         7       164        9.21     266      168.9
   05/19/2016 17:30      73.9      73.5       54     56.1      0.00      8.37      74.9     0.36      1009.0     5       165         8       157        9.21     266      192.9
   05/19/2016 17:20      74.0      73.5       54     56.2      0.00      8.37      75.0     0.36      1009.0     4       167         7       153        9.22     266      215.5
   05/19/2016 17:10      73.7      73.3       55     56.3      0.00      8.37      74.7     0.36      1009.0     5       139         7       126        9.22     266      243.1
   05/19/2016 17:00      73.9      73.7       54     56.2      0.00      8.37      75.0     0.36      1009.0     5       135         7       118        9.22     266      257.1
   05/19/2016 16:50      74.2      73.5       54     56.3      0.00      8.37      74.6     0.36      1009.0     5       158         7       164        9.23     266      285.4
   05/19/2016 16:40      74.2      73.3       54     56.0      0.00      8.37      74.7     0.36      1009.0     5       171         7       147        9.23     266      306.8
   05/19/2016 16:30      74.1      73.4       54     56.0      0.00      8.37      74.5     0.36      1009.0     6       158         9       159        9.23     266      326.4
   05/19/2016 16:20      74.6      74.1       53     56.1      0.00      8.37      74.3     0.36      1009.0     6       165         7       175        9.23     266      347.0
   05/19/2016 16:10      75.2      74.2       52     56.2      0.00      8.37      74.8     0.36      1010.0     5       141         9       145        9.23     266      364.4
   05/19/2016 16:00      76.0      73.9       52     56.2      0.00      8.37      74.7     0.36      1010.0     5       134         8       113        9.23     266      380.0
   05/19/2016 15:50      76.0      75.4       50     55.9      0.00      8.37      74.5     0.36      1010.0     2       346         3       338        9.23     266      395.8
   05/19/2016 15:40      75.9      74.3       51     55.9      0.00      8.37      74.7     0.36      1010.0     3        63         5        69        9.23     266      416.6
   05/19/2016 15:30      76.3      74.1       51     56.2      0.00      8.37      74.4     0.35      1010.0     4        45         5        73        9.23     267      438.8
   05/19/2016 15:20      75.2      73.6       53     56.1      0.00      8.37      74.6     0.35      1010.0     3       112         5        92        9.23     267      455.8
   05/19/2016 15:10      74.4      73.7       53     56.1      0.00      8.37      74.4     0.35      1011.0     4        75         5        54        9.23     267      469.0
   05/19/2016 15:00      74.7      73.9       53     56.1      0.00      8.37      74.6     0.35      1011.0     3        73         4        84        9.23     266      477.5
   05/19/2016 14:50      74.4      73.3       53     55.8      0.00      8.37      74.8     0.35      1011.0     4         4         6       340        9.23     267      496.0
   05/19/2016 14:40      74.2      73.6       53     55.9      0.00      8.37      74.3     0.35      1011.0     4        22         9       337        9.23     267      497.0
   05/19/2016 14:30      74.0      73.1       54     56.1      0.00      8.37      74.8     0.35      1011.0     5        45         6        62        9.23     267      515.9
   05/19/2016 14:20      73.2      71.8       55     55.6      0.00      8.37      74.7     0.35      1011.0     3        58         5        52        9.23     267      528.1
   05/19/2016 14:10      73.4      71.2       55     55.3      0.00      8.37      74.4     0.35      1012.0     3        22         5       357        9.23     268      535.2
   05/19/2016 14:00      71.5      70.3       57     55.1      0.00      8.37      74.6     0.35      1012.0     3        81         4       122        9.23     268      550.7
   05/19/2016 13:50      72.6      71.7       56     55.4      0.00      8.37      74.6     0.35      1012.0     3        83         6       126        9.23     268      552.7
   05/19/2016 13:40      71.8      69.8       58     55.2      0.00      8.37      74.7     0.35      1012.0     2       311         3        47        9.23     268      571.7
   05/19/2016 13:30      71.0      68.7       59     55.2      0.00      8.37      74.5     0.35      1012.0     4        69         8       104        9.23     268      619.9
   05/19/2016 13:20      69.8      68.9       60     54.8      0.00      8.37      74.2     0.35      1012.0     2        91         4        83        9.22     269      645.9
   05/19/2016 13:10      69.8      68.4       61     55.1      0.00      8.37      74.6     0.35      1012.0     3        32         6       354        9.22     269      533.9
   05/19/2016 13:00      68.8      66.9       63     55.1      0.00      8.37      74.3     0.36      1013.0     3        28         4        65        9.20     269      664.2
   05/19/2016 12:50      67.0      66.4       66     54.8      0.00      8.37      74.8     0.36      1013.0     2       339         4        37        9.20     270      471.8
   05/19/2016 12:40      67.0      66.1       66     55.1      0.00      8.37      74.8     0.36      1013.0     2        32         4        23        9.07     269      369.3
   05/19/2016 12:30      65.7      64.3       69     54.7      0.00      8.37      75.0     0.36      1013.0     2       155         3       154        8.98     269      293.1
   05/19/2016 12:20      64.7      63.8       71     54.6      0.00      8.37      74.5     0.36      1013.0     2       201         3       264        8.59     269      203.1
   05/19/2016 12:10      64.5      63.6       72     54.8      0.00      8.37      74.5     0.36      1013.0     3       100         4        94        8.59     269      169.8
   05/19/2016 12:00      64.6      63.2       72     54.8      0.00      8.37      74.5     0.36      1013.0     1        72         3         8        8.59     270      142.7
   05/19/2016 11:50      63.8      63.1       73     54.6      0.00      8.37      74.8     0.36      1013.0     2       103         3       193        8.59     269      125.4
   05/19/2016 11:40      63.4      62.9       73     54.5      0.00      8.37      74.7     0.36      1014.0     1       335         2        28        8.59     269      114.0
   05/19/2016 11:30      63.0      62.2       74     54.3      0.00      8.37      74.8     0.36      1014.0     1       304         2       300        8.59     270      128.8
   05/19/2016 11:20      62.6      62.2       75     54.4      0.00      8.37      74.4     0.36      1014.0     2       168         4       160        8.60     269      136.7
   05/19/2016 11:10      62.5      61.8       76     54.4      0.00      8.37      74.4     0.36      1014.0     2       156         4       111        8.60     269      134.9
   05/19/2016 11:00      62.3      61.8       76     54.4      0.00      8.37      74.8     0.36      1014.0     3       132         5       147        8.60     269      112.1
   05/19/2016 10:50      62.1      61.5       77     54.4      0.00      8.37      74.9     0.36      1014.0     2       138         3        80        8.60     269       91.8
   05/19/2016 10:40      61.8      61.2       78     54.5      0.00      8.37      74.7     0.36      1014.0     2       127         3       130        8.60     269       82.9
   05/19/2016 10:30      61.7      61.3       77     54.4      0.00      8.37      74.7     0.36      1013.0     3       181         5       176        8.60     269       78.3
   05/19/2016 10:20      61.3      60.9       78     54.4      0.00      8.37      74.8     0.36      1013.0     2       157         4       149        8.60     270       71.6
   05/19/2016 10:10      61.5      61.2       78     54.5      0.00      8.37      75.0     0.36      1014.0     3       163         4       137        8.60     269       66.0
   05/19/2016 10:00      61.6      61.3       78     54.5      0.00      8.37      74.8     0.36      1014.0     2        32         3         4        8.60     270       59.4
   05/19/2016 09:50      61.6      61.0       78     54.5      0.00      8.37      74.5     0.36      1014.0     2        40         3        26        8.60     270       66.9
   05/19/2016 09:40      61.2      60.7       79     54.5      0.00      8.37      75.0     0.36      1014.0     2        95         3       100        8.60     270       72.7
   05/19/2016 09:30      61.0      60.3       80     54.5      0.00      8.37      75.3     0.36      1014.0     3        68         5        86        8.60     270       68.4
   05/19/2016 09:20      60.3      60.0       81     54.3      0.00      8.37      75.2     0.36      1014.0     2        92         4        90        8.60     270       62.5
   05/19/2016 09:10      60.3      59.8       82     54.3      0.00      8.37      74.5     0.36      1014.0     3       144         5       171        8.60     269       58.4
   05/19/2016 09:00      59.9      59.8       82     54.2      0.00      8.37      74.9     0.36      1014.0     4       127         6       129        8.61     269       57.4
   05/19/2016 08:50      59.9      59.6       82     54.1      0.00      8.37      75.1     0.36      1014.0     4       149         6       142        8.61     269       55.5
   05/19/2016 08:40      59.8      59.4       82     54.1      0.00      8.37      75.1     0.36      1014.0     4       157         6       141        8.61     269       48.4
   05/19/2016 08:30      59.8      59.5       82     54.0      0.00      8.37      74.8     0.36      1014.0     4       132         6       138        8.61     269       48.6
   05/19/2016 08:20      59.9      59.6       82     54.1      0.00      8.37      74.6     0.36      1014.0     4       153         5       146        8.61     269       42.0
   05/19/2016 08:10      60.1      59.8       81     54.1      0.00      8.37      75.2     0.36      1014.0     3       144         5       161        8.61     269       36.8
   05/19/2016 08:00      60.0      59.6       81     54.2      0.00      8.37      75.1     0.36      1014.0     3       146         4       165        8.61     270       31.8
   05/19/2016 07:50      59.8      59.6       82     54.3      0.00      8.37      75.2     0.36      1014.0     3       152         4       163        8.61     270       25.2
   05/19/2016 07:40      60.0      59.5       82     54.3      0.00      8.37      75.2     0.36      1014.0     3       140         5       150        8.61     270       21.5
   05/19/2016 07:30      59.8      59.4       82     54.3      0.00      8.37      75.2     0.36      1014.0     3       104         4        89        8.61     270       17.8
   05/19/2016 07:20      59.9      59.6       82     54.4      0.00      8.37      75.2     0.36      1013.0     4       133         5       123        8.61     270       14.5
   05/19/2016 07:10      60.0      59.6       82     54.5      0.00      8.37      75.3     0.36      1014.0     3       124         4       135        8.61     270       10.1
   05/19/2016 07:00      60.0      59.6       82     54.4      0.00      8.37      75.4     0.36      1014.0     3       132         5       140        8.61     270        6.3
   05/19/2016 06:50      60.0      59.7       82     54.4      0.00      8.37      75.3     0.36      1013.0     3       134         5       164        8.61     270        3.1
   05/19/2016 06:40      60.1      59.8       82     54.4      0.00      8.37      75.1     0.36      1013.0     3       142         5       142        8.62     270       -1.6
   05/19/2016 06:30      60.2      59.8       82     54.4      0.00      8.37      75.2     0.36      1013.0     3       136         3       131        8.62     270       -5.8
   05/19/2016 06:20      59.9      59.6       82     54.3      0.00      8.37      75.4     0.36      1013.0     4       137         5       136        8.62     270       -9.3
   05/19/2016 06:10      60.0      59.8       82     54.4      0.00      8.37      75.3     0.36      1013.0     2        90         4       139        8.62     270      -11.4
   05/19/2016 06:00      60.0      59.8       82     54.4      0.00      8.37      75.3     0.36      1013.0     2        81         3       107        8.62     270      -13.1
   05/19/2016 05:50      60.0      59.8       82     54.4      0.00      8.37      75.4     0.36      1013.0     3       102         4       125        8.62     270      -14.1
   05/19/2016 05:40      60.0      59.8       82     54.5      0.00      8.37      75.0     0.36      1013.0     2       117         4       140        8.62     269      -14.6
   05/19/2016 05:30      60.0      59.9       82     54.4      0.00      8.37      75.4     0.36      1014.0     3       126         5       127        8.62     270      -15.0
   05/19/2016 05:20      60.3      59.9       82     54.5      0.00      8.37      74.9     0.36      1013.0     2        86         4        71        8.62     270      -15.1
   05/19/2016 05:10      60.4      60.0       82     54.6      0.00      8.37      75.5     0.36      1013.0     2        71         3        78        8.62     269      -15.0
   05/19/2016 05:00      60.1      59.9       82     54.6      0.00      8.37      75.3     0.36      1013.0     3       110         4       132        8.62     269      -14.9
   05/19/2016 04:50      60.0      59.9       83     54.6      0.00      8.37      75.4     0.36      1013.0     3        86         4        79        8.62     269      -14.9
   05/19/2016 04:40      60.1      59.8       83     54.8      0.00      8.37      75.6     0.36      1014.0     2        88         3        97        8.62     270      -14.9
   05/19/2016 04:30      60.1      59.8       83     54.7      0.00      8.37      75.6     0.36      1014.0     3       109         6       111        8.62     269      -14.9
   05/19/2016 04:20      60.1      59.9       83     54.8      0.00      8.37      75.3     0.36      1014.0     3       117         4       110        8.62     270      -15.2
   05/19/2016 04:10      60.0      59.9       83     54.8      0.00      8.37      75.7     0.36      1014.0     3       113         4       107        8.62     269      -15.2
   05/19/2016 04:00      60.4      60.1       82     54.9      0.00      8.37      76.0     0.36      1014.0     2        94         4       129        8.62     270      -15.5
   05/19/2016 03:50      60.5      60.1       82     54.8      0.00      8.37      75.7     0.36      1014.0     3       111         5       139        8.62     269      -15.4
   05/19/2016 03:40      60.2      59.8       83     54.8      0.00      8.37      75.3     0.36      1014.0     3       107         7       120        8.62     270      -15.5
   05/19/2016 03:30      60.3      59.9       83     54.8      0.00      8.37      76.0     0.36      1014.0     3       128         3       151        8.63     269      -15.7
   05/19/2016 03:20      60.5      60.3       82     54.8      0.00      8.37      75.7     0.36      1014.0     2       107         5       142        8.63     269      -15.9
   05/19/2016 03:10      60.5      60.1       82     54.9      0.00      8.37      76.2     0.36      1014.0     1        84         3        78        8.63     269      -16.1
   05/19/2016 03:00      60.5      60.2       82     54.9      0.00      8.37      75.6     0.36      1014.0     2        80         4       134        8.63     269      -16.0
   05/19/2016 02:50      60.4      60.1       83     54.9      0.00      8.37      75.8     0.36      1014.0     2        69         4        72        8.63     269      -16.1
   05/19/2016 02:40      60.3      59.8       83     54.9      0.00      8.37      76.0     0.36      1014.0     1        82         3        86        8.63     269      -15.9
   05/19/2016 02:30      60.0      59.7       84     54.9      0.00      8.37      76.1     0.36      1014.0     3       109         5        59        8.63     269      -15.9
   05/19/2016 02:20      60.0      59.8       84     55.0      0.00      8.37      76.2     0.36      1014.0     2        97         3        82        8.63     269      -16.1
   05/19/2016 02:10      60.0      59.8       84     55.1      0.00      8.37      76.0     0.36      1014.0     2        89         4       138        8.63     269      -16.1
   05/19/2016 02:00      60.2      59.9       84     55.1      0.00      8.37      76.3     0.36      1014.0     2        90         3        65        8.63     269      -16.0
   05/19/2016 01:50      60.1      59.7       85     55.2      0.00      8.37      76.0     0.36      1014.0     2        88         3       131        8.63     269      -15.8
   05/19/2016 01:40      59.7      59.6       85     55.2      0.00      8.37      76.0     0.36      1014.0     3        77         3        88        8.63     269      -15.9
   05/19/2016 01:30      60.0      59.7       85     55.2      0.00      8.37      76.0     0.36      1015.0     3        78         5       157        8.63     269      -16.2
   05/19/2016 01:20      60.0      59.7       85     55.3      0.00      8.37      75.8     0.36      1015.0     2        56         4        70        8.63     269      -16.6
   05/19/2016 01:10      60.0      59.5       85     55.2      0.00      8.37      75.7     0.36      1015.0     2        67         4        85        8.64     269      -16.4
   05/19/2016 01:00      59.8      59.4       86     55.3      0.00      8.37      76.2     0.36      1015.0     3        62         4        92        8.64     269      -16.3
   05/19/2016 00:50      59.7      59.3       86     55.2      0.00      8.37      75.9     0.36      1015.0     2        89         3        93        8.64     269      -16.4
   05/19/2016 00:40      60.0      59.5       85     55.2      0.00      8.37      76.3     0.36      1015.0     3        44         5        35        8.64     269      -16.9
   05/19/2016 00:30      60.1      59.7       85     55.2      0.00      8.37      76.3     0.36      1015.0     2        50         4        32        8.64     269      -16.7
   05/19/2016 00:20      60.0      59.7       85     55.2      0.00      8.37      76.0     0.36      1015.0     3        47         5        73        8.64     269      -17.1
   05/19/2016 00:10      60.0      59.7       85     55.2      0.00      8.37      76.2     0.36      1015.0     3        73         4        81        8.64     269      -16.8
   05/19/2016 00:00      60.0      59.8       84     55.1      0.00      8.37      76.2     0.36      1015.0     2        54         4        79        8.65     269      -17.9
   05/18/2016 23:50      59.9      59.5       85     55.0      0.00      8.37      76.0     0.36      1015.0     2        83         3       110        8.65     269      -17.3
   05/18/2016 23:40      59.6      59.4       85     55.0      0.00      8.37      76.2     0.36      1015.0     2        94         3        72        8.65     269      -19.6
   05/18/2016 23:30      59.8      59.4       85     55.0      0.00      8.37      76.2     0.36      1015.0     3        87         4        59        8.65     269      -20.8
   05/18/2016 23:20      59.9      59.4       84     54.9      0.00      8.37      76.5     0.36      1015.0     3        74         4        69        8.65     269      -25.9
   05/18/2016 23:10      59.7      59.4       85     54.9      0.00      8.37      76.3     0.36      1015.0     4        77         7        92        8.65     269      -30.3
   05/18/2016 23:00      59.5      59.4       85     55.0      0.00      8.37      76.2     0.36      1015.0     3        57         6        85        8.65     269      -25.1
   05/18/2016 22:50      59.7      59.2       85     55.0      0.00      8.37      76.0     0.36      1015.0     3        82         5        81        8.65     269      -31.6
   05/18/2016 22:40      60.0      59.5       85     55.1      0.00      8.37      76.3     0.36      1015.0     3        55         4        74        8.66     269      -28.3
   05/18/2016 22:30      60.0      59.8       85     55.2      0.00      8.37      76.0     0.36      1015.0     3        46         4        45        8.66     269      -36.0
   05/18/2016 22:20      60.0      59.8       84     55.3      0.00      8.37      76.5     0.36      1015.0     3        39         5        14        8.66     269      -66.8
   05/18/2016 22:10      60.0      59.8       85     55.3      0.00      8.37      76.2     0.36      1014.0     3        39         5        19        8.66     269      -71.4
   05/18/2016 22:00      60.1      59.9       85     55.3      0.00      8.37      76.4     0.36      1014.0     3        38         4        34        8.66     268      -72.8
   05/18/2016 21:50      60.4      60.0       84     55.5      0.00      8.37      76.3     0.36      1014.0     3        34         4        24        8.66     269      -73.5
   05/18/2016 21:40      60.8      60.4       83     55.4      0.00      8.37      76.2     0.36      1014.0     3        49         5        38        8.66     268      -74.4
   05/18/2016 21:30      61.0      60.9       82     55.4      0.00      8.37      76.0     0.36      1014.0     2        56         3        41        8.66     268      -75.1
   05/18/2016 21:20      61.5      61.0       81     55.4      0.00      8.37      76.3     0.36      1014.0     2        41         4        36        8.67     268      -75.5
   05/18/2016 21:10      61.9      61.5       79     55.3      0.00      8.37      75.9     0.36      1013.0     3        45         6        42        8.67     268      -76.3
   05/18/2016 21:00      62.4      61.9       78     55.2      0.00      8.37      76.0     0.36      1013.0     2        62         4        75        8.67     268      -76.4
   05/18/2016 20:50      63.2      62.7       76     55.3      0.00      8.37      76.1     0.36      1013.0     3        48         5        75        8.67     268      -77.5
   05/18/2016 20:40      63.4      63.3       75     55.2      0.00      8.37      75.9     0.36      1013.0     2        37         3        43        8.67     268      -78.4
   05/18/2016 20:30      63.7      63.3       74     55.2      0.00      8.37      76.0     0.36      1013.0     2        53         4        56        8.68     268      -79.1
   05/18/2016 20:20      64.4      63.9       72     55.1      0.00      8.37      76.1     0.36      1013.0     3        56         3        61        8.68     268      -80.3
   05/18/2016 20:10      65.1      64.5       71     55.2      0.00      8.37      76.4     0.36      1013.0     3        47         5        69        8.68     268      -81.1
   05/18/2016 20:00      65.5      64.9       70     55.1      0.00      8.37      76.1     0.36      1013.0     3        37         4        32        8.69     267      -80.4
   05/18/2016 19:50      66.3      65.8       68     55.2      0.00      8.37      76.0     0.36      1012.0     3        46         6        76        8.69     267      -78.5
   05/18/2016 19:40      67.5      66.5       66     55.1      0.00      8.37      75.5     0.36      1012.0     3        38         5        64        8.69     267      -75.1
   05/18/2016 19:30      68.9      67.6       63     55.2      0.00      8.37      75.8     0.36      1012.0     3        45         5        48        8.70     267      -67.3
   05/18/2016 19:20      69.6      69.2       61     55.3      0.00      8.37      76.0     0.36      1012.0     2        46         4        51        8.70     267      -55.0
   05/18/2016 19:10      69.9      69.5       60     55.5      0.00      8.37      75.8     0.36      1012.0     3        47         6        75        8.70     267      -39.9
   05/18/2016 19:00      70.6      70.1       59     55.5      0.00      8.37      75.9     0.36      1012.0     3        40         5        58        8.71     267      -22.4
   05/18/2016 18:50      72.1      71.0       57     55.7      0.00      8.37      75.8     0.36      1012.0     4        47         5        44        8.71     267       -2.6
   05/18/2016 18:40      72.3      71.7       57     55.8      0.00      8.37      76.0     0.36      1012.0     3        42         5        25        8.71     266       20.8
   05/18/2016 18:30      72.8      72.1       56     55.8      0.00      8.37      75.6     0.36      1012.0     3        36         4        37        8.71     267       41.8
   05/18/2016 18:20      73.8      72.8       54     55.9      0.00      8.37      75.6     0.36      1012.0     3        39         6        67        8.71     266       64.0
   05/18/2016 18:10      74.3      73.3       54     55.9      0.00      8.37      75.6     0.36      1012.0     4        34         7         8        8.72     266       86.9
   05/18/2016 18:00      74.6      73.8       53     55.9      0.00      8.37      75.5     0.36      1012.0     3        32         5        33        8.72     266      113.6
   05/18/2016 17:50      75.4      74.5       52     56.0      0.00      8.37      75.4     0.36      1012.0     4        58         7        77        8.72     266      139.1
   05/18/2016 17:40      75.7      74.7       51     56.0      0.00      8.37      75.3     0.36      1011.0     4        70         7        64        8.72     266      162.4
   05/18/2016 17:30      77.3      76.0       49     56.1      0.00      8.37      75.3     0.36      1011.0     3        36         5        44        8.73     266      184.4
   05/18/2016 17:20      78.5      77.3       48     56.3      0.00      8.37      75.2     0.36      1011.0     4        43         5        38        8.73     266      207.3
   05/18/2016 17:10      78.0      77.4       48     56.3      0.00      8.37      75.2     0.36      1011.0     3        49         5        67        8.73     266      230.3
   05/18/2016 17:00      78.3      77.5       47     56.4      0.00      8.37      75.1     0.36      1012.0     4        36         6        72        8.74     266      254.1
   05/18/2016 16:50      78.7      77.8       47     56.3      0.00      8.37      75.0     0.36      1012.0     4        49         6        62        8.74     266      275.6
   05/18/2016 16:40      80.2      78.4       46     56.6      0.00      8.37      74.7     0.36      1012.0     4        50         7        60        8.74     266      297.2
   05/18/2016 16:30      79.7      79.3       46     56.6      0.00      8.37      75.0     0.36      1012.0     5        29         7        37        8.75     266      317.0
   05/18/2016 16:20      80.1      79.5       45     56.6      0.00      8.37      74.8     0.36      1012.0     4        39         6        34        8.75     266      336.3
   05/18/2016 16:10      79.9      79.4       45     56.6      0.00      8.37      74.7     0.36      1012.0     4        50         6        88        8.75     266      357.2
   05/18/2016 16:00      79.7      79.1       45     56.6      0.00      8.37      74.6     0.36      1012.0     3        55         5        86        8.75     266      375.4
   05/18/2016 15:50      80.5      80.1       45     56.8      0.00      8.37      74.5     0.36      1012.0     3        51         5        99        8.75     266      393.6
   05/18/2016 15:40      80.9      80.4       44     56.9      0.00      8.37      74.5     0.36      1012.0     3        53         5        43        8.75     266      412.7
   05/18/2016 15:30      81.5      80.8       44     57.0      0.00      8.37      74.5     0.36      1012.0     4        43         6        38        8.76     266      429.9
   05/18/2016 15:20      81.2      80.9       44     56.9      0.00      8.37      74.3     0.36      1012.0     4        36         6        54        8.76     266      446.3
   05/18/2016 15:10      81.7      81.4       43     56.9      0.00      8.37      74.2     0.36      1012.0     4        50         8        69        8.76     266      459.2
   05/18/2016 15:00      81.5      80.9       44     57.1      0.00      8.37      74.2     0.36      1012.0     4        39         6        66        8.76     266      475.9
   05/18/2016 14:50      81.4      80.6       44     57.0      0.00      8.37      74.2     0.35      1012.0     5        65         8        65        8.76     266      487.5
   05/18/2016 14:40      82.3      81.0       43     57.1      0.00      8.37      74.1     0.35      1012.0     4        54         8       108        8.76     266      496.6
   05/18/2016 14:30      82.1      80.7       43     57.0      0.00      8.37      74.0     0.35      1012.0     3        37         4        26        8.77     266      505.4
   05/18/2016 14:20      81.6      80.8       44     57.1      0.00      8.37      73.9     0.35      1013.0     4        37         5        24        8.77     267      516.4
   05/18/2016 14:10      82.3      81.2       43     57.0      0.00      8.37      73.7     0.35      1013.0     4        50         6        71        8.77     267      526.3
   05/18/2016 14:00      82.6      81.6       43     57.1      0.00      8.37      73.9     0.35      1013.0     4        53         6        95        8.77     268      536.9
   05/18/2016 13:50      81.3      80.5       44     57.0      0.00      8.37      73.8     0.35      1013.0     3        27         6        14        8.77     268      547.0
   05/18/2016 13:40      82.5      81.2       43     57.0      0.00      8.37      73.7     0.35      1013.0     4        41         8        69        8.77     268      550.1
   05/18/2016 13:30      82.7      82.2       42     56.9      0.00      8.37      73.6     0.35      1013.0     3        33         5         6        8.77     268      554.7
   05/18/2016 13:20      82.2      80.9       42     56.5      0.00      8.37      73.7     0.35      1013.0     5        65         6        79        8.77     268      561.0
   05/18/2016 13:10      82.5      81.0       41     56.3      0.00      8.37      73.4     0.35      1013.0     4        74         6       105        8.77     268      565.5
   05/18/2016 13:00      82.7      80.5       42     56.2      0.00      8.37      73.5     0.35      1013.0     3        53         6        29        8.77     268      567.7
   05/18/2016 12:50      81.3      80.7       42     55.5      0.00      8.37      73.6     0.35      1013.0     3        90         6        70        8.78     268      569.2
   05/18/2016 12:40      80.4      78.5       43     55.1      0.00      8.37      73.5     0.35      1014.0     3        53         5        17        8.77     268      575.0
   05/18/2016 12:30      79.9      79.0       43     55.2      0.00      8.37      73.5     0.35      1014.0     3        71         5        90        8.78     268      568.0
   05/18/2016 12:20      79.0      77.9       45     55.1      0.00      8.37      73.8     0.35      1014.0     3        41         4        74        8.78     269      568.6
   05/18/2016 12:10      78.7      77.6       44     54.9      0.00      8.37      73.3     0.35      1014.0     3        24         5       102        8.78     268      562.7
   05/18/2016 12:00      77.7      75.2       47     54.9      0.00      8.37      73.5     0.35      1014.0     3        30         4        39        8.78     269      559.5
   05/18/2016 11:50      75.5      74.5       49     54.5      0.00      8.37      73.7     0.35      1014.0     2         6         4         5        8.78     269      556.5
   05/18/2016 11:40      75.3      73.8       50     54.8      0.00      8.37      73.6     0.35      1014.0     3       357         5       329        8.78     269      549.2
   05/18/2016 11:30      74.7      73.3       51     54.5      0.00      8.37      73.5     0.35      1014.0     3       356         5         3        8.78     269      542.6
   05/18/2016 11:20      73.8      73.1       52     54.5      0.00      8.37      73.6     0.35      1015.0     3       345         4       321        8.78     270      534.4
   05/18/2016 11:10      73.3      72.1       53     54.6      0.00      8.37      73.5     0.35      1015.0     3         2         5         6        8.78     270      526.0
   05/18/2016 11:00      72.0      69.9       56     54.4      0.00      8.37      73.2     0.35      1015.0     2       137         4       118        8.78     270      516.5
   05/18/2016 10:50      71.0      69.1       58     54.4      0.00      8.37      73.3     0.35      1015.0     2        69         4        83        8.78     270      505.3
   05/18/2016 10:40      70.0      69.2       58     54.3      0.00      8.37      73.7     0.35      1015.0     3        82         4        75        8.78     270      493.0
   05/18/2016 10:30      69.5      67.5       60     54.2      0.00      8.37      73.6     0.36      1015.0     2       356         3        14        8.78     270      477.6
   05/18/2016 10:20      67.8      66.9       63     54.1      0.00      8.37      73.4     0.36      1015.0     2       313         3        33        8.78     271      462.9
   05/18/2016 10:10      67.0      66.3       64     54.2      0.00      8.37      73.5     0.36      1015.0     2       347         3        65        8.78     271      450.6
   05/18/2016 10:00      66.4      65.1       66     54.1      0.00      8.37      73.8     0.36      1015.0     2        47         3        97        8.78     271      431.3
   05/18/2016 09:50      65.9      65.0       67     54.1      0.00      8.37      73.7     0.36      1015.0     3        30         4       359        8.78     272      410.5
   05/18/2016 09:40      65.4      63.8       69     54.1      0.00      8.37      73.6     0.36      1016.0     2        21         4        28        8.78     273      397.7
   05/18/2016 09:30      64.9      62.8       70     53.9      0.00      8.37      73.7     0.36      1016.0     2         2         3       351        8.79     274      379.4
   05/18/2016 09:20      63.1      62.2       72     53.8      0.00      8.37      73.8     0.36      1016.0     4         4         5       355        8.79     275      363.3
   05/18/2016 09:10      62.6      61.3       74     53.6      0.00      8.37      73.9     0.36      1016.0     2         6         4         1        8.79     277      354.1
   05/18/2016 09:00      61.4      61.1       76     53.6      0.00      8.37      73.5     0.36      1016.0     2        78         3        83        8.79     279      208.8
   05/18/2016 08:50      61.5      60.1       77     53.6      0.00      8.37      73.9     0.36      1016.0     2        69         3        73        8.79     280      293.1
   05/18/2016 08:40      60.3      59.5       80     53.5      0.00      8.37      73.8     0.36      1016.0     2        91         4       109        8.79     282      140.9
   05/18/2016 08:30      59.9      59.4       80     53.5      0.00      8.37      73.8     0.36      1016.0     2        90         3        98        8.79     284      124.3
   05/18/2016 08:20      59.5      58.6       82     53.6      0.00      8.37      74.1     0.36      1016.0     2        57         3        71        8.79     286      128.1
   05/18/2016 08:10      58.9      58.5       83     53.5      0.00      8.37      74.0     0.36      1016.0     1       157         2       159        8.79     288       99.7
   05/18/2016 08:00      58.6      58.4       83     53.4      0.00      8.37      74.3     0.36      1016.0     1        27         2        24        8.79     290       75.9
   05/18/2016 07:50      58.5      57.6       85     53.5      0.00      8.37      73.8     0.36      1016.0     2        17         2         5        8.79     292       78.2
   05/18/2016 07:40      57.6      57.1       86     53.3      0.00      8.37      74.1     0.36      1015.0     2        25         3       354        8.79     293       58.8
   05/18/2016 07:30      57.3      56.5       88     53.3      0.00      8.37      73.9     0.36      1015.0     2        41         3        14        8.79     295       63.2
   05/18/2016 07:20      56.6      56.0       89     53.2      0.00      8.37      74.0     0.36      1015.0     2        85         3        86        8.79     295       58.2
   05/18/2016 07:10      56.2      55.8       89     52.9      0.00      8.37      74.2     0.36      1015.0     2       111         3       105        8.79     296       47.4
   05/18/2016 07:00      55.9      55.6       89     52.4      0.00      8.37      74.5     0.36      1015.0     2        63         4        80        8.79     297       20.7
   05/18/2016 06:50      55.6      54.8       89     52.0      0.00      8.37      74.4     0.36      1015.0     1        57         2        77        8.79     296        4.1
   05/18/2016 06:40      54.8      54.1       90     51.7      0.00      8.37      74.0     0.36      1015.0     1        97         2       120        8.79     295       -4.0
   05/18/2016 06:30      54.2      53.8       90     51.1      0.00      8.37      74.4     0.36      1015.0     1        91         1        78        8.79     295      -12.6
   05/18/2016 06:20      53.9      53.5       91     51.1      0.00      8.37      74.6     0.36      1015.0     1        92         1       123        8.79     294      -19.0
   05/18/2016 06:10      53.6      53.1       90     50.6      0.00      8.37      74.5     0.36      1015.0     0       162         1       124        8.79     293      -27.1
   05/18/2016 06:00      53.6      53.1       90     50.4      0.00      8.37      74.2     0.36      1015.0     1        94         1        78        8.79     292      -34.6
   05/18/2016 05:50      53.6      53.3       90     50.6      0.00      8.37      74.4     0.36      1015.0     1       157         1       150        8.79     291      -39.0
   05/18/2016 05:40      53.7      53.3       90     50.7      0.00      8.37      74.4     0.36      1015.0     1       153         1       159        8.79     289      -44.5
   05/18/2016 05:30      53.3      52.9       90     50.1      0.00      8.37      74.6     0.36      1014.0     1       107         1        77        8.79     288      -50.0
   05/18/2016 05:20      53.4      52.9       89     50.1      0.00      8.37      74.6     0.36      1014.0     1       108         2       116        8.79     286      -53.0
   05/18/2016 05:10      54.0      53.2       88     50.0      0.00      8.37      74.5     0.36      1014.0     1       110         2       111        8.79     285      -54.6
   05/18/2016 05:00      54.6      54.1       87     50.7      0.00      8.37      74.7     0.36      1014.0     1        49         1        79        8.79     284      -55.5
   05/18/2016 04:50      55.1      54.6       86     50.8      0.00      8.37      74.8     0.36      1014.0     1        36         1        26        8.79     283      -57.4
   05/18/2016 04:40      55.1      54.9       86     50.9      0.00      8.37      74.5     0.36      1014.0     1        90         2        68        8.79     282      -59.1
   05/18/2016 04:30      55.4      55.3       85     51.0      0.00      8.37      74.9     0.36      1014.0     1       184         2       221        8.79     282      -58.8
   05/18/2016 04:20      55.6      55.0       86     51.2      0.00      8.37      75.5     0.36      1014.0     1       210         2       271        8.79     281      -59.3
   05/18/2016 04:10      55.2      54.7       86     50.9      0.00      8.37      74.9     0.36      1014.0     1       186         2       218        8.79     280      -60.6
   05/18/2016 04:00      55.6      54.8       85     50.6      0.00      8.37      74.6     0.36      1014.0     2       185         3       193        8.80     280      -62.0
   05/18/2016 03:50      55.7      55.4       84     50.9      0.00      8.37      74.9     0.36      1014.0     2       191         3       200        8.79     279      -61.7
   05/18/2016 03:40      55.7      54.8       84     50.8      0.00      8.37      74.8     0.36      1014.0     2       199         3       206        8.80     279      -60.8
   05/18/2016 03:30      54.8      54.5       86     50.5      0.00      8.37      75.0     0.36      1014.0     1       191         2       202        8.80     278      -60.6
   05/18/2016 03:20      54.6      54.4       86     50.5      0.00      8.37      75.2     0.36      1014.0     2       165         3       137        8.80     277      -61.6
   05/18/2016 03:10      54.7      54.5       87     50.7      0.00      8.37      74.8     0.36      1014.0     2       164         2       161        8.80     276      -60.5
   05/18/2016 03:00      54.7      54.4       86     50.6      0.00      8.37      75.1     0.36      1014.0     2       164         2       164        8.80     276      -62.1
   05/18/2016 02:50      55.1      54.8       86     50.8      0.00      8.37      75.2     0.36      1014.0     2       164         2       138        8.80     275      -62.7
   05/18/2016 02:40      55.7      55.0       84     50.8      0.00      8.37      75.0     0.36      1014.0     1       165         2       200        8.80     274      -63.0
   05/18/2016 02:30      55.8      55.4       85     51.1      0.00      8.37      75.3     0.36      1014.0     1       195         1       204        8.80     274      -62.5
   05/18/2016 02:20      56.0      55.5       84     51.1      0.00      8.37      75.1     0.36      1015.0     1       164         2       157        8.80     273      -63.1
   05/18/2016 02:10      56.6      55.9       82     50.7      0.00      8.37      75.3     0.36      1015.0     1       175         2       140        8.80     272      -63.5
   05/18/2016 02:00      56.8      56.2       82     50.9      0.00      8.37      75.1     0.36      1015.0     1       180         1       195        8.80     272      -62.8
   05/18/2016 01:50      56.5      55.9       82     50.6      0.00      8.37      75.1     0.36      1015.0     1       152         2       124        8.80     271      -63.6
   05/18/2016 01:40      56.5      55.9       80     50.1      0.00      8.37      75.4     0.36      1015.0     1       156         2       142        8.80     270      -64.1
   05/18/2016 01:30      56.8      56.5       80     50.4      0.00      8.37      75.4     0.36      1015.0     1       127         1       146        8.81     270      -63.9
   05/18/2016 01:20      57.1      56.6       78     50.3      0.00      8.37      75.2     0.36      1015.0     1       114         1       125        8.81     270      -64.7
   05/18/2016 01:10      57.6      57.2       77     50.2      0.00      8.37      75.7     0.36      1015.0     1       164         2       232        8.81     269      -64.6
   05/18/2016 01:00      57.8      57.5       78     50.7      0.00      8.37      75.4     0.36      1015.0     2       202         2       206        8.81     268      -64.2
   05/18/2016 00:50      57.5      57.4       77     50.5      0.00      8.37      75.2     0.36      1015.0     1       142         2       139        8.81     268      -64.8
   05/18/2016 00:40      58.1      57.6       76     50.4      0.00      8.37      75.5     0.36      1015.0     2       112         2        72        8.81     267      -65.6
   05/18/2016 00:30      58.3      58.0       76     50.5      0.00      8.37      75.4     0.36      1015.0     1       124         1       143        8.81     267      -65.9
   05/18/2016 00:20      58.9      58.2       75     50.7      0.00      8.37      75.6     0.36      1015.0     1       154         1       178        8.81     267      -66.1
   05/18/2016 00:10      58.9      58.8       75     50.8      0.00      8.37      75.5     0.36      1015.0     2       173         2       174        8.82     267      -66.3
   05/18/2016 00:00      59.4      58.9       74     50.7      0.00      8.37      75.6     0.36      1015.0     1       129         2       106        8.82     267      -66.5
   05/17/2016 23:50      59.7      59.4       73     50.9      0.00      8.37      75.5     0.36      1015.0     1       115         2        74        8.82     267      -66.9
   05/17/2016 23:40      60.0      59.8       72     50.9      0.00      8.37      75.8     0.36      1015.0     1       180         2       197        8.82     267      -67.4
   05/17/2016 23:30      60.2      59.9       72     50.9      0.00      8.37      75.7     0.36      1015.0     2       202         3       212        8.82     267      -67.9
   05/17/2016 23:20      60.0      59.5       73     51.0      0.00      8.37      75.5     0.36      1015.0     1       202         2       198        8.82     267      -67.8
   05/17/2016 23:10      59.9      59.7       72     50.8      0.00      8.37      75.7     0.36      1015.0     2       169         2       181        8.82     267      -68.1
   05/17/2016 23:00      60.3      60.0       71     50.8      0.00      8.37      75.6     0.36      1015.0     1       171         2       151        8.82     267      -68.5
   05/17/2016 22:50      60.6      60.3       71     50.8      0.00      8.37      75.8     0.36      1015.0     2       152         2       172        8.83     267      -69.4
   05/17/2016 22:40      61.0      60.5       70     50.8      0.00      8.37      75.6     0.36      1015.0     2       173         2       201        8.83     267      -69.2
   05/17/2016 22:30      61.6      60.9       69     51.0      0.00      8.37      75.4     0.36      1015.0     1       180         2       168        8.83     268      -70.8
   05/17/2016 22:20      61.5      61.4       68     50.8      0.00      8.37      75.7     0.36      1015.0     2       175         2       172        8.83     268      -71.7
   05/17/2016 22:10      61.8      61.6       68     50.8      0.00      8.37      75.5     0.36      1015.0     2       210         3       221        8.83     268      -72.3
   05/17/2016 22:00      62.4      61.8       66     50.8      0.00      8.37      75.6     0.36      1015.0     2       152         2       193        8.83     268      -73.3
   05/17/2016 21:50      62.4      62.2       66     50.7      0.00      8.37      75.5     0.36      1014.0     1       120         3       147        8.83     268      -74.5
   05/17/2016 21:40      62.8      62.3       65     50.7      0.00      8.37      75.8     0.36      1014.0     2       207         3       236        8.83     268      -74.5
   05/17/2016 21:30      63.2      62.8       64     50.7      0.00      8.37      75.6     0.36      1014.0     2       210         3       210        8.83     268      -74.6
   05/17/2016 21:20      63.3      63.0       64     50.7      0.00      8.37      75.4     0.36      1014.0     2       215         3       239        8.84     267      -74.5
   05/17/2016 21:10      63.6      63.2       63     50.6      0.00      8.37      75.5     0.36      1014.0     2       213         2       220        8.84     267      -74.7
   05/17/2016 21:00      64.4      63.8       62     50.7      0.00      8.37      75.5     0.36      1014.0     2       214         2       231        8.84     268      -75.3
   05/17/2016 20:50      64.4      64.2       61     50.7      0.00      8.37      75.5     0.36      1014.0     1       140         1       102        8.84     267      -75.9
   05/17/2016 20:40      64.8      64.4       61     50.7      0.00      8.37      75.6     0.36      1014.0     3       162         4       149        8.84     267      -76.4
   05/17/2016 20:30      65.3      64.8       60     51.0      0.00      8.37      75.3     0.36      1013.0     4       157         5       150        8.84     267      -76.9
   05/17/2016 20:20      65.8      65.4       60     51.1      0.00      8.37      75.3     0.36      1013.0     3       163         5       151        8.84     267      -76.6
   05/17/2016 20:10      66.5      65.9       59     51.5      0.00      8.37      75.5     0.36      1013.0     3       162         4       168        8.84     267      -72.6
   05/17/2016 20:00      67.4      66.7       58     51.8      0.00      8.37      75.5     0.36      1013.0     4       165         5       182        8.85     267      -67.4
   05/17/2016 19:50      68.2      67.4       57     51.8      0.00      8.37      75.5     0.36      1013.0     2        95         3       116        8.85     267      -73.0
   05/17/2016 19:40      68.5      68.3       56     52.2      0.00      8.37      75.3     0.36      1013.0     2       106         4       101        8.85     267      -68.6
   05/17/2016 19:30      69.1      68.5       56     52.5      0.00      8.37      75.3     0.36      1012.0     4       120         7       136        8.85     267      -64.1
   05/17/2016 19:20      69.8      69.1       55     52.6      0.00      8.37      75.1     0.36      1012.0     4       154         6       133        8.85     266      -52.3
   05/17/2016 19:10      70.3      69.9       54     53.0      0.00      8.37      75.1     0.36      1012.0     3       150         5       142        8.85     266      -39.0
   05/17/2016 19:00      70.9      70.0       54     53.0      0.00      8.37      75.0     0.36      1012.0     5       158         8       139        8.86     266      -21.2
   05/17/2016 18:50      71.7      70.9       53     53.3      0.00      8.37      75.2     0.36      1012.0     6       165         8       156        8.86     266        0.6
   05/17/2016 18:40      72.3      71.9       52     53.4      0.00      8.37      75.2     0.36      1012.0     6       165         8       151        8.86     266       23.0
   05/17/2016 18:30      73.2      72.2       51     53.4      0.00      8.37      75.0     0.36      1011.0     6       150         8       144        8.87     266       44.2
   05/17/2016 18:20      73.4      72.8       50     53.3      0.00      8.37      74.5     0.36      1011.0     6       177         7       162        8.87     266       66.4
   05/17/2016 18:10      75.4      74.0       47     53.7      0.00      8.37      74.9     0.36      1011.0     5       193         9       192        8.87     266       88.9
   05/17/2016 18:00      75.5      74.9       47     53.7      0.00      8.37      74.8     0.36      1011.0     5       211         8       196        8.88     266      115.3
   05/17/2016 17:50      75.8      75.4       47     53.8      0.00      8.37      74.8     0.36      1011.0     5       218         8       212        8.88     266      142.0
   05/17/2016 17:40      75.8      75.4       47     53.7      0.00      8.37      74.8     0.36      1011.0     5       206         8       206        8.89     266      164.4
   05/17/2016 17:30      76.1      75.2       46     53.7      0.00      8.37      74.8     0.36      1011.0     6       220         8       227        8.89     266      190.9
   05/17/2016 17:20      76.8      76.1       45     53.5      0.00      8.37      74.7     0.36      1011.0     6       215         8       204        8.89     266      210.3
   05/17/2016 17:10      77.0      75.8       45     53.5      0.00      8.37      74.7     0.36      1011.0     5       214         7       220        8.90     266      233.8
   05/17/2016 17:00      77.0      76.3       45     53.6      0.00      8.37      74.5     0.36      1011.0     6       222         9       205        8.90     266      257.4
   05/17/2016 16:50      76.8      75.7       45     53.5      0.00      8.37      74.4     0.36      1011.0     6       207         9       192        8.91     266      281.1
   05/17/2016 16:40      75.8      74.7       46     53.0      0.00      8.37      74.7     0.36      1011.0     7       180        10       142        8.91     266      301.5
   05/17/2016 16:30      75.4      74.6       46     53.0      0.00      8.37      74.2     0.36      1011.0     7       157        10       158        8.91     266      322.3
   05/17/2016 16:20      76.2      75.5       45     53.3      0.00      8.37      74.2     0.36      1011.0     5       177         6       141        8.91     266      341.9
   05/17/2016 16:10      76.8      75.7       46     53.7      0.00      8.37      74.2     0.36      1011.0     6       193        10       175        8.92     266      361.0
   05/17/2016 16:00      77.1      75.5       46     53.6      0.00      8.37      74.1     0.36      1011.0     4       197         7       170        8.92     266      380.7
   05/17/2016 15:50      77.4      75.8       45     53.8      0.00      8.37      74.2     0.36      1011.0     5       173         9       127        8.92     267      398.9
   05/17/2016 15:40      77.0      76.3       45     53.9      0.00      8.37      73.8     0.36      1011.0     6       182        11       153        8.92     267      418.0
   05/17/2016 15:30      76.9      75.9       45     53.8      0.00      8.37      73.9     0.36      1011.0     5       161         7       163        8.92     267      436.3
   05/17/2016 15:20      77.0      76.2       46     54.0      0.00      8.37      74.0     0.36      1012.0     3       144         5       207        8.93     268      448.5
   05/17/2016 15:10      77.8      76.4       45     54.0      0.00      8.37      73.9     0.36      1012.0     5       175         9       167        8.93     267      465.1
   05/17/2016 15:00      77.2      75.9       45     53.9      0.00      8.37      73.8     0.36      1012.0     3       201         6       148        8.93     267      476.9
   05/17/2016 14:50      77.3      76.5       45     54.0      0.00      8.37      73.8     0.36      1012.0     5       179         7       203        8.93     267      493.5
   05/17/2016 14:40      77.6      75.6       45     53.9      0.00      8.37      73.5     0.36      1012.0     4       121         8       142        8.93     268      505.1
   05/17/2016 14:30      78.7      77.9       43     54.3      0.00      8.37      73.7     0.36      1012.0     5        55         8        63        8.93     268      513.4
   05/17/2016 14:20      78.7      78.2       44     54.5      0.00      8.37      73.6     0.36      1012.0     4        53         6        33        8.93     268      521.5
   05/17/2016 14:10      77.8      76.2       45     54.2      0.00      8.37      73.5     0.36      1012.0     4        57         8        81        8.93     269      533.1
   05/17/2016 14:00      77.8      76.4       45     54.1      0.00      8.37      73.4     0.36      1012.0     5        56         9        78        8.93     269      543.7
   05/17/2016 13:50      77.4      76.5       45     54.0      0.00      8.37      73.2     0.36      1012.0     4        42         5        77        8.93     270      544.0
   05/17/2016 13:40      78.4      77.4       44     54.0      0.00      8.37      73.6     0.36      1012.0     4        18         5       329        8.93     269      551.9
   05/17/2016 13:30      78.0      77.3       44     54.0      0.00      8.37      73.6     0.36      1012.0     3        33         5        26        8.93     270      561.4
   05/17/2016 13:20      78.1      75.3       46     53.8      0.00      8.37      73.4     0.36      1012.0     4        38         7        92        8.93     270      564.7
   05/17/2016 13:10      76.0      75.2       46     53.7      0.00      8.37      73.4     0.36      1013.0     3        87         5        38        8.93     269      567.1
   05/17/2016 13:00      75.8      75.0       46     53.5      0.00      8.37      73.1     0.36      1013.0     3        37         5        54        8.93     270      572.6
   05/17/2016 12:50      75.2      72.7       49     53.2      0.00      8.37      73.3     0.36      1013.0     2        89         5        37        8.93     270      576.6
   05/17/2016 12:40      74.3      73.2       49     53.2      0.00      8.37      73.1     0.36      1013.0     3        71         5        89        8.93     272      585.7
   05/17/2016 12:30      73.8      72.3       49     53.1      0.00      8.37      73.3     0.36      1013.0     4       308         6       314        8.93     277      575.2
   05/17/2016 12:20      74.1      72.9       49     53.3      0.00      8.37      73.3     0.36      1013.0     3       306         5       311        8.93     279      572.2
   05/17/2016 12:10      73.2      71.3       51     53.1      0.00      8.37      73.3     0.36      1013.0     4       319         5       297        8.93     280      574.2
   05/17/2016 12:00      72.6      71.7       51     53.2      0.00      8.37      73.5     0.36      1013.0     4       326         6         8        8.93     281      579.6
   05/17/2016 11:50      72.3      70.5       53     53.0      0.00      8.37      73.0     0.36      1013.0     3       328         5       312        8.93     282      572.7
   05/17/2016 11:40      70.5      69.8       54     52.9      0.00      8.37      73.4     0.36      1013.0     3       355         4       355        8.93     283      578.1
   05/17/2016 11:30      69.3      68.8       56     52.6      0.00      8.37      73.2     0.36      1013.0     4       273         6       231        8.93     284      521.7
   05/17/2016 11:20      69.5      69.0       56     52.7      0.00      8.37      73.3     0.36      1013.0     4       283         9       238        8.93     289      576.2
   05/17/2016 11:10      68.5      67.4       58     52.5      0.00      8.37      73.8     0.36      1013.0     3       107         5       141        8.93     295      580.0
   05/17/2016 11:00      68.2      66.5       59     52.6      0.00      8.37      73.2     0.36      1013.0     4       169         5       159        8.93     300      500.6
   05/17/2016 10:50      67.9      66.5       60     52.5      0.00      8.37      72.7     0.36      1013.0     4       232         7       215        8.93     306      569.2
   05/17/2016 10:40      67.3      65.5       62     52.6      0.00      8.37      73.8     0.36      1013.0     3        81         7       144        8.93     313      452.2
   05/17/2016 10:30      66.7      65.6       61     52.5      0.00      8.37      72.7     0.36      1013.0     2       168         3       177        8.93     315      342.4
   05/17/2016 10:20      65.9      64.2       64     52.6      0.00      8.37      73.7     0.36      1013.0     2       214         5       194        8.93     318      329.0
   05/17/2016 10:10      65.2      64.5       64     52.5      0.00      8.37      73.9     0.36      1013.0     3       227         6       294        8.93     318      244.4
   05/17/2016 10:00      65.0      64.2       65     52.6      0.00      8.37      73.8     0.36      1013.0     3       254         6       229        8.93     320      222.4
   05/17/2016 09:50      64.2      63.7       66     52.5      0.00      8.37      73.1     0.36      1013.0     2        58         3       109        8.93     327      262.3
   05/17/2016 09:40      63.9      62.8       68     52.6      0.00      8.37      73.2     0.36      1013.0     2       253         4       321        8.93     330      238.2
   05/17/2016 09:30      63.4      62.8       68     52.5      0.00      8.37      74.2     0.36      1013.0     3       210         5       208        8.93     331      149.6
   05/17/2016 09:20      63.5      63.1       68     52.5      0.00      8.37      73.3     0.36      1013.0     3       230         4       228        8.93     334      185.4
   05/17/2016 09:10      63.6      62.7       68     52.5      0.00      8.37      73.5     0.36      1013.0     3       261         5       276        8.92     340      133.7
   05/17/2016 09:00      63.6      62.7       68     52.4      0.00      8.37      73.3     0.36      1013.0     4       241         5       261        8.79     344      254.0
   05/17/2016 08:50      63.5      62.5       69     52.5      0.00      8.37      73.5     0.36      1013.0     2       244         3       250        7.22     347      275.0
   05/17/2016 08:40      62.6      62.3       70     52.4      0.00      8.37      73.9     0.36      1013.0     2       208         3       303        3.58     354      161.5
   05/17/2016 08:30      62.6      62.3       70     52.6      0.00      8.37      73.8     0.35      1013.0     2       304         3       335        5.86     524      125.1
   05/17/2016 08:20      62.3      61.6       71     52.4      0.00      8.37      73.8     0.34      1013.0     2       309         4       298        8.05     274      123.5
   05/17/2016 08:10      61.7      61.3       72     52.3      0.00      8.37      74.2     0.34      1013.0     2       216         3       242        8.05     274       96.3
   05/17/2016 08:00      61.7      61.2       72     52.4      0.00      8.37      74.0     0.34      1013.0     2       250         2       307        8.05     275       88.8
   05/17/2016 07:50      61.4      60.9       73     52.5      0.00      8.37      74.3     0.34      1013.0     1       296         2       313        8.05     276       79.0
   05/17/2016 07:40      61.0      60.1       75     52.5      0.00      8.37      74.2     0.34      1013.0     1       258         2       301        8.05     276       65.3
   05/17/2016 07:30      60.3      60.1       75     52.4      0.00      8.37      74.4     0.34      1013.0     2       239         3       244        8.05     276       46.2
   05/17/2016 07:20      60.3      59.9       76     52.4      0.00      8.37      74.3     0.34      1012.0     1       195         2       187        8.05     276       41.1
   05/17/2016 07:10      60.1      59.3       77     52.4      0.00      8.37      74.4     0.34      1012.0     1       167         2       169        8.05     276       29.3
   05/17/2016 07:00      59.4      59.0       78     52.5      0.00      8.37      74.2     0.34      1012.0     1       160         2       184        8.05     277       23.6
   05/17/2016 06:50      59.1      58.2       80     52.4      0.00      8.37      74.2     0.34      1012.0     1       197         1       159        8.05     277        9.9
   05/17/2016 06:40      58.1      57.6       81     52.1      0.00      8.37      74.4     0.34      1012.0     1       177         2       186        8.05     277       -8.7
   05/17/2016 06:30      57.6      57.4       81     51.8      0.00      8.37      74.0     0.34      1012.0     1       155         1       163        8.05     278      -18.2
   05/17/2016 06:20      57.5      56.9       83     51.9      0.00      8.37      74.0     0.34      1012.0     1       153         2       168        8.05     277      -33.9
   05/17/2016 06:10      57.1      56.4       84     51.9      0.00      8.37      74.5     0.34      1012.0     1       186         2       179        8.05     277      -29.4
   05/17/2016 06:00      56.4      56.0       84     51.3      0.00      8.37      74.3     0.34      1012.0     1       165         1       161        8.05     277      -28.6
   05/17/2016 05:50      56.6      56.4       83     51.3      0.00      8.37      74.6     0.34      1012.0     1       183         2       223        8.05     277      -43.6
   05/17/2016 05:40      56.8      56.4       83     51.6      0.00      8.37      74.7     0.34      1012.0     1       179         2       168        8.05     277      -56.9
   05/17/2016 05:30      57.5      56.5       80     51.0      0.00      8.37      74.2     0.34      1012.0     1       150         2       176        8.05     276      -59.5
   05/17/2016 05:20      58.5      58.0       79     51.8      0.00      8.37      74.3     0.34      1012.0     1       251         1       252        8.05     276      -63.3
   05/17/2016 05:10      58.6      58.3       78     51.8      0.00      8.37      74.3     0.34      1012.0     2       239         2       218        8.05     276      -60.9
   05/17/2016 05:00      58.6      58.3       78     51.7      0.00      8.37      74.6     0.34      1012.0     2       246         3       230        8.05     276      -51.5
   05/17/2016 04:50      58.5      58.2       78     51.5      0.00      8.37      74.8     0.34      1012.0     2       230         3       246        8.05     276      -49.3
   05/17/2016 04:40      58.8      58.5       78     51.6      0.00      8.37      74.5     0.34      1012.0     2       228         4       243        8.05     275      -54.0
   05/17/2016 04:30      59.1      58.7       77     51.8      0.00      8.37      74.6     0.34      1012.0     2       223         3       235        8.05     275      -57.9
   05/17/2016 04:20      59.3      58.9       77     52.0      0.00      8.37      74.5     0.34      1011.0     2       224         3       244        8.06     275      -60.7
   05/17/2016 04:10      59.5      59.4       76     52.0      0.00      8.37      74.7     0.34      1011.0     2       234         3       235        8.06     275      -49.9
   05/17/2016 04:00      59.7      59.4       76     52.0      0.00      8.37      74.4     0.34      1011.0     1       214         1       208        8.06     275      -31.5
   05/17/2016 03:50      59.5      59.3       76     52.0      0.00      8.37      74.8     0.34      1011.0     1       217         1       231        8.06     275      -29.4
   05/17/2016 03:40      59.4      59.2       77     51.9      0.00      8.37      74.7     0.34      1011.0     1       169         1       135        8.06     275      -24.9
   05/17/2016 03:30      59.3      59.1       77     51.9      0.00      8.37      75.1     0.34      1011.0     1       202         2       220        8.06     275      -29.6
   05/17/2016 03:20      59.4      59.1       76     51.9      0.00      8.37      74.7     0.34      1012.0     2       202         3       212        8.06     274      -44.4
   05/17/2016 03:10      59.5      59.4       76     51.9      0.00      8.37      74.9     0.34      1012.0     2       203         3       208        8.06     274      -48.2
   05/17/2016 03:00      60.0      59.7       75     52.0      0.00      8.37      74.7     0.34      1012.0     1       203         2       212        8.06     274      -41.2
   05/17/2016 02:50      60.0      59.8       75     52.1      0.00      8.37      74.8     0.34      1012.0     1       218         2       262        8.06     274      -29.1
   05/17/2016 02:40      59.9      59.7       75     52.1      0.00      8.37      74.7     0.34      1012.0     2       214         2       214        8.06     274      -30.4
   05/17/2016 02:30      60.1      59.7       75     52.0      0.00      8.37      74.8     0.34      1012.0     1       181         3       259        8.06     274      -38.4
   05/17/2016 02:20      59.9      59.7       75     51.9      0.00      8.37      74.8     0.34      1012.0     1       205         2       216        8.06     274      -42.2
   05/17/2016 02:10      59.9      59.6       74     51.7      0.00      8.37      75.0     0.34      1012.0     1       195         2       189        8.06     273      -45.3
   05/17/2016 02:00      60.1      59.8       74     51.7      0.00      8.37      74.9     0.34      1012.0     1       191         2       154        8.06     273      -47.4
   05/17/2016 01:50      60.3      60.1       73     51.7      0.00      8.37      75.0     0.34      1012.0     2       183         3       174        8.06     273      -45.3
   05/17/2016 01:40      60.5      60.3       73     51.6      0.00      8.37      75.1     0.34      1012.0     2       180         2       164        8.06     272      -36.4
   05/17/2016 01:30      60.6      60.3       72     51.5      0.00      8.37      75.2     0.34      1012.0     2       181         3       183        8.06     272      -37.3
   05/17/2016 01:20      60.9      60.6       71     51.4      0.00      8.37      75.1     0.34      1012.0     2       192         3       208        8.06     272      -37.1
   05/17/2016 01:10      60.9      60.7       71     51.4      0.00      8.37      74.7     0.34      1012.0     2       164         3       193        8.07     272      -30.6
   05/17/2016 01:00      60.9      60.8       71     51.3      0.00      8.37      74.8     0.34      1012.0     2       176         3       222        8.07     271      -28.3
   05/17/2016 00:50      61.0      60.8       71     51.3      0.00      8.37      75.1     0.34      1012.0     1       198         2       185        8.07     272      -31.5
   05/17/2016 00:40      61.2      60.8       70     51.3      0.00      8.37      74.9     0.34      1012.0     2       168         3       154        8.07     271      -40.4
   05/17/2016 00:30      61.3      61.1       70     51.4      0.00      8.37      74.8     0.34      1012.0     2       183         3       161        8.08     271      -23.5
   05/17/2016 00:20      61.5      61.3       69     51.3      0.00      8.37      75.2     0.34      1013.0     1       179         3       181        8.08     271      -21.3
   05/17/2016 00:10      61.7      61.3       69     51.3      0.00      8.37      75.3     0.34      1013.0     1       199         2       190        8.08     271      -21.9
   05/17/2016 00:00      61.6      61.2       69     51.2      0.00      8.37      75.2     0.34      1013.0     2       212         3       235        8.09     271      -20.9
   05/16/2016 23:50      61.4      61.2       69     51.2      0.00      8.37      75.2     0.34      1013.0     2       199         3       223        8.09     271      -19.6
   05/16/2016 23:40      61.5      61.2       69     51.3      0.00      8.37      75.0     0.34      1013.0     2       219         4       212        8.10     271      -20.3
   05/16/2016 23:30      61.4      61.1       70     51.2      0.00      8.37      74.8     0.34      1012.0     2       191         3       251        8.10     271      -22.6
   05/16/2016 23:20      61.4      61.1       70     51.2      0.00      8.37      75.2     0.34      1012.0     2       193         3       191        8.10     271      -21.7
   05/16/2016 23:10      61.2      61.0       70     51.2      0.00      8.37      75.2     0.34      1012.0     2       196         3       222        8.11     271      -25.1
   05/16/2016 23:00      61.2      60.9       70     51.1      0.00      8.37      74.9     0.34      1012.0     2       186         3       177        8.11     271      -22.2
   05/16/2016 22:50      61.0      60.9       70     51.0      0.00      8.37      75.3     0.34      1013.0     1       136         2       203        8.11     271      -44.7
   05/16/2016 22:40      61.1      60.9       69     51.0      0.00      8.37      75.2     0.34      1012.0     2       190         3       192        8.11     270      -54.9
   05/16/2016 22:30      61.1      60.9       70     51.0      0.00      8.37      75.1     0.34      1012.0     3       177         4       174        8.11     270      -36.3
   05/16/2016 22:20      61.3      60.9       69     51.1      0.00      8.37      75.0     0.34      1012.0     3       169         4       155        8.11     270      -37.9
   05/16/2016 22:10      61.6      61.3       68     50.8      0.00      8.37      75.0     0.34      1012.0     3       184         4       194        8.11     270      -29.9
   05/16/2016 22:00      61.9      61.6       67     50.6      0.00      8.37      75.3     0.34      1012.0     2       155         4       153        8.12     269      -34.4
   05/16/2016 21:50      61.9      61.4       67     50.5      0.00      8.37      75.0     0.34      1012.0     3       159         5       179        8.12     269      -33.0
   05/16/2016 21:40      62.0      61.7       66     50.3      0.00      8.37      74.9     0.34      1012.0     3       156         5       160        8.12     269      -27.3
   05/16/2016 21:30      62.0      61.7       65     50.1      0.00      8.37      75.1     0.34      1012.0     2       149         3       173        8.12     269      -24.3
   05/16/2016 21:20      61.9      61.4       66     50.1      0.00      8.37      75.3     0.34      1012.0     1        75         2       105        8.12     269      -27.5
   05/16/2016 21:10      61.5      61.2       66     50.1      0.00      8.37      75.1     0.34      1012.0     1       121         2       100        8.12     269      -44.7
   05/16/2016 21:00      61.6      61.3       66     50.0      0.00      8.37      75.0     0.34      1012.0     1       137         1       147        8.12     269      -70.1
   05/16/2016 20:50      62.1      61.7       65     50.2      0.00      8.37      75.2     0.34      1012.0     2       136         3       128        8.12     269      -76.7
   05/16/2016 20:40      62.4      62.2       65     50.3      0.00      8.37      74.9     0.34      1012.0     1       124         2       100        8.12     269      -78.2
   05/16/2016 20:30      62.4      62.2       65     50.3      0.00      8.37      75.0     0.34      1012.0     2       158         3       182        8.13     268      -79.1
   05/16/2016 20:20      62.9      62.3       64     50.3      0.00      8.37      74.7     0.34      1012.0     4       152         5       149        8.12     268      -78.7
   05/16/2016 20:10      62.9      62.8       64     50.4      0.00      8.37      74.7     0.34      1012.0     3       168         4       183        8.13     267      -65.3
   05/16/2016 20:00      63.6      63.0       63     50.5      0.00      8.37      74.8     0.34      1011.0     3       185         4       157        8.13     267      -58.8
   05/16/2016 19:50      63.7      63.4       63     50.6      0.00      8.37      75.1     0.34      1011.0     3       149         6       144        8.13     267      -69.2
   05/16/2016 19:40      64.0      63.7       63     50.8      0.00      8.37      75.0     0.34      1011.0     5       147         6       170        8.13     267      -70.3
   05/16/2016 19:30      65.0      64.2       61     51.1      0.00      8.37      75.0     0.34      1011.0     6       143         8       140        8.13     267      -64.0
   05/16/2016 19:20      65.3      64.9       61     51.1      0.00      8.37      74.5     0.34      1011.0     5       147         8       138        8.14     267      -53.5
   05/16/2016 19:10      65.8      65.4       60     51.3      0.00      8.37      74.6     0.34      1011.0     6       150         8       152        8.14     267      -41.3
   05/16/2016 19:00      66.3      65.7       59     51.4      0.00      8.37      74.5     0.34      1011.0     6       171         9       181        8.14     266      -24.1
   05/16/2016 18:50      67.0      66.3       58     51.6      0.00      8.37      74.7     0.34      1011.0     6       172         8       145        8.14     266        0.1
   05/16/2016 18:40      67.3      67.0       58     51.9      0.00      8.37      74.5     0.34      1011.0     6       155         8       155        8.15     266       22.9
   05/16/2016 18:30      67.6      67.1       58     51.9      0.00      8.37      74.5     0.34      1011.0     6       166         9       163        8.15     266       44.4
   05/16/2016 18:20      68.7      67.2       57     52.0      0.00      8.37      74.8     0.34      1011.0     7       180        10       179        8.15     265       67.7
   05/16/2016 18:10      68.8      68.3       56     52.2      0.00      8.37      74.6     0.34      1010.0     6       165         9       149        8.15     265       89.9
   05/16/2016 18:00      69.3      68.7       55     52.5      0.00      8.37      74.5     0.34      1010.0     6       161         8       135        8.15     265      113.6
   05/16/2016 17:50      70.0      69.0       55     52.5      0.00      8.37      74.3     0.34      1010.0     5       156         8       147        8.16     265      138.2
   05/16/2016 17:40      69.9      69.4       54     52.5      0.00      8.37      74.3     0.34      1011.0     5       159         7       159        8.16     265      159.6
   05/16/2016 17:30      70.1      69.4       54     52.5      0.00      8.37      74.3     0.34      1011.0     5       156         7       163        8.16     265      185.6
   05/16/2016 17:20      70.0      69.5       54     52.4      0.00      8.37      74.3     0.34      1011.0     4       152         6       178        8.16     265      208.5
   05/16/2016 17:10      70.5      69.6       53     52.4      0.00      8.37      74.2     0.34      1011.0     4       135         8       124        8.16     265      237.3
   05/16/2016 17:00      69.8      69.3       54     52.3      0.00      8.37      74.0     0.34      1011.0     6       124        11       127        8.17     265      262.0
   05/16/2016 16:50      70.0      68.9       54     52.3      0.00      8.37      73.9     0.34      1011.0     6       120         9       134        8.17     265      282.6
   05/16/2016 16:40      70.3      69.3       54     52.4      0.00      8.37      73.9     0.34      1011.0     8       136        12       126        8.17     265      305.4
   05/16/2016 16:30      70.7      69.7       54     52.6      0.00      8.37      74.0     0.34      1011.0     7       162         9       175        8.17     265      327.6
   05/16/2016 16:20      71.0      70.3       53     52.7      0.00      8.37      74.0     0.34      1011.0     6       155         9       152        8.17     265      347.9
   05/16/2016 16:10      71.3      70.3       53     52.8      0.00      8.37      73.8     0.34      1011.0     7       152        10       158        8.18     265      367.6
   05/16/2016 16:00      71.6      70.5       53     52.8      0.00      8.37      73.7     0.34      1011.0     6       166         7       137        8.18     265      387.3
   05/16/2016 15:50      71.9      70.9       52     52.8      0.00      8.37      73.5     0.34      1011.0     7       149         9       137        8.18     265      404.0
   05/16/2016 15:40      71.6      70.7       52     52.8      0.00      8.37      73.6     0.34      1011.0     5       170         8       172        8.19     265      421.4
   05/16/2016 15:30      72.0      71.2       52     52.7      0.00      8.37      73.5     0.34      1011.0     5       142         9       149        8.19     265      437.4
   05/16/2016 15:20      71.3      70.5       52     52.7      0.00      8.37      73.6     0.34      1011.0     5       132        10       137        8.19     265      452.1
   05/16/2016 15:10      71.8      71.0       52     52.8      0.00      8.37      73.3     0.34      1011.0     7       133        11       137        8.19     265      469.4
   05/16/2016 15:00      71.5      71.0       52     52.8      0.00      8.37      73.6     0.34      1011.0     7       147        10       144        8.19     265      481.3
   05/16/2016 14:50      72.7      71.0       51     52.8      0.00      8.37      73.3     0.34      1011.0     6       176         9       184        8.20     265      494.9
   05/16/2016 14:40      72.8      72.0       50     53.0      0.00      8.37      73.3     0.34      1011.0     6       141         9       139        8.20     265      514.5
   05/16/2016 14:30      72.5      71.0       51     52.9      0.00      8.37      73.4     0.34      1011.0     6       109         9        79        8.21     266      529.2
   05/16/2016 14:20      73.2      72.3       50     53.1      0.00      8.37      73.0     0.34      1011.0     5        99        10       109        8.21     266      525.7
   05/16/2016 14:10      72.9      71.8       51     53.0      0.00      8.37      73.0     0.34      1011.0     5       123         9       161        8.21     266      506.5
   05/16/2016 14:00      73.0      72.4       50     53.1      0.00      8.37      73.1     0.34      1012.0     4        78         7        96        8.21     266      493.9
   05/16/2016 13:50      72.8      71.4       51     53.0      0.00      8.37      73.2     0.34      1012.0     4       166         8       119        8.22     267      573.3
   05/16/2016 13:40      72.1      70.9       52     53.0      0.00      8.37      72.9     0.34      1012.0     4       137         8       125        8.22     266      571.8
   05/16/2016 13:30      71.6      70.3       53     53.1      0.00      8.37      72.8     0.34      1012.0     4       126         7       140        8.22     267      582.2
   05/16/2016 13:20      70.5      69.5       55     53.0      0.00      8.37      72.7     0.34      1012.0     4       145         6       109        8.22     266      453.8
   05/16/2016 13:10      71.5      71.0       53     53.2      0.00      8.37      72.8     0.34      1012.0     6       128         9       125        8.23     266      559.0
   05/16/2016 13:00      73.5      71.7       51     53.5      0.00      8.37      72.7     0.34      1012.0     4       108         6       162        8.23     266      605.0
   05/16/2016 12:50      72.9      70.3       53     53.6      0.00      8.37      72.8     0.34      1012.0     4        69         6        26        8.23     266      596.9
   05/16/2016 12:40      72.2      70.8       53     53.5      0.00      8.37      72.7     0.34      1012.0     5        79         8        73        8.23     266      538.5
   05/16/2016 12:30      71.6      70.3       54     53.4      0.00      8.37      72.8     0.34      1012.0     5       119         8       138        8.23     266      585.9
   05/16/2016 12:20      71.2      68.8       56     53.3      0.00      8.37      72.5     0.34      1012.0     5       147        10       131        8.23     267      583.4
   05/16/2016 12:10      70.5      69.3       56     53.4      0.00      8.37      72.4     0.34      1013.0     6       128         9       129        8.23     267      643.5
   05/16/2016 12:00      70.8      70.1       55     53.4      0.00      8.37      72.7     0.34      1013.0     4       116         8       138        8.23     268      683.0
   05/16/2016 11:50      70.2      68.7       57     53.1      0.00      8.37      72.7     0.34      1013.0     4       164         6       166        8.23     268      622.1
   05/16/2016 11:40      69.9      68.7       57     53.4      0.00      8.37      72.6     0.34      1013.0     5       121         6       144        8.23     268      616.8
   05/16/2016 11:30      69.8      69.2       55     52.6      0.00      8.37      72.6     0.34      1013.0     3       106         6       130        8.24     268      386.3
   05/16/2016 11:20      71.2      68.8       53     52.2      0.00      8.37      72.7     0.34      1013.0     3        19         5        69        8.24     268      300.1
   05/16/2016 11:10      71.2      70.0       52     52.3      0.00      8.37      72.9     0.34      1013.0     2        39         3        14        8.24     268      503.6
   05/16/2016 11:00      69.2      68.2       55     52.1      0.00      8.37      72.6     0.34      1013.0     3        11         5        18        8.24     268      520.8
   05/16/2016 10:50      69.6      68.1       55     52.2      0.00      8.37      72.6     0.34      1013.0     3       350         6       325        8.24     269      511.3
   05/16/2016 10:40      68.7      66.9       57     51.9      0.00      8.37      72.5     0.34      1013.0     2       327         4       330        8.24     270      523.4
   05/16/2016 10:30      67.6      65.8       59     51.8      0.00      8.37      72.4     0.34      1013.0     3       274         4       268        8.24     270      489.1
   05/16/2016 10:20      67.1      66.1       59     51.8      0.00      8.37      72.6     0.34      1013.0     3       261         5       232        8.24     271      463.0
   05/16/2016 10:10      65.9      64.6       61     51.6      0.00      8.37      72.6     0.34      1013.0     3       121         5        84        8.24     273      449.5
   05/16/2016 10:00      66.0      65.0       61     51.6      0.00      8.37      72.7     0.34      1013.0     2        33         4       209        8.24     273      443.8
   05/16/2016 09:50      65.2      64.5       62     51.5      0.00      8.37      72.7     0.34      1013.0     2       275         4       265        8.24     272      428.6
   05/16/2016 09:40      65.8      65.1       61     51.7      0.00      8.37      72.8     0.34      1013.0     3       293         5       274        8.24     272      464.7
   05/16/2016 09:30      65.0      64.0       63     51.7      0.00      8.37      72.8     0.34      1013.0     3       306         5       339        8.24     273      452.3
   05/16/2016 09:20      64.0      63.4       64     51.5      0.00      8.37      72.8     0.34      1013.0     3       337         6       290        8.24     273      446.4
   05/16/2016 09:10      63.8      62.4       66     51.4      0.00      8.37      72.8     0.34      1013.0     2       354         3       318        8.24     273      326.6
   05/16/2016 09:00      62.5      61.5       68     51.2      0.00      8.37      72.7     0.34      1013.0     2       355         3        26        8.24     275      227.0
   05/16/2016 08:50      61.8      60.5       69     51.0      0.00      8.37      72.7     0.34      1013.0     2       274         3       255        8.24     275      283.3
   05/16/2016 08:40      61.0      60.5       70     51.0      0.00      8.37      72.7     0.34      1013.0     2       258         4       269        8.24     275      157.3
   05/16/2016 08:30      61.4      60.4       70     51.1      0.00      8.37      72.8     0.34      1013.0     2       116         3        60        8.24     275      128.6
   05/16/2016 08:20      60.4      59.9       72     51.0      0.00      8.37      72.7     0.34      1013.0     2       136         3       109        8.25     276      134.7
   05/16/2016 08:10      59.9      59.7       73     51.0      0.00      8.37      72.9     0.34      1013.0     2       184         3       133        8.25     276       97.6
   05/16/2016 08:00      59.9      59.8       73     51.2      0.00      8.37      72.9     0.34      1013.0     2       237         3       273        8.25     277       73.1
   05/16/2016 07:50      60.1      59.4       74     51.4      0.00      8.37      73.0     0.34      1013.0     3       194         5       223        8.25     276      114.4
   05/16/2016 07:40      59.5      58.8       76     51.6      0.00      8.37      73.1     0.34      1013.0     2       167         4       166        8.25     278       83.6
   05/16/2016 07:30      58.9      58.3       77     51.4      0.00      8.37      73.0     0.34      1013.0     2       192         3       254        8.25     279       60.9
   05/16/2016 07:20      58.5      58.2       78     51.3      0.00      8.37      73.1     0.34      1013.0     2       215         3       220        8.25     280       22.1
   05/16/2016 07:10      58.2      57.9       78     51.2      0.00      8.37      73.2     0.34      1013.0     2       222         3       242        8.25     281      -17.3
   05/16/2016 07:00      58.0      57.4       79     51.1      0.00      8.37      73.3     0.34      1013.0     2       247         2       239        8.25     281       17.5
   05/16/2016 06:50      57.5      57.1       80     51.1      0.00      8.37      73.2     0.34      1013.0     2       258         4       260        8.25     282       11.0
   05/16/2016 06:40      57.3      56.8       80     51.0      0.00      8.37      73.4     0.34      1013.0     2       248         3       261        8.25     282       14.1
   05/16/2016 06:30      56.8      56.4       81     50.9      0.00      8.37      73.5     0.34      1013.0     2       246         3       242        8.25     283        2.0
   05/16/2016 06:20      56.5      56.2       82     50.9      0.00      8.37      73.3     0.34      1012.0     2       212         2       233        8.25     283       -6.8
   05/16/2016 06:10      56.3      55.4       84     51.0      0.00      8.37      73.5     0.34      1012.0     2       228         3       261        8.25     284      -17.0
   05/16/2016 06:00      55.6      55.3       85     51.0      0.00      8.37      73.3     0.34      1012.0     1       176         2       217        8.25     284      -14.2
   05/16/2016 05:50      55.2      53.9       88     50.8      0.00      8.37      73.3     0.34      1012.0     2       222         2       214        8.25     284      -15.1
   05/16/2016 05:40      53.8      53.0       89     50.3      0.00      8.37      73.8     0.34      1012.0     1       173         2       133        8.25     286       -9.9
   05/16/2016 05:30      53.1      52.6       90     50.0      0.00      8.37      73.5     0.34      1012.0     1       168         2       183        8.25     286      -19.4
   05/16/2016 05:20      53.4      52.9       89     49.9      0.00      8.37      73.7     0.34      1012.0     2       162         3       154        8.25     286      -50.9
   05/16/2016 05:10      53.9      53.3       88     50.1      0.00      8.37      73.2     0.34      1012.0     2       192         2       202        8.25     285      -60.4
   05/16/2016 05:00      53.9      52.8       89     50.2      0.00      8.37      73.5     0.34      1012.0     3       182         3       179        8.25     285      -40.4
   05/16/2016 04:50      52.9      52.5       90     49.8      0.00      8.37      73.5     0.34      1012.0     2       186         2       150        8.25     286      -33.8
   05/16/2016 04:40      53.2      52.6       89     49.8      0.00      8.37      74.2     0.34      1012.0     1       148         2       158        8.25     286      -50.3
   05/16/2016 04:30      53.4      53.1       88     49.7      0.00      8.37      73.8     0.34      1012.0     1       117         2       123        8.25     285      -60.3
   05/16/2016 04:20      54.1      53.5       86     49.6      0.00      8.37      73.4     0.34      1012.0     1       165         1       164        8.25     284      -63.1
   05/16/2016 04:10      55.2      54.3       84     50.1      0.00      8.37      73.6     0.34      1012.0     1       193         1       185        8.25     284      -63.1
   05/16/2016 04:00      56.0      55.6       82     50.4      0.00      8.37      73.9     0.34      1012.0     0       235         1       235        8.25     283      -65.3
   05/16/2016 03:50      56.2      55.9       82     50.6      0.00      8.37      74.1     0.34      1012.0     2       277         2       297        8.26     283      -65.8
   05/16/2016 03:40      56.0      55.6       83     50.7      0.00      8.37      73.9     0.34      1012.0     1       304         2       274        8.26     282      -34.8
   05/16/2016 03:30      55.6      55.0       84     50.7      0.00      8.37      74.0     0.34      1012.0     1        68         2       148        8.26     282      -13.1
   05/16/2016 03:20      55.1      54.4       85     50.3      0.00      8.37      73.9     0.34      1013.0     1       153         2       190        8.26     282      -16.1
   05/16/2016 03:10      54.3      53.5       87     49.9      0.00      8.37      74.0     0.34      1013.0     1       166         2       195        8.26     282      -12.8
   05/16/2016 03:00      53.6      53.0       88     49.8      0.00      8.37      74.0     0.34      1012.0     1       162         1       126        8.26     283      -19.3
   05/16/2016 02:50      53.0      52.4       89     49.6      0.00      8.37      74.3     0.34      1013.0     1       147         2       111        8.26     283      -16.4
   05/16/2016 02:40      52.5      52.2       89     49.1      0.00      8.37      73.8     0.34      1013.0     1       152         2       143        8.26     283      -41.9
   05/16/2016 02:30      52.3      52.0       88     48.8      0.00      8.37      73.9     0.34      1013.0     1       160         2       140        8.26     283      -55.0
   05/16/2016 02:20      52.6      52.2       88     48.7      0.00      8.37      74.3     0.34      1013.0     2       152         2       162        8.26     282      -56.0
   05/16/2016 02:10      52.6      52.1       88     48.8      0.00      8.37      74.1     0.34      1013.0     1       152         2       143        8.26     282      -58.3
   05/16/2016 02:00      53.0      52.3       87     48.7      0.00      8.37      74.3     0.34      1013.0     2       144         2       136        8.26     282      -58.8
   05/16/2016 01:50      53.2      53.0       87     49.2      0.00      8.37      74.0     0.34      1013.0     1       175         1       144        8.26     281      -57.0
   05/16/2016 01:40      53.3      53.0       86     49.2      0.00      8.37      74.1     0.34      1013.0     1       164         1       209        8.26     280      -58.6
   05/16/2016 01:30      53.6      53.2       85     49.0      0.00      8.37      74.2     0.34      1013.0     1       141         2       132        8.26     280      -61.0
   05/16/2016 01:20      53.7      53.5       84     49.1      0.00      8.37      74.2     0.34      1013.0     1       196         2       223        8.26     280      -61.2
   05/16/2016 01:10      53.7      53.2       87     49.5      0.00      8.37      74.6     0.34      1013.0     1       213         1       179        8.27     280      -60.0
   05/16/2016 01:00      53.7      53.1       86     49.3      0.00      8.37      74.2     0.34      1013.0     1       148         2       186        8.27     279      -61.8
   05/16/2016 00:50      54.1      53.6       84     49.1      0.00      8.37      74.1     0.34      1013.0     1       115         2       100        8.27     279      -63.0
   05/16/2016 00:40      54.5      54.2       84     49.8      0.00      8.37      74.5     0.34      1013.0     1       119         1       116        8.27     279      -63.6
   05/16/2016 00:30      54.5      54.0       84     49.8      0.00      8.37      74.4     0.34      1013.0     2       213         2       208        8.27     279      -64.2
   05/16/2016 00:20      54.5      54.1       84     49.6      0.00      8.37      74.1     0.34      1013.0     2       140         3       183        8.27     278      -65.3
   05/16/2016 00:10      54.6      54.4       85     50.0      0.00      8.37      74.6     0.34      1013.0     1       178         2       125        8.27     278      -64.4
   05/16/2016 00:00      55.1      54.5       83     49.8      0.00      8.37      74.3     0.34      1013.0     2       144         2       132        8.27     277      -65.3
   05/15/2016 23:50      55.5      55.2       83     50.2      0.00      8.37      74.5     0.34      1013.0     1       168         2       127        8.27     277      -65.1
   05/15/2016 23:40      55.7      55.4       82     50.2      0.00      8.37      74.4     0.34      1013.0     1       193         1       142        8.27     276      -64.9
   05/15/2016 23:30      56.0      55.5       80     49.8      0.00      8.37      74.8     0.34      1013.0     1       120         1       129        8.27     276      -65.7
   05/15/2016 23:20      56.1      55.5       79     49.5      0.00      8.37      74.4     0.34      1013.0     1       141         2       148        8.27     276      -66.1
   05/15/2016 23:10      56.6      56.5       77     49.6      0.00      8.37      74.6     0.34      1013.0     1       103         1       128        8.27     275      -66.5
   05/15/2016 23:00      57.1      56.4       77     49.7      0.00      8.37      74.7     0.34      1013.0     1       143         1       103        8.27     275      -66.6
   05/15/2016 22:50      56.8      56.4       76     49.1      0.00      8.37      74.6     0.34      1013.0     1       141         1       138        8.27     274      -67.1
   05/15/2016 22:40      57.0      56.8       75     49.2      0.00      8.37      74.6     0.34      1013.0     1       130         2       107        8.28     274      -68.1
   05/15/2016 22:30      57.2      56.9       74     49.0      0.00      8.37      75.0     0.34      1013.0     1       197         2       114        8.28     274      -68.5
   05/15/2016 22:20      57.5      56.9       74     48.9      0.00      8.37      74.4     0.34      1013.0     1       174         2       163        8.28     274      -68.5
   05/15/2016 22:10      57.8      57.5       74     49.3      0.00      8.37      74.8     0.34      1013.0     1       110         2       146        8.28     273      -68.9
   05/15/2016 22:00      58.0      57.8       73     49.4      0.00      8.37      74.6     0.35      1013.0     1       130         1       165        8.28     273      -69.4
   05/15/2016 21:50      58.2      57.8       72     48.9      0.00      8.37      74.7     0.35      1013.0     1       180         2       201        8.28     273      -69.6
   05/15/2016 21:40      58.6      58.3       71     49.1      0.00      8.37      74.7     0.35      1013.0     2       183         2       197        8.28     272      -70.1
   05/15/2016 21:30      59.0      58.6       70     48.9      0.00      8.37      74.8     0.35      1013.0     2       172         2       168        8.28     271      -69.8
   05/15/2016 21:20      59.8      59.2       69     49.0      0.00      8.37      74.6     0.35      1013.0     1       151         2       137        8.28     271      -70.5
   05/15/2016 21:10      60.5      59.9       67     49.0      0.00      8.37      74.5     0.34      1013.0     1       136         2       137        8.28     271      -71.5
   05/15/2016 21:00      61.2      60.9       66     49.4      0.00      8.37      74.8     0.34      1012.0     1       234         2       238        8.28     271      -72.7
   05/15/2016 20:50      61.5      61.2       65     49.5      0.00      8.37      74.7     0.35      1012.0     1       322         1       306        8.28     271      -74.2
   05/15/2016 20:40      61.5      61.3       65     49.5      0.00      8.37      74.9     0.34      1012.0     2       237         2       254        8.28     270      -74.8
   05/15/2016 20:30      61.7      61.3       65     49.5      0.00      8.37      74.7     0.35      1012.0     2       225         2       252        8.28     270      -75.9
   05/15/2016 20:20      61.9      61.7       64     49.6      0.00      8.37      74.9     0.35      1012.0     2       194         4       189        8.28     269      -76.5
   05/15/2016 20:10      62.6      62.1       63     49.7      0.00      8.37      74.5     0.34      1012.0     3       155         4       147        8.28     269      -76.8
   05/15/2016 20:00      62.7      62.4       63     49.8      0.00      8.37      74.7     0.34      1012.0     3       139         4       121        8.29     269      -74.2
   05/15/2016 19:50      63.2      62.8       63     50.1      0.00      8.37      74.7     0.34      1012.0     3       161         5       163        8.29     269      -73.6
   05/15/2016 19:40      63.6      63.2       62     50.1      0.00      8.37      74.7     0.34      1012.0     4       148         6       125        8.29     268      -63.6
   05/15/2016 19:30      64.4      63.6       61     50.3      0.00      8.37      74.7     0.34      1012.0     5       154         7       165        8.29     268      -55.5
   05/15/2016 19:20      65.3      64.2       60     50.4      0.00      8.37      74.7     0.34      1012.0     6       144        10       125        8.29     267      -40.0
   05/15/2016 19:10      65.8      65.5       59     50.7      0.00      8.37      74.8     0.35      1011.0     5       145         8       116        8.29     267      -27.8
   05/15/2016 19:00      66.8      65.9       57     50.8      0.00      8.37      74.7     0.34      1011.0     6       158         8       158        8.30     267      -13.3
   05/15/2016 18:50      67.1      66.8       56     50.7      0.00      8.37      74.5     0.34      1011.0     4       164         7       163        8.30     267        8.9
   05/15/2016 18:40      66.9      66.5       56     50.4      0.00      8.37      74.6     0.34      1011.0     4       164         7       169        8.30     267       17.4
   05/15/2016 18:30      67.0      66.4       55     50.3      0.00      8.37      74.3     0.34      1011.0     5       149         8       160        8.30     266      -13.0
   05/15/2016 18:20      68.2      67.2       54     50.5      0.00      8.37      74.5     0.34      1011.0     4       164         5       154        8.30     266       71.6
   05/15/2016 18:10      67.6      67.2       55     50.4      0.00      8.37      74.6     0.34      1011.0     4       180         6       174        8.30     266      101.5
   05/15/2016 18:00      67.4      67.1       55     50.5      0.00      8.37      74.7     0.34      1011.0     4       178         7       165        8.30     266       95.9
   05/15/2016 17:50      67.8      67.3       54     50.5      0.00      8.37      74.5     0.34      1011.0     6       158         9       161        8.31     266      105.7
   05/15/2016 17:40      68.6      67.6       54     50.8      0.00      8.37      74.4     0.34      1011.0     6       143         8       176        8.31     266       68.2
   05/15/2016 17:30      69.3      68.7       53     51.1      0.00      8.37      74.3     0.34      1011.0     8       151        10       165        8.31     266      233.0
   05/15/2016 17:20      68.7      68.2       54     51.1      0.00      8.37      74.4     0.34      1011.0     7       152        10       142        8.32     267      261.6
   05/15/2016 17:10      68.9      68.2       54     51.3      0.00      8.37      74.1     0.34      1011.0     7       152        10       132        8.32     267      115.1
   05/15/2016 17:00      68.9      68.0       54     51.2      0.00      8.37      74.3     0.34      1011.0     6       145         9       140        8.32     266       83.2
   05/15/2016 16:50      69.3      68.8       53     51.2      0.00      8.37      74.1     0.34      1011.0     6       139         9       127        8.33     266      102.4
   05/15/2016 16:40      69.5      68.8       53     51.2      0.00      8.37      74.4     0.34      1011.0     7       137         9       126        8.33     266      163.0
   05/15/2016 16:30      69.5      69.1       53     51.2      0.00      8.37      74.4     0.34      1011.0     6       154        10       135        8.33     266      167.0
   05/15/2016 16:20      69.5      69.0       53     51.2      0.00      8.37      74.3     0.34      1011.0     8       150         9       164        8.34     266      162.2
   05/15/2016 16:10      69.7      68.9       53     51.4      0.00      8.37      74.2     0.34      1011.0     6       147        10       144        8.34     266      170.8
   05/15/2016 16:00      69.8      68.8       53     51.4      0.00      8.37      74.3     0.34      1011.0     9       141        12       133        8.34     266      165.8
   05/15/2016 15:50      70.5      69.8       52     51.8      0.00      8.37      74.4     0.34      1011.0     6       132         9       130        8.34     266      177.4
   05/15/2016 15:40      70.6      69.8       52     51.8      0.00      8.37      74.2     0.34      1012.0     6       159         9       116        8.35     266      225.8
   05/15/2016 15:30      71.1      70.1       52     52.1      0.00      8.37      74.3     0.34      1012.0     5       167         9       174        8.35     267      248.8
   05/15/2016 15:20      70.3      69.7       53     52.0      0.00      8.37      74.0     0.34      1012.0     5       143         9       143        8.35     266      206.8
   05/15/2016 15:10      71.2      70.1       52     52.1      0.00      8.37      74.2     0.34      1012.0     6       170         9       205        8.35     266      340.5
   05/15/2016 15:00      70.5      70.1       52     52.0      0.00      8.37      74.2     0.34      1012.0     5       162        11       162        8.35     266      214.5
   05/15/2016 14:50      70.8      70.1       52     52.0      0.00      8.37      74.2     0.34      1012.0     4       176         7       195        8.35     266      235.0
   05/15/2016 14:40      70.3      69.2       53     52.0      0.00      8.37      74.3     0.34      1012.0     5       147        10       146        8.36     266      446.4
   05/15/2016 14:30      70.5      69.3       53     52.2      0.00      8.37      74.0     0.34      1012.0     6       168         9       149        8.36     266      263.4
   05/15/2016 14:20      70.6      70.1       53     52.6      0.00      8.37      74.5     0.34      1012.0     6       159         8       152        8.36     267      473.5
   05/15/2016 14:10      70.3      69.3       54     52.3      0.00      8.37      73.9     0.34      1012.0     5       195         7       204        8.36     267      332.3
   05/15/2016 14:00      70.8      69.4       53     52.2      0.00      8.37      74.0     0.34      1012.0     3       144         5       165        8.36     267      186.6
   05/15/2016 13:50      70.5      69.2       54     52.2      0.00      8.37      73.9     0.34      1012.0     4       185         7       120        8.36     267      309.6
   05/15/2016 13:40      70.4      68.6       54     52.1      0.00      8.37      74.1     0.34      1012.0     3       133         5        71        8.36     268      463.8
   05/15/2016 13:30      69.2      68.6       55     51.9      0.00      8.37      74.1     0.34      1012.0     5       160         7       143        8.36     268      200.7
   05/15/2016 13:20      69.0      68.5       55     51.9      0.00      8.37      74.3     0.34      1012.0     4       157         8       182        8.36     268      169.6
   05/15/2016 13:10      69.4      68.6       56     52.6      0.00      8.37      74.2     0.34      1012.0     3       124         6       123        8.36     268      185.5
   05/15/2016 13:00      69.2      68.6       54     51.8      0.00      8.37      74.0     0.34      1012.0     3        95         5       127        8.37     268      338.3
   05/15/2016 12:50      69.1      68.1       54     51.3      0.00      8.37      74.2     0.34      1012.0     3       182         5       156        8.37     268      320.2
   05/15/2016 12:40      68.9      68.3       55     51.7      0.00      8.37      74.2     0.34      1013.0     4       191         8       191        8.37     268      259.7
   05/15/2016 12:30      68.7      67.3       56     51.6      0.00      8.37      74.0     0.34      1013.0     2       115         4        93        8.37     269      271.2
   05/15/2016 12:20      67.6      67.1       57     51.5      0.00      8.37      74.1     0.34      1013.0     3       194         5       213        8.37     269      222.9
   05/15/2016 12:10      68.5      67.8       56     51.7      0.00      8.37      74.4     0.34      1013.0     4       100         5       153        8.37     269      225.4
   05/15/2016 12:00      68.5      66.9       56     51.4      0.00      8.37      74.2     0.34      1013.0     2       292         5       258        8.37     269      284.0
   05/15/2016 11:50      67.7      66.7       57     51.6      0.00      8.37      74.3     0.34      1013.0     2       213         4       251        8.37     269      209.5
   05/15/2016 11:40      67.5      66.9       57     51.6      0.00      8.37      74.0     0.34      1013.0     3       233         5       203        8.37     269      210.2
   05/15/2016 11:30      67.3      66.4       59     51.9      0.00      8.37      74.2     0.34      1013.0     3       185         4       193        8.37     269      322.7
   05/15/2016 11:20      67.5      66.2       59     52.1      0.00      8.37      74.3     0.34      1013.0     4       162         8       161        8.37     270      463.6
   05/15/2016 11:10      66.7      64.7       62     52.3      0.00      8.37      74.3     0.34      1013.0     3       113         4       120        8.37     271      442.5
   05/15/2016 11:00      64.7      64.0       65     52.3      0.00      8.37      74.2     0.34      1013.0     4       229         6       226        8.37     271      226.5
   05/15/2016 10:50      64.3      63.6       66     52.3      0.00      8.37      74.0     0.34      1013.0     3       175         6       163        8.37     271      175.2
   05/15/2016 10:40      64.0      62.9       67     52.4      0.00      8.37      74.4     0.34      1013.0     3       119         5       120        8.37     272      188.0
   05/15/2016 10:30      64.1      63.3       67     52.5      0.00      8.37      74.3     0.34      1013.0     5       129         8       127        8.37     273      214.2
   05/15/2016 10:20      64.4      63.3       66     52.0      0.00      8.37      74.3     0.34      1013.0     3       156         5       170        8.37     273      228.4
   05/15/2016 10:10      63.2      62.7       67     51.9      0.00      8.37      74.3     0.34      1013.0     2       156         4       170        8.37     273      159.4
   05/15/2016 10:00      62.9      62.6       68     51.9      0.00      8.37      74.0     0.34      1013.0     2       178         3       162        8.37     274       95.3
   05/15/2016 09:50      62.7      62.3       68     51.8      0.00      8.37      74.5     0.34      1013.0     2       239         3       218        8.37     274       74.2
   05/15/2016 09:40      62.3      61.8       69     51.7      0.00      8.37      74.3     0.34      1013.0     3       234         4       202        8.38     275       89.2
   05/15/2016 09:30      62.1      61.7       70     51.8      0.00      8.37      74.5     0.34      1013.0     2       198         2       265        8.37     275       99.7
   05/15/2016 09:20      61.7      61.3       70     51.7      0.00      8.37      74.3     0.34      1013.0     2       186         4       251        8.38     275       97.0
   05/15/2016 09:10      61.3      60.9       72     52.1      0.00      8.37      74.3     0.34      1013.0     2       183         3       214        8.38     276       54.8
   05/15/2016 09:00      61.0      60.7       73     52.4      0.00      8.37      74.2     0.35      1013.0     2       156         3       165        8.38     276       29.6
   05/15/2016 08:50      61.1      60.6       74     52.3      0.00      8.37      74.2     0.34      1013.0     1       171         3       148        8.38     276       18.1
   05/15/2016 08:40      60.6      60.3       74     52.2      0.00      8.37      74.4     0.34      1013.0     2       141         3       143        8.38     276       21.2
   05/15/2016 08:30      60.4      60.3       75     52.3      0.00      8.37      74.5     0.34      1013.0     3       165         4       160        8.38     276       30.1
   05/15/2016 08:20      60.1      60.0       75     52.2      0.00      8.37      74.6     0.35      1013.0     3       188         4       213        8.38     276       37.6
   05/15/2016 08:10      60.1      59.9       75     52.3      0.00      8.37      74.4     0.34      1013.0     3       180         4       169        8.38     276       53.3
   05/15/2016 08:00      60.3      60.0       76     52.6      0.00      8.37      74.5     0.35      1013.0     3       180         4       183        8.38     277       34.3
   05/15/2016 07:50      60.0      59.7       77     52.7      0.00      8.37      74.8     0.35      1013.0     2       196         4       202        8.38     277       30.5
   05/15/2016 07:40      60.0      59.7       77     52.7      0.00      8.37      74.5     0.35      1013.0     3       175         4       154        8.38     277       33.6
   05/15/2016 07:30      59.8      59.5       77     52.6      0.00      8.37      74.6     0.35      1013.0     3       156         4       148        8.38     278       17.2
   05/15/2016 07:20      59.7      59.4       78     52.6      0.00      8.37      74.6     0.35      1013.0     3       177         4       179        8.38     277       15.3
   05/15/2016 07:10      59.7      59.4       78     52.5      0.00      8.37      74.5     0.35      1013.0     2       202         3       201        8.38     277       10.2
   05/15/2016 07:00      59.7      59.4       77     52.5      0.00      8.37      74.7     0.35      1013.0     2       172         3       167        8.38     278       -0.2
   05/15/2016 06:50      59.5      59.3       78     52.5      0.00      8.37      75.0     0.35      1013.0     2       163         3       190        8.38     279       -4.0
   05/15/2016 06:40      59.7      59.4       78     52.5      0.00      8.37      74.5     0.35      1012.0     1       194         2       205        8.38     278       -8.2
   05/15/2016 06:30      59.5      59.3       78     52.6      0.00      8.37      75.0     0.35      1012.0     2       198         2       210        8.38     278      -10.1
   05/15/2016 06:20      59.5      59.3       78     52.5      0.00      8.37      74.4     0.35      1012.0     2       193         2       168        8.38     278      -13.1
   05/15/2016 06:10      59.4      59.3       78     52.6      0.00      8.37      74.7     0.35      1012.0     2       170         3       184        8.38     278      -14.8
   05/15/2016 06:00      59.5      59.2       78     52.6      0.00      8.37      74.8     0.35      1012.0     2       170         3       117        8.38     278      -16.6
   05/15/2016 05:50      59.5      59.2       78     52.6      0.00      8.37      74.9     0.35      1012.0     2       159         3       174        8.38     278      -17.4
   05/15/2016 05:40      59.4      59.3       78     52.7      0.00      8.37      75.0     0.35      1012.0     2       203         2       180        8.38     278      -17.9
   05/15/2016 05:30      59.5      59.2       79     52.7      0.00      8.37      74.7     0.35      1012.0     2       155         3       220        8.38     279      -18.0
   05/15/2016 05:20      59.3      59.0       79     52.7      0.00      8.37      75.2     0.35      1012.0     2       174         4       177        8.38     278      -18.1
   05/15/2016 05:10      59.3      59.0       79     52.8      0.00      8.37      74.9     0.35      1012.0     2       190         3       203        8.38     278      -18.7
   05/15/2016 05:00      59.3      59.0       79     52.7      0.00      8.37      75.0     0.35      1012.0     2       182         3       186        8.38     278      -18.7
   05/15/2016 04:50      59.5      59.4       78     52.5      0.00      8.37      74.8     0.35      1012.0     3       164         4       169        8.38     277      -19.7
   05/15/2016 04:40      59.7      59.4       77     52.2      0.00      8.37      75.3     0.35      1012.0     3       162         5       194        8.38     277      -20.8
   05/15/2016 04:30      59.6      59.4       77     52.2      0.00      8.37      75.1     0.35      1012.0     3       151         4       111        8.38     278      -19.0
   05/15/2016 04:20      59.6      59.4       77     52.3      0.00      8.37      75.2     0.35      1012.0     3       162         4       191        8.38     277      -19.1
   05/15/2016 04:10      59.9      59.5       77     52.5      0.00      8.37      75.0     0.35      1012.0     3       167         5       172        8.38     277      -18.9
   05/15/2016 04:00      59.9      59.7       77     52.5      0.00      8.37      75.1     0.35      1012.0     2       174         3       136        8.38     278      -19.0
   05/15/2016 03:50      59.8      59.5       77     52.4      0.00      8.37      75.1     0.35      1012.0     2       188         3       167        8.38     278      -18.8
   05/15/2016 03:40      59.8      59.7       77     52.5      0.00      8.37      75.1     0.35      1012.0     2       181         2       173        8.38     278      -19.0
   05/15/2016 03:30      60.0      59.7       77     52.6      0.00      8.37      75.2     0.35      1012.0     2       166         2       171        8.39     277      -19.7
   05/15/2016 03:20      60.0      59.8       77     52.6      0.00      8.37      75.2     0.35      1012.0     2        90         2       135        8.39     278      -20.1
   05/15/2016 03:10      60.0      59.8       77     52.6      0.00      8.37      75.2     0.35      1012.0     1        95         2       106        8.39     278      -19.5
   05/15/2016 03:00      60.1      59.7       77     52.7      0.00      8.37      75.6     0.35      1012.0     1       160         2       122        8.39     278      -20.4
   05/15/2016 02:50      59.7      59.4       78     52.6      0.00      8.37      75.5     0.35      1012.0     2       172         3       183        8.39     277      -20.9
   05/15/2016 02:40      59.7      59.4       78     52.6      0.00      8.37      75.3     0.35      1012.0     2       181         3       196        8.39     277      -19.9
   05/15/2016 02:30      59.7      59.4       78     52.6      0.00      8.37      75.3     0.35      1012.0     2       172         3       166        8.39     277      -20.0
   05/15/2016 02:20      59.8      59.4       78     52.7      0.00      8.37      75.7     0.35      1012.0     2       163         3       161        8.39     277      -19.9
   05/15/2016 02:10      59.8      59.4       78     52.7      0.00      8.37      75.3     0.35      1013.0     3       160         4       163        8.39     277      -20.2
   05/15/2016 02:00      59.8      59.5       78     52.7      0.00      8.37      75.5     0.35      1013.0     2       158         3       148        8.39     277      -20.1
   05/15/2016 01:50      59.8      59.4       78     52.7      0.00      8.37      75.1     0.35      1013.0     2       148         2       159        8.40     278      -19.8
   05/15/2016 01:40      59.6      59.4       78     52.8      0.00      8.37      75.5     0.35      1013.0     2       106         3       105        8.40     278      -19.3
   05/15/2016 01:30      59.5      59.4       79     52.8      0.00      8.37      75.5     0.35      1013.0     3       103         5        74        8.40     277      -19.4
   05/15/2016 01:20      59.4      59.4       79     52.9      0.00      8.37      75.6     0.35      1013.0     3       122         6       134        8.40     277      -19.2
   05/15/2016 01:10      59.7      59.5       78     52.8      0.00      8.37      75.7     0.35      1013.0     3        99         4        79        8.40     278      -19.4
   05/15/2016 01:00      59.7      59.4       78     52.8      0.00      8.37      75.7     0.35      1013.0     2       107         5       146        8.40     277      -19.4
   05/15/2016 00:50      59.5      59.4       79     52.9      0.00      8.37      75.6     0.35      1013.0     3       111         6       125        8.40     277      -19.3
   05/15/2016 00:40      59.5      59.3       79     52.8      0.00      8.37      75.5     0.35      1013.0     4       137         6       161        8.40     276      -19.4
   05/15/2016 00:30      59.7      59.5       78     52.8      0.00      8.37      75.7     0.35      1013.0     5       145         7       139        8.40     276      -19.6
   05/15/2016 00:20      60.2      59.8       77     52.7      0.00      8.37      75.5     0.35      1013.0     3       104         6       125        8.41     276      -19.5
   05/15/2016 00:10      60.1      60.0       76     52.6      0.00      8.37      75.7     0.35      1013.0     3       103         4        97        8.41     276      -19.2
   05/15/2016 00:00      60.3      60.0       76     52.6      0.00      8.37      75.8     0.35      1013.0     3        95         4       145        8.41     275      -19.4
   05/14/2016 23:50      60.3      60.0       76     52.6      0.00      8.37      75.5     0.35      1013.0     4       132         5       150        8.41     275      -19.5
   05/14/2016 23:40      60.1      60.0       76     52.5      0.00      8.37      75.8     0.35      1013.0     3       140         5       137        8.41     275      -19.4
   05/14/2016 23:30      60.3      59.9       76     52.6      0.00      8.37      75.6     0.35      1013.0     3       130         5       130        8.41     275      -19.8
   05/14/2016 23:20      60.1      59.9       77     52.7      0.00      8.37      75.5     0.35      1013.0     4       149         5       143        8.41     275      -20.0
   05/14/2016 23:10      60.3      59.9       77     52.7      0.00      8.37      75.8     0.35      1013.0     3       142         4       156        8.42     275      -19.9
   05/14/2016 23:00      60.1      59.9       77     52.6      0.00      8.37      75.6     0.35      1013.0     3       139         4       161        8.42     274      -19.8
   05/14/2016 22:50      60.1      59.9       77     52.7      0.00      8.37      75.5     0.35      1013.0     4       146         5       144        8.42     274      -20.1
   05/14/2016 22:40      60.1      59.9       77     52.7      0.00      8.37      75.7     0.35      1013.0     3       124         4       130        8.42     275      -19.8
   05/14/2016 22:30      60.2      59.8       77     52.8      0.00      8.37      75.8     0.35      1013.0     3       105         4        66        8.42     275      -19.9
   05/14/2016 22:20      60.0      59.5       77     52.8      0.00      8.37      75.8     0.35      1013.0     2        48         3        64        8.42     275      -20.4
   05/14/2016 22:10      59.7      59.3       78     52.7      0.00      8.37      75.7     0.35      1013.0     1        90         2        93        8.43     275      -20.4
   05/14/2016 22:00      59.4      58.9       79     52.6      0.00      8.37      75.8     0.35      1013.0     2        79         3        94        8.43     274      -20.4
   05/14/2016 21:50      59.0      58.5       80     52.5      0.00      8.37      75.7     0.35      1013.0     2        79         4        80        8.43     274      -20.9
   05/14/2016 21:40      58.5      58.1       81     52.5      0.00      8.37      75.6     0.35      1013.0     1       116         2        60        8.43     274      -21.6
   05/14/2016 21:30      58.3      57.9       81     52.4      0.00      8.37      75.8     0.35      1013.0     3       148         4       139        8.43     274      -20.7
   05/14/2016 21:20      58.1      57.6       82     52.4      0.00      8.37      75.8     0.35      1013.0     4       125         7       135        8.44     274      -23.3
   05/14/2016 21:10      57.8      57.5       82     52.2      0.00      8.37      75.8     0.35      1013.0     5       128         7       137        8.44     274      -34.1
   05/14/2016 21:00      58.1      57.8       81     52.0      0.00      8.37      75.7     0.35      1013.0     4       129         8       123        8.44     273      -49.6
   05/14/2016 20:50      58.3      57.9       80     51.8      0.00      8.37      75.5     0.35      1013.0     5       159         7       143        8.44     273      -65.7
   05/14/2016 20:40      58.8      58.4       78     51.7      0.00      8.37      75.8     0.35      1013.0     4       152         7       172        8.44     272      -71.4
   05/14/2016 20:30      59.6      58.9       77     51.8      0.00      8.37      75.5     0.35      1013.0     5       160         7       153        8.45     272      -74.2
   05/14/2016 20:20      61.0      59.8       74     52.0      0.00      8.37      75.8     0.35      1013.0     4       161         5       155        8.45     271      -76.0
   05/14/2016 20:10      61.6      60.9       73     52.5      0.00      8.37      75.7     0.35      1013.0     2        71         4        75        8.45     271      -75.9
   05/14/2016 20:00      62.9      61.8       70     52.5      0.00      8.37      75.5     0.35      1013.0     3        58         6        73        8.45     270      -76.3
   05/14/2016 19:50      63.1      62.9       68     52.2      0.00      8.37      75.7     0.35      1013.0     2        68         4        68        8.45     269      -73.7
   05/14/2016 19:40      63.7      63.3       67     52.3      0.00      8.37      75.5     0.35      1012.0     2        75         3        65        8.45     269      -66.9
   05/14/2016 19:30      63.9      63.5       66     52.2      0.00      8.37      75.5     0.35      1012.0     2       102         4       141        8.45     268      -57.5
   05/14/2016 19:20      63.9      63.5       66     52.2      0.00      8.37      75.2     0.35      1012.0     2       159         3       166        8.46     267      -32.2
   05/14/2016 19:10      63.8      63.5       67     52.2      0.00      8.37      75.6     0.35      1012.0     3       160         5       158        8.46     267      -19.3
   05/14/2016 19:00      63.6      63.2       67     52.4      0.00      8.37      75.3     0.35      1012.0     4       139         6       103        8.46     267      -17.2
   05/14/2016 18:50      64.7      63.4       66     52.4      0.00      8.37      75.2     0.35      1012.0     5       158         8       129        8.46     267      -18.0
   05/14/2016 18:40      65.0      64.4       64     52.5      0.00      8.37      75.3     0.35      1012.0     5       153         7       165        8.47     266      -28.4
   05/14/2016 18:30      66.8      65.1       62     52.6      0.00      8.37      75.2     0.35      1012.0     6       165         9       146        8.47     266       34.6
   05/14/2016 18:20      67.2      66.5       61     52.8      0.00      8.37      75.0     0.35      1012.0     5       164         7       159        8.47     266       36.4
   05/14/2016 18:10      67.7      66.9       59     52.8      0.00      8.37      75.0     0.35      1012.0     5       171         8       185        8.47     266       86.9
   05/14/2016 18:00      67.9      67.5       59     52.8      0.00      8.37      75.0     0.35      1012.0     7       160        10       159        8.48     265      106.6
   05/14/2016 17:50      69.2      67.8       58     52.8      0.00      8.37      75.0     0.35      1012.0     7       169         9       149        8.48     266      141.3
   05/14/2016 17:40      70.6      69.4       55     53.0      0.00      8.37      75.0     0.35      1012.0     7       166         9       151        8.49     266      148.6
   05/14/2016 17:30      71.2      70.5       54     53.3      0.00      8.37      75.0     0.35      1012.0     6       151        10       149        8.49     266      225.4
   05/14/2016 17:20      71.0      70.3       54     53.3      0.00      8.37      75.1     0.35      1012.0     6       123         8       111        8.50     266      169.9
   05/14/2016 17:10      72.3      71.3       52     53.3      0.00      8.37      75.0     0.35      1012.0     5       125         8       127        8.51     265       94.5
   05/14/2016 17:00      72.4      71.2       52     53.2      0.00      8.37      74.6     0.34      1012.0     6       143        10       152        8.51     265      233.3
   05/14/2016 16:50      72.0      71.3       52     53.2      0.00      8.37      74.8     0.34      1012.0     6       135         9       138        8.52     266      290.9
   05/14/2016 16:40      72.7      71.8       51     53.2      0.00      8.37      74.5     0.34      1012.0     7       139        11       127        8.53     266      304.5
   05/14/2016 16:30      74.6      73.4       49     53.5      0.00      8.37      74.7     0.34      1012.0     6       138         9       122        8.53     266      321.3
   05/14/2016 16:20      73.9      73.0       50     53.5      0.00      8.37      74.5     0.34      1012.0     5       149         9       142        8.54     266      352.5
   05/14/2016 16:10      73.5      72.5       50     53.6      0.00      8.37      74.4     0.34      1012.0     6       123        11       106        8.54     266      373.7
   05/14/2016 16:00      75.5      73.3       49     53.7      0.00      8.37      74.5     0.34      1012.0     6        87         9        63        8.54     266      385.4
   05/14/2016 15:50      75.8      74.6       47     53.7      0.00      8.37      74.1     0.34      1012.0     4       138         6       122        8.54     266      405.6
   05/14/2016 15:40      74.5      74.0       48     53.5      0.00      8.37      74.3     0.34      1012.0     5       125         7       135        8.55     266      428.6
   05/14/2016 15:30      75.5      74.7       47     53.7      0.00      8.37      74.3     0.34      1012.0     5        72         8       121        8.55     266      439.2
   05/14/2016 15:20      76.3      74.6       46     53.5      0.00      8.37      74.3     0.34      1012.0     5        87         9       138        8.55     266      457.8
   05/14/2016 15:10      75.3      74.0       47     53.5      0.00      8.37      74.1     0.34      1012.0     6       107         9       121        8.56     266      475.8
   05/14/2016 15:00      74.7      73.7       48     53.2      0.00      8.37      74.0     0.34      1012.0     5       121         8       121        8.56     266      490.6
   05/14/2016 14:50      75.1      74.3       47     53.3      0.00      8.37      74.0     0.34      1013.0     7       129         9       126        8.57     266      502.6
   05/14/2016 14:40      76.2      74.6       47     53.3      0.00      8.37      74.1     0.34      1013.0     6       129         9       133        8.57     266      515.8
   05/14/2016 14:30      77.2      75.9       45     54.0      0.00      8.37      74.0     0.34      1013.0     6        64         8        70        8.57     266      514.8
   05/14/2016 14:20      77.2      75.6       46     54.3      0.00      8.37      73.7     0.34      1013.0     6        78         8        87        8.58     267      528.9
   05/14/2016 14:10      77.9      76.3       46     54.7      0.00      8.37      73.9     0.34      1013.0     5        39         9        72        8.58     267      529.0
   05/14/2016 14:00      77.5      76.8       46     54.9      0.00      8.37      73.8     0.34      1013.0     6        57         8        90        8.59     268      546.4
   05/14/2016 13:50      78.1      77.3       46     55.0      0.00      8.37      73.7     0.34      1013.0     5        56         9        62        8.59     268      548.3
   05/14/2016 13:40      78.2      76.2       45     54.3      0.00      8.37      73.9     0.34      1013.0     4       112         6        72        8.60     268      562.2
   05/14/2016 13:30      77.9      76.9       46     54.6      0.00      8.37      73.6     0.34      1013.0     3       197         6       210        8.60     267      567.4
   05/14/2016 13:20      77.3      73.9       49     54.9      0.00      8.37      73.6     0.34      1013.0     3       105         7       123        8.60     268      576.2
   05/14/2016 13:10      77.0      74.9       49     55.0      0.00      8.37      73.7     0.34      1013.0     5       108         9       128        8.60     268      577.3
   05/14/2016 13:00      77.5      76.2       47     55.3      0.00      8.37      73.8     0.34      1013.0     4        18         6        87        8.61     268      579.4
   05/14/2016 12:50      77.2      76.2       48     55.2      0.00      8.37      73.9     0.34      1013.0     5        32         8       359        8.61     268      570.3
   05/14/2016 12:40      76.6      75.2       48     55.0      0.00      8.37      73.5     0.34      1014.0     4        24         8         7        8.61     268      576.1
   05/14/2016 12:30      75.7      74.6       49     54.6      0.00      8.37      73.5     0.34      1014.0     4        19         6       143        8.61     268      573.4
   05/14/2016 12:20      75.4      74.4       49     54.3      0.00      8.37      73.5     0.34      1014.0     3        44         4        30        8.61     268      567.5
   05/14/2016 12:10      74.8      74.2       49     54.3      0.00      8.37      73.3     0.34      1014.0     3        24         3        40        8.61     268      568.5
   05/14/2016 12:00      75.3      72.9       50     54.4      0.00      8.37      73.5     0.34      1014.0     3        31         5        97        8.61     268      553.8
   05/14/2016 11:50      73.4      72.2       52     54.1      0.00      8.37      73.4     0.34      1014.0     3        17         5        35        8.61     269      561.1
   05/14/2016 11:40      72.9      71.0       53     54.0      0.00      8.37      73.6     0.34      1014.0     3        37         5        72        8.61     269      548.9
   05/14/2016 11:30      70.6      70.1       55     53.5      0.00      8.37      73.7     0.34      1015.0     2       273         3       144        8.61     269      545.2
   05/14/2016 11:20      71.8      70.5       54     53.9      0.00      8.37      73.5     0.34      1015.0     3       128         6       154        8.62     269      545.2
   05/14/2016 11:10      70.8      70.3       56     53.9      0.00      8.37      73.5     0.34      1015.0     3       150         5       131        8.61     269      544.3
   05/14/2016 11:00      70.6      68.8       57     54.0      0.00      8.37      73.6     0.34      1015.0     2       105         4       140        8.61     270      548.6
   05/14/2016 10:50      70.4      69.0       58     53.9      0.00      8.37      73.5     0.34      1015.0     4        75         5       100        8.62     270      490.8
   05/14/2016 10:40      70.6      67.6       59     53.9      0.00      8.37      73.4     0.34      1015.0     2        28         4        35        8.62     271      469.0
   05/14/2016 10:30      68.4      67.6       60     53.7      0.00      8.37      73.6     0.34      1015.0     2        47         5        40        8.62     271      488.7
   05/14/2016 10:20      68.0      67.3       61     53.6      0.00      8.37      73.5     0.34      1015.0     3        17         6        83        8.62     272      501.7
   05/14/2016 10:10      67.3      65.6       63     53.6      0.00      8.37      73.7     0.34      1015.0     2        65         5        78        8.62     273      463.7
   05/14/2016 10:00      66.7      66.0       64     53.8      0.00      8.37      73.6     0.34      1015.0     4       119         6       125        8.62     274      473.4
   05/14/2016 09:50      66.3      65.7       65     53.9      0.00      8.37      74.1     0.34      1015.0     3        43         4        57        8.62     275      455.2
   05/14/2016 09:40      65.3      63.8       68     53.6      0.00      8.37      73.6     0.34      1015.0     2        90         3        94        8.62     276      300.1
   05/14/2016 09:30      65.2      64.0       68     53.7      0.00      8.37      73.8     0.34      1015.0     2        65         6       143        8.62     275      296.4
   05/14/2016 09:20      64.0      62.4       71     53.6      0.00      8.37      73.7     0.34      1015.0     2        44         4        97        8.62     276      199.3
   05/14/2016 09:10      62.8      62.3       73     53.6      0.00      8.37      73.9     0.34      1015.0     2        78         4        82        8.62     277      186.1
   05/14/2016 09:00      62.6      61.5       75     53.7      0.00      8.37      73.5     0.34      1015.0     2        46         4        22        8.62     279      152.4
   05/14/2016 08:50      61.5      61.3       75     53.6      0.00      8.37      73.6     0.34      1015.0     3       115         4       115        8.62     279      110.9
   05/14/2016 08:40      61.5      60.7       76     53.5      0.00      8.37      73.5     0.34      1015.0     2       196         2       167        8.62     279       92.6
   05/14/2016 08:30      61.1      60.7       77     53.5      0.00      8.37      74.0     0.34      1015.0     2       192         4       140        8.62     280       68.0
   05/14/2016 08:20      60.7      60.4       78     53.5      0.00      8.37      73.7     0.34      1015.0     2       213         2       218        8.62     281       43.4
   05/14/2016 08:10      60.8      60.4       78     53.6      0.00      8.37      73.8     0.34      1016.0     2       173         4       137        8.62     281       30.6
   05/14/2016 08:00      60.6      60.4       78     53.7      0.00      8.37      73.6     0.34      1015.0     2       244         3       250        8.62     282       22.1
   05/14/2016 07:50      60.7      60.4       78     53.7      0.00      8.37      73.8     0.34      1015.0     1       195         2       232        8.62     282       25.7
   05/14/2016 07:40      60.6      60.4       78     53.7      0.00      8.37      73.8     0.35      1015.0     2       268         3       234        8.62     283       25.6
   05/14/2016 07:30      60.5      60.3       79     53.8      0.00      8.37      74.0     0.34      1015.0     1       183         2       223        8.62     284       21.8
   05/14/2016 07:20      60.6      60.1       79     53.9      0.00      8.37      73.9     0.34      1015.0     1       100         2       112        8.62     284       20.8
   05/14/2016 07:10      60.2      59.8       80     53.7      0.00      8.37      74.0     0.35      1015.0     2       209         3       236        8.62     283       20.2
   05/14/2016 07:00      60.3      59.8       80     53.9      0.00      8.37      74.2     0.35      1015.0     2       154         3       181        8.62     284       13.0
   05/14/2016 06:50      60.0      59.7       81     53.9      0.00      8.37      74.1     0.34      1015.0     2       127         3       126        8.62     285        4.8
   05/14/2016 06:40      60.0      59.8       80     54.0      0.00      8.37      73.8     0.35      1015.0     1       120         2        71        8.62     286        1.0
   05/14/2016 06:30      60.1      59.8       81     54.1      0.00      8.37      73.8     0.34      1015.0     1        60         3        77        8.62     286       -4.2
   05/14/2016 06:20      59.9      59.7       81     54.0      0.00      8.37      74.0     0.35      1015.0     1        62         3       112        8.62     286       -8.2
   05/14/2016 06:10      59.9      59.6       81     54.0      0.00      8.37      73.9     0.35      1015.0     1        25         3        75        8.62     286      -11.3
   05/14/2016 06:00      59.9      59.6       81     54.1      0.00      8.37      74.3     0.35      1015.0     1        49         3       118        8.63     286      -13.5
   05/14/2016 05:50      59.8      59.4       82     54.0      0.00      8.37      74.6     0.35      1015.0     2        28         2         8        8.63     286      -14.7
   05/14/2016 05:40      59.9      59.6       82     54.1      0.00      8.37      74.2     0.35      1015.0     3        24         5        23        8.63     286      -14.6
   05/14/2016 05:30      59.9      59.6       82     54.3      0.00      8.37      74.0     0.35      1015.0     2        74         2        55        8.63     287      -14.2
   05/14/2016 05:20      59.7      59.4       83     54.2      0.00      8.37      74.3     0.35      1015.0     2       102         3       124        8.63     287      -13.9
   05/14/2016 05:10      59.6      59.4       83     54.2      0.00      8.37      74.5     0.35      1015.0     3       103         5       103        8.63     287      -13.9
   05/14/2016 05:00      59.7      59.4       83     54.4      0.00      8.37      74.3     0.35      1015.0     2        63         3        76        8.63     287      -14.0
   05/14/2016 04:50      59.5      59.3       84     54.5      0.00      8.37      74.1     0.35      1015.0     2        87         3       108        8.63     287      -13.7
   05/14/2016 04:40      59.4      58.9       84     54.4      0.00      8.37      74.5     0.35      1015.0     2       106         3       100        8.63     287      -14.0
   05/14/2016 04:30      59.1      58.9       85     54.4      0.00      8.37      74.5     0.35      1015.0     3       100         5        79        8.63     287      -13.9
   05/14/2016 04:20      59.1      58.8       85     54.5      0.00      8.37      74.5     0.35      1015.0     2       100         3        87        8.63     287      -14.3
   05/14/2016 04:10      58.9      58.6       85     54.4      0.00      8.37      74.3     0.35      1015.0     1        68         2        67        8.63     287      -14.3
   05/14/2016 04:00      58.7      58.5       86     54.3      0.00      8.37      74.3     0.35      1015.0     1        38         2        33        8.63     287      -14.6
   05/14/2016 03:50      58.7      58.2       86     54.3      0.00      8.37      74.4     0.35      1015.0     1        89         2       135        8.63     287      -14.3
   05/14/2016 03:40      58.3      58.0       87     54.3      0.00      8.37      74.3     0.35      1015.0     1       134         3       137        8.63     287      -14.4
   05/14/2016 03:30      58.1      57.8       87     54.2      0.00      8.37      74.6     0.35      1015.0     1       126         2       140        8.63     287      -14.4
   05/14/2016 03:20      57.9      57.7       87     54.1      0.00      8.37      74.6     0.35      1015.0     2       211         3       234        8.63     286      -14.3
   05/14/2016 03:10      58.0      57.5       87     53.9      0.00      8.37      74.6     0.35      1015.0     3       260         4       283        8.63     286      -14.3
   05/14/2016 03:00      57.7      57.5       87     53.7      0.00      8.37      74.7     0.35      1015.0     2       228         3       279        8.63     286      -14.6
   05/14/2016 02:50      57.6      57.4       87     53.6      0.00      8.37      74.6     0.35      1015.0     1       194         2       244        8.63     286      -14.8
   05/14/2016 02:40      57.7      57.5       86     53.5      0.00      8.37      74.7     0.35      1015.0     2       158         3       161        8.63     286      -15.0
   05/14/2016 02:30      57.8      57.6       85     53.3      0.00      8.37      74.7     0.35      1015.0     2       159         3       152        8.63     285      -15.2
   05/14/2016 02:20      57.7      57.5       85     53.1      0.00      8.37      74.6     0.35      1016.0     1       187         2       211        8.63     285      -15.2
   05/14/2016 02:10      57.7      57.5       85     53.0      0.00      8.37      74.6     0.35      1016.0     2       177         3       156        8.63     285      -14.9
   05/14/2016 02:00      57.6      57.4       85     52.9      0.00      8.37      74.8     0.35      1016.0     2       174         3       158        8.63     284      -14.3
   05/14/2016 01:50      57.6      57.4       84     52.7      0.00      8.37      74.9     0.35      1016.0     2       158         2       127        8.69     284      -14.4
   05/14/2016 01:40      57.5      57.3       84     52.6      0.00      8.37      74.8     0.35      1016.0     1       186         2       179        8.70     285      -13.9
   05/14/2016 01:30      57.5      57.3       84     52.7      0.00      8.37      74.9     0.35      1016.0     2       182         3       171        8.71     285      -13.2
   05/14/2016 01:20      57.5      57.1       84     52.6      0.00      8.37      74.6     0.35      1016.0     2       157         2       154        8.71     286      -12.6
   05/14/2016 01:10      57.1      56.8       85     52.7      0.00      8.37      75.1     0.35      1016.0     2       127         3       111        8.71     287      -13.0
   05/14/2016 01:00      57.0      56.9       86     52.9      0.00      8.37      74.7     0.35      1016.0     2       102         2       115        8.71     289      -33.1
   05/14/2016 00:50      57.3      57.0       86     53.2      0.00      8.37      74.8     0.35      1016.0     2        98         2        81        8.71     290      -66.9
   05/14/2016 00:40      57.5      57.3       87     53.5      0.00      8.37      74.8     0.35      1016.0     1        63         2        55        8.71     289      -66.4
   05/14/2016 00:30      57.5      57.3       87     53.6      0.00      8.37      74.6     0.35      1016.0     2        55         4        69        8.71     290      -62.3
   05/14/2016 00:20      57.9      57.5       86     53.6      0.00      8.37      75.0     0.35      1016.0     2        65         5        78        8.71     289      -66.5
   05/14/2016 00:10      57.9      57.7       86     53.8      0.00      8.37      74.8     0.35      1016.0     2        62         3        81        8.71     289      -67.2
   05/14/2016 00:00      57.9      57.7       86     53.6      0.00      8.37      74.9     0.35      1016.0     1        61         3        57        8.71     288      -68.3
   05/13/2016 23:50      58.1      57.8       85     53.5      0.00      8.37      75.1     0.35      1016.0     1        84         2        93        8.71     288      -70.2
   05/13/2016 23:40      58.4      57.7       84     53.1      0.00      8.37      75.1     0.35      1016.0     1        95         3        68        8.71     287      -70.8
   05/13/2016 23:30      58.6      58.3       85     53.8      0.00      8.37      74.9     0.35      1016.0     1        83         2        69        8.72     288      -71.3
   05/13/2016 23:20      58.8      58.3       84     53.8      0.00      8.37      75.0     0.35      1016.0     1       130         1       122        8.72     287      -71.6
   05/13/2016 23:10      59.1      58.8       84     54.0      0.00      8.37      75.0     0.35      1016.0     1        70         2        78        8.72     288      -72.2
   05/13/2016 23:00      59.4      59.0       83     54.0      0.00      8.37      75.0     0.35      1016.0     1        67         2        73        8.72     286      -72.0
   05/13/2016 22:50      59.5      59.4       82     54.0      0.00      8.37      74.7     0.35      1016.0     1        66         2        54        8.72     286      -72.5
   05/13/2016 22:40      59.9      59.7       81     54.1      0.00      8.37      74.7     0.35      1016.0     1        78         2       124        8.72     286      -72.4
   05/13/2016 22:30      60.1      59.9       81     54.1      0.00      8.37      74.9     0.35      1015.0     2        46         2        37        8.72     285      -74.6
   05/13/2016 22:20      60.5      60.0       80     54.1      0.00      8.37      75.0     0.35      1015.0     2        47         3        34        8.72     284      -76.6
   05/13/2016 22:10      60.7      60.5       79     54.2      0.00      8.37      74.7     0.35      1015.0     2        25         3        36        8.72     284      -78.2
   05/13/2016 22:00      60.9      60.4       79     54.2      0.00      8.37      74.5     0.35      1015.0     2        30         4       350        8.72     283      -79.1
   05/13/2016 21:50      61.3      60.9       78     54.1      0.00      8.37      74.9     0.35      1015.0     2        38         3        64        8.72     282      -79.1
   05/13/2016 21:40      61.9      61.5       76     54.1      0.00      8.37      74.8     0.35      1015.0     2        38         3        23        8.72     281      -78.1
   05/13/2016 21:30      62.9      62.3       74     54.1      0.00      8.37      74.8     0.35      1015.0     2        44         3        35        8.72     280      -76.2
   05/13/2016 21:20      63.8      63.1       71     54.1      0.00      8.37      74.8     0.35      1015.0     2        51         3        35        8.72     278      -76.8
   05/13/2016 21:10      64.1      63.6       70     54.0      0.00      8.37      74.7     0.35      1015.0     2        68         4        82        8.72     277      -77.8
   05/13/2016 21:00      65.0      64.3       68     54.0      0.00      8.37      74.7     0.35      1015.0     2        70         4        74        8.72     275      -78.8
   05/13/2016 20:50      65.8      65.2       66     53.8      0.00      8.37      74.8     0.35      1015.0     2        65         2        58        8.72     274      -80.4
   05/13/2016 20:40      66.4      65.8       64     53.5      0.00      8.37      74.9     0.35      1014.0     2        48         3        63        8.72     273      -80.9
   05/13/2016 20:30      67.1      66.4       61     53.0      0.00      8.37      74.5     0.35      1014.0     2        59         3        52        8.72     272      -79.5
   05/13/2016 20:20      67.9      67.2       59     52.8      0.00      8.37      74.6     0.35      1014.0     1        66         2        67        8.72     271      -79.7
   05/13/2016 20:10      68.2      68.0       57     52.3      0.00      8.37      74.5     0.35      1014.0     1        40         2        33        8.72     269      -80.7
   05/13/2016 20:00      69.3      68.2       53     50.8      0.00      8.37      74.4     0.35      1014.0     2       175         3       192        8.73     268      -80.2
   05/13/2016 19:50      71.2      69.5       49     49.9      0.00      8.37      74.5     0.35      1014.0     3       193         4       207        8.73     267      -80.5
   05/13/2016 19:40      71.5      71.1       46     49.7      0.00      8.37      74.5     0.35      1014.0     2       228         3       215        8.73     267      -76.0
   05/13/2016 19:30      72.3      71.5       46     50.0      0.00      8.37      74.5     0.35      1014.0     3       204         5       209        8.73     266      -64.5
   05/13/2016 19:20      72.5      71.8       45     49.5      0.00      8.37      74.3     0.35      1014.0     3       163         5       148        8.73     266      -38.6
   05/13/2016 19:10      72.9      72.0       44     49.0      0.00      8.37      74.5     0.35      1013.0     5       178         7       165        8.73     265      -29.8
   05/13/2016 19:00      74.4      73.3       41     48.6      0.00      8.37      74.5     0.34      1013.0     5       174         6       147        8.73     265      -48.6
   05/13/2016 18:50      75.3      74.6       40     48.9      0.00      8.37      74.3     0.34      1013.0     5       174         7       144        8.73     265      -46.6
   05/13/2016 18:40      76.8      75.6       37     47.9      0.00      8.37      74.3     0.34      1013.0     7       164        10       172        8.73     265      -47.0
   05/13/2016 18:30      78.2      77.0       34     46.8      0.00      8.37      74.1     0.34      1013.0     7       153         9       158        8.74     265      -43.5
   05/13/2016 18:20      79.4      78.2       32     46.7      0.00      8.37      74.0     0.34      1013.0     7       155        10       154        8.74     265       26.4
   05/13/2016 18:10      80.1      79.5       32     47.2      0.00      8.37      74.1     0.34      1013.0     6       157         8       142        8.74     265      104.1
   05/13/2016 18:00      80.5      79.8       32     47.6      0.00      8.37      74.0     0.34      1013.0     8       157        10       153        8.74     265      106.5
   05/13/2016 17:50      81.2      80.5       32     48.2      0.00      8.37      74.0     0.34      1013.0     6       147         8       116        8.74     265      144.3
   05/13/2016 17:40      81.6      80.9       32     48.6      0.00      8.37      74.0     0.34      1013.0     6       162         8       177        8.75     265      123.7
   05/13/2016 17:30      82.4      81.5       31     48.8      0.00      8.37      73.9     0.34      1013.0     6       168         8       160        8.75     265      135.2
   05/13/2016 17:20      82.8      81.9       31     48.4      0.00      8.37      73.9     0.34      1013.0     7       136        11       129        8.75     265      181.2
   05/13/2016 17:10      83.0      82.5       30     47.9      0.00      8.37      73.7     0.34      1013.0     6       155         9       125        8.76     265      151.0
   05/13/2016 17:00      83.8      83.2       28     47.2      0.00      8.37      73.6     0.34      1013.0     6       157        11       136        8.76     265      184.7
   05/13/2016 16:50      84.5      83.0       28     46.7      0.00      8.37      73.5     0.34      1013.0     8       168        11       166        8.76     265      241.9
   05/13/2016 16:40      84.8      84.0       27     47.1      0.00      8.37      73.4     0.34      1013.0     8       147        12       121        8.77     265      306.8
   05/13/2016 16:30      85.1      84.5       27     47.5      0.00      8.37      73.5     0.34      1013.0     7       141        10       141        8.77     265      351.8
   05/13/2016 16:20      85.1      84.6       27     47.3      0.00      8.37      73.2     0.34      1013.0     7       158        11       188        8.78     265      353.5
   05/13/2016 16:10      85.6      84.5       27     47.0      0.00      8.37      73.3     0.34      1013.0     6       136         8       154        8.79     266      376.5
   05/13/2016 16:00      86.0      84.9       26     46.5      0.00      8.37      73.4     0.34      1013.0     5       119         8       161        8.79     266      293.9
   05/13/2016 15:50      85.6      84.9       25     45.1      0.00      8.37      72.9     0.34      1013.0     5       160         7       129        8.79     266      402.0
   05/13/2016 15:40      85.6      84.8       24     44.4      0.00      8.37      73.1     0.34      1013.0     4       155         6       132        8.80     266      398.5
   05/13/2016 15:30      84.8      83.9       24     43.4      0.00      8.37      73.0     0.34      1013.0     4       117         6       189        8.80     266      425.5
   05/13/2016 15:20      84.6      84.0       24     43.2      0.00      8.37      73.0     0.34      1013.0     5       172         8       184        8.80     266      409.5
   05/13/2016 15:10      84.6      83.7       23     42.7      0.00      8.37      72.8     0.34      1013.0     5       150         8       152        8.81     266      479.5
   05/13/2016 15:00      84.8      83.5       22     41.1      0.00      8.37      72.8     0.34      1014.0     5       176         7       198        8.81     266      481.2
   05/13/2016 14:50      84.5      83.5       21     39.5      0.00      8.37      72.7     0.34      1014.0     6       207        10       217        8.81     266      494.4
   05/13/2016 14:40      83.8      82.9       21     39.3      0.00      8.37      72.5     0.34      1014.0     5       178         7       145        8.82     266      507.6
   05/13/2016 14:30      83.8      82.6       21     39.0      0.00      8.37      72.5     0.34      1014.0     6       148         9       131        8.82     267      526.2
   05/13/2016 14:20      84.4      83.8       21     39.8      0.00      8.37      72.6     0.34      1014.0     7       164         8       161        8.83     267      542.8
   05/13/2016 14:10      84.0      83.3       22     40.2      0.00      8.37      72.6     0.34      1014.0     6       145         8       158        8.83     268      573.2
   05/13/2016 14:00      83.6      83.1       21     38.9      0.00      8.37      72.5     0.34      1014.0     6       178         9       168        8.83     267      455.6
   05/13/2016 13:50      84.3      83.6       21     39.4      0.00      8.37      72.3     0.34      1014.0     7       179        10       156        8.83     267      491.9
   05/13/2016 13:40      85.9      83.5       30     49.4      0.00      8.37      72.2     0.34      1014.0     6        39        11       176        8.84     268      563.7
   05/13/2016 13:30      83.8      82.8       35     53.2      0.00      8.37      72.4     0.34      1014.0     5        24         8        20        8.84     270      582.3
   05/13/2016 13:20      83.0      81.8       39     54.5      0.00      8.37      72.2     0.34      1014.0     4        33         5        66        8.84     271      501.7
   05/13/2016 13:10      81.6      80.4       41     54.9      0.00      8.37      72.1     0.34      1014.0     3        41         6        32        8.84     272      555.6
   05/13/2016 13:00      81.2      79.9       42     55.6      0.00      8.37      71.9     0.34      1015.0     4        34         6        18        8.84     273      573.8
   05/13/2016 12:50      80.2      79.0       43     55.1      0.00      8.37      72.2     0.34      1015.0     4        50         6        55        8.84     274      577.4
   05/13/2016 12:40      79.8      79.1       43     55.2      0.00      8.37      72.1     0.34      1015.0     4        50         7        79        8.85     274      575.1
   05/13/2016 12:30      79.7      78.2       44     55.5      0.00      8.37      72.0     0.34      1015.0     4        41         6        94        8.85     278      571.9
   05/13/2016 12:20      78.1      77.1       47     56.0      0.00      8.37      72.2     0.34      1015.0     4        46         7        82        8.85     283      574.3
   05/13/2016 12:10      78.1      76.7       48     56.2      0.00      8.37      72.2     0.34      1015.0     4        31         8       357        8.85     285      568.0
   05/13/2016 12:00      78.1      77.3       48     56.5      0.00      8.37      72.2     0.34      1015.0     4        42         7        94        8.85     292      560.9
   05/13/2016 11:50      77.6      76.2       49     56.4      0.00      8.37      72.0     0.34      1015.0     3        46         6       100        8.85     295      557.6
   05/13/2016 11:40      76.4      75.2       52     56.8      0.00      8.37      72.0     0.34      1015.0     3        18         4        37        8.85     297      548.8
   05/13/2016 11:30      76.3      73.8       53     57.0      0.00      8.37      72.1     0.34      1015.0     3         2         7       328        8.85     298      539.2
   05/13/2016 11:20      74.7      72.8       55     56.7      0.00      8.37      71.7     0.34      1015.0     2        79         5       358        8.85     295      532.0
   05/13/2016 11:10      73.3      71.5       57     56.1      0.00      8.37      71.8     0.34      1016.0     3       330         5       349        8.85     309      526.5
   05/13/2016 11:00      72.0      71.2       58     55.9      0.00      8.37      72.2     0.34      1016.0     3       107         5       131        8.85     323      511.5
   05/13/2016 10:50      72.3      70.8       58     55.9      0.00      8.37      72.0     0.34      1015.0     2        46         3        27        8.85     331      497.2
   05/13/2016 10:40      71.5      69.5       59     55.7      0.00      8.37      72.6     0.34      1015.0     2       358         4       272        8.85     336      484.8
   05/13/2016 10:30      69.4      68.7       62     55.4      0.00      8.37      71.9     0.34      1015.0     2       327         3         7        8.85     336      474.7
   05/13/2016 10:20      68.5      68.1       63     55.4      0.00      8.37      72.0     0.34      1016.0     3       360         5       357        8.85     339      462.8
   05/13/2016 10:10      68.3      66.6       65     55.4      0.00      8.37      72.2     0.34      1016.0     3         8         4       351        8.85     334      437.9
   05/13/2016 10:00      67.0      66.5       66     55.2      0.00      8.37      72.2     0.34      1016.0     2       350         5       310        8.85     332      424.5
   05/13/2016 09:50      66.7      65.8       68     55.2      0.00      8.37      72.1     0.34      1016.0     2       332         5       322        8.85     331      407.3
   05/13/2016 09:40      65.5      63.9       71     55.0      0.00      8.37      72.1     0.34      1016.0     1       328         3       218        8.85     268      385.5
   05/13/2016 09:30      64.0      62.5       75     54.9      0.00      8.37      72.3     0.34      1016.0     2       279         3       266        8.85     268      362.3
   05/13/2016 09:20      62.9      62.4       76     54.9      0.00      8.37      71.9     0.34      1015.0     2       292         3       247        8.85     268      343.0
   05/13/2016 09:10      62.6      61.3       78     55.0      0.00      8.37      72.1     0.34      1015.0     2         5         3         0        8.85     268      310.8
   05/13/2016 09:00      61.0      60.1       82     55.0      0.00      8.37      72.2     0.34      1016.0     2        30         4        58        8.85     268      274.7
   05/13/2016 08:50      60.0      59.5       84     55.0      0.00      8.37      72.3     0.34      1016.0     3         1         5       348        8.85     268      155.0
   05/13/2016 08:40      59.7      59.2       86     55.1      0.00      8.37      72.0     0.34      1016.0     2       348         4       320        8.85     268      124.4
   05/13/2016 08:30      59.1      58.4       88     54.9      0.00      8.37      72.3     0.34      1016.0     2        56         5       359        8.86     268      101.1
   05/13/2016 08:20      58.3      57.7       89     54.7      0.00      8.37      72.4     0.34      1016.0     1        40         3       358        8.86     268       96.1
   05/13/2016 08:10      57.7      57.4       90     54.5      0.00      8.37      72.2     0.34      1016.0     2        17         3        27        8.86     268       90.8
   05/13/2016 08:00      57.5      57.0       90     54.4      0.00      8.37      72.6     0.34      1016.0     2         3         3       341        8.86     267       89.5
   05/13/2016 07:50      57.0      56.5       91     54.1      0.00      8.37      72.1     0.34      1016.0     2        38         2        27        8.86     268       75.7
   05/13/2016 07:40      56.6      56.0       92     54.1      0.00      8.37      72.3     0.34      1016.0     2        41         3        31        8.86     268       70.8
   05/13/2016 07:30      55.9      55.5       94     53.8      0.00      8.37      72.6     0.34      1016.0     2        86         5        77        8.86     267       71.3
   05/13/2016 07:20      56.0      55.5       93     53.8      0.00      8.37      72.4     0.34      1015.0     2        96         4       117        8.86     267       62.8
   05/13/2016 07:10      55.8      55.4       94     54.0      0.00      8.37      72.8     0.34      1015.0     2        66         2        62        8.86     267       42.7
   05/13/2016 07:00      55.5      55.1       96     54.1      0.00      8.37      72.6     0.34      1015.0     2       103         3       101        8.86     268       33.5
   05/13/2016 06:50      55.2      55.1       96     54.0      0.00      8.37      72.2     0.34      1015.0     1        98         2        93        8.86     268       25.2
   05/13/2016 06:40      55.2      54.8       96     53.9      0.00      8.37      72.7     0.34      1015.0     1       101         2       132        8.86     268       16.8
   05/13/2016 06:30      54.9      54.6       96     53.7      0.00      8.37      72.3     0.34      1015.0     1       143         2       136        8.86     268        9.5
   05/13/2016 06:20      54.8      54.5       96     53.6      0.00      8.37      72.8     0.34      1015.0     1       106         2       103        8.86     267        4.7
   05/13/2016 06:10      54.9      54.6       96     53.5      0.00      8.37      72.8     0.34      1015.0     2       121         3       107        8.86     267        0.5
   05/13/2016 06:00      55.1      55.0       95     53.7      0.00      8.37      72.9     0.34      1015.0     2       111         3       116        8.86     268       -3.6
   05/13/2016 05:50      55.3      55.0       95     53.6      0.00      8.37      73.0     0.34      1015.0     2       104         4       103        8.87     268      -12.4
   05/13/2016 05:40      55.1      54.4       94     53.0      0.00      8.37      73.0     0.34      1015.0     2        70         3       104        8.87     268      -11.3
   05/13/2016 05:30      54.5      54.3       92     52.0      0.00      8.37      73.1     0.34      1015.0     1        52         2        42        8.87     268      -23.2
   05/13/2016 05:20      54.7      54.6       92     52.3      0.00      8.37      73.1     0.34      1015.0     1        93         1        74        8.87     268      -29.3
   05/13/2016 05:10      54.8      54.5       92     52.3      0.00      8.37      73.1     0.34      1015.0     0       120         1       208        8.87     267      -30.5
   05/13/2016 05:00      54.6      54.0       91     51.8      0.00      8.37      73.0     0.34      1015.0     0       134         1       139        8.87     267      -32.6
   05/13/2016 04:50      54.1      53.9       91     51.4      0.00      8.37      72.9     0.34      1015.0     1       139         1       170        8.87     267      -34.5
   05/13/2016 04:40      54.5      54.0       89     51.1      0.00      8.37      72.8     0.34      1015.0     1       110         1       124        8.87     267      -36.5
   05/13/2016 04:30      54.6      54.5       90     51.7      0.00      8.37      73.0     0.34      1015.0     0       206         1       235        8.87     267      -37.3
   05/13/2016 04:20      54.7      54.1       90     51.6      0.00      8.37      73.4     0.34      1015.0     1       152         2       140        8.87     267      -39.5
   05/13/2016 04:10      55.1      54.6       90     51.9      0.00      8.37      73.6     0.34      1015.0     1       148         2       140        8.87     267      -41.1
   05/13/2016 04:00      55.1      54.6       90     52.0      0.00      8.37      73.3     0.34      1015.0     1       164         1       172        8.87     267      -44.3
   05/13/2016 03:50      55.2      54.8       90     52.0      0.00      8.37      73.2     0.34      1015.0     1       125         1       143        8.87     267      -48.1
   05/13/2016 03:40      55.1      54.9       89     51.8      0.00      8.37      73.3     0.34      1015.0     1       148         2       149        8.87     267      -50.9
   05/13/2016 03:30      55.6      54.9       88     51.7      0.00      8.37      73.5     0.34      1015.0     1       144         2       142        8.87     267      -51.9
   05/13/2016 03:20      56.0      55.7       88     52.3      0.00      8.37      73.3     0.35      1015.0     1       103         2       148        8.88     266      -52.1
   05/13/2016 03:10      56.1      55.9       88     52.5      0.00      8.37      73.3     0.34      1015.0     1       159         2       150        8.88     267      -55.2
   05/13/2016 03:00      56.1      55.9       88     52.4      0.00      8.37      73.6     0.35      1015.0     2       149         2       151        8.88     266      -59.0
   05/13/2016 02:50      56.1      55.8       87     52.2      0.00      8.37      73.5     0.34      1015.0     2       135         3       142        8.88     266      -61.8
   05/13/2016 02:40      56.6      55.9       86     52.0      0.00      8.37      73.5     0.35      1015.0     1       128         1       128        8.88     266      -63.0
   05/13/2016 02:30      56.6      56.3       87     52.6      0.00      8.37      73.6     0.35      1015.0     1       144         1       144        8.88     266      -63.1
   05/13/2016 02:20      56.9      56.3       86     52.4      0.00      8.37      73.5     0.34      1015.0     1       134         1       134        8.88     266      -64.1
   05/13/2016 02:10      57.2      56.9       86     52.7      0.00      8.37      73.7     0.35      1015.0     1       137         1       129        8.88     266      -63.9
   05/13/2016 02:00      57.9      57.3       84     52.8      0.00      8.37      73.9     0.35      1015.0     1       132         1       178        8.88     266      -64.2
   05/13/2016 01:50      57.9      57.6       85     53.2      0.00      8.37      73.4     0.34      1016.0     1       192         1       172        8.88     266      -63.3
   05/13/2016 01:40      57.7      57.4       84     52.8      0.00      8.37      73.6     0.35      1016.0     1       202         2       197        8.88     266      -65.2
   05/13/2016 01:30      58.1      57.6       83     52.9      0.00      8.37      73.7     0.34      1016.0     1       173         2       199        8.89     266      -65.7
   05/13/2016 01:20      58.5      58.0       83     52.9      0.00      8.37      73.6     0.34      1016.0     1       143         1       133        8.89     266      -65.7
   05/13/2016 01:10      58.8      58.4       81     52.9      0.00      8.37      73.3     0.35      1016.0     1       126         1       126        8.89     266      -66.5
   05/13/2016 01:00      59.1      58.8       81     53.1      0.00      8.37      73.8     0.35      1016.0     1       122         1        92        8.89     266      -66.8
   05/13/2016 00:50      59.4      58.8       79     52.7      0.00      8.37      73.5     0.34      1016.0     1       107         2        73        8.89     266      -67.9
   05/13/2016 00:40      59.5      59.3       79     53.0      0.00      8.37      74.0     0.35      1016.0     1        88         1       124        8.89     266      -68.0
   05/13/2016 00:30      59.7      59.3       79     52.8      0.00      8.37      73.7     0.34      1016.0     1        99         2        68        8.89     266      -68.1
   05/13/2016 00:20      60.0      59.5       78     52.8      0.00      8.37      73.6     0.35      1016.0     1       105         1       115        8.89     266      -68.4
   05/13/2016 00:10      60.0      59.8       78     53.2      0.00      8.37      73.8     0.35      1016.0     0       123         1       293        8.89     266      -69.3
   05/13/2016 00:00      60.0      59.8       78     53.2      0.00      8.37      73.6     0.34      1016.0     1       102         2        55        8.89     266      -69.8
   05/12/2016 23:50      60.1      60.0       78     53.3      0.00      8.37      73.8     0.35      1016.0     0        99         1        92        8.89     266      -69.9
   05/12/2016 23:40      60.4      60.2       77     53.1      0.00      8.37      73.9     0.34      1016.0     1        70         1        69        8.90     266      -70.9
   05/12/2016 23:30      60.6      60.4       77     53.1      0.00      8.37      73.5     0.34      1016.0     1        60         1        39        8.90     265      -71.3
   05/12/2016 23:20      60.8      60.6       76     53.2      0.00      8.37      73.5     0.35      1016.0     1        73         2        41        8.90     266      -71.8
   05/12/2016 23:10      61.0      60.8       75     53.1      0.00      8.37      73.8     0.34      1015.0     1        87         1       111        8.90     265      -72.6
   05/12/2016 23:00      61.5      61.2       74     53.0      0.00      8.37      73.6     0.34      1015.0     1        87         1        94        8.90     265      -73.5
   05/12/2016 22:50      62.3      61.7       73     53.2      0.00      8.37      73.6     0.34      1016.0     1        58         1        93        8.90     265      -74.4
   05/12/2016 22:40      62.8      62.3       72     53.3      0.00      8.37      73.8     0.34      1016.0     1        78         2        87        8.90     265      -75.6
   05/12/2016 22:30      63.0      62.8       71     53.3      0.00      8.37      73.9     0.34      1016.0     1        74         3        76        8.90     265      -76.0
   05/12/2016 22:20      63.4      63.0       70     53.4      0.00      8.37      73.4     0.34      1016.0     2        75         4        72        8.90     265      -76.0
   05/12/2016 22:10      63.9      63.5       69     53.4      0.00      8.37      73.7     0.34      1015.0     2        85         3        90        8.90     265      -76.4
   05/12/2016 22:00      64.3      63.8       69     53.5      0.00      8.37      73.5     0.34      1015.0     2        95         2       100        8.90     265      -77.0
   05/12/2016 21:50      64.7      64.3       67     53.5      0.00      8.37      73.8     0.34      1015.0     1        87         2        80        8.91     265      -77.9
   05/12/2016 21:40      65.2      64.9       67     53.6      0.00      8.37      73.3     0.34      1015.0     1        85         2        72        8.91     265      -78.9
   05/12/2016 21:30      65.5      65.2       66     53.7      0.00      8.37      73.6     0.34      1015.0     2        99         3        78        8.91     265      -79.8
   05/12/2016 21:20      66.1      65.4       65     53.8      0.00      8.37      73.6     0.34      1015.0     2        92         3        83        8.91     265      -80.6
   05/12/2016 21:10      66.4      65.9       64     53.6      0.00      8.37      73.3     0.34      1015.0     1        98         2        92        8.91     265      -81.5
   05/12/2016 21:00      66.9      66.4       62     53.4      0.00      8.37      73.3     0.34      1015.0     2        86         3        85        8.92     265      -82.4
   05/12/2016 20:50      68.0      67.1       60     53.3      0.00      8.37      73.4     0.34      1015.0     3        89         5        76        8.92     265      -83.3
   05/12/2016 20:40      68.7      68.1       58     53.1      0.00      8.37      73.3     0.34      1015.0     2        71         3        67        8.92     265      -84.0
   05/12/2016 20:30      69.8      68.9       57     53.4      0.00      8.37      73.4     0.34      1014.0     2        56         4        71        8.92     264      -85.4
   05/12/2016 20:20      70.6      69.9       56     53.7      0.00      8.37      73.2     0.34      1014.0     2        33         3        27        8.93     264      -86.6
   05/12/2016 20:10      71.4      70.7       54     53.6      0.00      8.37      73.2     0.34      1014.0     2        57         3        64        8.93     264      -88.1
   05/12/2016 20:00      71.5      71.3       54     53.7      0.00      8.37      73.2     0.34      1014.0     2        43         2        22        8.93     264      -88.5
   05/12/2016 19:50      72.1      71.5       53     53.7      0.00      8.37      73.2     0.34      1014.0     2        67         4        80        8.94     264      -87.4
   05/12/2016 19:40      73.0      72.2       51     53.6      0.00      8.37      73.0     0.34      1014.0     2        56         4        57        8.94     264      -85.2
   05/12/2016 19:30      74.1      73.2       50     53.7      0.00      8.37      72.7     0.34      1014.0     2        71         3        35        8.94     264      -81.9
   05/12/2016 19:20      75.8      74.3       47     53.6      0.00      8.37      73.3     0.34      1013.0     3        42         5         7        8.95     264      -67.4
   05/12/2016 19:10      76.9      75.9       46     53.9      0.00      8.37      72.9     0.34      1013.0     3        43         5        36        8.95     264      -55.3
   05/12/2016 19:00      79.0      77.3       43     53.8      0.00      8.37      72.9     0.34      1013.0     3        35         4        30        8.96     264      -38.6
   05/12/2016 18:50      80.8      79.2       39     52.8      0.00      8.37      72.7     0.34      1013.0     3        51         5        71        8.96     264      -18.7
   05/12/2016 18:40      81.8      80.9       37     52.2      0.00      8.37      72.8     0.34      1013.0     4        24         6         2        8.96     264        4.0
   05/12/2016 18:30      82.3      81.8       37     52.9      0.00      8.37      72.8     0.34      1013.0     3        34         5        17        8.97     264       25.0
   05/12/2016 18:20      83.4      82.2       36     53.0      0.00      8.37      72.6     0.34      1013.0     3        29         4        64        8.97     264       48.6
   05/12/2016 18:10      85.0      83.6       35     53.6      0.00      8.37      72.4     0.34      1013.0     3        33         5        57        8.98     264       71.1
   05/12/2016 18:00      85.1      84.0       34     52.8      0.00      8.37      72.4     0.34      1013.0     3        41         4       103        8.98     264       95.2
   05/12/2016 17:50      85.1      84.3       33     52.5      0.00      8.37      72.4     0.34      1013.0     4        74         5        90        8.98     263      116.6
   05/12/2016 17:40      85.7      84.5       34     53.3      0.00      8.37      72.4     0.34      1013.0     6        62        11        87        8.99     263      143.7
   05/12/2016 17:30      89.7      86.1       30     52.5      0.00      8.37      72.2     0.34      1013.0     5        67         9        67        8.99     263      171.3
   05/12/2016 17:20      90.6      89.7       14     33.9      0.00      8.37      72.2     0.34      1013.0     3       152         5       145        9.00     262      191.7
   05/12/2016 17:10      90.7      89.8       12     31.1      0.00      8.37      72.1     0.34      1013.0     6       171         8       183        9.00     262      219.0
   05/12/2016 17:00      91.3      90.4       11     29.6      0.00      8.37      72.1     0.34      1013.0     6       149        10       131        9.01     262      244.0
   05/12/2016 16:50      92.0      91.0       10     28.3      0.00      8.37      72.0     0.34      1013.0     5       202         7       172        9.02     262      265.5
   05/12/2016 16:40      92.3      91.4       10     28.6      0.00      8.37      71.9     0.34      1013.0     5       183        10       155        9.03     263      287.1
   05/12/2016 16:30      92.5      91.7       10     28.7      0.00      8.37      71.8     0.34      1013.0     6       193        10       196        9.04     263      308.0
   05/12/2016 16:20      93.2      92.5       11     29.9      0.00      8.37      71.7     0.34      1013.0     4       177         6       197        9.05     263      328.9
   05/12/2016 16:10      92.6      92.3       15     37.8      0.00      8.37      71.7     0.34      1013.0     4       123         7       143        9.06     264      347.6
   05/12/2016 16:00      92.4      91.8       22     47.4      0.00      8.37      71.6     0.34      1013.0     4        59         7        80        9.06     264      364.7
   05/12/2016 15:50      92.4      91.2       23     48.3      0.00      8.37      71.4     0.34      1013.0     4        61         8        75        9.07     264      385.9
   05/12/2016 15:40      91.7      91.4       24     49.3      0.00      8.37      71.3     0.34      1013.0     4        42         6        84        9.07     264      403.8
   05/12/2016 15:30      91.7      90.8       25     50.7      0.00      8.37      71.4     0.34      1013.0     4        41         6        99        9.07     264      420.7
   05/12/2016 15:20      91.2      90.6       27     52.1      0.00      8.37      71.3     0.34      1013.0     3        36         5        20        9.07     264      436.7
   05/12/2016 15:10      91.2      90.5       27     52.4      0.00      8.37      71.1     0.34      1014.0     4        45         6        50        9.08     265      454.2
   05/12/2016 15:00      91.5      90.2       27     52.5      0.00      8.37      71.0     0.34      1014.0     4        35         7        29        9.08     264      465.8
   05/12/2016 14:50      91.1      89.7       27     51.8      0.00      8.37      71.0     0.34      1014.0     4        29         6        67        9.08     264      480.8
   05/12/2016 14:40      90.2      89.1       29     52.8      0.00      8.37      70.7     0.34      1014.0     4        23         7        33        9.08     265      493.5
   05/12/2016 14:30      89.4      88.8       29     52.7      0.00      8.37      70.8     0.34      1014.0     4        53         8        78        9.09     265      509.0
   05/12/2016 14:20      88.8      87.7       30     52.7      0.00      8.37      70.6     0.34      1014.0     3        54         6        28        9.09     266      520.9
   05/12/2016 14:10      89.3      88.1       30     53.3      0.00      8.37      70.5     0.34      1014.0     4        39         6        37        9.09     266      530.9
   05/12/2016 14:00      89.1      88.5       29     52.3      0.00      8.37      70.4     0.33      1014.0     4        52         7        75        9.09     266      538.5
   05/12/2016 13:50      89.7      88.7       29     52.8      0.00      8.37      70.4     0.33      1014.0     4        29         7        79        9.09     266      544.4
   05/12/2016 13:40      90.1      88.7       31     54.3      0.00      8.37      70.5     0.33      1014.0     3        20         6        24        9.10     266      549.3
   05/12/2016 13:30      89.4      87.2       33     55.7      0.00      8.37      70.2     0.33      1014.0     3        32         5         1        9.10     266      557.5
   05/12/2016 13:20      88.0      87.0       34     56.0      0.00      8.37      70.2     0.33      1014.0     3        35         5        32        9.10     266      562.1
   05/12/2016 13:10      87.8      86.0       35     56.2      0.00      8.37      70.3     0.33      1014.0     3        41         4        78        9.10     266      567.6
   05/12/2016 13:00      86.6      86.1       37     56.6      0.00      8.37      70.2     0.33      1015.0     3        54         5        11        9.10     266      569.1
   05/12/2016 12:50      87.0      86.2       36     56.5      0.00      8.37      70.3     0.33      1015.0     4        53         6        10        9.10     266      568.5
   05/12/2016 12:40      86.6      85.4       36     55.9      0.00      8.37      70.3     0.33      1015.0     2        31         6        64        9.10     266      571.4
   05/12/2016 12:30      86.2      85.6       36     55.8      0.00      8.37      70.1     0.33      1015.0     4        51         8         0        9.10     267      570.4
   05/12/2016 12:20      86.0      84.7       37     55.8      0.00      8.37      70.0     0.33      1015.0     4        39         5       347        9.10     267      569.0
   05/12/2016 12:10      85.4      84.6       35     54.4      0.00      8.37      70.2     0.33      1015.0     3        37         5       356        9.10     267      565.9
   05/12/2016 12:00      84.5      83.3       35     53.3      0.00      8.37      70.0     0.33      1015.0     3        29         5         9        9.10     267      563.5
   05/12/2016 11:50      83.5      82.5       35     52.4      0.00      8.37      70.0     0.33      1015.0     2        67         4        26        9.10     268      560.4
   05/12/2016 11:40      82.6      81.2       37     53.2      0.00      8.37      69.8     0.33      1015.0     3        44         4         4        9.10     268      552.7
   05/12/2016 11:30      81.1      79.2       39     53.4      0.00      8.37      69.8     0.33      1015.0     3        32         7         7        9.10     268      547.7
   05/12/2016 11:20      80.0      79.0       40     53.3      0.00      8.37      70.0     0.33      1015.0     3        52         5        75        9.11     268      539.6
   05/12/2016 11:10      79.8      77.9       42     53.9      0.00      8.37      70.0     0.33      1015.0     3        48         4        77        9.11     268      530.2
   05/12/2016 11:00      78.1      77.4       45     54.7      0.00      8.37      70.2     0.34      1015.0     3        18         5        34        9.11     268      518.3
   05/12/2016 10:50      77.5      76.6       47     55.3      0.00      8.37      70.1     0.34      1015.0     3        25         4        50        9.11     268      507.7
   05/12/2016 10:40      77.2      76.3       48     55.5      0.00      8.37      70.2     0.34      1016.0     3        21         4        11        9.11     268      496.1
   05/12/2016 10:30      76.6      75.2       50     55.5      0.00      8.37      70.3     0.34      1016.0     3        42         4        65        9.11     268      483.1
   05/12/2016 10:20      75.5      74.0       51     55.4      0.00      8.37      70.2     0.34      1016.0     3        13         4         9        9.11     268      468.4
   05/12/2016 10:10      74.2      73.1       53     55.2      0.00      8.37      70.0     0.34      1016.0     3        44         4        73        9.11     269      452.5
   05/12/2016 10:00      72.7      72.1       54     55.0      0.00      8.37      70.2     0.34      1016.0     2        44         4        70        9.11     268      436.4
   05/12/2016 09:50      72.6      71.1       55     54.9      0.00      8.37      70.0     0.34      1016.0     1        44         2        48        9.11     269      419.1
   05/12/2016 09:40      71.2      70.1       58     54.8      0.00      8.37      70.4     0.34      1016.0     2        24         3        26        9.11     269      402.6
   05/12/2016 09:30      70.3      69.5       58     54.7      0.00      8.37      70.0     0.34      1016.0     3       332         4       307        9.11     269      384.1
   05/12/2016 09:20      69.4      67.8       61     54.7      0.00      8.37      70.3     0.34      1016.0     3         4         4       356        9.11     269      365.1
   05/12/2016 09:10      67.8      66.8       64     54.6      0.00      8.37      70.3     0.34      1016.0     1         2         3        10        9.11     269      344.9
   05/12/2016 09:00      67.0      65.0       67     54.6      0.00      8.37      70.5     0.34      1016.0     2       354         4         2        9.11     269      328.5
   05/12/2016 08:50      65.0      62.9       71     54.4      0.00      8.37      70.2     0.34      1016.0     2        52         3       356        9.11     269      317.5
   05/12/2016 08:40      63.0      62.0       75     54.3      0.00      8.37      70.6     0.34      1016.0     2       330         3       311        9.11     269      324.8
   05/12/2016 08:30      62.0      61.3       76     54.2      0.00      8.37      70.5     0.34      1016.0     1         8         3        24        9.11     269      123.0
   05/12/2016 08:20      61.4      60.8       78     54.2      0.00      8.37      70.4     0.34      1016.0     1        10         3         7        9.12     269       28.4
   05/12/2016 08:10      60.9      60.0       80     54.1      0.00      8.37      70.0     0.34      1016.0     1        45         2        20        9.12     269       29.2
   05/12/2016 08:00      60.0      59.3       81     53.8      0.00      8.37      70.4     0.34      1016.0     1        20         2        34        9.12     269       26.5
   05/12/2016 07:50      59.5      58.7       83     53.7      0.00      8.37      70.4     0.34      1016.0     2        13         3        32        9.12     269       32.7
   05/12/2016 07:40      58.7      58.2       84     53.6      0.00      8.37      70.0     0.34      1016.0     2        12         2        21        9.12     269       28.0
   05/12/2016 07:30      58.1      57.4       86     53.5      0.00      8.37      70.5     0.34      1016.0     1        42         2        89        9.12     269       26.7
   05/12/2016 07:20      57.4      56.6       87     53.3      0.00      8.37      70.5     0.34      1016.0     1        71         2        83        9.12     269       23.4
   05/12/2016 07:10      56.8      55.6       91     53.3      0.00      8.37      70.5     0.34      1016.0     1        76         2        74        9.12     269       20.5
   05/12/2016 07:00      55.8      54.6       92     52.8      0.00      8.37      70.4     0.34      1016.0     1        74         1       125        9.12     269       14.9
   05/12/2016 06:50      54.7      54.1       93     52.3      0.00      8.37      70.5     0.34      1016.0     1       126         1       125        9.12     269       10.1
   05/12/2016 06:40      54.2      53.3       95     52.3      0.00      8.37      70.5     0.34      1016.0     0       149         1       184        9.12     269        6.7
   05/12/2016 06:30      53.3      52.8       94     51.4      0.00      8.37      70.4     0.34      1016.0     1       147         1       146        9.12     269        0.4
   05/12/2016 06:20      52.8      52.4       94     50.8      0.00      8.37      70.7     0.34      1016.0     1       138         1       121        9.12     269       -6.4
   05/12/2016 06:10      53.1      52.9       95     51.5      0.00      8.37      70.5     0.34      1016.0     1       149         2       128        9.12     268      -11.9
   05/12/2016 06:00      53.3      52.8       95     51.5      0.00      8.37      70.8     0.34      1016.0     1       187         2       151        9.12     268      -16.1
   05/12/2016 05:50      53.3      52.6       95     51.6      0.00      8.37      71.0     0.34      1016.0     1       133         2       134        9.12     269      -19.4
   05/12/2016 05:40      53.1      52.9       95     51.6      0.00      8.37      70.5     0.34      1016.0     1       169         1       211        9.12     268      -20.3
   05/12/2016 05:30      53.1      52.8       95     51.5      0.00      8.37      70.7     0.34      1016.0     1       165         1       157        9.12     268      -20.9
   05/12/2016 05:20      53.3      53.1       95     51.7      0.00      8.37      71.1     0.34      1016.0     1       163         1       143        9.12     268      -21.0
   05/12/2016 05:10      53.4      53.2       94     51.7      0.00      8.37      71.0     0.34      1016.0     1       153         1       145        9.12     268      -21.3
   05/12/2016 05:00      53.5      53.2       94     51.8      0.00      8.37      70.8     0.34      1016.0     0       186         1       174        9.12     268      -21.5
   05/12/2016 04:50      53.6      53.3       94     51.7      0.00      8.37      70.7     0.34      1016.0     1       161         1       139        9.13     268      -22.4
   05/12/2016 04:40      53.4      52.9       94     51.5      0.00      8.37      71.0     0.34      1016.0     1       164         2       134        9.12     268      -23.0
   05/12/2016 04:30      53.1      52.7       93     51.0      0.00      8.37      70.9     0.34      1016.0     1       143         2       142        9.12     268      -23.5
   05/12/2016 04:20      53.7      53.1       93     51.5      0.00      8.37      70.7     0.34      1016.0     1       147         2       137        9.12     268      -23.9
   05/12/2016 04:10      53.7      53.5       93     51.5      0.00      8.37      71.0     0.34      1016.0     1       154         2       145        9.13     268      -24.6
   05/12/2016 04:00      53.9      53.5       93     51.6      0.00      8.37      71.0     0.34      1016.0     1       143         2       129        9.13     268      -25.2
   05/12/2016 03:50      54.2      54.0       93     52.2      0.00      8.37      71.6     0.34      1016.0     1       176         1       146        9.13     268      -25.5
   05/12/2016 03:40      54.2      53.8       93     51.8      0.00      8.37      71.0     0.34      1016.0     1       145         1       154        9.13     268      -26.9
   05/12/2016 03:30      54.0      53.8       93     51.9      0.00      8.37      70.8     0.34      1016.0     1       138         2       130        9.13     268      -27.9
   05/12/2016 03:20      54.3      53.9       92     51.9      0.00      8.37      71.1     0.34      1016.0     1       161         1       131        9.13     268      -28.2
   05/12/2016 03:10      54.6      54.1       92     52.1      0.00      8.37      70.7     0.34      1016.0     1       141         1       129        9.13     268      -28.9
   05/12/2016 03:00      54.6      54.5       91     52.1      0.00      8.37      71.5     0.34      1016.0     1       153         2       137        9.13     268      -30.2
   05/12/2016 02:50      54.9      54.7       92     52.6      0.00      8.37      71.2     0.34      1016.0     1       174         2       136        9.13     268      -31.2
   05/12/2016 02:40      54.8      54.5       92     52.4      0.00      8.37      71.3     0.34      1016.0     1       190         1       201        9.13     268      -33.1
   05/12/2016 02:30      54.6      54.4       92     52.2      0.00      8.37      71.3     0.34      1016.0     1       159         2       164        9.13     268      -35.4
   05/12/2016 02:20      54.6      54.3       91     51.7      0.00      8.37      71.0     0.34      1016.0     2       149         2       141        9.13     267      -38.2
   05/12/2016 02:10      55.4      54.6       91     52.4      0.00      8.37      71.4     0.34      1016.0     1       166         2       178        9.13     268      -38.0
   05/12/2016 02:00      55.7      55.4       91     52.9      0.00      8.37      71.4     0.34      1016.0     1       162         1       163        9.13     268      -38.5
   05/12/2016 01:50      56.0      55.7       90     52.9      0.00      8.37      71.6     0.34      1016.0     1       146         1       144        9.13     267      -40.9
   05/12/2016 01:40      56.2      56.0       90     53.3      0.00      8.37      71.0     0.34      1016.0     0       187         1       184        9.13     267      -42.6
   05/12/2016 01:30      56.6      56.3       89     53.3      0.00      8.37      71.2     0.34      1016.0     0        90         1       136        9.13     267      -47.5
   05/12/2016 01:20      56.8      56.5       89     53.5      0.00      8.37      71.4     0.34      1016.0     1       158         1       156        9.13     267      -50.5
   05/12/2016 01:10      56.9      56.5       88     53.3      0.00      8.37      71.4     0.34      1016.0     1       135         1       112        9.13     267      -53.0
   05/12/2016 01:00      57.1      56.8       88     53.4      0.00      8.37      71.6     0.34      1016.0     1       127         1       118        9.14     267      -56.1
   05/12/2016 00:50      57.1      56.8       88     53.3      0.00      8.37      71.3     0.34      1016.0     1       115         2       131        9.14     267      -58.9
   05/12/2016 00:40      57.2      56.8       87     53.0      0.00      8.37      71.5     0.34      1016.0     1       121         1       129        9.14     267      -61.6
   05/12/2016 00:30      57.6      57.4       86     53.2      0.00      8.37      71.4     0.34      1016.0     1       106         1       123        9.14     267      -62.6
   05/12/2016 00:20      57.6      57.4       85     53.0      0.00      8.37      71.4     0.34      1016.0     1       107         2       121        9.14     267      -63.5
   05/12/2016 00:10      58.5      57.7       84     53.3      0.00      8.37      71.3     0.34      1016.0     1       111         2       102        9.14     267      -64.1
   05/12/2016 00:00      58.7      58.5       83     53.5      0.00      8.37      71.1     0.34      1016.0     1        89         1        99        9.14     267      -65.0
   05/11/2016 23:50      59.1      58.8       83     53.6      0.00      8.37      71.1     0.34      1016.0     1        89         2       103        9.14     267      -66.6
   05/11/2016 23:40      59.4      59.1       82     53.8      0.00      8.37      71.3     0.34      1016.0     1        81         3        71        9.14     267      -67.3
   05/11/2016 23:30      59.6      59.4       81     53.7      0.00      8.37      71.2     0.34      1016.0     2        78         3        68        9.14     267      -67.9
   05/11/2016 23:20      59.7      59.5       81     53.8      0.00      8.37      71.4     0.34      1016.0     1        47         2        55        9.14     267      -68.3
   05/11/2016 23:10      59.9      59.6       80     53.7      0.00      8.37      71.0     0.34      1016.0     2        91         3        78        9.14     267      -68.6
   05/11/2016 23:00      60.1      59.9       80     53.8      0.00      8.37      71.1     0.34      1016.0     2        87         2       107        9.14     267      -69.1
   05/11/2016 22:50      60.5      60.2       79     53.8      0.00      8.37      71.0     0.34      1016.0     2        87         3        66        9.14     267      -69.1
   05/11/2016 22:40      60.7      60.4       78     53.7      0.00      8.37      70.8     0.34      1016.0     2        91         3        73        9.14     267      -69.6
   05/11/2016 22:30      61.2      60.7       77     53.7      0.00      8.37      71.5     0.34      1016.0     2        79         4        80        9.15     267      -70.2
   05/11/2016 22:20      61.6      61.4       75     53.6      0.00      8.37      71.2     0.34      1016.0     2        54         2        63        9.15     267      -70.9
   05/11/2016 22:10      62.3      61.8       74     53.6      0.00      8.37      71.2     0.34      1016.0     2        55         3        65        9.15     267      -71.7
   05/11/2016 22:00      62.4      62.1       73     53.6      0.00      8.37      71.2     0.34      1016.0     2        54         4        70        9.15     267      -71.9
   05/11/2016 21:50      62.7      62.4       72     53.5      0.00      8.37      71.2     0.34      1016.0     2        69         3        79        9.15     267      -72.5
   05/11/2016 21:40      63.0      62.8       72     53.7      0.00      8.37      71.1     0.34      1015.0     2        74         4        84        9.15     266      -73.4
   05/11/2016 21:30      63.5      63.2       71     53.8      0.00      8.37      71.2     0.34      1015.0     2        80         4        91        9.15     266      -73.7
   05/11/2016 21:20      64.1      63.6       69     53.6      0.00      8.37      70.9     0.34      1015.0     2        88         3        63        9.15     266      -74.6
   05/11/2016 21:10      64.5      64.1       68     53.5      0.00      8.37      71.1     0.34      1015.0     2        99         2        96        9.16     266      -75.2
   05/11/2016 21:00      65.3      64.7       66     53.5      0.00      8.37      71.1     0.34      1015.0     2        97         3       112        9.16     266      -76.2
   05/11/2016 20:50      66.1      65.5       64     53.3      0.00      8.37      71.0     0.34      1015.0     1        77         2        82        9.16     266      -77.7
   05/11/2016 20:40      66.7      66.1       63     53.4      0.00      8.37      70.8     0.34      1015.0     2        48         3        69        9.16     266      -78.9
   05/11/2016 20:30      67.3      66.8       62     53.5      0.00      8.37      71.0     0.34      1015.0     2        35         3        45        9.16     266      -80.4
   05/11/2016 20:20      67.7      67.3       61     53.5      0.00      8.37      70.8     0.34      1015.0     1        33         2        69        9.16     266      -81.9
   05/11/2016 20:10      68.5      67.7       60     53.6      0.00      8.37      71.0     0.34      1014.0     1        39         2        31        9.16     266      -83.3
   05/11/2016 20:00      69.2      68.6       58     53.7      0.00      8.37      71.1     0.34      1014.0     2        34         3        51        9.17     266      -84.2
   05/11/2016 19:50      69.8      69.2       57     53.7      0.00      8.37      70.9     0.34      1014.0     2        36         6        69        9.17     265      -83.2
   05/11/2016 19:40      71.5      70.0       55     53.6      0.00      8.37      70.8     0.34      1014.0     3        62         4        58        9.17     265      -80.4
   05/11/2016 19:30      74.1      71.8       51     53.8      0.00      8.37      70.7     0.34      1014.0     2        50         4        74        9.17     265      -77.4
   05/11/2016 19:20      74.4      74.1       50     54.5      0.00      8.37      70.8     0.34      1014.0     2       219         4       229        9.18     265      -60.8
   05/11/2016 19:10      74.7      74.3       50     54.5      0.00      8.37      70.4     0.34      1014.0     3       219         6       235        9.18     265      -51.7
   05/11/2016 19:00      75.6      74.9       49     54.6      0.00      8.37      70.5     0.34      1014.0     4       211         6       207        9.18     265      -29.1
   05/11/2016 18:50      76.8      75.7       47     54.7      0.00      8.37      70.4     0.34      1014.0     4       220         6       244        9.19     265       -7.8
   05/11/2016 18:40      77.6      77.0       46     54.8      0.00      8.37      70.4     0.34      1014.0     5       239         7       228        9.19     265       14.2
   05/11/2016 18:30      78.8      77.9       44     54.9      0.00      8.37      70.4     0.34      1014.0     4       241         6       220        9.19     265       35.0
   05/11/2016 18:20      79.2      78.7       43     54.8      0.00      8.37      70.2     0.34      1013.0     4       246         6       250        9.20     265       57.7
   05/11/2016 18:10      79.3      78.9       43     54.8      0.00      8.37      70.3     0.34      1013.0     5       254         6       272        9.20     265       81.4
   05/11/2016 18:00      79.6      79.1       43     54.9      0.00      8.37      70.2     0.34      1013.0     4       252         5       224        9.20     265      105.9
   05/11/2016 17:50      79.7      79.2       43     55.0      0.00      8.37      69.9     0.34      1014.0     4       269         7       278        9.21     265      131.4
   05/11/2016 17:40      79.9      79.3       43     55.0      0.00      8.37      69.8     0.34      1014.0     4       242         7       226        9.21     265      156.4
   05/11/2016 17:30      80.2      79.5       43     55.1      0.00      8.37      69.8     0.34      1014.0     4       244         6       205        9.21     265      184.6
   05/11/2016 17:20      79.9      79.3       43     55.1      0.00      8.37      69.7     0.34      1014.0     4       236         6       232        9.22     265      204.7
   05/11/2016 17:10      81.4      79.2       42     55.2      0.00      8.37      69.8     0.34      1014.0     5       225         7       232        9.22     265      227.9
   05/11/2016 17:00      81.6      80.5       42     55.5      0.00      8.37      69.6     0.34      1014.0     5       296         7       296        9.23     265      253.2
   05/11/2016 16:50      82.2      81.2       41     55.6      0.00      8.37      69.6     0.34      1014.0     4       265         6       253        9.23     265      280.2
   05/11/2016 16:40      82.2      81.3       41     55.6      0.00      8.37      69.6     0.34      1013.0     4       279         7       282        9.23     265      295.7
   05/11/2016 16:30      82.2      81.5       41     55.7      0.00      8.37      69.4     0.34      1013.0     5       283         7       249        9.24     266      302.7
   05/11/2016 16:20      83.0      81.1       41     55.5      0.00      8.37      69.5     0.34      1013.0     5       244        10       239        9.24     266      347.1
   05/11/2016 16:10      83.1      81.8       40     55.7      0.00      8.37      69.3     0.34      1013.0     6       291        10       311        9.24     266      363.4
   05/11/2016 16:00      83.6      82.1       38     55.1      0.00      8.37      69.3     0.34      1013.0     6       301         9       250        9.25     266      349.2
   05/11/2016 15:50      84.2      83.1       35     53.2      0.00      8.37      69.4     0.34      1014.0     2       165         6       237        9.25     266      366.1
   05/11/2016 15:40      84.3      82.4       35     52.4      0.00      8.37      69.1     0.34      1014.0     2        75         3       140        9.25     266      420.0
   05/11/2016 15:30      82.5      81.9       35     51.9      0.00      8.37      69.1     0.34      1014.0     3       217         4       245        9.25     266      420.1
   05/11/2016 15:20      83.1      81.5       35     52.0      0.00      8.37      68.7     0.34      1014.0     2       253         4       294        9.25     266      435.4
   05/11/2016 15:10      81.8      80.4       36     52.0      0.00      8.37      68.8     0.34      1014.0     3       108         4        14        9.26     266      445.3
   05/11/2016 15:00      80.7      79.6       38     52.1      0.00      8.37      68.6     0.34      1014.0     3       119         5       152        9.26     266      453.1
   05/11/2016 14:50      80.9      79.8       38     52.5      0.00      8.37      68.9     0.34      1014.0     2        66         4        27        9.26     266      454.4
   05/11/2016 14:40      80.5      79.5       40     53.3      0.00      8.37      68.5     0.33      1014.0     3       261         5       234        9.26     266      493.6
   05/11/2016 14:30      80.1      79.3       40     53.5      0.00      8.37      68.8     0.33      1015.0     3       356         5         9        9.26     266      517.7
   05/11/2016 14:20      79.5      78.8       42     54.1      0.00      8.37      68.6     0.33      1015.0     3        57         4        19        9.26     267      534.4
   05/11/2016 14:10      79.3      77.6       43     54.1      0.00      8.37      68.6     0.33      1015.0     2        27         4        12        9.26     267      542.3
   05/11/2016 14:00      78.6      77.3       44     54.3      0.00      8.37      68.7     0.33      1015.0     2       249         4       173        9.27     267      548.9
   05/11/2016 13:50      78.1      76.1       45     54.3      0.00      8.37      68.7     0.33      1015.0     3       316         5       343        9.27     267      557.1
   05/11/2016 13:40      76.7      75.8       47     54.7      0.00      8.37      68.2     0.33      1015.0     3        15         6       347        9.27     268      567.9
   05/11/2016 13:30      75.4      74.0       50     54.3      0.00      8.37      68.5     0.33      1015.0     2       226         4       241        9.27     267      563.7
   05/11/2016 13:20      75.0      73.6       50     54.3      0.00      8.37      68.5     0.33      1015.0     3       110         5        83        9.27     268      557.4
   05/11/2016 13:10      75.2      73.7       49     54.4      0.00      8.37      68.5     0.33      1015.0     3        74         5        75        9.27     268      550.5
   05/11/2016 13:00      75.6      73.1       50     54.7      0.00      8.37      68.6     0.33      1016.0     3       350         4        55        9.27     268      585.4
   05/11/2016 12:50      72.8      71.3       53     54.1      0.00      8.37      68.3     0.33      1016.0     3        56         5        78        9.27     268      595.4
   05/11/2016 12:40      72.4      71.2       54     54.3      0.00      8.37      68.5     0.33      1016.0     3        26         4        20        9.27     268      585.8
   05/11/2016 12:30      71.1      70.2       56     54.0      0.00      8.37      68.6     0.33      1016.0     4        11         6       352        9.27     268      594.4
   05/11/2016 12:20      70.9      68.5       57     54.0      0.00      8.37      68.5     0.33      1016.0     3       343         5       354        9.27     268      578.2
   05/11/2016 12:10      69.1      68.3       59     53.9      0.00      8.37      68.3     0.33      1016.0     3        14         6       326        9.27     268      581.7
   05/11/2016 12:00      68.8      67.2       61     53.8      0.00      8.37      68.3     0.33      1016.0     2       357         4         1        9.27     269      578.6
   05/11/2016 11:50      68.6      66.9       61     53.9      0.00      8.37      68.5     0.34      1016.0     3       320         4       295        9.27     269      572.7
   05/11/2016 11:40      66.8      65.0       65     53.6      0.00      8.37      68.4     0.34      1017.0     2       333         4       311        9.27     269      565.6
   05/11/2016 11:30      66.1      65.1       66     53.8      0.00      8.37      68.2     0.34      1017.0     4       330         7       309        9.27     269      558.6
   05/11/2016 11:20      66.7      65.6       64     53.9      0.00      8.37      68.6     0.34      1017.0     3       261         5       277        9.27     269      555.6
   05/11/2016 11:10      66.4      64.9       66     53.9      0.00      8.37      67.9     0.34      1017.0     2        50         4        67        9.27     270      543.5
   05/11/2016 11:00      64.8      62.2       71     53.5      0.00      8.37      68.3     0.34      1017.0     2       356         4        38        9.27     269      558.4
   05/11/2016 10:50      62.2      61.1       74     53.2      0.00      8.37      68.0     0.34      1017.0     2       274         4       257        9.27     269      319.0
   05/11/2016 10:40      61.9      61.3       74     53.2      0.00      8.37      68.3     0.34      1017.0     2       223         6       257        9.27     269      277.3
   05/11/2016 10:30      61.3      60.1       76     53.2      0.00      8.37      68.5     0.34      1017.0     2       242         3       253        9.27     269      212.8
   05/11/2016 10:20      60.1      59.5       78     53.0      0.00      8.37      68.3     0.34      1017.0     3       271         4       267        9.27     269      173.8
   05/11/2016 10:10      59.9      59.3       79     53.1      0.00      8.37      68.5     0.34      1017.0     3       199         4       279        9.27     269      151.3
   05/11/2016 10:00      60.0      59.6       79     53.2      0.00      8.37      68.4     0.34      1017.0     1        95         2       311        9.27     269      122.7
   05/11/2016 09:50      59.6      59.2       80     53.1      0.00      8.37      68.6     0.34      1017.0     1         2         2        36        9.27     270      110.7
   05/11/2016 09:40      59.5      59.0       80     53.2      0.00      8.37      68.5     0.34      1017.0     1        39         2        68        9.27     270       93.8
   05/11/2016 09:30      59.5      59.1       80     53.2      0.00      8.37      68.3     0.34      1017.0     1        60         2        89        9.27     269       80.6
   05/11/2016 09:20      59.0      58.5       81     53.0      0.00      8.37      68.7     0.34      1017.0     1         7         2        21        9.27     270       75.8
   05/11/2016 09:10      58.5      58.2       82     52.9      0.00      8.37      68.3     0.34      1017.0     2         1         4       356        9.27     269       68.1
   05/11/2016 09:00      58.5      57.7       83     53.1      0.00      8.37      68.5     0.34      1017.0     1       300         2       317        9.27     269       58.2
   05/11/2016 08:50      58.1      57.5       84     53.0      0.00      8.37      68.6     0.34      1017.0     1       293         2       305        9.27     270       52.2
   05/11/2016 08:40      57.7      57.3       85     53.0      0.00      8.37      68.7     0.34      1017.0     1       204         2       185        9.27     270       47.0
   05/11/2016 08:30      57.5      56.9       86     53.0      0.00      8.37      68.6     0.34      1017.0     2       137         2       151        9.27     269       41.0
   05/11/2016 08:20      57.1      56.8       87     53.0      0.00      8.37      68.5     0.34      1017.0     2       189         3       190        9.27     270       33.8
   05/11/2016 08:10      57.2      56.9       86     52.9      0.00      8.37      68.4     0.34      1017.0     2       170         2       163        9.27     269       32.4
   05/11/2016 08:00      57.2      56.9       86     52.9      0.00      8.37      68.6     0.34      1017.0     1        72         1        78        9.28     270       31.0
   05/11/2016 07:50      57.1      56.6       86     52.9      0.00      8.37      68.3     0.34      1017.0     1       172         2       260        9.27     269       25.2
   05/11/2016 07:40      56.8      56.5       87     52.9      0.00      8.37      68.7     0.34      1017.0     2       175         3       205        9.27     269       20.8
   05/11/2016 07:30      56.6      56.4       88     52.9      0.00      8.37      68.8     0.34      1017.0     1       166         2       136        9.27     269       19.5
   05/11/2016 07:20      56.4      56.0       89     52.9      0.00      8.37      68.6     0.34      1016.0     1       198         1       172        9.27     270       15.8
   05/11/2016 07:10      56.1      56.0       89     52.8      0.00      8.37      68.5     0.34      1016.0     1       256         3       273        9.27     269       10.5
   05/11/2016 07:00      56.3      56.0       89     53.0      0.00      8.37      68.6     0.34      1016.0     1       210         2       219        9.27     269        8.5
   05/11/2016 06:50      56.1      55.8       90     53.0      0.00      8.37      68.6     0.34      1016.0     1       192         2       166        9.27     269        7.0
   05/11/2016 06:40      56.0      55.6       90     53.0      0.00      8.37      68.9     0.34      1016.0     1       220         1       245        9.27     270        3.4
   05/11/2016 06:30      55.9      55.7       90     52.9      0.00      8.37      68.7     0.34      1016.0     1       203         1       205        9.28     269       -1.7
   05/11/2016 06:20      55.8      55.6       90     52.9      0.00      8.37      68.7     0.34      1016.0     1       174         1       191        9.27     269       -6.2
   05/11/2016 06:10      55.7      55.5       90     52.8      0.00      8.37      68.2     0.34      1016.0     1       221         1       219        9.28     270       -7.7
   05/11/2016 06:00      55.8      55.5       90     52.8      0.00      8.37      68.8     0.34      1016.0     1       218         1       207        9.28     269       -9.0
   05/11/2016 05:50      55.7      55.5       90     52.7      0.00      8.37      68.5     0.34      1016.0     1       156         2       168        9.28     270       -9.4
   05/11/2016 05:40      55.9      55.5       90     52.7      0.00      8.37      69.2     0.34      1016.0     1        75         1        76        9.28     270       -9.8
   05/11/2016 05:30      55.7      55.4       90     52.7      0.00      8.37      68.4     0.34      1016.0     1       114         2       137        9.28     270       -9.7
   05/11/2016 05:20      55.5      55.2       91     52.6      0.00      8.37      69.1     0.34      1016.0     1       127         2       118        9.28     270       -9.7
   05/11/2016 05:10      55.6      55.1       91     52.6      0.00      8.37      68.8     0.34      1016.0     1       152         2       163        9.28     270       -9.6
   05/11/2016 05:00      55.2      55.1       91     52.5      0.00      8.37      68.5     0.34      1016.0     2       155         3       144        9.28     270       -9.7
   05/11/2016 04:50      55.2      54.8       91     52.5      0.00      8.37      68.8     0.34      1016.0     2       152         2       150        9.28     270       -9.6
   05/11/2016 04:40      55.1      54.8       91     52.3      0.00      8.37      68.9     0.34      1016.0     3       153         3       147        9.28     270       -9.5
   05/11/2016 04:30      55.2      54.9       90     52.2      0.00      8.37      68.8     0.34      1016.0     3       149         3       128        9.28     270       -9.4
   05/11/2016 04:20      55.1      54.7       90     52.2      0.00      8.37      68.7     0.34      1016.0     2       160         3       155        9.28     269       -9.2
   05/11/2016 04:10      54.8      54.5       91     52.1      0.00      8.37      68.8     0.34      1016.0     3       173         3       172        9.28     270       -8.9
   05/11/2016 04:00      54.8      54.6       91     52.1      0.00      8.37      69.0     0.34      1016.0     3       182         4       180        9.28     270       -9.0
   05/11/2016 03:50      54.8      54.6       90     52.0      0.00      8.37      69.0     0.34      1016.0     3       168         4       177        9.28     269       -9.1
   05/11/2016 03:40      54.9      54.6       90     52.0      0.00      8.37      69.3     0.34      1016.0     3       168         4       165        9.28     270       -9.1
   05/11/2016 03:30      55.2      55.0       90     52.3      0.00      8.37      69.2     0.34      1016.0     2       172         3       161        9.28     270       -9.2
   05/11/2016 03:20      55.2      54.9       90     52.3      0.00      8.37      69.3     0.34      1016.0     2       172         3       193        9.28     270       -9.6
   05/11/2016 03:10      55.2      54.9       90     52.1      0.00      8.37      68.9     0.34      1016.0     2       167         3       147        9.28     270       -9.8
   05/11/2016 03:00      55.1      54.8       89     51.7      0.00      8.37      69.0     0.34      1016.0     2       177         2       187        9.28     270      -10.2
   05/11/2016 02:50      54.9      54.6       89     51.4      0.00      8.37      69.3     0.34      1016.0     2       157         3       155        9.28     270       -9.5
   05/11/2016 02:40      54.8      54.6       89     51.5      0.00      8.37      69.0     0.34      1016.0     2       141         2       141        9.28     270       -7.4
   05/11/2016 02:30      54.8      54.3       90     51.8      0.00      8.37      69.0     0.34      1016.0     2       128         2       120        9.28     270       -5.7
   05/11/2016 02:20      54.4      53.8       92     51.6      0.00      8.37      69.1     0.34      1016.0     1       113         2       126        9.28     270       -4.9
   05/11/2016 02:10      53.7      53.5       93     51.5      0.00      8.37      69.4     0.34      1016.0     1       130         2       118        9.28     270       -7.4
   05/11/2016 02:00      53.7      53.4       92     51.2      0.00      8.37      68.5     0.34      1016.0     0        77         0       252        9.28     270      -20.6
   05/11/2016 01:50      53.7      53.4       92     51.1      0.00      8.37      68.9     0.34      1016.0     0        90         0        99        9.28     269      -39.6
   05/11/2016 01:40      53.6      53.0       92     50.9      0.00      8.37      68.9     0.34      1016.0     1       105         1       127        9.28     269      -44.8
   05/11/2016 01:30      53.3      52.9       90     50.2      0.00      8.37      69.5     0.34      1016.0     1       128         2       102        9.28     269      -49.4
   05/11/2016 01:20      53.7      53.5       90     50.7      0.00      8.37      69.2     0.34      1016.0     1       170         1       126        9.28     269      -51.3
   05/11/2016 01:10      54.0      53.6       90     50.7      0.00      8.37      69.1     0.34      1016.0     1       149         1       129        9.28     269      -54.6
   05/11/2016 01:00      54.2      54.0       89     50.9      0.00      8.37      69.1     0.34      1016.0     1       159         1       174        9.28     269      -56.3
   05/11/2016 00:50      54.5      54.1       88     50.8      0.00      8.37      69.1     0.34      1016.0     1        94         1        86        9.28     269      -57.7
   05/11/2016 00:40      54.8      54.5       87     50.9      0.00      8.37      69.4     0.34      1016.0     1        81         1       129        9.29     269      -57.7
   05/11/2016 00:30      55.4      54.8       86     51.0      0.00      8.37      69.5     0.34      1016.0     1       165         1       243        9.29     269      -55.6
   05/11/2016 00:20      55.1      54.6       86     50.8      0.00      8.37      69.2     0.34      1016.0     1       152         2       193        9.29     269      -55.9
   05/11/2016 00:10      55.5      55.2       86     51.2      0.00      8.37      69.0     0.34      1016.0     1       140         1       112        9.29     269      -58.0
   05/11/2016 00:00      56.5      55.3       83     50.9      0.00      8.37      69.1     0.34      1016.0     1        41         1       138        9.29     269      -59.8
   05/10/2016 23:50      56.9      56.5       82     51.2      0.00      8.37      69.2     0.34      1016.0     1       331         1       291        9.29     269      -62.1
   05/10/2016 23:40      57.2      57.0       81     51.5      0.00      8.37      69.3     0.34      1016.0     1        41         2        34        9.29     268      -63.4
   05/10/2016 23:30      57.5      57.1       81     51.6      0.00      8.37      69.2     0.34      1016.0     2       222         3       224        9.29     268      -63.9
   05/10/2016 23:20      57.5      57.4       81     51.5      0.00      8.37      69.7     0.34      1016.0     3       210         3       214        9.29     268      -64.2
   05/10/2016 23:10      57.8      57.5       80     51.5      0.00      8.37      69.2     0.34      1016.0     2       228         3       205        9.29     268      -64.6
   05/10/2016 23:00      58.0      57.8       79     51.6      0.00      8.37      69.3     0.34      1016.0     2       216         3       206        9.29     268      -65.0
   05/10/2016 22:50      58.3      58.0       79     51.6      0.00      8.37      69.5     0.34      1016.0     2       201         3       208        9.29     268      -65.0
   05/10/2016 22:40      58.6      58.3       78     51.7      0.00      8.37      69.1     0.34      1016.0     1       205         2       267        9.29     268      -65.4
   05/10/2016 22:30      59.0      58.7       78     51.8      0.00      8.37      68.7     0.34      1016.0     2       220         3       251        9.29     268      -66.0
   05/10/2016 22:20      59.3      58.9       77     51.8      0.00      8.37      69.1     0.34      1016.0     2       217         4       204        9.30     268      -66.2
   05/10/2016 22:10      59.5      59.3       76     51.9      0.00      8.37      69.0     0.34      1016.0     2       221         3       218        9.30     268      -66.2
   05/10/2016 22:00      59.5      59.4       76     51.9      0.00      8.37      69.2     0.34      1015.0     3       204         4       194        9.30     268      -66.4
   05/10/2016 21:50      60.0      59.5       75     51.9      0.00      8.37      69.2     0.34      1015.0     2       207         3       213        9.30     268      -66.8
   05/10/2016 21:40      60.3      59.9       74     51.9      0.00      8.37      69.4     0.34      1015.0     3       213         4       214        9.30     268      -67.3
   05/10/2016 21:30      60.6      60.3       73     51.9      0.00      8.37      69.2     0.34      1015.0     2       217         3       248        9.30     268      -67.8
   05/10/2016 21:20      61.2      60.8       72     51.9      0.00      8.37      69.4     0.34      1015.0     2       224         4       226        9.30     268      -68.9
   05/10/2016 21:10      61.8      61.3       71     52.0      0.00      8.37      69.1     0.34      1015.0     3       233         5       234        9.30     268      -69.5
   05/10/2016 21:00      62.0      61.7       70     52.0      0.00      8.37      69.0     0.34      1015.0     4       241         6       233        9.30     268      -69.9
   05/10/2016 20:50      62.3      62.0       69     52.0      0.00      8.37      69.0     0.34      1015.0     4       235         7       236        9.30     268      -70.7
   05/10/2016 20:40      62.2      61.8       69     51.9      0.00      8.37      69.3     0.34      1014.0     3       211         5       240        9.31     268      -71.2
   05/10/2016 20:30      62.5      62.1       69     51.9      0.00      8.37      69.0     0.34      1014.0     2       196         3       232        9.31     267      -72.4
   05/10/2016 20:20      62.8      62.5       68     51.9      0.00      8.37      68.7     0.34      1014.0     3       193         5       191        9.31     267      -73.7
   05/10/2016 20:10      63.2      62.8       67     52.0      0.00      8.37      69.0     0.34      1014.0     4       170         5       162        9.31     268      -74.7
   05/10/2016 20:00      63.6      63.3       67     52.1      0.00      8.37      68.7     0.34      1014.0     4       163         5       160        9.31     267      -75.1
   05/10/2016 19:50      64.2      63.7       66     52.2      0.00      8.37      68.7     0.34      1014.0     3       172         5       152        9.31     267      -74.5
   05/10/2016 19:40      64.8      64.2       65     52.3      0.00      8.37      68.8     0.34      1014.0     5       165         6       151        9.31     267      -71.6
   05/10/2016 19:30      65.4      64.9       63     52.3      0.00      8.37      69.0     0.34      1014.0     4       169         6       165        9.31     267      -67.1
   05/10/2016 19:20      66.6      65.7       61     52.4      0.00      8.37      68.9     0.34      1014.0     3       173         5       177        9.31     267      -55.8
   05/10/2016 19:10      67.2      66.6       60     52.5      0.00      8.37      68.8     0.34      1013.0     3       181         5       170        9.31     267      -41.1
   05/10/2016 19:00      67.8      67.2       58     52.4      0.00      8.37      68.7     0.34      1013.0     3       180         5       171        9.31     267      -23.3
   05/10/2016 18:50      68.1      67.6       58     52.4      0.00      8.37      68.7     0.34      1013.0     4       175         5       200        9.32     267       -4.5
   05/10/2016 18:40      68.4      68.1       57     52.4      0.00      8.37      68.5     0.34      1013.0     5       148         7       149        9.31     267       15.8
   05/10/2016 18:30      69.1      68.5       56     52.4      0.00      8.37      68.4     0.34      1013.0     5       166         8       149        9.31     267       34.9
   05/10/2016 18:20      69.4      69.0       55     52.4      0.00      8.37      68.8     0.34      1013.0     5       168         8       155        9.31     267       59.0
   05/10/2016 18:10      69.7      69.3       54     52.5      0.00      8.37      68.7     0.34      1013.0     5       152         7       156        9.31     267       83.6
   05/10/2016 18:00      70.4      69.7       54     52.5      0.00      8.37      68.7     0.34      1013.0     5       158         7       153        9.31     267      108.8
   05/10/2016 17:50      70.8      70.5       53     52.6      0.00      8.37      68.5     0.34      1013.0     4       158         6       197        9.31     267      137.3
   05/10/2016 17:40      71.2      70.8       53     52.8      0.00      8.37      68.2     0.34      1013.0     5       149         8       148        9.31     267      163.1
   05/10/2016 17:30      71.9      71.2       52     52.8      0.00      8.37      68.4     0.34      1013.0     4       179         7       158        9.31     267      188.4
   05/10/2016 17:20      72.8      71.4       51     52.9      0.00      8.37      68.3     0.34      1013.0     5       155         8       138        9.31     268      199.2
   05/10/2016 17:10      73.0      72.2       50     53.0      0.00      8.37      68.2     0.34      1013.0     4       125         6        98        9.31     268      233.1
   05/10/2016 17:00      73.8      72.1       50     53.1      0.00      8.37      68.5     0.34      1013.0     5       108         8       137        9.31     268      248.2
   05/10/2016 16:50      74.3      73.5       49     53.3      0.00      8.37      68.1     0.34      1013.0     3        57         4        97        9.32     268      251.2
   05/10/2016 16:40      74.2      73.0       49     53.2      0.00      8.37      68.2     0.34      1013.0     3        57         5       348        9.32     268      278.7
   05/10/2016 16:30      73.6      73.2       49     53.1      0.00      8.37      68.2     0.34      1013.0     3        51         4        91        9.32     268      294.7
   05/10/2016 16:20      73.5      72.1       50     52.9      0.00      8.37      68.0     0.34      1013.0     3       352         5       341        9.32     268      332.3
   05/10/2016 16:10      74.3      72.9       48     52.9      0.00      8.37      67.9     0.34      1013.0     2       311         4       289        9.32     268      353.0
   05/10/2016 16:00      73.3      72.6       49     52.8      0.00      8.37      67.9     0.34      1014.0     3        13         5        70        9.32     268      376.9
   05/10/2016 15:50      73.5      71.6       50     52.8      0.00      8.37      68.2     0.34      1014.0     3       294         5         0        9.32     268      393.3
   05/10/2016 15:40      72.2      71.6       51     52.8      0.00      8.37      68.0     0.34      1014.0     3       302         4       355        9.32     268      416.9
   05/10/2016 15:30      72.8      71.2       51     52.9      0.00      8.37      67.7     0.34      1014.0     3        20         5        15        9.32     268      442.8
   05/10/2016 15:20      72.2      70.6       52     52.8      0.00      8.37      67.8     0.34      1014.0     3        31         4        36        9.32     268      445.3
   05/10/2016 15:10      71.8      71.1       52     52.9      0.00      8.37      67.6     0.34      1014.0     3        42         5        83        9.32     268      470.6
   05/10/2016 15:00      70.7      68.4       55     52.5      0.00      8.37      68.2     0.34      1014.0     3        17         5       350        9.31     268      493.8
   05/10/2016 14:50      70.7      68.9       54     52.4      0.00      8.37      67.9     0.34      1014.0     4       262         6       254        9.31     268      492.1
   05/10/2016 14:40      71.0      69.5       54     52.8      0.00      8.37      68.0     0.34      1014.0     3         3         5         2        9.31     269      511.6
   05/10/2016 14:30      69.5      67.3       56     52.5      0.00      8.37      68.1     0.34      1014.0     3        13         5       357        9.31     269      500.8
   05/10/2016 14:20      68.8      67.4       57     52.3      0.00      8.37      67.9     0.34      1015.0     3       353         4        36        9.31     270      472.2
   05/10/2016 14:10      68.8      67.4       57     52.4      0.00      8.37      67.6     0.34      1015.0     2        80         3        38        9.31     269      388.7
   05/10/2016 14:00      68.0      67.4       58     52.5      0.00      8.37      68.0     0.34      1015.0     3        27         5        19        9.31     269      531.0
   05/10/2016 13:50      67.5      66.3       59     52.2      0.00      8.37      67.8     0.34      1015.0     2        66         3       351        9.31     270      317.1
   05/10/2016 13:40      66.7      65.5       61     52.3      0.00      8.37      67.6     0.34      1015.0     2        60         5         1        9.31     269      396.0
   05/10/2016 13:30      66.5      65.5       61     52.3      0.00      8.37      67.7     0.34      1015.0     3        17         5        18        9.31     269      411.5
   05/10/2016 13:20      66.2      63.4       64     52.3      0.00      8.37      68.0     0.34      1015.0     3       359         4         1        9.31     270      437.8
   05/10/2016 13:10      63.0      62.8       67     51.8      0.00      8.37      67.8     0.34      1015.0     3       230         5       267        9.31     270      350.5
   05/10/2016 13:00      63.1      62.5       67     51.8      0.00      8.37      67.7     0.34      1015.0     3       273         4       307        9.31     270      248.3
   05/10/2016 12:50      63.1      62.3       68     51.9      0.00      8.37      68.3     0.34      1015.0     2        19         3       331        9.31     270      171.9
   05/10/2016 12:40      62.9      62.5       68     51.9      0.00      8.37      67.7     0.34      1016.0     3       319         4        38        9.31     270      164.1
   05/10/2016 12:30      62.6      61.9       69     51.8      0.00      8.37      67.7     0.34      1016.0     2       316         4       344        9.31     270      169.6
   05/10/2016 12:20      62.2      61.3       69     51.7      0.00      8.37      67.7     0.34      1016.0     2       320         3        15        9.31     270      205.4
   05/10/2016 12:10      61.7      60.9       71     51.7      0.00      8.37      68.0     0.34      1016.0     2       178         3       245        9.31     270      216.8
   05/10/2016 12:00      61.3      60.9       72     51.8      0.00      8.37      67.8     0.34      1016.0     3       135         5       176        9.31     271      147.2
   05/10/2016 11:50      61.1      60.5       72     51.9      0.00      8.37      68.0     0.34      1016.0     1        36         2        21        9.31     271      117.1
   05/10/2016 11:40      60.9      60.1       73     52.0      0.00      8.37      67.9     0.34      1016.0     1       141         3        85        9.31     270      103.9
   05/10/2016 11:30      60.1      59.3       76     51.9      0.00      8.37      68.0     0.34      1016.0     1        14         2        37        9.31     271      124.9
   05/10/2016 11:20      59.8      59.4       75     51.9      0.00      8.37      68.0     0.34      1016.0     2        15         3       342        9.31     271      108.2
   05/10/2016 11:10      59.5      58.9       77     51.9      0.00      8.37      68.1     0.34      1016.0     2        26         3         2        9.31     271       85.0
   05/10/2016 11:00      59.2      58.9       77     51.8      0.00      8.37      67.9     0.34      1016.0     2        42         3        28        9.31     271       71.2
   05/10/2016 10:50      59.2      58.9       77     51.7      0.00      8.37      67.6     0.34      1016.0     2        31         3        35        9.31     271       80.9
   05/10/2016 10:40      59.0      58.8       77     51.7      0.00      8.37      68.0     0.34      1016.0     2        24         3        37        9.31     271       81.2
   05/10/2016 10:30      59.0      58.4       77     51.7      0.00      8.37      68.0     0.34      1016.0     2        57         4        73        9.31     271       68.8
   05/10/2016 10:20      58.7      58.4       78     51.6      0.00      8.37      68.0     0.34      1016.0     2        43         3        30        9.31     271       72.4
   05/10/2016 10:10      58.6      58.3       78     51.6      0.00      8.37      68.2     0.34      1016.0     2        56         3        66        9.31     271       65.9
   05/10/2016 10:00      58.6      58.3       78     51.4      0.00      8.37      67.9     0.34      1016.0     2        67         3        84        9.31     271       66.6
   05/10/2016 09:50      58.6      58.1       77     51.3      0.00      8.37      67.8     0.34      1016.0     1        58         3        73        9.31     271       55.5
   05/10/2016 09:40      58.3      58.0       78     51.1      0.00      8.37      68.3     0.34      1016.0     1         7         2         5        9.31     272       51.7
   05/10/2016 09:30      58.0      57.4       78     51.0      0.00      8.37      68.2     0.34      1016.0     1        71         2        80        9.31     273       62.6
   05/10/2016 09:20      57.6      57.4       79     50.9      0.00      8.37      68.3     0.34      1016.0     1        46         2       121        9.31     273       58.2
   05/10/2016 09:10      57.6      57.1       79     50.9      0.00      8.37      68.4     0.34      1016.0     1        58         1       102        9.31     274       51.9
   05/10/2016 09:00      57.4      57.0       79     50.8      0.00      8.37      68.1     0.34      1016.0     1        29         2        39        9.31     275       48.2
   05/10/2016 08:50      57.1      56.5       80     50.8      0.00      8.37      68.1     0.34      1016.0     1        61         1        52        9.30     276       50.1
   05/10/2016 08:40      56.5      56.3       81     50.6      0.00      8.37      68.1     0.34      1016.0     1        37         2        56        9.30     276       49.0
   05/10/2016 08:30      56.4      56.0       81     50.3      0.00      8.37      68.2     0.34      1016.0     1       334         2        26        9.30     277       59.2
   05/10/2016 08:20      56.0      55.5       82     50.3      0.00      8.37      68.2     0.34      1016.0     1        59         1        52        9.26     278       67.4
   05/10/2016 08:10      55.6      55.1       83     50.3      0.00      8.37      67.9     0.34      1016.0     1        20         1        42        8.75     279       68.3
   05/10/2016 08:00      55.1      54.5       84     50.1      0.00      8.37      68.3     0.34      1016.0     1        43         2        69        8.75     280       74.4
   05/10/2016 07:50      54.6      54.0       85     49.8      0.00      8.37      68.2     0.34      1016.0     1       124         2       122        8.75     282       74.5
   05/10/2016 07:40      54.2      53.4       87     50.1      0.00      8.37      68.4     0.34      1016.0     1       169         1        76        8.75     283       51.7
   05/10/2016 07:30      53.6      53.1       88     49.8      0.00      8.37      68.7     0.34      1016.0     0       170         1       175        8.76     284       44.7
   05/10/2016 07:20      53.2      52.6       89     49.5      0.00      8.37      68.8     0.34      1016.0     0       154         1       155        8.76     285       39.1
   05/10/2016 07:10      52.6      51.9       90     49.5      0.00      8.37      68.3     0.34      1015.0     1       195         2       153        8.76     286       34.6
   05/10/2016 07:00      51.9      51.3       93     49.8      0.00      8.37      68.4     0.34      1015.0     0       234         1       293        8.76     287       33.5
   05/10/2016 06:50      51.5      50.7       95     49.6      0.00      8.37      68.9     0.34      1015.0     1       286         2       266        8.76     287       31.3
   05/10/2016 06:40      50.7      49.9       96     49.1      0.00      8.37      68.7     0.34      1015.0     0       141         0       181        8.76     288       24.6
   05/10/2016 06:30      49.9      49.1       96     48.4      0.00      8.37      68.4     0.34      1015.0     1       182         1       195        8.76     289       16.5
   05/10/2016 06:20      49.2      48.8       96     47.7      0.00      8.37      68.4     0.34      1015.0     1       161         1       148        8.76     289        2.8
   05/10/2016 06:10      48.9      48.5       96     47.5      0.00      8.37      68.7     0.34      1015.0     1       217         1       234        8.76     289      -10.0
   05/10/2016 06:00      48.8      48.4       95     47.3      0.00      8.37      68.6     0.34      1015.0     1       156         1       140        8.76     288      -17.1
   05/10/2016 05:50      49.4      48.8       96     47.8      0.00      8.37      68.8     0.34      1015.0     1       156         1       129        8.76     287      -19.7
   05/10/2016 05:40      49.2      48.8       96     47.8      0.00      8.37      68.7     0.34      1015.0     1       148         1       174        8.76     287      -20.5
   05/10/2016 05:30      49.1      48.9       96     47.7      0.00      8.37      68.8     0.34      1015.0     1       129         1       134        8.76     286      -21.0
   05/10/2016 05:20      49.0      48.8       95     47.6      0.00      8.37      69.0     0.34      1014.0     1       151         1       148        8.76     285      -21.2
   05/10/2016 05:10      49.3      48.8       95     47.7      0.00      8.37      69.2     0.34      1014.0     1       154         2       145        8.76     284      -21.6
   05/10/2016 05:00      49.2      48.7       95     47.7      0.00      8.37      68.9     0.34      1014.0     1       147         2       144        8.76     283      -22.4
   05/10/2016 04:50      49.5      49.0       95     47.8      0.00      8.37      69.1     0.34      1014.0     1       141         2       129        8.76     282      -22.8
   05/10/2016 04:40      49.6      49.1       95     48.0      0.00      8.37      69.0     0.34      1014.0     1       169         1       143        8.76     281      -23.3
   05/10/2016 04:30      49.3      49.0       95     47.7      0.00      8.37      68.6     0.34      1014.0     1       140         2       133        8.76     280      -23.5
   05/10/2016 04:20      49.7      49.3       95     48.1      0.00      8.37      68.9     0.34      1014.0     1       148         2       135        8.76     280      -24.4
   05/10/2016 04:10      49.8      49.7       95     48.3      0.00      8.37      68.9     0.34      1014.0     1       144         1       141        8.76     279      -24.9
   05/10/2016 04:00      49.7      49.5       95     48.1      0.00      8.37      68.9     0.34      1014.0     1       138         2       133        8.76     278      -25.8
   05/10/2016 03:50      49.9      49.7       94     48.3      0.00      8.37      68.9     0.34      1014.0     1       150         1       139        8.76     278      -26.7
   05/10/2016 03:40      50.0      49.9       94     48.3      0.00      8.37      68.9     0.34      1014.0     1       148         1       145        8.76     277      -27.4
   05/10/2016 03:30      50.5      50.1       94     48.7      0.00      8.37      68.9     0.34      1014.0     1       175         1       158        8.76     276      -27.9
   05/10/2016 03:20      50.3      50.1       94     48.6      0.00      8.37      69.0     0.34      1014.0     1       194         1       194        8.76     276      -28.8
   05/10/2016 03:10      50.2      50.0       94     48.4      0.00      8.37      69.1     0.34      1014.0     1       147         1       141        8.76     276      -30.7
   05/10/2016 03:00      50.6      50.2       93     48.4      0.00      8.37      69.0     0.34      1014.0     1       150         1       136        8.76     275      -32.2
   05/10/2016 02:50      50.7      50.6       93     48.8      0.00      8.37      68.9     0.34      1014.0     1       160         1       127        8.76     274      -33.5
   05/10/2016 02:40      50.9      50.6       92     48.6      0.00      8.37      69.4     0.34      1014.0     1       142         1       136        8.76     274      -35.8
   05/10/2016 02:30      51.0      50.8       92     48.7      0.00      8.37      69.1     0.34      1014.0     1       195         1       200        8.76     274      -38.0
   05/10/2016 02:20      50.9      50.7       91     48.3      0.00      8.37      69.0     0.34      1014.0     1       134         1       139        8.76     273      -41.9
   05/10/2016 02:10      51.4      51.1       91     48.8      0.00      8.37      69.4     0.34      1014.0     1       137         1       125        8.76     273      -43.9
   05/10/2016 02:00      51.7      51.3       91     49.0      0.00      8.37      69.5     0.34      1014.0     1       160         1       151        8.76     272      -46.3
   05/10/2016 01:50      51.5      51.3       90     48.7      0.00      8.37      69.2     0.34      1014.0     1       108         1        84        8.76     272      -50.8
   05/10/2016 01:40      51.8      51.4       90     48.7      0.00      8.37      69.3     0.34      1014.0     1       100         1       104        8.76     272      -54.8
   05/10/2016 01:30      52.0      51.7       89     48.6      0.00      8.37      69.0     0.34      1014.0     1        93         1       110        8.76     271      -57.3
   05/10/2016 01:20      52.1      52.1       89     48.9      0.00      8.37      69.2     0.34      1014.0     1        75         1       137        8.76     271      -58.7
   05/10/2016 01:10      52.9      52.3       87     48.9      0.00      8.37      69.3     0.34      1014.0     0        86         1        78        8.76     270      -60.5
   05/10/2016 01:00      53.5      52.9       86     49.1      0.00      8.37      69.2     0.34      1014.0     0        75         1        44        8.76     270      -61.2
   05/10/2016 00:50      54.3      53.7       83     49.1      0.00      8.37      69.7     0.34      1014.0     1       100         1       264        8.76     270      -62.8
   05/10/2016 00:40      54.7      54.6       83     49.5      0.00      8.37      69.5     0.34      1014.0     1       209         2       188        8.76     270      -63.1
   05/10/2016 00:30      54.8      54.6       83     49.6      0.00      8.37      69.4     0.34      1014.0     2       207         4       213        8.76     270      -63.2
   05/10/2016 00:20      54.8      54.6       83     49.6      0.00      8.37      69.2     0.34      1014.0     2       210         2       218        8.76     270      -62.7
   05/10/2016 00:10      55.1      54.5       83     49.5      0.00      8.37      69.6     0.34      1014.0     1       205         3       200        8.76     270      -62.8
   05/10/2016 00:00      55.4      54.9       82     49.8      0.00      8.37      69.0     0.34      1014.0     1       179         2       216        8.77     270      -63.1
   05/09/2016 23:50      55.5      55.1       82     49.8      0.00      8.37      69.5     0.34      1014.0     2       190         2       200        8.76     270      -63.6
   05/09/2016 23:40      55.5      55.2       82     49.8      0.00      8.37      69.6     0.34      1014.0     2       196         3       201        8.77     270      -63.3
   05/09/2016 23:30      55.7      55.1       82     50.0      0.00      8.37      69.3     0.34      1014.0     1       215         2       243        8.77     270      -62.5
   05/09/2016 23:20      55.4      54.9       82     49.9      0.00      8.37      69.5     0.34      1014.0     1       215         2       219        8.77     269      -62.6
   05/09/2016 23:10      55.6      55.2       81     49.7      0.00      8.37      69.2     0.34      1014.0     1       220         2       231        8.77     269      -63.3
   05/09/2016 23:00      56.0      55.8       80     50.0      0.00      8.37      69.1     0.34      1014.0     1       229         3       233        8.77     270      -63.8
   05/09/2016 22:50      56.4      56.0       80     50.1      0.00      8.37      69.5     0.34      1014.0     1       199         2       228        8.77     269      -63.6
   05/09/2016 22:40      56.5      56.3       79     50.1      0.00      8.37      69.2     0.34      1014.0     1       225         1       223        8.77     269      -63.7
   05/09/2016 22:30      56.7      56.4       79     50.1      0.00      8.37      69.5     0.34      1014.0     1       205         2       211        8.77     269      -63.7
   05/09/2016 22:20      56.6      56.1       79     50.0      0.00      8.37      69.7     0.34      1014.0     1       197         1       194        8.77     269      -63.5
   05/09/2016 22:10      57.1      56.5       78     50.0      0.00      8.37      69.3     0.34      1014.0     1       183         1       180        8.77     269      -64.1
   05/09/2016 22:00      57.5      57.2       77     50.1      0.00      8.37      69.3     0.34      1014.0     2       197         3       196        8.78     269      -65.2
   05/09/2016 21:50      57.7      57.5       76     50.0      0.00      8.37      69.5     0.34      1014.0     2       211         2       224        8.78     269      -66.0
   05/09/2016 21:40      58.0      57.5       75     49.8      0.00      8.37      69.7     0.34      1014.0     2       219         4       227        8.78     268      -66.2
   05/09/2016 21:30      57.8      57.5       74     49.4      0.00      8.37      69.3     0.34      1014.0     1       222         2       236        8.78     268      -66.0
   05/09/2016 21:20      58.0      57.6       73     49.2      0.00      8.37      69.4     0.34      1014.0     2       208         3       200        8.78     268      -66.9
   05/09/2016 21:10      58.5      58.1       72     49.1      0.00      8.37      69.5     0.34      1014.0     2       189         2       166        8.78     268      -67.7
   05/09/2016 21:00      58.7      58.4       70     48.9      0.00      8.37      69.5     0.34      1014.0     2       196         3       194        8.78     268      -68.7
   05/09/2016 20:50      59.0      58.8       69     48.9      0.00      8.37      69.3     0.34      1014.0     2       201         3       211        8.78     268      -69.5
   05/09/2016 20:40      59.3      59.0       69     49.2      0.00      8.37      69.0     0.34      1014.0     2       203         2       207        8.78     268      -70.4
   05/09/2016 20:30      59.6      59.4       68     49.1      0.00      8.37      69.5     0.34      1013.0     3       187         4       182        8.78     268      -71.0
   05/09/2016 20:20      59.9      59.5       68     49.1      0.00      8.37      69.1     0.34      1013.0     3       195         5       205        8.78     268      -71.5
   05/09/2016 20:10      60.2      59.9       68     49.3      0.00      8.37      69.2     0.34      1013.0     3       182         4       166        8.79     268      -72.4
   05/09/2016 20:00      60.6      60.4       67     49.4      0.00      8.37      69.0     0.34      1013.0     2       194         3       230        8.79     268      -72.9
   05/09/2016 19:50      61.1      60.8       66     49.4      0.00      8.37      69.3     0.34      1013.0     3       161         3       147        8.79     268      -72.0
   05/09/2016 19:40      61.8      61.1       65     49.5      0.00      8.37      69.5     0.34      1013.0     4       170         6       146        8.79     268      -68.9
   05/09/2016 19:30      62.4      61.9       63     49.6      0.00      8.37      68.7     0.34      1013.0     3       181         5       157        8.79     267      -65.0
   05/09/2016 19:20      63.4      62.5       62     49.6      0.00      8.37      69.5     0.34      1013.0     4       180         6       195        8.79     267      -55.9
   05/09/2016 19:10      63.9      63.4       60     49.8      0.00      8.37      69.5     0.34      1013.0     4       171         5       178        8.79     267      -39.5
   05/09/2016 19:00      64.2      63.9       60     49.8      0.00      8.37      69.0     0.34      1013.0     5       151         6       146        8.79     267      -20.3
   05/09/2016 18:50      65.1      64.6       58     49.8      0.00      8.37      69.2     0.34      1013.0     4       159         5       135        8.80     267        1.3
   05/09/2016 18:40      65.3      64.8       58     49.9      0.00      8.37      68.9     0.34      1013.0     4       150         6       154        8.80     267       23.9
   05/09/2016 18:30      65.4      65.2       57     49.9      0.00      8.37      68.9     0.34      1013.0     5       153         7       170        8.80     267       47.5
   05/09/2016 18:20      65.8      65.2       57     49.9      0.00      8.37      69.0     0.34      1013.0     6       149         9       156        8.80     267       69.2
   05/09/2016 18:10      66.8      65.7       56     50.0      0.00      8.37      68.9     0.34      1013.0     5       160        10       137        8.80     268       90.7
   05/09/2016 18:00      67.1      66.5       55     50.2      0.00      8.37      68.8     0.34      1013.0     6       161        10       156        8.81     268      115.6
   05/09/2016 17:50      67.3      66.6       55     50.1      0.00      8.37      68.9     0.34      1013.0     5       162         6       168        8.81     267      140.5
   05/09/2016 17:40      67.4      66.5       54     50.0      0.00      8.37      69.3     0.34      1013.0     5       160         8       158        8.81     267      166.1
   05/09/2016 17:30      67.7      67.2       54     50.0      0.00      8.37      69.0     0.34      1013.0     5       156         6       180        8.81     267      192.5
   05/09/2016 17:20      68.3      67.5       53     50.2      0.00      8.37      68.9     0.34      1013.0     6       147         8       188        8.81     267      217.1
   05/09/2016 17:10      68.1      67.6       53     50.2      0.00      8.37      68.7     0.34      1013.0     4       168         6       154        8.81     268      242.2
   05/09/2016 17:00      69.1      68.4       52     50.5      0.00      8.37      69.0     0.34      1013.0     5       154         6       195        8.82     268      267.0
   05/09/2016 16:50      68.7      67.5       53     50.4      0.00      8.37      68.9     0.34      1013.0     4       145         6       171        8.82     268      293.3
   05/09/2016 16:40      68.2      67.2       54     50.4      0.00      8.37      68.7     0.34      1013.0     4       138         7       131        8.82     268      316.7
   05/09/2016 16:30      68.1      67.3       54     50.4      0.00      8.37      69.0     0.34      1013.0     6       137         8       131        8.82     268      339.2
   05/09/2016 16:20      68.4      67.7       54     50.6      0.00      8.37      68.6     0.34      1013.0     6       134         8       168        8.82     268      364.4
   05/09/2016 16:10      68.2      67.3       54     50.5      0.00      8.37      68.7     0.34      1013.0     6       166         8       147        8.82     268      388.4
   05/09/2016 16:00      69.2      67.9       52     50.7      0.00      8.37      68.3     0.34      1013.0     6       144        12       149        8.82     268      429.2
   05/09/2016 15:50      69.7      68.4       52     50.7      0.00      8.37      68.8     0.34      1013.0     5       175         7       231        8.82     268      500.8
   05/09/2016 15:40      69.7      68.0       52     50.6      0.00      8.37      68.5     0.34      1013.0     3       152         6       118        8.83     268      503.0
   05/09/2016 15:30      69.1      68.6       52     50.6      0.00      8.37      68.5     0.34      1013.0     5       167         9       167        8.83     268      440.9
   05/09/2016 15:20      69.4      68.0       53     50.8      0.00      8.37      68.5     0.34      1013.0     4       140         8       116        8.83     269      381.3
   05/09/2016 15:10      69.4      67.7       53     50.9      0.00      8.37      68.6     0.34      1014.0     3       106         4        59        8.83     269      295.6
   05/09/2016 15:00      68.3      67.6       54     50.6      0.00      8.37      68.7     0.34      1014.0     1       134         3       117        8.83     269      296.0
   05/09/2016 14:50      69.3      67.4       54     51.0      0.00      8.37      68.4     0.34      1014.0     3        49         5        30        8.83     269      493.7
   05/09/2016 14:40      67.7      67.1       56     51.0      0.00      8.37      68.0     0.34      1014.0     2       181         3       177        8.83     269      413.1
   05/09/2016 14:30      67.5      66.9       56     51.0      0.00      8.37      68.6     0.34      1014.0     3       110         4        57        8.83     269      268.5
   05/09/2016 14:20      67.1      66.3       58     51.2      0.00      8.37      68.2     0.34      1014.0     2       279         3       313        8.83     269      287.4
   05/09/2016 14:10      66.5      65.7       59     51.3      0.00      8.37      68.3     0.34      1014.0     3       283         4       314        8.83     269      227.7
   05/09/2016 14:00      66.1      65.4       59     51.2      0.00      8.37      68.7     0.34      1015.0     3         1         4       340        8.83     269      234.2
   05/09/2016 13:50      65.7      65.0       60     51.2      0.00      8.37      68.3     0.34      1015.0     2         2         5       355        8.83     269      313.4
   05/09/2016 13:40      65.0      64.3       61     51.0      0.00      8.37      68.3     0.34      1015.0     2       147         4       249        8.83     269      231.3
   05/09/2016 13:30      65.8      65.0       60     51.1      0.00      8.37      68.4     0.34      1015.0     3       213         6       216        8.83     269      379.4
   05/09/2016 13:20      65.9      63.7       61     51.1      0.00      8.37      68.5     0.34      1015.0     4       139         6       149        8.83     270      647.1
   05/09/2016 13:10      63.4      62.9       64     51.0      0.00      8.37      68.8     0.34      1015.0     3       211         5       165        8.83     270      242.0
   05/09/2016 13:00      63.4      62.9       65     51.2      0.00      8.37      68.5     0.34      1015.0     3       218         5       228        8.83     270      292.8
   05/09/2016 12:50      63.0      62.2       67     51.4      0.00      8.37      68.5     0.34      1015.0     4       186         7       199        8.83     270      299.5
   05/09/2016 12:40      62.0      61.1       69     51.3      0.00      8.37      68.4     0.34      1015.0     3       139         6       131        8.83     271      205.6
   05/09/2016 12:30      61.8      61.4       69     51.1      0.00      8.37      68.5     0.34      1015.0     4       137         8       126        8.83     271      134.0
   05/09/2016 12:20      62.3      61.6       68     51.0      0.00      8.37      68.3     0.34      1015.0     3       187         5       152        8.83     271      161.0
   05/09/2016 12:10      61.6      60.8       70     51.2      0.00      8.37      68.0     0.34      1015.0     2       176         3       197        8.83     271      197.4
   05/09/2016 12:00      61.5      60.8       70     51.2      0.00      8.37      68.7     0.34      1016.0     3       183         6       164        8.83     271      146.2
   05/09/2016 11:50      61.6      61.0       69     51.0      0.00      8.37      68.5     0.34      1016.0     2       117         3       195        8.84     271      106.1
   05/09/2016 11:40      61.4      60.7       69     50.9      0.00      8.37      68.7     0.34      1016.0     2       119         4       130        8.84     271      110.3
   05/09/2016 11:30      61.3      60.4       69     50.7      0.00      8.37      68.6     0.34      1015.0     3        93         5        86        8.84     271      136.0
   05/09/2016 11:20      60.7      60.2       70     50.5      0.00      8.37      68.2     0.34      1015.0     3        76         4        81        8.84     271      169.6
   05/09/2016 11:10      60.8      60.4       71     51.1      0.00      8.37      68.5     0.34      1015.0     3        97         6        59        8.84     271      142.1
   05/09/2016 11:00      60.6      60.2       72     51.4      0.00      8.37      68.3     0.34      1015.0     2        60         4       103        8.84     271      116.7
   05/09/2016 10:50      60.4      60.1       73     51.4      0.00      8.37      68.9     0.34      1015.0     2        82         3        88        8.84     272      130.5
   05/09/2016 10:40      60.1      59.3       75     51.5      0.00      8.37      68.2     0.34      1015.0     2        29         3       344        8.84     273      150.2
   05/09/2016 10:30      59.6      59.3       75     51.5      0.00      8.37      68.6     0.34      1015.0     3        23         4        11        8.84     273      113.8
   05/09/2016 10:20      59.8      59.0       74     51.2      0.00      8.37      68.7     0.34      1015.0     2        53         4        82        8.84     274      109.7
   05/09/2016 10:10      59.5      58.7       75     51.3      0.00      8.37      68.6     0.34      1015.0     2        31         3        42        8.84     275      133.0
   05/09/2016 10:00      59.0      58.4       76     51.1      0.00      8.37      68.7     0.34      1015.0     2        48         3        74        8.84     277      122.4
   05/09/2016 09:50      58.7      58.3       76     51.0      0.00      8.37      68.3     0.34      1015.0     2        51         3        70        8.84     278      115.4
   05/09/2016 09:40      58.5      58.0       77     51.0      0.00      8.37      69.0     0.34      1016.0     2        58         2        74        8.84     279      107.2
   05/09/2016 09:30      58.1      57.6       77     50.9      0.00      8.37      68.9     0.34      1016.0     1        14         2       326        8.84     280      101.2
   05/09/2016 09:20      57.8      57.4       78     50.7      0.00      8.37      68.7     0.34      1016.0     2       337         3       348        8.84     281      100.5
   05/09/2016 09:10      57.5      57.0       79     50.7      0.00      8.37      68.3     0.34      1016.0     1       346         2       354        8.84     283      109.6
   05/09/2016 09:00      57.3      56.8       80     50.7      0.00      8.37      68.6     0.34      1016.0     1        13         2        37        8.84     284      101.1
   05/09/2016 08:50      57.1      56.6       80     50.7      0.00      8.37      68.8     0.34      1015.0     1         2         3       353        8.84     286       89.6
   05/09/2016 08:40      56.6      56.3       81     50.7      0.00      8.37      68.7     0.34      1015.0     1       349         2       322        8.84     287       83.4
   05/09/2016 08:30      56.3      55.7       82     50.5      0.00      8.37      69.2     0.34      1015.0     1       352         2       336        8.84     289       91.9
   05/09/2016 08:20      56.0      55.4       83     50.5      0.00      8.37      69.0     0.34      1015.0     2       348         4       328        8.84     292       87.5
   05/09/2016 08:10      55.5      55.2       83     50.5      0.00      8.37      68.7     0.34      1015.0     2       352         3        17        8.84     294       97.7
   05/09/2016 08:00      55.3      54.6       84     50.1      0.00      8.37      68.9     0.34      1015.0     2        14         2       359        8.84     295      101.6
   05/09/2016 07:50      54.7      54.2       84     49.8      0.00      8.37      69.0     0.34      1015.0     2        24         3         3        8.84     297       75.4
   05/09/2016 07:40      54.6      53.8       86     50.0      0.00      8.37      68.9     0.34      1015.0     1        22         2        32        8.84     299       78.7
   05/09/2016 07:30      53.9      53.3       87     50.0      0.00      8.37      69.2     0.34      1015.0     1       345         1       335        8.84     301       81.2
   05/09/2016 07:20      53.5      52.8       89     49.9      0.00      8.37      69.3     0.34      1015.0     1        41         1       271        8.84     302       62.0
   05/09/2016 07:10      52.9      52.2       90     49.8      0.00      8.37      69.3     0.34      1015.0     1       329         1       359        8.84     303       33.7
   05/09/2016 07:00      52.3      51.6       93     49.8      0.00      8.37      69.0     0.34      1015.0     1         7         1        41        8.84     304       25.5
   05/09/2016 06:50      51.6      50.7       94     49.3      0.00      8.37      69.3     0.34      1015.0     0        97         1        93        8.84     305       29.3
   05/09/2016 06:40      50.9      49.9       95     49.1      0.00      8.37      69.1     0.34      1014.0     1       317         1       258        8.84     305       14.9
   05/09/2016 06:30      49.9      49.4       95     48.3      0.00      8.37      68.8     0.34      1014.0     1       179         1       131        8.84     304       -1.1
   05/09/2016 06:20      49.5      49.3       95     48.0      0.00      8.37      69.1     0.34      1014.0     1       139         1       128        8.84     304       -9.1
   05/09/2016 06:10      49.7      49.4       95     48.2      0.00      8.37      69.2     0.34      1014.0     1       128         1       146        8.84     302      -14.7
   05/09/2016 06:00      49.7      49.5       95     48.3      0.00      8.37      69.3     0.34      1014.0     1       201         1       195        8.84     301      -18.5
   05/09/2016 05:50      49.9      49.7       95     48.4      0.00      8.37      69.5     0.34      1014.0     1       182         1       191        8.84     300      -20.5
   05/09/2016 05:40      49.9      49.6       94     48.2      0.00      8.37      69.2     0.34      1014.0     1       144         1       154        8.84     298      -22.2
   05/09/2016 05:30      50.2      49.9       95     48.7      0.00      8.37      69.2     0.34      1014.0     1       146         1       135        8.84     297      -22.8
   05/09/2016 05:20      50.2      50.0       95     48.7      0.00      8.37      69.5     0.34      1014.0     1       217         1       192        8.84     296      -23.0
   05/09/2016 05:10      50.2      49.9       95     48.7      0.00      8.37      69.4     0.34      1014.0     1       147         1       141        8.84     295      -21.6
   05/09/2016 05:00      50.2      49.9       95     48.6      0.00      8.37      69.8     0.34      1014.0     1       152         2       143        8.84     294      -21.1
   05/09/2016 04:50      50.2      49.3       95     48.4      0.00      8.37      69.5     0.34      1014.0     1       166         1       144        8.84     293      -13.4
   05/09/2016 04:40      49.7      49.5       94     48.0      0.00      8.37      69.3     0.34      1014.0     1       134         2       136        8.84     292      -21.7
   05/09/2016 04:30      50.4      49.7       94     48.4      0.00      8.37      69.4     0.34      1014.0     1       163         2       140        8.84     291      -25.0
   05/09/2016 04:20      50.5      50.1       94     48.7      0.00      8.37      69.5     0.34      1014.0     1       195         1       226        8.84     290      -24.9
   05/09/2016 04:10      50.3      50.2       94     48.6      0.00      8.37      69.8     0.34      1014.0     1        84         1        85        8.84     289      -26.1
   05/09/2016 04:00      50.3      50.2       94     48.7      0.00      8.37      69.5     0.34      1014.0     1       115         2       150        8.84     287      -27.0
   05/09/2016 03:50      50.7      50.3       94     48.8      0.00      8.37      69.7     0.34      1014.0     1       118         1       123        8.84     286      -28.1
   05/09/2016 03:40      50.6      50.4       94     48.9      0.00      8.37      69.2     0.34      1014.0     1       143         1       138        8.84     285      -29.5
   05/09/2016 03:30      50.8      50.5       94     48.8      0.00      8.37      70.0     0.34      1014.0     1       159         2       140        8.84     284      -30.3
   05/09/2016 03:20      51.1      50.8       94     49.2      0.00      8.37      69.8     0.34      1014.0     1       134         1       128        8.84     283      -31.6
   05/09/2016 03:10      51.1      50.8       94     49.3      0.00      8.37      69.8     0.34      1014.0     1       182         2       147        8.84     282      -33.0
   05/09/2016 03:00      50.9      50.6       93     48.9      0.00      8.37      69.7     0.34      1014.0     2       162         2       152        8.84     281      -35.5
   05/09/2016 02:50      51.4      50.9       93     49.2      0.00      8.37      69.8     0.34      1014.0     2       162         2       163        8.84     280      -36.6
   05/09/2016 02:40      51.5      51.1       93     49.3      0.00      8.37      69.5     0.34      1014.0     1       172         2       182        8.84     280      -39.1
   05/09/2016 02:30      51.9      51.2       92     49.1      0.00      8.37      69.7     0.34      1014.0     1       114         1       130        8.84     278      -43.4
   05/09/2016 02:20      51.9      51.7       92     49.4      0.00      8.37      70.1     0.34      1014.0     1       135         1       136        8.84     278      -45.5
   05/09/2016 02:10      52.5      51.7       91     49.5      0.00      8.37      69.8     0.34      1014.0     1       118         1       140        8.84     277      -48.9
   05/09/2016 02:00      52.7      52.3       91     49.9      0.00      8.37      70.1     0.34      1014.0     1       242         1       142        8.84     276      -52.0
   05/09/2016 01:50      53.1      52.5       90     49.8      0.00      8.37      69.9     0.34      1014.0     1       166         1       151        8.84     275      -54.8
   05/09/2016 01:40      53.3      53.1       89     49.9      0.00      8.37      69.9     0.34      1014.0     1       178         1       154        8.84     274      -55.8
   05/09/2016 01:30      54.3      53.6       86     49.9      0.00      8.37      69.7     0.34      1015.0     1       219         1       231        8.84     274      -57.5
   05/09/2016 01:20      54.6      54.1       86     50.3      0.00      8.37      70.0     0.34      1015.0     1       200         2       203        8.84     273      -57.7
   05/09/2016 01:10      54.1      53.5       88     50.1      0.00      8.37      70.1     0.34      1015.0     2       202         2       219        8.84     273      -56.8
   05/09/2016 01:00      54.6      53.8       86     50.1      0.00      8.37      70.0     0.34      1015.0     1       168         2       172        8.84     272      -58.0
   05/09/2016 00:50      54.7      54.5       85     50.3      0.00      8.37      69.8     0.34      1015.0     1       207         2       228        8.84     272      -58.3
   05/09/2016 00:40      54.7      54.5       85     50.2      0.00      8.37      70.0     0.34      1015.0     1       203         2       203        8.84     272      -58.5
   05/09/2016 00:30      55.1      54.9       84     50.3      0.00      8.37      70.0     0.34      1015.0     1       208         2       189        8.84     271      -58.9
   05/09/2016 00:20      55.1      54.9       84     50.2      0.00      8.37      70.2     0.34      1015.0     2       233         4       234        8.84     271      -61.0
   05/09/2016 00:10      55.1      54.9       84     50.1      0.00      8.37      69.8     0.34      1015.0     2       211         3       220        8.84     271      -61.3
   05/09/2016 00:00      55.1      54.7       84     50.1      0.00      8.37      70.0     0.34      1015.0     2       194         3       192        8.84     271      -60.9
   05/08/2016 23:50      55.2      55.0       83     50.1      0.00      8.37      70.4     0.34      1015.0     2       191         3       212        8.84     271      -60.5
   05/08/2016 23:40      55.4      55.2       82     50.0      0.00      8.37      70.5     0.34      1015.0     2       211         3       212        8.84     271      -61.9
   05/08/2016 23:30      55.6      55.4       81     49.8      0.00      8.37      69.9     0.34      1015.0     2       209         3       194        8.85     271      -62.5
   05/08/2016 23:20      56.1      55.7       80     49.7      0.00      8.37      69.8     0.34      1015.0     2       223         4       250        8.85     271      -61.9
   05/08/2016 23:10      56.6      56.4       78     49.8      0.00      8.37      70.3     0.34      1015.0     1       241         2       244        8.85     271      -62.8
   05/08/2016 23:00      57.4      56.6       77     49.9      0.00      8.37      70.3     0.34      1015.0     1       250         3       253        8.85     270      -63.7
   05/08/2016 22:50      57.4      57.1       76     50.0      0.00      8.37      70.2     0.34      1015.0     2       280         4       290        8.85     270      -62.3
   05/08/2016 22:40      57.5      57.4       76     49.8      0.00      8.37      70.4     0.34      1015.0     2       249         3       239        8.84     270      -60.3
   05/08/2016 22:30      57.6      57.4       75     49.7      0.00      8.37      70.5     0.34      1015.0     2       241         3       234        8.84     270      -63.0
   05/08/2016 22:20      58.1      57.6       74     49.8      0.00      8.37      70.3     0.34      1015.0     2       239         4       271        8.85     270      -64.5
   05/08/2016 22:10      58.5      58.2       73     49.9      0.00      8.37      69.9     0.34      1015.0     2       250         3       269        8.85     270      -65.0
   05/08/2016 22:00      58.8      58.5       72     49.7      0.00      8.37      69.9     0.34      1015.0     2       249         4       244        8.85     270      -65.5
   05/08/2016 21:50      58.9      58.8       71     49.6      0.00      8.37      70.5     0.34      1015.0     2       286         4       278        8.85     269      -66.0
   05/08/2016 21:40      59.3      58.9       70     49.4      0.00      8.37      70.3     0.34      1014.0     2       268         4       257        8.85     269      -66.4
   05/08/2016 21:30      59.6      59.4       69     49.2      0.00      8.37      69.8     0.34      1014.0     3       251         5       259        8.85     270      -66.6
   05/08/2016 21:20      59.8      59.5       68     49.0      0.00      8.37      70.0     0.34      1014.0     3       265         5       266        8.85     269      -62.1
   05/08/2016 21:10      59.9      59.5       67     48.8      0.00      8.37      70.3     0.34      1014.0     3       258         4       285        8.85     269      -51.8
   05/08/2016 21:00      60.1      59.7       67     48.9      0.00      8.37      70.4     0.34      1014.0     2       258         3       247        8.85     269      -56.5
   05/08/2016 20:50      60.4      60.1       67     49.1      0.00      8.37      70.4     0.34      1014.0     3       242         5       220        8.85     269      -63.6
   05/08/2016 20:40      60.7      60.4       67     49.4      0.00      8.37      70.2     0.34      1014.0     3       269         4       281        8.85     269      -63.9
   05/08/2016 20:30      60.9      60.6       67     49.6      0.00      8.37      70.2     0.34      1014.0     3       282         4       264        8.85     269      -60.0
   05/08/2016 20:20      61.0      60.8       67     49.7      0.00      8.37      70.1     0.34      1014.0     3       269         5       249        8.85     269      -53.6
   05/08/2016 20:10      61.3      60.9       66     49.9      0.00      8.37      70.0     0.34      1014.0     3       288         5       260        8.85     269      -61.4
   05/08/2016 20:00      61.8      61.3       66     50.1      0.00      8.37      70.1     0.34      1014.0     5       280         6       253        8.85     269      -55.5
   05/08/2016 19:50      62.1      61.7       67     50.6      0.00      8.37      70.2     0.34      1014.0     4       306         6       313        8.85     269      -38.3
   05/08/2016 19:40      62.4      62.1       66     50.9      0.00      8.37      70.0     0.34      1013.0     3       306         6       304        8.85     269      -34.6
   05/08/2016 19:30      62.5      62.2       66     50.9      0.00      8.37      70.3     0.34      1013.0     3       297         5       327        8.85     269      -35.8
   05/08/2016 19:20      63.1      62.5       64     50.6      0.00      8.37      70.3     0.34      1013.0     4       291         6       325        8.85     269      -29.1
   05/08/2016 19:10      63.3      63.0       63     50.2      0.00      8.37      70.3     0.34      1013.0     3       303         6       330        8.85     269      -12.1
   05/08/2016 19:00      63.5      63.3       61     49.8      0.00      8.37      69.9     0.34      1013.0     4       308         6       309        8.85     269       -1.3
   05/08/2016 18:50      63.8      63.4       60     49.3      0.00      8.37      70.0     0.34      1013.0     5       318         6       314        8.85     269        6.6
   05/08/2016 18:40      64.1      63.8       59     49.3      0.00      8.37      69.9     0.34      1013.0     4       323         5       313        8.85     269        0.2
   05/08/2016 18:30      64.2      63.9       58     49.1      0.00      8.37      69.9     0.34      1013.0     4       320         6       324        8.85     269       -6.1
   05/08/2016 18:20      64.4      64.1       58     48.9      0.00      8.37      69.8     0.34      1013.0     4       308         6       316        8.85     269       -7.7
   05/08/2016 18:10      65.0      64.3       57     49.0      0.00      8.37      70.3     0.34      1013.0     4       323         7       307        8.85     269       -8.2
   05/08/2016 18:00      65.3      65.0       56     49.0      0.00      8.37      70.0     0.34      1013.0     3       317         6       322        8.85     269       -5.8
   05/08/2016 17:50      65.3      65.0       56     49.1      0.00      8.37      70.4     0.34      1013.0     3       347         4       338        8.85     269       -7.7
   05/08/2016 17:40      65.5      65.1       56     49.1      0.00      8.37      70.0     0.34      1013.0     3       357         6         5        8.85     269       -9.5
   05/08/2016 17:30      65.2      65.0       55     48.5      0.00      8.37      69.9     0.34      1013.0     4       255         7       242        8.85     269       -8.6
   05/08/2016 17:20      65.3      65.0       54     47.9      0.00      8.37      69.6     0.34      1013.0     3       195         4       157        8.86     268       -8.2
   05/08/2016 17:10      65.7      65.3       53     47.9      0.00      8.37      69.8     0.34      1013.0     5       169         7       174        8.86     268        3.3
   05/08/2016 17:00      65.8      65.2       53     47.9      0.00      8.37      69.4     0.34      1013.0     5       143         7       140        8.86     269       29.9
   05/08/2016 16:50      66.0      65.4       53     48.3      0.00      8.37      69.9     0.34      1013.0     7       156         9       138        8.86     268       47.3
   05/08/2016 16:40      66.4      65.9       53     48.6      0.00      8.37      69.5     0.34      1013.0     6       148         8       141        8.86     268       70.8
   05/08/2016 16:30      66.4      65.9       53     48.8      0.00      8.37      70.0     0.34      1013.0     5       154         8       142        8.86     269      117.7
   05/08/2016 16:20      66.5      65.8       54     49.0      0.00      8.37      69.5     0.34      1013.0     5       148         9       138        8.86     269      158.6
   05/08/2016 16:10      66.4      66.2       55     49.4      0.00      8.37      69.6     0.34      1013.0     7       159         9       151        8.86     269      134.0
   05/08/2016 16:00      67.1      66.6       54     49.7      0.00      8.37      69.6     0.34      1013.0     5       114         8       164        8.87     269      138.2
   05/08/2016 15:50      67.7      66.2       55     50.1      0.00      8.37      69.3     0.34      1013.0     5       153         7       180        8.87     269      209.2
   05/08/2016 15:40      67.0      66.1       56     50.2      0.00      8.37      69.4     0.34      1013.0     7       158         9       173        8.87     269      197.0
   05/08/2016 15:30      68.4      66.9       54     50.5      0.00      8.37      69.6     0.34      1013.0     5       163         7       170        8.87     269      322.5
   05/08/2016 15:20      67.5      65.8       57     50.5      0.00      8.37      69.6     0.34      1014.0     4       149         6       123        8.87     270      427.7
   05/08/2016 15:10      66.4      65.0       58     50.4      0.00      8.37      69.4     0.34      1014.0     4       134         8       128        8.88     269      419.4
   05/08/2016 15:00      65.0      64.3       59     50.2      0.00      8.37      69.5     0.34      1014.0     5       153         6       151        8.88     269      142.7
   05/08/2016 14:50      64.7      64.3       60     50.2      0.00      8.37      69.3     0.34      1014.0     5       146         8       137        8.88     269       60.7
   05/08/2016 14:40      65.3      64.7       60     50.6      0.00      8.37      69.1     0.34      1014.0     5       169         8       164        8.88     269       68.4
   05/08/2016 14:30      66.2      65.4       58     50.7      0.00      8.37      69.2     0.34      1014.0     4       191         7       189        8.89     269      144.8
   05/08/2016 14:20      65.7      65.1       59     50.5      0.00      8.37      69.2     0.34      1014.0     4       171         7       156        8.89     269      192.0
   05/08/2016 14:10      65.2      64.8       60     50.6      0.00      8.37      69.4     0.34      1014.0     6       158         9       146        8.89     269      169.5
   05/08/2016 14:00      65.0      64.2       60     50.3      0.00      8.37      69.1     0.34      1014.0     6       138        10       148        8.89     269      159.9
   05/08/2016 13:50      64.5      63.4       62     50.4      0.00      8.37      69.1     0.34      1014.0     6       158         8       121        8.89     269      154.5
   05/08/2016 13:40      64.0      63.5       62     50.6      0.00      8.37      68.8     0.34      1014.0     8       149        10       151        8.89     269       94.0
   05/08/2016 13:30      64.7      64.0       61     50.5      0.00      8.37      68.8     0.34      1013.0     7       152        11       152        8.89     269       53.7
   05/08/2016 13:20      65.6      65.0       58     50.0      0.00      8.37      69.1     0.34      1013.0     8       152        10       155        8.90     269       47.1
   05/08/2016 13:10      66.0      65.7       56     49.6      0.00      8.37      68.6     0.34      1014.0     4       165         7       171        8.90     269       55.4
   05/08/2016 13:00      66.6      66.1       54     49.4      0.00      8.37      68.9     0.34      1014.0     5       164         8       142        8.90     269       57.3
   05/08/2016 12:50      67.1      66.4       52     48.9      0.00      8.37      68.7     0.34      1013.0     5       188        10       171        8.90     269       89.8
   05/08/2016 12:40      67.7      66.6       51     48.7      0.00      8.37      68.9     0.34      1013.0     4       168         6       193        8.90     269      232.4
   05/08/2016 12:30      67.9      67.1       52     49.2      0.00      8.37      68.9     0.34      1013.0     3       129         7       130        8.90     270      180.5
   05/08/2016 12:20      68.8      67.6       50     49.0      0.00      8.37      68.3     0.34      1014.0     3        95         6       114        8.90     269      390.3
   05/08/2016 12:10      68.8      67.3       51     49.4      0.00      8.37      68.7     0.34      1014.0     3        51         5        67        8.90     270      527.4
   05/08/2016 12:00      68.5      66.0       52     49.0      0.00      8.37      68.9     0.34      1014.0     3        55         6       137        8.90     270      564.7
   05/08/2016 11:50      66.3      66.0       53     48.7      0.00      8.37      68.7     0.34      1014.0     5       144         7       165        8.90     270      311.7
   05/08/2016 11:40      67.5      65.7       52     48.4      0.00      8.37      68.6     0.34      1014.0     3       121         6        72        8.90     270      201.7
   05/08/2016 11:30      68.2      67.4       50     48.7      0.00      8.37      68.5     0.34      1014.0     3        63         6        80        8.90     270      327.7
   05/08/2016 11:20      67.9      67.0       50     48.3      0.00      8.37      68.4     0.34      1014.0     3        52         5        73        8.91     270      567.9
   05/08/2016 11:10      67.3      66.7       51     48.4      0.00      8.37      68.9     0.34      1014.0     3        63         5        67        8.91     271      218.5
   05/08/2016 11:00      67.2      66.4       51     48.2      0.00      8.37      68.7     0.34      1014.0     3       105         4       131        8.91     270      540.2
   05/08/2016 10:50      67.0      66.4       51     48.1      0.00      8.37      68.9     0.34      1014.0     3        66         5        67        8.91     271      545.5
   05/08/2016 10:40      67.0      65.9       52     48.2      0.00      8.37      68.2     0.34      1014.0     2       337         5       343        8.91     273      527.0
   05/08/2016 10:30      65.9      64.8       55     48.3      0.00      8.37      68.8     0.34      1014.0     3        38         5        17        8.91     274      495.5
   05/08/2016 10:20      65.0      63.5       56     48.1      0.00      8.37      68.5     0.34      1014.0     2       276         4        84        8.91     277      475.4
   05/08/2016 10:10      63.7      63.2       57     48.0      0.00      8.37      69.1     0.34      1014.0     3       317         5       309        8.91     282      459.9
   05/08/2016 10:00      63.9      63.1       57     48.2      0.00      8.37      68.8     0.34      1014.0     3       333         5       303        8.91     287      439.3
   05/08/2016 09:50      62.9      61.9       60     48.5      0.00      8.37      69.1     0.34      1014.0     2       350         4       348        8.91     291      420.7
   05/08/2016 09:40      61.9      61.3       63     48.7      0.00      8.37      68.8     0.34      1014.0     3       349         4       308        8.91     294      399.9
   05/08/2016 09:30      61.6      60.6       64     48.8      0.00      8.37      69.0     0.34      1014.0     2        35         4       335        8.91     297      379.9
   05/08/2016 09:20      60.6      58.8       68     49.0      0.00      8.37      68.7     0.34      1014.0     2       359         3       293        8.91     300      362.0
   05/08/2016 09:10      59.4      58.9       70     49.3      0.00      8.37      69.5     0.34      1014.0     2       317         3       308        8.91     302      345.9
   05/08/2016 09:00      59.1      57.2       72     49.5      0.00      8.37      68.8     0.34      1014.0     1       346         3       354        8.91     304      295.7
   05/08/2016 08:50      57.4      56.6       75     49.1      0.00      8.37      69.0     0.34      1014.0     1       279         3       336        8.91     306      168.2
   05/08/2016 08:40      56.3      55.5       77     48.9      0.00      8.37      68.7     0.34      1014.0     1       349         2       332        8.91     307      328.4
   05/08/2016 08:30      55.8      55.3       79     49.1      0.00      8.37      68.5     0.34      1014.0     1       349         2       322        8.91     308      104.8
   05/08/2016 08:20      55.4      54.6       80     49.0      0.00      8.37      68.8     0.34      1014.0     1       355         2       318        8.91     310       95.0
   05/08/2016 08:10      54.8      54.2       82     49.0      0.00      8.37      69.0     0.34      1014.0     1       339         2         2        8.91     312       35.3
   05/08/2016 08:00      54.2      53.9       82     48.8      0.00      8.37      68.6     0.34      1014.0     2         4         3         1        8.91     312        0.9
   05/08/2016 07:50      53.9      53.6       83     48.6      0.00      8.37      69.3     0.34      1014.0     2        37         3        38        8.91     312       34.2
   05/08/2016 07:40      53.6      52.9       85     49.0      0.00      8.37      68.9     0.34      1014.0     2       131         3       153        8.91     311       47.6
   05/08/2016 07:30      53.0      52.4       86     48.7      0.00      8.37      69.2     0.34      1014.0     1       104         2       118        8.91     312       56.4
   05/08/2016 07:20      52.6      52.2       87     48.5      0.00      8.37      69.1     0.34      1014.0     1       175         2       133        8.91     312       40.7
   05/08/2016 07:10      52.1      51.9       88     48.6      0.00      8.37      69.3     0.34      1014.0     1       357         2       335        8.91     312       12.4
   05/08/2016 07:00      52.2      51.9       89     48.7      0.00      8.37      69.4     0.34      1014.0     1        86         1        77        8.91     310       -7.1
   05/08/2016 06:50      52.0      51.7       90     49.1      0.00      8.37      69.5     0.34      1014.0     0        51         1        51        8.91     309      -11.0
   05/08/2016 06:40      51.9      50.7       92     49.2      0.00      8.37      69.5     0.34      1014.0     1       153         2       199        8.91     308       -3.2
   05/08/2016 06:30      50.7      50.1       94     48.6      0.00      8.37      69.3     0.34      1014.0     1       155         2       201        8.91     307        7.7
   05/08/2016 06:20      50.3      49.7       94     48.2      0.00      8.37      69.2     0.34      1014.0     1       183         1       127        8.91     307       -4.0
   05/08/2016 06:10      50.1      49.7       93     48.1      0.00      8.37      69.2     0.34      1014.0     1       187         1       133        8.91     305      -20.2
   05/08/2016 06:00      49.9      49.6       93     47.7      0.00      8.37      69.2     0.34      1014.0     1        87         1       131        8.91     303      -36.6
   05/08/2016 05:50      50.9      50.0       91     47.8      0.00      8.37      69.4     0.34      1014.0     1        89         1        67        8.91     301      -40.5
   05/08/2016 05:40      51.5      51.0       89     48.1      0.00      8.37      69.3     0.34      1013.0     1        19         1        86        8.91     298      -41.5
   05/08/2016 05:30      52.3      51.7       89     48.9      0.00      8.37      69.3     0.34      1013.0     1       182         2       261        8.91     296      -46.0
   05/08/2016 05:20      52.2      51.6       90     49.1      0.00      8.37      69.2     0.34      1013.0     2       244         3       226        8.91     294      -48.0
   05/08/2016 05:10      51.8      51.3       89     48.5      0.00      8.37      69.4     0.34      1013.0     1       258         2       267        8.91     293      -52.0
   05/08/2016 05:00      52.3      51.7       88     48.7      0.00      8.37      70.0     0.34      1013.0     1        15         1        89        8.91     290      -55.5
   05/08/2016 04:50      52.5      52.2       88     48.9      0.00      8.37      69.8     0.34      1013.0     1       215         2       251        8.91     288      -57.9
   05/08/2016 04:40      52.8      52.5       88     49.1      0.00      8.37      69.5     0.34      1013.0     2       234         4       260        8.91     287      -59.5
   05/08/2016 04:30      52.8      52.5       88     49.1      0.00      8.37      69.4     0.34      1013.0     1       236         2       253        8.91     285      -61.9
   05/08/2016 04:20      52.8      52.5       88     49.1      0.00      8.37      69.3     0.34      1013.0     1       222         3       210        8.91     284      -63.3
   05/08/2016 04:10      52.8      52.5       88     49.0      0.00      8.37      69.5     0.34      1013.0     1       210         2       201        8.91     282      -65.0
   05/08/2016 04:00      53.0      52.4       87     48.9      0.00      8.37      69.6     0.34      1013.0     2       173         3       195        8.91     280      -65.5
   05/08/2016 03:50      53.2      53.0       86     49.0      0.00      8.37      69.6     0.34      1013.0     3       195         4       199        8.91     279      -65.8
   05/08/2016 03:40      53.6      53.2       85     48.9      0.00      8.37      69.5     0.34      1013.0     2       207         4       196        8.91     278      -66.3
   05/08/2016 03:30      53.7      53.4       84     49.0      0.00      8.37      69.9     0.34      1013.0     3       234         4       254        8.91     277      -66.6
   05/08/2016 03:20      53.7      53.4       84     48.8      0.00      8.37      69.8     0.34      1013.0     3       231         5       248        8.91     276      -67.1
   05/08/2016 03:10      53.9      53.7       83     48.8      0.00      8.37      69.8     0.34      1013.0     3       213         4       225        8.91     276      -67.4
   05/08/2016 03:00      54.1      53.8       83     48.9      0.00      8.37      69.9     0.34      1013.0     4       201         7       202        8.91     275      -67.6
   05/08/2016 02:50      54.1      54.0       82     48.8      0.00      8.37      69.2     0.34      1013.0     3       213         5       206        8.91     275      -68.0
   05/08/2016 02:40      54.4      54.1       82     48.7      0.00      8.37      69.9     0.34      1014.0     2       216         3       237        8.91     274      -67.7
   05/08/2016 02:30      54.9      54.6       80     48.7      0.00      8.37      69.6     0.34      1014.0     1       216         2       209        8.91     273      -64.2
   05/08/2016 02:20      55.1      54.9       79     48.7      0.00      8.37      69.7     0.34      1014.0     2       198         5       196        8.91     272      -64.8
   05/08/2016 02:10      55.5      55.2       78     48.5      0.00      8.37      69.8     0.34      1014.0     2       205         4       205        8.91     272      -50.7
   05/08/2016 02:00      55.6      55.5       77     48.3      0.00      8.37      69.5     0.34      1014.0     3       214         4       210        8.91     272      -42.0
   05/08/2016 01:50      55.7      55.5       76     48.3      0.00      8.37      69.9     0.34      1014.0     3       221         5       217        8.91     272      -40.7
   05/08/2016 01:40      56.0      55.8       75     48.1      0.00      8.37      70.0     0.34      1014.0     4       213         5       219        8.92     272      -34.4
   05/08/2016 01:30      56.1      56.0       74     47.9      0.00      8.37      69.8     0.34      1014.0     3       233         4       200        8.92     272      -28.2
   05/08/2016 01:20      56.3      56.1       73     47.8      0.00      8.37      70.0     0.34      1014.0     3       220         4       202        8.92     272      -26.8
   05/08/2016 01:10      56.6      56.3       73     47.8      0.00      8.37      69.8     0.34      1014.0     3       221         4       240        8.92     272      -25.0
   05/08/2016 01:00      56.6      56.4       72     47.5      0.00      8.37      70.2     0.34      1015.0     4       232         5       238        8.92     272      -23.8
   05/08/2016 00:50      56.5      56.3       72     47.5      0.00      8.37      70.0     0.34      1015.0     3       219         6       217        8.92     272      -23.3
   05/08/2016 00:40      56.6      56.4       71     47.2      0.00      8.37      70.2     0.34      1015.0     3       229         4       206        8.92     272      -22.8
   05/08/2016 00:30      56.6      56.4       70     46.9      0.00      8.37      69.8     0.34      1015.0     3       211         4       219        8.92     272      -22.3
   05/08/2016 00:20      56.8      56.4       69     46.6      0.00      8.37      69.7     0.34      1015.0     2       214         3       245        8.92     272      -26.6
   05/08/2016 00:10      57.0      56.8       68     46.3      0.00      8.37      70.0     0.34      1015.0     3       243         5       244        8.92     272      -24.2
   05/08/2016 00:00      56.8      56.6       67     45.7      0.00      8.37      70.0     0.34      1014.0     3       206         5       178        8.92     272      -20.4
   05/07/2016 23:50      57.1      56.8       65     45.3      0.00      8.37      70.3     0.34      1014.0     3       222         5       240        8.92     272      -20.5
   05/07/2016 23:40      57.1      56.9       64     44.9      0.00      8.37      70.1     0.34      1014.0     2       227         4       260        8.92     272      -21.3
   05/07/2016 23:30      57.1      56.9       63     44.7      0.00      8.37      70.3     0.34      1014.0     3       239         5       261        8.92     272      -25.6
   05/07/2016 23:20      57.1      56.9       63     44.7      0.00      8.37      70.2     0.34      1014.0     2       205         3       194        8.92     272      -24.3
   05/07/2016 23:10      57.1      56.8       64     45.0      0.00      8.37      70.5     0.34      1014.0     3       202         3       199        8.92     272      -23.1
   05/07/2016 23:00      57.1      57.0       64     45.1      0.00      8.37      70.3     0.34      1014.0     3       186         4       192        8.92     273      -22.6
   05/07/2016 22:50      57.1      56.9       64     44.8      0.00      8.37      70.2     0.34      1014.0     3       200         5       187        8.92     273      -23.8
   05/07/2016 22:40      57.0      56.8       64     44.7      0.00      8.37      70.0     0.34      1014.0     3       210         4       208        8.92     273      -23.7
   05/07/2016 22:30      56.8      56.5       65     44.9      0.00      8.37      70.2     0.34      1015.0     2       229         4       245        8.93     274      -21.9
   05/07/2016 22:20      56.8      56.5       65     44.9      0.00      8.37      70.3     0.34      1014.0     2       227         4       235        8.93     273      -40.9
   05/07/2016 22:10      56.9      56.5       65     44.9      0.00      8.37      70.5     0.34      1014.0     3       225         4       230        8.93     273      -56.8
   05/07/2016 22:00      56.8      56.5       64     44.8      0.00      8.37      70.2     0.34      1014.0     2       217         4       235        8.93     273      -65.6
   05/07/2016 21:50      57.0      56.7       64     44.7      0.00      8.37      70.3     0.34      1014.0     2       212         3       242        8.93     272      -69.2
   05/07/2016 21:40      57.1      56.9       63     44.8      0.00      8.37      70.5     0.34      1014.0     3       215         5       200        8.93     272      -70.3
   05/07/2016 21:30      57.4      56.9       63     44.6      0.00      8.37      70.5     0.34      1014.0     3       218         5       203        8.93     272      -69.8
   05/07/2016 21:20      57.5      57.3       62     44.6      0.00      8.37      70.4     0.34      1014.0     3       204         4       201        8.93     271      -69.5
   05/07/2016 21:10      57.6      57.4       62     44.7      0.00      8.37      70.2     0.34      1014.0     3       205         5       199        8.93     270      -70.2
   05/07/2016 21:00      57.7      57.5       62     44.7      0.00      8.37      70.3     0.34      1014.0     3       216         4       229        8.93     270      -70.5
   05/07/2016 20:50      58.0      57.7       62     44.9      0.00      8.37      69.8     0.34      1014.0     2       218         3       231        8.93     270      -65.5
   05/07/2016 20:40      58.3      57.9       62     45.0      0.00      8.37      69.6     0.34      1014.0     3       214         4       232        8.93     270      -67.9
   05/07/2016 20:30      58.6      58.4       61     45.0      0.00      8.37      70.0     0.34      1014.0     3       219         4       227        8.94     269      -71.8
   05/07/2016 20:20      59.0      58.6       60     45.0      0.00      8.37      70.2     0.34      1014.0     3       221         4       236        8.94     269      -72.5
   05/07/2016 20:10      59.5      59.1       60     45.3      0.00      8.37      70.2     0.34      1014.0     4       225         6       235        8.94     269      -72.9
   05/07/2016 20:00      60.0      59.4       59     45.2      0.00      8.37      70.7     0.34      1014.0     3       229         6       222        8.94     269      -73.5
   05/07/2016 19:50      60.4      60.1       57     44.9      0.00      8.37      70.4     0.34      1013.0     3       238         5       239        8.94     270      -73.1
   05/07/2016 19:40      60.9      60.5       56     45.1      0.00      8.37      69.9     0.34      1013.0     4       255         7       254        8.94     270      -70.0
   05/07/2016 19:30      61.2      60.9       56     45.2      0.00      8.37      70.1     0.34      1013.0     5       262         7       235        8.94     270      -65.8
   05/07/2016 19:20      61.6      61.3       56     45.5      0.00      8.37      70.1     0.34      1013.0     4       269         6       291        8.94     270      -62.9
   05/07/2016 19:10      62.0      61.6       55     45.7      0.00      8.37      70.2     0.34      1013.0     3       283         6       288        8.94     270      -57.9
   05/07/2016 19:00      62.2      62.1       55     45.8      0.00      8.37      70.3     0.34      1013.0     3       293         6       286        8.94     270      -52.2
   05/07/2016 18:50      62.4      62.2       55     45.8      0.00      8.37      69.9     0.34      1013.0     4       298         6       309        8.94     270      -48.6
   05/07/2016 18:40      63.0      62.5       55     46.3      0.00      8.37      70.2     0.34      1013.0     4       306         7       302        8.94     270      -43.5
   05/07/2016 18:30      63.1      62.8       55     46.5      0.00      8.37      69.9     0.34      1013.0     4       291         6       305        8.94     270      -28.7
   05/07/2016 18:20      63.3      63.0       55     46.7      0.00      8.37      70.1     0.34      1014.0     4       311         6       289        8.94     270       -8.8
   05/07/2016 18:10      63.7      63.3       54     46.6      0.00      8.37      70.1     0.34      1014.0     6       315         9       328        8.94     270       39.6
   05/07/2016 18:00      64.2      63.9       52     46.1      0.00      8.37      70.0     0.34      1014.0     5       298         9       311        8.94     270       45.8
   05/07/2016 17:50      64.7      64.1       50     45.6      0.00      8.37      70.1     0.34      1014.0     4       260         7       259        8.94     270       97.9
   05/07/2016 17:40      64.3      63.9       52     46.1      0.00      8.37      70.0     0.34      1014.0     4       283         6       272        8.94     270       87.6
   05/07/2016 17:30      64.3      64.0       52     46.4      0.00      8.37      69.6     0.34      1014.0     5       294         7       288        8.95     270       90.2
   05/07/2016 17:20      64.5      63.9       52     46.3      0.00      8.37      70.0     0.34      1014.0     4       298         6       314        8.94     270       93.0
   05/07/2016 17:10      65.3      64.0       52     46.6      0.00      8.37      69.9     0.34      1014.0     4       300         6       302        8.94     270       91.4
   05/07/2016 17:00      65.3      64.2       52     47.1      0.00      8.37      69.8     0.34      1014.0     4       284         6       319        8.95     270      242.5
   05/07/2016 16:50      64.8      64.0       53     46.9      0.00      8.37      70.2     0.34      1014.0     6       263         9       274        8.95     270      323.4
   05/07/2016 16:40      65.3      64.3       52     46.5      0.00      8.37      69.4     0.34      1014.0     4       269         7       264        8.95     270      271.8
   05/07/2016 16:30      64.1      63.5       51     45.4      0.00      8.37      70.2     0.34      1014.0     5       239         6       247        8.94     270      234.5
   05/07/2016 16:20      63.6      63.3       53     46.0      0.00      8.37      70.0     0.34      1014.0     4       243         6       237        8.95     270      140.1
   05/07/2016 16:10      63.3      62.8       55     46.8      0.00      8.37      69.4     0.34      1014.0     3       252         6       243        8.94     271       79.9
   05/07/2016 16:00      62.9      62.3       57     47.2      0.00      8.37      69.7     0.34      1014.0     4       244         6       241        8.94     270       37.5
   05/07/2016 15:50      62.6      62.3       57     47.1      0.00      8.37      70.0     0.34      1014.0     4       243         5       252        8.94     270       23.6
   05/07/2016 15:40      62.5      62.3       57     47.3      0.00      8.37      69.3     0.34      1014.0     4       227         7       218        8.94     270       21.6
   05/07/2016 15:30      63.0      62.4       56     46.8      0.00      8.37      69.3     0.34      1014.0     5       231         7       195        8.94     270       16.1
   05/07/2016 15:20      63.5      63.0       56     47.0      0.00      8.37      69.3     0.34      1014.0     4       215         6       223        8.94     270       13.9
   05/07/2016 15:10      64.0      63.6       54     46.9      0.00      8.37      69.8     0.34      1014.0     4       199         7       185        8.94     270       17.8
   05/07/2016 15:00      64.9      64.2       54     47.3      0.00      8.37      69.5     0.34      1014.0     4       166         9       167        8.94     271       39.2
   05/07/2016 14:50      65.5      64.4       51     46.2      0.00      8.37      69.7     0.34      1014.0     4       203         6       214        8.94     271       48.5
   05/07/2016 14:40      65.6      64.7       51     46.3      0.00      8.37      69.7     0.34      1014.0     2       164         4       131        8.94     271       90.0
   05/07/2016 14:30      65.7      64.9       51     46.9      0.00      8.37      69.7     0.34      1014.0     5       174         9       253        8.95     271      150.6
   05/07/2016 14:20      66.1      65.4       48     45.6      0.00      8.37      69.4     0.34      1014.0     4       162         7       151        8.95     271      243.9
   05/07/2016 14:10      66.8      66.1       48     46.2      0.00      8.37      69.2     0.34      1014.0     3       177         5       146        8.95     270      550.9
   05/07/2016 14:00      66.6      64.8       49     46.6      0.00      8.37      69.3     0.34      1014.0     4       143         8       113        8.95     272      657.9
   05/07/2016 13:50      64.8      64.1       52     46.4      0.00      8.37      69.7     0.34      1014.0     3       210         6       213        8.95     275      300.1
   05/07/2016 13:40      64.7      63.8       53     47.0      0.00      8.37      69.5     0.34      1014.0     5       184         7       178        8.95     275      190.4
   05/07/2016 13:30      67.2      64.9       52     47.8      0.00      8.37      69.6     0.34      1014.0     4       158         8       138        8.95     276      177.4
   05/07/2016 13:20      67.6      66.7       51     48.6      0.00      8.37      69.3     0.34      1014.0     3       159         5       314        8.95     276      482.3
   05/07/2016 13:10      67.2      65.3       55     50.0      0.00      8.37      69.2     0.34      1014.0     3        42         7        38        8.95     279      827.0
   05/07/2016 13:00      65.0      62.2       60     49.4      0.00      8.37      69.4     0.34      1015.0     3        79         4        68        8.95     286      686.9
   05/07/2016 12:50      62.3      61.6       63     49.2      0.00      8.37      69.4     0.34      1015.0     3       145         6       123        8.95     294      293.2
   05/07/2016 12:40      61.6      60.5       65     49.1      0.00      8.37      69.1     0.34      1015.0     4       116         6       133        8.95     299      220.1
   05/07/2016 12:30      60.9      60.5       67     49.6      0.00      8.37      69.9     0.34      1015.0     4       141         6       130        8.95     303      182.6
   05/07/2016 12:20      60.9      59.9       69     50.1      0.00      8.37      69.6     0.34      1015.0     3       127         5       105        8.95     306      188.2
   05/07/2016 12:10      60.2      59.9       70     50.3      0.00      8.37      69.1     0.34      1015.0     3       110         3        96        8.95     308       81.5
   05/07/2016 12:00      60.3      60.0       69     50.1      0.00      8.37      69.6     0.34      1015.0     3        90         5        86        8.94     306       56.9
   05/07/2016 11:50      61.2      60.0       67     49.5      0.00      8.37      69.5     0.34      1015.0     4       106         5       134        8.94     304       33.9
   05/07/2016 11:40      61.7      61.3       64     49.2      0.00      8.37      69.7     0.34      1015.0     2        51         3        78        8.94     302       50.2
   05/07/2016 11:30      61.7      61.2       64     49.1      0.00      8.37      69.3     0.34      1015.0     2        62         3        36        8.95     300      119.5
   05/07/2016 11:20      61.4      61.0       66     49.5      0.00      8.37      70.0     0.34      1015.0     2        24         3       106        8.95     301      170.6
   05/07/2016 11:10      61.5      60.7       66     49.6      0.00      8.37      69.4     0.34      1015.0     3        13         5        28        8.95     302      144.2
   05/07/2016 11:00      61.7      61.1       65     49.6      0.00      8.37      69.8     0.34      1015.0     3        65         4       111        8.95     302      190.5
   05/07/2016 10:50      62.3      61.4       64     49.7      0.00      8.37      69.8     0.34      1015.0     3        47         4        92        8.94     303      234.6
   05/07/2016 10:40      62.7      61.3       65     50.1      0.00      8.37      69.5     0.34      1015.0     2        57         4        70        8.95     305      613.3
   05/07/2016 10:30      61.4      60.5       69     50.8      0.00      8.37      69.5     0.34      1015.0     2        42         4        34        8.94     314      366.1
   05/07/2016 10:20      60.7      60.3       71     50.9      0.00      8.37      70.1     0.34      1015.0     3        66         6        60        8.94     318      353.9
   05/07/2016 10:10      60.5      59.4       71     50.7      0.00      8.37      69.7     0.34      1015.0     3        39         4        53        8.94     324      301.0
   05/07/2016 10:00      59.7      59.4       72     50.5      0.00      8.37      70.3     0.34      1015.0     3        64         5        64        8.94     329      196.4
   05/07/2016 09:50      59.9      59.4       72     50.5      0.00      8.37      69.2     0.34      1015.0     2        83         3        87        8.94     330      191.3
   05/07/2016 09:40      60.2      59.6       72     50.8      0.00      8.37      69.6     0.34      1015.0     3        49         4       106        8.94     332      256.0
   05/07/2016 09:30      60.1      59.0       73     50.9      0.00      8.37      69.6     0.34      1015.0     2        33         3        89        8.94     334      374.8
   05/07/2016 09:20      59.1      57.8       78     51.4      0.00      8.37      69.8     0.34      1015.0     2       117         4       140        8.94     334      391.9
   05/07/2016 09:10      58.1      57.7       80     51.8      0.00      8.37      69.7     0.34      1015.0     1        15         2        18        8.94     335      195.0
   05/07/2016 09:00      57.8      56.9       84     52.3      0.00      8.37      70.2     0.34      1015.0     2        69         2        77        8.94     335      258.4
   05/07/2016 08:50      57.0      56.0       85     52.0      0.00      8.37      69.4     0.34      1015.0     2        61         3       119        8.94     338      226.6
   05/07/2016 08:40      56.1      55.7       87     51.9      0.00      8.37      69.9     0.34      1015.0     1       107         2        80        8.94     339      178.2
   05/07/2016 08:30      55.8      55.5       88     52.0      0.00      8.37      69.7     0.34      1015.0     2        76         3       111        8.94     339      120.2
   05/07/2016 08:20      55.9      55.1       89     52.2      0.00      8.37      69.9     0.34      1015.0     1       121         2       102        8.94     340      109.4
   05/07/2016 08:10      55.2      54.8       90     52.0      0.00      8.37      69.5     0.34      1015.0     1       319         2       314        8.94     341       89.1
   05/07/2016 08:00      54.8      54.6       91     52.0      0.00      8.37      69.9     0.34      1015.0     1       352         1       304        8.94     342       93.7
   05/07/2016 07:50      54.9      54.4       92     52.2      0.00      8.37      69.3     0.34      1015.0     1        76         1        77        8.94     343       93.2
   05/07/2016 07:40      54.5      53.8       92     51.9      0.00      8.37      69.9     0.34      1015.0     1        33         2       341        8.94     345       80.7
   05/07/2016 07:30      54.0      53.5       92     51.5      0.00      8.37      70.2     0.34      1015.0     1        92         1        86        8.94     346       70.1
   05/07/2016 07:20      53.7      53.5       93     51.7      0.00      8.37      70.4     0.34      1015.0     1        76         1       100        8.94     347       54.4
   05/07/2016 07:10      53.5      53.2       94     51.8      0.00      8.37      70.6     0.34      1014.0     1        36         2        30        8.94     347       44.7
   05/07/2016 07:00      53.2      52.7       94     51.4      0.00      8.37      69.9     0.34      1014.0     1        69         1        70        8.94     347       45.6
   05/07/2016 06:50      52.9      52.6       94     51.2      0.00      8.37      70.1     0.34      1014.0     1        87         1        81        8.94     348       28.3
   05/07/2016 06:40      52.8      52.4       94     50.9      0.00      8.37      70.0     0.34      1014.0     1       127         2       180        8.94     349       18.3
   05/07/2016 06:30      52.5      51.9       94     50.6      0.00      8.37      69.5     0.34      1014.0     2       230         3       246        8.94     348       10.7
   05/07/2016 06:20      52.1      51.8       95     50.6      0.00      8.37      70.2     0.34      1014.0     1       188         1       174        8.94     352        3.9
   05/07/2016 06:10      51.9      51.6       95     50.4      0.00      8.37      70.1     0.34      1014.0     1       190         2       164        8.94     354        0.4
   05/07/2016 06:00      51.9      51.4       95     50.4      0.00      8.37      69.9     0.34      1014.0     1       146         1       154        8.94     353       -2.0
   05/07/2016 05:50      51.4      50.9       96     50.0      0.00      8.37      70.2     0.34      1014.0     1       216         1       217        8.94     353       -2.8
   05/07/2016 05:40      51.2      50.9       96     49.9      0.00      8.37      70.3     0.34      1014.0     1       150         1       140        8.94     354       -3.3
   05/07/2016 05:30      51.2      50.9       95     49.7      0.00      8.37      71.1     0.34      1014.0     1        55         1        13        8.94     355       -3.3
   05/07/2016 05:20      51.1      50.6       95     49.5      0.00      8.37      70.5     0.34      1014.0     1       226         2       240        8.94     355       -4.2
   05/07/2016 05:10      50.9      50.8       95     49.6      0.00      8.37      70.2     0.34      1014.0     1       171         1       120        8.94     354       -5.6
   05/07/2016 05:00      51.2      50.8       96     49.9      0.00      8.37      70.8     0.34      1013.0     1       189         2       219        8.94     353       -5.1
   05/07/2016 04:50      51.1      50.7       96     49.8      0.00      8.37      70.9     0.34      1013.0     2       180         4       162        8.94     352       -4.9
   05/07/2016 04:40      50.8      50.1       96     49.4      0.00      8.37      71.0     0.34      1013.0     2       216         3       212        8.94     351       -3.8
   05/07/2016 04:30      50.4      49.9       96     49.0      0.00      8.37      70.7     0.34      1014.0     1       147         1       136        8.94     352       -4.3
   05/07/2016 04:20      50.0      49.7       96     48.8      0.00      8.37      70.6     0.34      1013.0     1       161         2       137        8.94     351       -5.3
   05/07/2016 04:10      49.9      49.5       96     48.7      0.00      8.37      71.0     0.34      1013.0     2       181         3       159        8.94     352       -5.4
   05/07/2016 04:00      50.5      49.7       96     49.0      0.00      8.37      70.1     0.34      1013.0     2       182         3       161        8.94     350       -6.3
   05/07/2016 03:50      49.9      49.4       96     48.6      0.00      8.37      70.8     0.34      1013.0     2       162         2       140        8.94     349       -6.8
   05/07/2016 03:40      50.0      49.7       96     48.8      0.00      8.37      70.8     0.34      1013.0     1       185         2       192        8.94     346       -6.9
   05/07/2016 03:30      50.0      49.9       96     48.7      0.00      8.37      70.7     0.34      1013.0     1       162         1       144        8.94     344       -7.0
   05/07/2016 03:20      50.5      49.9       95     49.0      0.00      8.37      71.4     0.34      1013.0     1       128         1       142        8.94     349       -7.6
   05/07/2016 03:10      50.8      50.3       96     49.4      0.00      8.37      71.1     0.34      1013.0     1       204         2       131        8.94     347       -6.9
   05/07/2016 03:00      50.9      50.6       95     49.5      0.00      8.37      70.8     0.34      1013.0     1       319         1       337        8.94     345       -7.4
   05/07/2016 02:50      51.3      50.8       96     49.8      0.00      8.37      70.7     0.34      1013.0     1       315         1       321        8.94     342       -7.3
   05/07/2016 02:40      51.2      50.8       96     49.8      0.00      8.37      71.0     0.34      1013.0     1       189         3       144        8.94     340       -7.0
   05/07/2016 02:30      51.5      51.2       95     50.0      0.00      8.37      70.4     0.34      1013.0     1       170         3       156        8.94     338       -7.0
   05/07/2016 02:20      52.2      51.7       95     50.5      0.00      8.37      70.8     0.34      1013.0     1       134         1       138        8.94     337       -7.3
   05/07/2016 02:10      52.3      51.8       95     50.7      0.00      8.37      71.3     0.34      1013.0     1       328         2       324        8.94     336       -7.0
   05/07/2016 02:00      52.1      51.7       96     50.7      0.00      8.37      70.7     0.34      1013.0     1       136         2       137        8.94     334       -6.8
   05/07/2016 01:50      52.1      51.7       95     50.6      0.00      8.37      71.0     0.34      1013.0     1       157         2       155        8.94     333       -7.0
   05/07/2016 01:40      52.2      51.7       96     50.7      0.00      8.37      70.9     0.34      1013.0     3       181         3       180        8.94     331       -7.1
   05/07/2016 01:30      52.6      51.9       95     50.8      0.00      8.37      71.3     0.34      1013.0     1       159         2       179        8.94     330       -7.2
   05/07/2016 01:20      52.8      52.5       95     51.1      0.00      8.37      71.1     0.34      1013.0     1        65         1        37        8.94     329       -7.0
   05/07/2016 01:10      52.8      52.6       94     51.1      0.00      8.37      71.0     0.34      1013.0     1        30         1        30        8.94     328       -7.9
   05/07/2016 01:00      52.7      52.6       95     51.3      0.00      8.37      70.7     0.34      1013.0     1        81         2       142        8.94     327       -8.3
   05/07/2016 00:50      53.1      52.7       95     51.4      0.00      8.37      71.2     0.34      1013.0     2       145         3       144        8.94     326       -8.5
   05/07/2016 00:40      53.5      53.0       94     51.6      0.00      8.37      71.6     0.34      1013.0     2       160         2       152        8.94     324       -8.4
   05/07/2016 00:30      53.8      53.4       94     52.0      0.00      8.37      71.7     0.34      1013.0     2       144         3       155        8.94     322       -8.4
   05/07/2016 00:20      53.8      53.7       95     52.2      0.00      8.37      71.8     0.34      1013.0     1       171         1       177        8.94     322       -7.8
   05/07/2016 00:10      54.0      53.7       95     52.3      0.00      8.37      71.0     0.34      1013.0     2       163         3       152        8.94     321       -7.2
   05/07/2016 00:00      54.1      53.8       94     52.3      0.00      8.37      71.3     0.34      1013.0     1       174         2       166        8.94     319       -7.2
   05/06/2016 23:50      54.1      53.9       93     52.1      0.00      8.37      71.3     0.34      1013.0     2       173         2       161        8.94     318       -7.4
   05/06/2016 23:40      54.1      53.8       94     52.1      0.00      8.37      71.1     0.34      1013.0     1       184         2       186        8.94     324       -8.2
   05/06/2016 23:30      54.3      53.8       93     51.9      0.00      8.37      71.4     0.34      1013.0     2       158         2       158        8.94     323       -8.8
   05/06/2016 23:20      54.6      54.3       90     51.5      0.00      8.37      71.5     0.34      1013.0     1       184         1       223        8.94     321       -9.7
   05/06/2016 23:10      54.7      54.5       89     51.5      0.00      8.37      71.7     0.34      1013.0     2       201         3       190        8.94     320      -10.4
   05/06/2016 23:00      55.1      54.8       89     51.7      0.00      8.37      71.6     0.34      1013.0     2       192         3       172        8.94     320      -10.4
   05/06/2016 22:50      55.5      55.1       88     51.8      0.00      8.37      71.6     0.34      1013.0     2       209         2       188        8.94     319      -10.2
   05/06/2016 22:40      55.4      55.1       89     52.0      0.00      8.37      71.5     0.34      1013.0     1       227         2       230        8.94     318      -10.0
   05/06/2016 22:30      55.3      55.1       89     51.9      0.00      8.37      71.5     0.34      1013.0     2       195         2       188        8.94     317       -9.8
   05/06/2016 22:20      55.2      54.9       89     51.9      0.00      8.37      71.4     0.34      1013.0     2       208         2       223        8.94     316       -9.7
   05/06/2016 22:10      55.6      55.1       88     51.9      0.00      8.37      71.7     0.34      1013.0     1       200         2       209        8.94     316      -10.6
   05/06/2016 22:00      55.6      55.4       89     52.4      0.00      8.37      70.6     0.34      1013.0     2       226         3       214        8.94     314      -11.2
   05/06/2016 21:50      55.6      55.4       90     52.8      0.00      8.37      71.2     0.34      1013.0     2       185         2       181        8.94     313      -10.2
   05/06/2016 21:40      55.9      55.5       92     53.3      0.00      8.37      71.0     0.34      1013.0     1       161         2       138        8.94     312       -8.6
   05/06/2016 21:30      56.0      55.8       90     53.0      0.00      8.37      72.4     0.34      1013.0     0       153         1       133        8.94     310      -10.1
   05/06/2016 21:20      55.9      55.5       90     52.7      0.00      8.37      72.2     0.34      1013.0     2       159         3       163        8.94     309      -11.1
   05/06/2016 21:10      55.8      55.5       89     52.6      0.00      8.37      72.4     0.34      1012.0     2       177         3       196        8.94     307      -10.6
   05/06/2016 21:00      56.0      55.7       90     52.9      0.00      8.37      72.4     0.34      1012.0     2       186         2       196        8.94     307       -9.9
   05/06/2016 20:50      56.0      55.8       90     53.0      0.00      8.37      71.0     0.34      1012.0     2       186         2       188        8.94     306      -10.0
   05/06/2016 20:40      56.1      55.6       90     52.9      0.00      8.37      70.8     0.34      1012.0     2       177         3       191        8.94     307       -9.9
   05/06/2016 20:30      55.9      55.6       90     52.8      0.00      8.37      71.0     0.34      1012.0     2       169         3       160        8.94     306       -9.7
   05/06/2016 20:20      55.8      55.6       89     52.6      0.00      8.37      72.1     0.34      1012.0     3       174         4       163        8.94     308       -9.6
   05/06/2016 20:10      55.8      55.6       88     52.3      0.00      8.37      71.5     0.34      1012.0     3       180         5       182        8.94     308       -9.8
   05/06/2016 20:00      55.8      55.6       90     52.8      0.00      8.37      71.9     0.34      1012.0     3       167         5       174        8.94     315       -9.6
   05/06/2016 19:50      56.7      55.8       89     52.6      0.08      8.37      71.2     0.34      1012.0     4       172         5       176        8.93     334       -8.8
   05/06/2016 19:40      59.1      56.8       79     51.5      0.11      8.29      72.3     0.34      1012.0     4       259         9       250        8.88     361      -12.3
   05/06/2016 19:30      59.4      59.1       71     50.0      0.01      8.18      71.5     0.34      1012.0     3       227         5       161        8.85     270      -16.3
   05/06/2016 19:20      59.7      59.4       70     49.8      0.00      8.17      71.6     0.34      1012.0     4       152         6       133        8.85     267      -17.3
   05/06/2016 19:10      60.3      59.7       69     49.8      0.00      8.17      71.5     0.34      1012.0     3       151         5       126        8.85     268      -15.6
   05/06/2016 19:00      60.5      60.4       67     49.2      0.00      8.17      71.4     0.34      1012.0     3       207         4       203        8.85     268       -7.4
   05/06/2016 18:50      61.1      60.5       66     49.4      0.00      8.17      71.6     0.34      1011.0     2       246         4       223        8.85     268       -3.3
   05/06/2016 18:40      61.2      60.9       66     49.7      0.00      8.17      71.6     0.34      1011.0     2       270         4       256        8.85     268       12.2
   05/06/2016 18:30      61.0      60.8       65     49.3      0.00      8.17      71.7     0.34      1011.0     3       254         4       228        8.85     268       35.7
   05/06/2016 18:20      61.0      60.8       64     48.9      0.00      8.17      71.5     0.34      1011.0     3       247         6       213        8.85     269       51.3
   05/06/2016 18:10      61.0      60.3       67     49.4      0.00      8.17      71.7     0.34      1011.0     4       240         5       241        8.85     269       99.0
   05/06/2016 18:00      60.5      60.3       68     49.6      0.00      8.17      71.8     0.34      1011.0     4       246         6       220        8.85     268       78.5
   05/06/2016 17:50      60.6      60.3       69     50.1      0.00      8.17      71.8     0.34      1011.0     4       261         6       216        8.85     269      127.2
   05/06/2016 17:40      60.5      60.1       69     50.2      0.00      8.17      71.8     0.34      1012.0     4       257         7       244        8.85     267      126.9
   05/06/2016 17:30      60.8      60.3       71     50.9      0.00      8.17      71.7     0.34      1012.0     4       279         6       281        8.85     267      165.7
   05/06/2016 17:20      61.0      60.3       69     50.3      0.00      8.17      71.3     0.34      1012.0     5       293         7       294        8.85     268      269.8
   05/06/2016 17:10      61.0      59.6       74     51.9      0.00      8.17      71.7     0.34      1012.0     4       271         6       259        8.85     267      337.1
   05/06/2016 17:00      59.6      58.6       79     52.4      0.00      8.17      72.0     0.34      1012.0     5       305         7       321        8.85     269      267.5
   05/06/2016 16:50      58.6      58.3       77     51.2      0.01      8.17      70.9     0.34      1012.0     4       302         5       282        8.85     268       86.9
   05/06/2016 16:40      58.5      58.3       75     50.5      0.00      8.16      71.5     0.34      1012.0     5       292         7       294        8.85     267       28.8
   05/06/2016 16:30      59.0      58.4       76     51.3      0.00      8.16      71.5     0.34      1012.0     5       272         7       245        8.85     268       44.6
   05/06/2016 16:20      59.3      59.0       77     52.0      0.00      8.16      71.4     0.34      1011.0     5       282         8       283        8.85     268       80.2
   05/06/2016 16:10      59.1      58.4       78     51.9      0.00      8.16      71.5     0.34      1011.0     4       280         6       289        8.85     267       89.2
   05/06/2016 16:00      58.5      58.0       79     51.8      0.00      8.16      71.6     0.34      1012.0     3       286         5       262        8.85     266       76.4
   05/06/2016 15:50      59.0      58.2       77     51.4      0.00      8.16      71.0     0.34      1012.0     5       279         6       270        8.85     267       64.5
   05/06/2016 15:40      59.4      59.0       72     50.0      0.00      8.16      71.4     0.34      1012.0     5       268         7       266        8.85     269       70.6
   05/06/2016 15:30      59.9      59.5       71     50.1      0.00      8.16      71.2     0.34      1012.0     5       272         9       260        8.85     267       68.7
   05/06/2016 15:20      60.1      59.7       71     50.5      0.00      8.16      71.3     0.34      1012.0     4       285         5       321        8.85     268       62.6
   05/06/2016 15:10      60.1      59.8       72     51.0      0.00      8.16      71.2     0.34      1012.0     4       293         5       252        8.85     268       63.3
   05/06/2016 15:00      60.8      59.8       72     51.1      0.00      8.16      71.5     0.34      1012.0     4       258         7       260        8.85     268       69.2
   05/06/2016 14:50      60.6      59.9       72     51.2      0.00      8.16      71.5     0.34      1012.0     4       290         7       337        8.85     268       83.7
   05/06/2016 14:40      62.1      60.4       65     49.5      0.00      8.16      71.7     0.34      1012.0     5       224         7       235        8.85     268      103.1
   05/06/2016 14:30      61.9      61.6       58     47.0      0.00      8.16      71.3     0.34      1012.0     6       163         7       173        8.85     268      101.2
   05/06/2016 14:20      61.9      61.8       61     48.2      0.00      8.16      71.3     0.34      1011.0     6       170         9       167        8.85     269      117.2
   05/06/2016 14:10      61.9      61.4       63     49.2      0.00      8.16      71.5     0.34      1011.0     7       150        10       178        8.85     268      186.9
   05/06/2016 14:00      61.5      60.3       67     50.0      0.00      8.16      71.2     0.34      1011.0     6       197         8       189        8.85     269      227.7
   05/06/2016 13:50      61.1      60.1       70     50.4      0.00      8.16      71.1     0.34      1012.0     6       211        10       217        8.85     270      132.9
   05/06/2016 13:40      62.9      61.0       62     48.8      0.00      8.16      71.4     0.34      1012.0     7       185        10       154        8.85     272       90.7
   05/06/2016 13:30      63.5      63.0       56     47.2      0.00      8.16      71.2     0.34      1011.0     6       174         9       172        8.85     264       88.2
   05/06/2016 13:20      65.3      63.7       53     46.7      0.00      8.16      71.3     0.34      1012.0     7       163        10       156        8.85     264      164.3
   05/06/2016 13:10      65.8      65.0       52     47.5      0.00      8.16      71.2     0.34      1012.0     6       174         8       201        8.85     265      696.4
   05/06/2016 13:00      64.6      63.4       55     47.4      0.00      8.16      71.2     0.34      1012.0     7       138        10       135        8.85     266      576.7
   05/06/2016 12:50      65.2      63.7       55     47.9      0.00      8.16      71.1     0.34      1012.0     7       150        10       133        8.85     265      606.0
   05/06/2016 12:40      63.9      61.7       62     49.5      0.00      8.16      71.3     0.34      1012.0     5       150         7       156        8.85     266      773.1
   05/06/2016 12:30      61.9      61.1       63     48.6      0.00      8.16      71.3     0.34      1012.0     5       186         7       163        8.85     266      248.3
   05/06/2016 12:20      61.7      61.1       61     48.0      0.00      8.16      71.2     0.34      1012.0     6       223         8       231        8.86     265      171.8
   05/06/2016 12:10      63.7      61.9       57     47.3      0.00      8.16      71.3     0.34      1012.0     6       210         9       221        8.85     265      152.2
   05/06/2016 12:00      64.2      63.3       53     46.4      0.00      8.16      71.3     0.34      1012.0     4       187         7       174        8.86     266      213.5
   05/06/2016 11:50      63.7      62.8       53     45.9      0.00      8.16      71.2     0.34      1012.0     2       257         4       239        8.85     266      225.8
   05/06/2016 11:40      63.6      62.9       53     45.6      0.00      8.16      71.1     0.34      1012.0     2       190         5       186        8.86     266      251.1
   05/06/2016 11:30      63.9      62.5       54     46.5      0.00      8.16      71.6     0.34      1012.0     2         4         4       171        8.85     266      255.7
   05/06/2016 11:20      62.8      61.9       56     46.5      0.00      8.16      71.3     0.34      1012.0     2       232         4       176        8.85     266      257.4
   05/06/2016 11:10      62.7      61.8       57     46.8      0.00      8.16      71.2     0.34      1012.0     3       149         5       143        8.85     266      224.1
   05/06/2016 11:00      62.7      61.8       57     46.9      0.00      8.16      71.5     0.34      1012.0     3       144         6       119        8.85     266      196.8
   05/06/2016 10:50      62.4      61.3       57     46.5      0.00      8.16      71.5     0.34      1012.0     2        53         3       291        8.85     266      147.0
   05/06/2016 10:40      61.4      60.9       59     46.6      0.00      8.16      71.3     0.34      1012.0     1       109         4       113        8.85     266      126.3
   05/06/2016 10:30      61.0      60.6       60     46.7      0.00      8.16      71.3     0.34      1012.0     4       143         6       144        8.85     266      127.1
   05/06/2016 10:20      61.0      60.7       59     46.7      0.00      8.16      71.3     0.34      1012.0     3       119         4       145        8.86     266       70.6
   05/06/2016 10:10      61.4      61.0       59     47.0      0.00      8.16      71.6     0.34      1012.0     2       105         4       122        8.85     266       75.8
   05/06/2016 10:00      61.6      61.0       59     47.0      0.00      8.16      71.3     0.34      1012.0     2       105         3        39        8.85     266       88.2
   05/06/2016 09:50      62.3      61.5       58     47.2      0.00      8.16      71.3     0.34      1011.0     2         7         3       287        8.86     266      117.4
   05/06/2016 09:40      61.6      60.8       60     47.2      0.00      8.16      71.4     0.34      1011.0     2        25         4       359        8.86     266      131.7
   05/06/2016 09:30      61.1      60.5       61     47.0      0.00      8.16      71.3     0.34      1011.0     3       344         4       347        8.86     266      159.9
   05/06/2016 09:20      60.9      60.0       60     46.8      0.00      8.16      71.5     0.34      1011.0     2       316         3       350        8.88     266      215.4
   05/06/2016 09:10      60.9      60.0       61     46.8      0.00      8.16      71.6     0.34      1011.0     2       278         4       182        8.88     266      299.1
   05/06/2016 09:00      60.2      59.2       62     46.8      0.00      8.16      71.4     0.34      1011.0     2       307         3       309        8.88     266      196.6
   05/06/2016 08:50      59.4      58.9       64     47.1      0.00      8.16      71.5     0.34      1011.0     1       200         3       189        8.88     267      128.3
   05/06/2016 08:40      59.5      58.8       63     46.7      0.00      8.16      71.8     0.34      1011.0     1        94         3       122        8.88     266      121.9
   05/06/2016 08:30      58.9      58.6       65     47.2      0.00      8.16      71.5     0.34      1011.0     1       343         2         5        8.88     267      122.0
   05/06/2016 08:20      58.8      58.2       68     48.0      0.00      8.16      71.8     0.34      1011.0     2        54         3        66        8.88     266      111.6
   05/06/2016 08:10      58.3      57.4       71     48.3      0.00      8.16      71.8     0.34      1011.0     1        19         2        71        8.89     267      102.1
   05/06/2016 08:00      57.4      56.9       73     48.5      0.00      8.16      71.6     0.34      1011.0     1        64         2        74        8.89     267       39.8
   05/06/2016 07:50      57.4      56.5       74     48.6      0.00      8.16      71.6     0.34      1011.0     1       341         3       326        8.89     266       39.3
   05/06/2016 07:40      56.6      56.0       75     48.5      0.00      8.16      72.0     0.34      1011.0     1       164         2       158        8.89     266       49.0
   05/06/2016 07:30      56.0      55.3       77     48.5      0.00      8.16      71.9     0.34      1011.0     2       160         2       123        8.89     266       42.8
   05/06/2016 07:20      55.4      54.7       78     48.3      0.00      8.16      71.8     0.34      1011.0     1       179         2       178        8.89     267        1.1
   05/06/2016 07:10      54.9      54.5       78     48.0      0.00      8.16      71.7     0.34      1011.0     1       181         2       158        8.89     266      -11.8
   05/06/2016 07:00      54.6      54.2       79     47.9      0.00      8.16      71.8     0.34      1011.0     1       212         2       199        8.89     266      -21.8
   05/06/2016 06:50      54.6      54.4       78     47.9      0.00      8.16      71.9     0.34      1011.0     2       220         3       238        8.89     266      -35.5
   05/06/2016 06:40      54.8      54.5       78     48.0      0.00      8.16      71.9     0.34      1011.0     2       242         3       257        8.89     266      -39.7
   05/06/2016 06:30      54.7      54.5       79     48.0      0.00      8.16      72.1     0.34      1011.0     2       219         3       236        8.89     266      -32.8
   05/06/2016 06:20      54.6      54.0       79     48.2      0.00      8.16      71.9     0.34      1011.0     2       230         3       234        8.89     266      -21.9
   05/06/2016 06:10      54.1      53.5       81     48.1      0.00      8.16      72.0     0.34      1011.0     2       209         2       228        8.89     266      -19.3
   05/06/2016 06:00      54.2      53.6       81     48.0      0.00      8.16      72.2     0.34      1010.0     2       192         2       178        8.89     266      -28.6
   05/06/2016 05:50      54.5      54.3       80     48.3      0.00      8.16      72.1     0.34      1010.0     2       248         2       251        8.89     266      -51.3
   05/06/2016 05:40      54.6      54.4       80     48.4      0.00      8.16      71.8     0.34      1010.0     3       238         4       234        8.89     266      -40.2
   05/06/2016 05:30      54.7      54.5       80     48.5      0.00      8.16      72.2     0.34      1010.0     3       239         4       236        8.89     266      -34.0
   05/06/2016 05:20      54.9      54.6       79     48.3      0.00      8.16      72.4     0.34      1010.0     2       216         2       209        8.89     266      -34.9
   05/06/2016 05:10      55.2      54.9       78     48.2      0.00      8.16      72.1     0.34      1010.0     2       209         3       294        8.89     266      -34.8
   05/06/2016 05:00      55.5      55.3       75     47.7      0.00      8.16      72.2     0.34      1010.0     1       319         2       301        8.89     266      -34.0
   05/06/2016 04:50      55.5      55.2       75     47.7      0.00      8.16      72.2     0.34      1010.0     1       296         3       283        8.89     266      -32.0
   05/06/2016 04:40      55.2      55.1       75     47.4      0.00      8.16      72.4     0.34      1010.0     2       334         2         8        8.89     266      -34.4
   05/06/2016 04:30      55.2      54.8       75     47.3      0.00      8.16      72.3     0.34      1010.0     1        24         2        21        8.89     266      -29.3
   05/06/2016 04:20      55.1      54.7       75     47.3      0.00      8.16      72.3     0.34      1010.0     1       323         2       333        8.89     266      -26.1
   05/06/2016 04:10      54.8      54.6       75     47.0      0.00      8.16      72.3     0.34      1010.0     1       166         2       159        8.89     266      -28.4
   05/06/2016 04:00      54.7      54.5       75     47.0      0.00      8.16      72.1     0.34      1010.0     1        96         2       166        8.89     266      -24.5
   05/06/2016 03:50      54.6      54.2       76     46.9      0.00      8.16      72.3     0.35      1010.0     1        76         1        54        8.89     266      -23.2
   05/06/2016 03:40      54.3      54.0       76     46.7      0.00      8.16      72.3     0.35      1010.0     1       140         2       110        8.89     266      -22.3
   05/06/2016 03:30      54.3      54.0       75     46.6      0.00      8.16      72.7     0.35      1010.0     1       144         1       125        8.89     266      -27.6
   05/06/2016 03:20      54.5      54.3       75     46.7      0.00      8.16      72.5     0.35      1010.0     1       206         1       206        8.89     266      -35.8
   05/06/2016 03:10      54.6      54.2       75     46.6      0.00      8.16      72.6     0.35      1010.0     2       209         2       253        8.89     266      -34.5
   05/06/2016 03:00      54.4      54.1       75     46.5      0.00      8.16      72.3     0.35      1010.0     1       203         2       214        8.89     266      -28.7
   05/06/2016 02:50      54.4      54.0       75     46.3      0.00      8.16      72.4     0.35      1010.0     2       211         2       216        8.90     266      -28.7
   05/06/2016 02:40      54.2      53.2       76     46.3      0.00      8.16      72.6     0.35      1010.0     2       205         3       221        8.89     266      -27.5
   05/06/2016 02:30      53.1      52.1       78     46.0      0.00      8.16      72.2     0.35      1011.0     2       190         2       180        8.90     266      -23.5
   05/06/2016 02:20      52.0      51.2       81     46.1      0.00      8.16      72.6     0.35      1011.0     2       193         3       206        8.90     266      -25.1
   05/06/2016 02:10      51.5      51.2       82     45.9      0.00      8.16      72.7     0.35      1011.0     1       170         2       190        8.90     266      -35.7
   05/06/2016 02:00      51.4      51.1       82     46.0      0.00      8.16      72.7     0.35      1011.0     1       163         2       148        8.90     266      -52.5
   05/06/2016 01:50      51.6      51.1       83     46.6      0.00      8.16      72.8     0.35      1011.0     1       146         2       142        8.90     266      -61.1
   05/06/2016 01:40      51.8      51.6       82     46.5      0.00      8.16      72.8     0.35      1011.0     1       146         2       129        8.89     266      -62.4
   05/06/2016 01:30      51.9      51.7       83     46.7      0.00      8.16      72.6     0.35      1011.0     1       159         2       136        8.90     265      -62.7
   05/06/2016 01:20      52.5      52.0       82     47.1      0.00      8.16      72.6     0.35      1011.0     1       161         2       147        8.90     265      -63.1
   05/06/2016 01:10      52.6      52.4       81     47.0      0.00      8.16      72.7     0.35      1011.0     1       148         1       123        8.90     265      -64.0
   05/06/2016 01:00      52.7      52.5       80     46.8      0.00      8.16      72.8     0.35      1011.0     1       162         1       155        8.90     265      -65.5
   05/06/2016 00:50      53.3      52.7       79     46.6      0.00      8.16      72.8     0.35      1011.0     2       145         2       140        8.90     265      -63.4
   05/06/2016 00:40      53.7      53.4       78     46.9      0.00      8.16      73.2     0.35      1011.0     2       144         3       143        8.90     265      -63.3
   05/06/2016 00:30      54.3      53.7       77     46.8      0.00      8.16      73.0     0.35      1011.0     1       176         2       134        8.90     265      -66.5
   05/06/2016 00:20      55.3      54.3       75     46.9      0.00      8.16      72.9     0.35      1011.0     1       191         2       201        8.90     265      -67.9
   05/06/2016 00:10      56.2      55.6       73     47.4      0.00      8.16      72.8     0.35      1011.0     0       136         2       208        8.90     265      -68.8
   05/06/2016 00:00      57.1      56.5       71     47.6      0.00      8.16      73.1     0.35      1012.0     1        75         1        40        8.90     265      -69.8
   05/05/2016 23:50      57.5      57.1       70     47.7      0.00      8.16      72.8     0.35      1012.0     1        50         2        15        8.90     265      -58.5
   05/05/2016 23:40      57.9      57.5       67     46.9      0.00      8.16      72.7     0.35      1012.0     2        17         2       359        8.90     265      -51.4
   05/05/2016 23:30      58.0      57.6       66     46.5      0.00      8.16      73.2     0.35      1012.0     3       353         4       334        8.90     265      -40.9
   05/05/2016 23:20      58.2      58.0       63     45.5      0.00      8.16      73.2     0.35      1012.0     2       355         4       331        8.90     265      -36.8
   05/05/2016 23:10      58.1      57.8       62     45.0      0.00      8.16      73.0     0.35      1012.0     1       340         2       337        8.90     265      -35.0
   05/05/2016 23:00      58.0      57.7       62     45.0      0.00      8.16      73.0     0.35      1012.0     2       224         3       287        8.90     265      -27.2
   05/05/2016 22:50      58.0      57.8       61     44.7      0.00      8.16      73.0     0.35      1012.0     2       204         3       215        8.90     265      -23.7
   05/05/2016 22:40      58.0      57.6       62     44.8      0.00      8.16      73.1     0.35      1012.0     2       195         3       158        8.90     265      -22.7
   05/05/2016 22:30      57.7      57.5       62     44.7      0.00      8.16      73.1     0.35      1012.0     3       170         4       162        8.90     265      -22.4
   05/05/2016 22:20      58.0      57.6       62     44.7      0.00      8.16      73.0     0.35      1012.0     3       176         5       146        8.90     265      -22.5
   05/05/2016 22:10      58.0      57.5       62     44.7      0.00      8.16      73.2     0.35      1012.0     3       182         4       194        8.90     265      -22.4
   05/05/2016 22:00      58.3      58.0       61     44.7      0.00      8.16      73.0     0.35      1012.0     4       155         5       190        8.90     265      -22.5
   05/05/2016 21:50      58.5      58.2       60     44.6      0.00      8.16      73.2     0.35      1012.0     3       146         5       125        8.90     265      -24.4
   05/05/2016 21:40      58.6      58.3       60     44.6      0.00      8.16      73.3     0.35      1011.0     2       172         2       139        8.90     265      -28.4
   05/05/2016 21:30      58.7      58.3       60     44.8      0.00      8.16      73.0     0.35      1011.0     2       177         3       166        8.90     265      -26.9
   05/05/2016 21:20      58.6      58.3       60     44.7      0.00      8.16      73.1     0.35      1011.0     1       166         2       153        8.91     265      -25.3
   05/05/2016 21:10      58.5      58.3       60     44.6      0.00      8.16      73.5     0.35      1011.0     3       161         5       184        8.91     265      -26.0
   05/05/2016 21:00      58.5      58.2       60     44.7      0.00      8.16      73.1     0.35      1011.0     3       209         4       175        8.91     265      -30.0
   05/05/2016 20:50      58.5      58.1       60     44.5      0.00      8.16      73.2     0.35      1011.0     3       176         5       202        8.91     265      -37.6
   05/05/2016 20:40      58.5      58.3       60     44.4      0.00      8.16      73.0     0.35      1011.0     4       179         6       159        8.91     265      -28.6
   05/05/2016 20:30      58.5      58.3       59     44.0      0.00      8.16      73.3     0.35      1011.0     4       187         6       203        8.91     265      -26.2
   05/05/2016 20:20      58.8      58.6       59     44.3      0.00      8.16      73.3     0.35      1011.0     4       187         6       208        8.91     265      -26.4
   05/05/2016 20:10      58.8      58.6       60     44.9      0.00      8.16      73.2     0.35      1011.0     3       219         4       221        8.91     265      -25.9
   05/05/2016 20:00      58.8      58.6       61     45.3      0.00      8.16      73.1     0.35      1011.0     3       204         4       215        8.91     265      -25.6
   05/05/2016 19:50      58.9      58.6       62     45.7      0.00      8.16      73.0     0.35      1011.0     2       180         4       173        8.92     265      -31.4
   05/05/2016 19:40      58.9      58.5       62     45.8      0.00      8.16      73.3     0.35      1011.0     4       159         6       158        8.92     265      -27.7
   05/05/2016 19:30      59.1      58.6       61     45.7      0.00      8.16      72.9     0.35      1011.0     4       159         5       148        8.92     265      -20.3
   05/05/2016 19:20      59.1      58.9       60     45.1      0.00      8.16      73.1     0.35      1011.0     4       159         6       146        8.92     265      -18.7
   05/05/2016 19:10      59.4      59.1       60     45.4      0.00      8.16      73.1     0.35      1011.0     4       168         5       139        8.92     265      -14.7
   05/05/2016 19:00      59.5      59.1       61     46.0      0.00      8.16      73.3     0.35      1011.0     4       179         6       190        8.92     265      -13.0
   05/05/2016 18:50      59.6      59.2       61     45.9      0.00      8.16      73.2     0.35      1011.0     6       167         9       127        8.93     265      -14.5
   05/05/2016 18:40      59.9      59.7       60     45.8      0.00      8.16      72.7     0.35      1011.0     5       173         7       168        8.93     265      -12.5
   05/05/2016 18:30      60.4      59.9       59     45.8      0.00      8.16      73.3     0.35      1011.0     5       172         7       140        8.93     265       -4.1
   05/05/2016 18:20      60.9      60.4       59     46.2      0.00      8.16      72.9     0.35      1011.0     5       174         9       171        8.93     265       19.6
   05/05/2016 18:10      60.9      60.5       60     46.9      0.00      8.16      73.0     0.35      1011.0     4       178         6       147        8.93     265       35.1
   05/05/2016 18:00      61.0      59.9       62     47.2      0.00      8.16      72.9     0.35      1011.0     4       176         7       194        8.94     265       61.3
   05/05/2016 17:50      60.3      60.0       62     47.3      0.00      8.16      73.2     0.35      1011.0     6       165         9       181        8.94     265       72.5
   05/05/2016 17:40      60.8      59.9       63     47.8      0.00      8.16      73.1     0.35      1011.0     7       174         9       149        8.94     265       60.4
   05/05/2016 17:30      61.0      60.6       61     47.4      0.00      8.16      73.1     0.35      1011.0     6       147         8       181        8.94     265       45.7
   05/05/2016 17:20      61.3      61.0       59     47.0      0.00      8.16      73.0     0.35      1011.0     6       150         8       166        8.94     265       45.9
   05/05/2016 17:10      61.4      61.1       61     47.5      0.00      8.16      72.9     0.35      1011.0     6       148        11       125        8.94     264       53.1
   05/05/2016 17:00      61.7      61.3       62     48.3      0.00      8.16      72.6     0.35      1011.0     7       158        12       181        8.95     265       66.5
   05/05/2016 16:50      62.0      61.2       61     48.0      0.00      8.16      72.8     0.35      1011.0     7       164        13       165        8.95     265      132.4
   05/05/2016 16:40      62.5      62.2       59     47.8      0.00      8.16      72.9     0.35      1011.0     7       174        11       152        8.95     264      108.5
   05/05/2016 16:30      63.7      62.7       57     47.5      0.00      8.16      72.8     0.35      1011.0     8       153        11       162        8.95     264      115.0
   05/05/2016 16:20      63.9      63.5       55     47.3      0.00      8.16      73.1     0.35      1011.0     6       170         9       169        8.96     265      151.7
   05/05/2016 16:10      64.6      63.9       53     46.7      0.00      8.16      72.9     0.35      1011.0     7       169        11       158        8.96     265      172.7
   05/05/2016 16:00      65.3      64.7       50     45.7      0.00      8.16      72.8     0.35      1011.0     6       144        12       148        8.96     265      218.0
   05/05/2016 15:50      65.5      64.5       49     45.4      0.00      8.16      72.8     0.35      1012.0     5       144         9       159        8.96     265      272.7
   05/05/2016 15:40      65.2      64.4       52     46.6      0.00      8.16      72.8     0.35      1012.0     4       182         6       178        8.97     265      252.3
   05/05/2016 15:30      65.0      64.4       51     46.1      0.00      8.16      72.9     0.35      1012.0     4       137         8       135        8.97     265      227.3
   05/05/2016 15:20      64.5      64.2       51     46.0      0.00      8.16      72.8     0.35      1012.0     5       137         7       116        8.97     265      224.6
   05/05/2016 15:10      64.7      63.8       52     46.0      0.00      8.16      72.6     0.35      1012.0     4       115         9       136        8.97     265      178.5
   05/05/2016 15:00      64.2      63.7       51     45.6      0.00      8.16      72.9     0.35      1012.0     5       120         8       142        8.98     265      129.5
   05/05/2016 14:50      64.0      63.5       50     45.0      0.00      8.16      73.2     0.35      1012.0     3        98         5        78        8.98     265      119.6
   05/05/2016 14:40      64.5      63.5       51     45.4      0.00      8.16      73.0     0.35      1012.0     4       142         6       136        8.98     265      151.3
   05/05/2016 14:30      63.7      63.3       52     45.4      0.00      8.16      73.0     0.35      1012.0     3       145         5       141        8.98     265      184.6
   05/05/2016 14:20      63.7      62.5       54     45.9      0.00      8.16      72.7     0.35      1013.0     4       188         8       227        8.98     265      113.6
   05/05/2016 14:10      62.5      62.3       56     46.7      0.00      8.16      72.9     0.35      1013.0     5       183         8       173        8.98     264       89.0
   05/05/2016 14:00      62.5      62.3       56     46.7      0.00      8.16      72.8     0.35      1013.0     6       184         7       145        8.98     264      118.6
   05/05/2016 13:50      63.2      62.4       56     46.9      0.00      8.16      72.6     0.34      1013.0     6       173        11       177        8.99     264      154.8
   05/05/2016 13:40      63.5      62.9       55     46.9      0.00      8.16      72.8     0.34      1013.0     7       183         9       185        8.99     264      239.4
   05/05/2016 13:30      64.0      63.4       53     46.3      0.00      8.16      72.9     0.34      1013.0     8       148        10       157        8.99     264      268.7
   05/05/2016 13:20      64.6      63.8       53     46.6      0.00      8.16      72.4     0.34      1013.0     7       154         9       175        8.99     264      324.8
   05/05/2016 13:10      64.9      63.9       53     46.6      0.00      8.16      72.9     0.34      1013.0     6       175         9       190        8.99     264      349.1
   05/05/2016 13:00      64.3      63.7       53     46.5      0.00      8.16      72.7     0.34      1013.0     6       168         9       182        8.99     264      357.2
   05/05/2016 12:50      64.7      63.7       53     46.7      0.00      8.16      72.8     0.34      1013.0     8       159        10       156        8.99     265      394.5
   05/05/2016 12:40      66.2      65.0       51     47.0      0.00      8.16      72.7     0.34      1013.0     8       158        10       164        8.99     264      559.4
   05/05/2016 12:30      66.0      64.5       51     46.5      0.00      8.16      72.8     0.34      1013.0     7       157         9       132        8.99     265      554.6
   05/05/2016 12:20      65.2      64.3       51     46.0      0.00      8.16      72.9     0.35      1013.0     7       167        11       156        8.99     265      402.9
   05/05/2016 12:10      64.5      63.6       51     45.7      0.00      8.16      72.5     0.35      1013.0     5       173         8       149        8.99     265      416.6
   05/05/2016 12:00      63.8      63.3       53     46.1      0.00      8.16      72.7     0.35      1013.0     5       167         7       161        8.99     265      274.2
   05/05/2016 11:50      63.4      62.6       54     46.1      0.00      8.16      72.7     0.35      1013.0     5       159         6       116        8.99     265      208.2
   05/05/2016 11:40      63.1      62.3       56     46.7      0.00      8.16      72.5     0.35      1013.0     4       161         7       148        8.99     265      126.7
   05/05/2016 11:30      62.5      61.8       57     46.7      0.00      8.16      72.7     0.35      1013.0     4       198         5       217        9.00     265       73.2
   05/05/2016 11:20      62.5      62.0       57     46.7      0.00      8.16      72.5     0.35      1013.0     4       186         6       201        8.99     265       38.5
   05/05/2016 11:10      62.7      62.0       55     45.9      0.00      8.16      72.8     0.35      1012.0     4       226         7       232        9.00     265       51.5
   05/05/2016 11:00      62.6      62.3       54     45.7      0.00      8.16      72.7     0.35      1012.0     4       227         7       278        9.00     265       86.3
   05/05/2016 10:50      63.4      63.2       52     45.3      0.00      8.16      72.8     0.35      1012.0     3       141         5       195        9.02     265      138.4
   05/05/2016 10:40      63.5      62.9       52     45.4      0.00      8.16      72.7     0.35      1012.0     3       171         5       139        9.02     265      174.6
   05/05/2016 10:30      63.0      62.2       53     45.1      0.00      8.16      72.6     0.35      1012.0     3       151         5       135        9.02     265      267.3
   05/05/2016 10:20      62.8      62.3       53     45.0      0.00      8.16      72.8     0.35      1012.0     3       146         5       146        9.02     265      187.0
   05/05/2016 10:10      62.8      62.2       53     45.0      0.00      8.16      72.8     0.35      1012.0     3       117         6       181        9.02     266      153.4
   05/05/2016 10:00      62.8      62.3       53     45.3      0.00      8.16      72.7     0.35      1012.0     5       170         8       199        9.02     265      258.5
   05/05/2016 09:50      62.3      61.3       56     45.9      0.00      8.16      72.9     0.35      1012.0     2       147         4       167        9.02     266      206.5
   05/05/2016 09:40      61.9      61.3       56     46.0      0.00      8.16      73.2     0.35      1012.0     3       145         6       142        9.02     266      200.8
   05/05/2016 09:30      61.3      60.8       58     46.2      0.00      8.16      73.0     0.35      1013.0     3       173         5       170        9.02     266      255.6
   05/05/2016 09:20      60.9      60.4       60     46.7      0.00      8.16      72.7     0.35      1013.0     3       155         4       163        9.02     266      215.5
   05/05/2016 09:10      60.6      60.1       61     46.7      0.00      8.16      72.8     0.35      1013.0     2       217         4       178        9.02     266      137.8
   05/05/2016 09:00      60.4      59.9       62     47.2      0.00      8.16      73.1     0.35      1013.0     3       222         4       211        9.02     266      161.8
   05/05/2016 08:50      60.3      59.5       64     47.7      0.00      8.16      73.0     0.35      1013.0     2       155         4       202        9.03     266      144.6
   05/05/2016 08:40      60.3      59.4       64     47.7      0.00      8.16      72.9     0.35      1013.0     1       239         4       224        9.03     266      120.8
   05/05/2016 08:30      59.5      59.2       65     47.8      0.00      8.16      73.0     0.35      1013.0     2       204         4       176        9.03     266      117.7
   05/05/2016 08:20      59.3      58.8       67     48.2      0.00      8.16      72.8     0.35      1013.0     3       140         4       163        9.03     266      100.8
   05/05/2016 08:10      59.1      58.6       68     48.5      0.00      8.16      73.2     0.35      1013.0     2       119         2       190        9.03     266       87.4
   05/05/2016 08:00      58.9      58.0       69     48.4      0.00      8.16      73.0     0.35      1013.0     1       135         2       120        9.03     266       75.8
   05/05/2016 07:50      58.3      58.1       70     48.4      0.00      8.16      73.0     0.35      1013.0     2       106         2        31        9.03     266       62.4
   05/05/2016 07:40      58.3      57.7       71     48.5      0.00      8.16      73.1     0.35      1013.0     1       339         1       353        9.03     266       46.1
   05/05/2016 07:30      58.0      57.6       71     48.6      0.00      8.16      73.2     0.35      1013.0     1       104         2        99        9.03     266       35.5
   05/05/2016 07:20      57.7      57.4       72     48.6      0.00      8.16      73.3     0.35      1013.0     1       348         2       357        9.03     266       27.6
   05/05/2016 07:10      57.5      57.1       72     48.5      0.00      8.16      73.2     0.35      1013.0     1       250         2       291        9.03     266       15.8
   05/05/2016 07:00      57.2      56.9       73     48.5      0.00      8.16      73.1     0.35      1013.0     0        49         1        60        9.03     266        3.9
   05/05/2016 06:50      57.0      56.7       74     48.5      0.00      8.16      73.4     0.35      1012.0     1       198         2       204        9.03     266       -3.8
   05/05/2016 06:40      56.8      56.5       74     48.4      0.00      8.16      73.2     0.35      1012.0     1       161         1       194        9.03     266      -11.5
   05/05/2016 06:30      56.6      56.5       74     48.3      0.00      8.16      73.5     0.35      1012.0     1       141         1       152        9.03     266      -16.1
   05/05/2016 06:20      56.6      56.4       74     48.3      0.00      8.16      73.3     0.35      1012.0     1       163         1       150        9.03     266      -19.0
   05/05/2016 06:10      56.5      56.3       74     48.3      0.00      8.16      73.3     0.35      1012.0     1       187         1       189        9.03     266      -21.3
   05/05/2016 06:00      56.6      56.4       74     48.4      0.00      8.16      73.5     0.35      1012.0     0        88         1       174        9.03     266      -22.1
   05/05/2016 05:50      56.6      56.2       74     48.3      0.00      8.16      73.4     0.35      1012.0     0        96         1       168        9.03     266      -23.0
   05/05/2016 05:40      56.5      56.1       75     48.3      0.00      8.16      73.5     0.35      1012.0     1       184         1       178        9.03     266      -22.9
   05/05/2016 05:30      56.3      55.9       75     48.3      0.00      8.16      73.6     0.35      1012.0     1       238         2       221        9.03     266      -22.8
   05/05/2016 05:20      56.1      55.8       75     48.3      0.00      8.16      73.5     0.35      1012.0     1       196         2       198        9.03     266      -23.4
   05/05/2016 05:10      56.1      55.9       75     48.4      0.00      8.16      73.6     0.35      1012.0     2       216         3       208        9.03     266      -23.1
   05/05/2016 05:00      56.0      55.8       76     48.5      0.00      8.16      73.7     0.35      1012.0     1       190         2       172        9.04     266      -23.1
   05/05/2016 04:50      56.1      55.8       76     48.5      0.00      8.16      73.6     0.35      1012.0     1       218         2       222        9.04     266      -23.9
   05/05/2016 04:40      56.0      55.8       76     48.6      0.00      8.16      73.6     0.35      1012.0     1       190         2       205        9.04     265      -23.9
   05/05/2016 04:30      56.0      55.7       76     48.5      0.00      8.16      73.6     0.35      1012.0     2       177         3       158        9.04     266      -22.4
   05/05/2016 04:20      56.1      55.9       76     48.4      0.00      8.16      73.5     0.35      1012.0     3       157         3       160        9.04     265      -22.7
   05/05/2016 04:10      56.2      55.8       75     48.3      0.00      8.16      73.6     0.35      1012.0     1       199         3       223        9.04     265      -22.9
   05/05/2016 04:00      56.0      55.8       76     48.4      0.00      8.16      73.6     0.35      1012.0     2       164         3       206        9.04     265      -22.4
   05/05/2016 03:50      56.0      55.5       76     48.4      0.00      8.16      73.8     0.35      1013.0     2       221         4       200        9.04     265      -22.2
   05/05/2016 03:40      55.8      55.6       76     48.3      0.00      8.16      73.9     0.35      1013.0     2       198         4       186        9.04     265      -21.6
   05/05/2016 03:30      55.9      55.5       76     48.4      0.00      8.16      73.9     0.35      1012.0     2       210         3       229        9.04     265      -21.2
   05/05/2016 03:20      55.7      55.5       77     48.4      0.00      8.16      73.8     0.35      1012.0     4       228         6       230        9.04     265      -20.9
   05/05/2016 03:10      55.9      55.6       76     48.3      0.00      8.16      73.9     0.35      1012.0     5       228         8       228        9.04     265      -21.4
   05/05/2016 03:00      56.0      55.8       76     48.4      0.00      8.16      74.0     0.35      1012.0     3       225         4       232        9.04     265      -21.9
   05/05/2016 02:50      56.0      55.8       76     48.3      0.00      8.16      74.0     0.35      1012.0     5       229         7       238        9.04     265      -22.2
   05/05/2016 02:40      55.9      55.6       76     48.3      0.00      8.16      73.9     0.35      1013.0     4       215         6       210        9.04     265      -22.0
   05/05/2016 02:30      56.1      55.8       75     48.2      0.00      8.16      74.0     0.35      1013.0     4       205         6       207        9.04     265      -22.3
   05/05/2016 02:20      56.1      55.8       75     48.3      0.00      8.16      73.7     0.35      1013.0     3       205         4       201        9.05     265      -22.3
   05/05/2016 02:10      56.0      55.8       76     48.4      0.00      8.16      74.1     0.35      1013.0     3       193         5       187        9.05     265      -25.3
   05/05/2016 02:00      56.1      56.0       75     48.3      0.00      8.16      74.0     0.35      1013.0     2       184         3       154        9.05     265      -31.1
   05/05/2016 01:50      56.3      56.1       74     48.0      0.00      8.16      74.0     0.35      1013.0     2       212         4       227        9.05     265      -37.5
   05/05/2016 01:40      56.4      56.2       74     48.1      0.00      8.16      74.0     0.35      1013.0     3       219         4       219        9.05     265      -32.0
   05/05/2016 01:30      56.4      56.1       74     48.2      0.00      8.16      73.9     0.35      1013.0     3       200         4       193        9.05     265      -37.8
   05/05/2016 01:20      56.4      56.2       75     48.4      0.00      8.16      74.0     0.35      1013.0     2       210         3       195        9.05     265      -36.0
   05/05/2016 01:10      56.5      56.4       75     48.7      0.00      8.16      74.3     0.35      1013.0     3       209         4       184        9.05     265      -29.2
   05/05/2016 01:00      56.6      56.4       75     48.7      0.00      8.16      74.2     0.35      1013.0     3       206         5       205        9.05     265      -22.7
   05/05/2016 00:50      56.6      56.4       76     49.0      0.00      8.16      74.4     0.35      1013.0     2       196         5       205        9.05     265      -20.7
   05/05/2016 00:40      56.6      56.3       76     49.0      0.00      8.16      73.8     0.35      1013.0     3       165         4       162        9.05     265      -21.2
   05/05/2016 00:30      56.6      56.4       76     49.1      0.00      8.16      74.3     0.35      1013.0     3       185         3       212        9.05     265      -21.9
   05/05/2016 00:20      56.5      56.3       76     49.1      0.00      8.16      74.1     0.35      1013.0     4       205         5       215        9.06     265      -21.8
   05/05/2016 00:10      56.4      56.1       77     49.1      0.00      8.16      74.3     0.35      1013.0     3       179         4       178        9.06     265      -21.8
   05/05/2016 00:00      56.5      56.3       77     49.2      0.00      8.16      74.1     0.35      1013.0     3       174         5       157        9.06     265      -22.1
   05/04/2016 23:50      56.5      56.3       77     49.2      0.00      8.16      74.2     0.35      1013.0     4       178         5       195        9.06     265      -21.9
   05/04/2016 23:40      56.5      56.3       77     49.2      0.00      8.16      74.2     0.35      1014.0     3       178         4       192        9.06     265      -21.8
   05/04/2016 23:30      56.5      56.3       77     49.3      0.00      8.16      74.3     0.35      1014.0     4       173         5       159        9.06     265      -21.3
   05/04/2016 23:20      56.6      56.4       76     49.1      0.00      8.16      74.3     0.35      1014.0     3       178         5       166        9.07     265      -21.1
   05/04/2016 23:10      56.5      56.1       77     49.0      0.00      8.16      74.3     0.35      1014.0     4       175         6       161        9.07     265      -21.3
   05/04/2016 23:00      56.5      56.1       77     49.1      0.00      8.16      74.1     0.35      1014.0     5       167         8       174        9.07     265      -21.4
   05/04/2016 22:50      56.6      56.5       75     48.7      0.00      8.16      74.4     0.35      1014.0     3       176         5       169        9.07     265      -21.4
   05/04/2016 22:40      56.6      56.4       75     48.6      0.00      8.16      74.5     0.35      1014.0     4       187         6       173        9.07     265      -23.8
   05/04/2016 22:30      56.5      56.2       76     48.7      0.00      8.16      74.2     0.35      1014.0     4       180         7       156        9.08     265      -22.4
   05/04/2016 22:20      56.5      56.1       76     48.7      0.00      8.16      74.3     0.35      1014.0     4       166         6       163        9.08     265      -33.1
   05/04/2016 22:10      56.4      56.1       76     48.8      0.00      8.16      74.0     0.35      1013.0     4       172         6       158        9.08     265      -51.8
   05/04/2016 22:00      56.6      56.3       76     48.9      0.00      8.16      74.2     0.35      1013.0     3       172         5       179        9.08     265      -64.4
   05/04/2016 21:50      56.6      56.5       76     48.9      0.00      8.16      74.3     0.35      1013.0     4       178         5       180        9.08     265      -58.5
   05/04/2016 21:40      56.8      56.6       75     49.1      0.00      8.16      74.3     0.35      1013.0     3       167         4       165        9.08     265      -65.1
   05/04/2016 21:30      56.9      56.6       76     49.2      0.00      8.16      74.4     0.35      1013.0     4       169         5       162        9.08     264      -69.3
   05/04/2016 21:20      57.1      56.7       76     49.4      0.00      8.16      74.3     0.35      1013.0     3       176         4       174        9.09     265      -71.3
   05/04/2016 21:10      57.1      56.9       76     49.6      0.00      8.16      74.0     0.35      1013.0     3       174         5       178        9.09     264      -70.1
   05/04/2016 21:00      57.5      57.1       76     49.7      0.00      8.16      74.2     0.35      1013.0     5       167         6       152        9.09     264      -71.5
   05/04/2016 20:50      57.7      57.5       75     49.7      0.00      8.16      74.4     0.35      1013.0     4       166         5       181        9.09     264      -75.0
   05/04/2016 20:40      58.2      57.8       74     49.6      0.00      8.16      74.2     0.35      1013.0     4       172         5       136        9.09     264      -76.0
   05/04/2016 20:30      58.4      58.3       73     49.8      0.00      8.16      74.1     0.35      1013.0     3       187         4       169        9.09     264      -75.4
   05/04/2016 20:20      58.7      58.4       73     49.8      0.00      8.16      74.2     0.35      1012.0     3       179         5       157        9.09     264      -74.1
   05/04/2016 20:10      59.4      58.9       72     50.2      0.00      8.16      74.3     0.35      1012.0     4       176         5       144        9.09     264      -74.1
   05/04/2016 20:00      59.9      59.6       71     50.4      0.00      8.16      74.2     0.35      1012.0     4       178         5       141        9.10     264      -74.3
   05/04/2016 19:50      60.3      60.0       70     50.4      0.00      8.16      74.1     0.35      1012.0     3       168         4       156        9.10     264      -71.8
   05/04/2016 19:40      60.8      60.2       69     50.3      0.00      8.16      73.9     0.35      1012.0     5       158         6       157        9.10     264      -64.8
   05/04/2016 19:30      62.0      61.1       66     50.3      0.00      8.16      73.8     0.35      1012.0     6       162         8       144        9.10     264      -56.5
   05/04/2016 19:20      64.6      62.3       63     50.6      0.00      8.16      74.1     0.35      1011.0     6       185         8       183        9.10     264      -52.0
   05/04/2016 19:10      65.5      64.8       61     51.1      0.00      8.16      73.9     0.35      1011.0     4       169         6       151        9.10     264      -37.7
   05/04/2016 19:00      65.8      65.2       60     51.3      0.00      8.16      73.9     0.35      1011.0     4       138         7       163        9.10     264      -18.1
   05/04/2016 18:50      66.6      65.9       59     51.5      0.00      8.16      73.9     0.35      1011.0     5       132         7       133        9.11     264        6.8
   05/04/2016 18:40      66.9      66.6       58     51.5      0.00      8.16      73.7     0.35      1011.0     4       169         7       174        9.11     264       10.4
   05/04/2016 18:30      67.2      66.9       57     51.5      0.00      8.16      73.9     0.35      1011.0     6       164         7       171        9.11     264        7.9
   05/04/2016 18:20      68.7      67.2       55     51.1      0.00      8.16      73.8     0.35      1011.0     7       162         8       158        9.11     264        3.1
   05/04/2016 18:10      70.1      69.0       50     50.2      0.00      8.16      73.6     0.35      1011.0     7       168         8       175        9.12     264      101.6
   05/04/2016 18:00      70.7      70.1       48     49.5      0.00      8.16      73.7     0.35      1011.0     7       164        10       172        9.12     264       62.5
   05/04/2016 17:50      72.4      70.6       47     50.0      0.00      8.16      73.6     0.35      1011.0     7       170        10       176        9.13     264       97.8
   05/04/2016 17:40      73.9      72.5       46     51.2      0.00      8.16      73.7     0.35      1011.0     5       168         7       187        9.13     264      122.5
   05/04/2016 17:30      74.7      73.8       44     51.0      0.00      8.16      73.6     0.35      1011.0     2       193         5       169        9.14     264      159.8
   05/04/2016 17:20      75.5      75.0       43     51.1      0.00      8.16      73.5     0.35      1011.0     3        20         5        21        9.14     264      185.9
   05/04/2016 17:10      75.2      74.5       45     51.9      0.00      8.16      73.4     0.35      1011.0     3        30         5       335        9.14     264      212.8
   05/04/2016 17:00      74.7      74.3       45     51.8      0.00      8.16      73.4     0.35      1011.0     4       349         6       344        9.14     264      229.1
   05/04/2016 16:50      75.0      73.4       43     50.5      0.00      8.16      73.5     0.35      1011.0     2       213         4       298        9.15     264      242.1
   05/04/2016 16:40      75.4      72.9       45     51.2      0.00      8.16      73.5     0.35      1011.0     4       235         5       184        9.15     264      286.6
   05/04/2016 16:30      75.6      74.1       46     52.3      0.00      8.16      73.2     0.35      1011.0     2       356         5        14        9.15     264      285.1
   05/04/2016 16:20      73.7      72.7       46     51.4      0.00      8.16      73.2     0.35      1011.0     3       146         5       195        9.15     264      322.9
   05/04/2016 16:10      73.4      72.4       47     51.5      0.00      8.16      73.2     0.35      1011.0     3       197         6       183        9.15     264      361.2
   05/04/2016 16:00      73.5      71.6       49     51.9      0.00      8.16      73.0     0.35      1011.0     3       209         8       212        9.15     264      381.0
   05/04/2016 15:50      73.2      71.8       49     52.2      0.00      8.16      73.0     0.35      1011.0     4       255         6       258        9.16     264      396.7
   05/04/2016 15:40      73.5      72.6       48     52.3      0.00      8.16      72.9     0.35      1012.0     5       240         8       247        9.16     264      413.1
   05/04/2016 15:30      73.5      72.6       48     52.0      0.00      8.16      73.0     0.35      1012.0     5       180         7       191        9.16     264      425.9
   05/04/2016 15:20      73.2      72.3       48     51.8      0.00      8.16      73.0     0.35      1012.0     6       171         9       139        9.16     264      422.7
   05/04/2016 15:10      73.3      71.5       48     51.6      0.00      8.16      73.1     0.34      1012.0     6       178         9       145        9.17     264      464.2
   05/04/2016 15:00      73.2      72.3       48     51.7      0.00      8.16      72.9     0.34      1012.0     6       172         9       133        9.17     264      465.2
   05/04/2016 14:50      73.3      72.2       48     51.9      0.00      8.16      72.8     0.34      1012.0     5       184         7       152        9.17     264      473.2
   05/04/2016 14:40      72.5      71.9       49     52.0      0.00      8.16      72.8     0.34      1012.0     5       222         8       210        9.17     264      503.7
   05/04/2016 14:30      73.8      72.0       48     52.3      0.00      8.16      72.9     0.34      1012.0     6       220         7       215        9.17     264      511.3
   05/04/2016 14:20      73.4      72.6       49     52.5      0.00      8.16      73.0     0.34      1012.0     5       160         8       172        9.17     264      529.0
   05/04/2016 14:10      73.5      72.5       49     53.1      0.00      8.16      72.7     0.34      1012.0     5       152         8       126        9.18     265      523.4
   05/04/2016 14:00      73.6      72.9       50     53.7      0.00      8.16      73.0     0.34      1012.0     3       128         6       190        9.18     265      551.6
   05/04/2016 13:50      74.2      72.8       51     54.0      0.00      8.16      72.5     0.34      1012.0     3        94         4        86        9.18     265      537.5
   05/04/2016 13:40      73.8      73.0       51     54.2      0.00      8.16      72.7     0.34      1013.0     4        52         7        71        9.18     265      568.1
   05/04/2016 13:30      73.2      71.7       53     54.3      0.00      8.16      72.7     0.34      1013.0     4        44         5       318        9.18     265      594.8
   05/04/2016 13:20      72.3      71.0       54     54.3      0.00      8.16      73.1     0.34      1013.0     3        50         4        79        9.18     265      552.4
   05/04/2016 13:10      71.7      70.2       55     54.2      0.00      8.16      72.8     0.34      1013.0     3        34         5       350        9.18     265      531.2
   05/04/2016 13:00      70.2      68.8       58     53.9      0.00      8.16      72.8     0.34      1013.0     3       344         5       296        9.18     265      624.0
   05/04/2016 12:50      70.8      69.3       57     54.1      0.00      8.16      72.8     0.34      1013.0     4        71         6        75        9.18     265      612.2
   05/04/2016 12:40      70.5      68.3       58     54.0      0.00      8.16      72.8     0.34      1013.0     3        32         4        33        9.18     265      610.7
   05/04/2016 12:30      68.7      68.3       59     53.8      0.00      8.16      73.0     0.34      1013.0     3        27         5        65        9.18     266      592.5
   05/04/2016 12:20      68.5      66.4       62     53.9      0.00      8.16      73.1     0.34      1013.0     3        37         5        63        9.18     266      622.5
   05/04/2016 12:10      66.8      66.0       64     53.8      0.00      8.16      72.7     0.35      1014.0     3        38         4        22        9.18     266      613.2
   05/04/2016 12:00      66.4      64.2       65     53.8      0.00      8.16      73.0     0.35      1014.0     2        56         5       120        9.18     266      453.9
   05/04/2016 11:50      64.5      63.7       68     53.3      0.00      8.16      72.7     0.35      1014.0     4       103         8        80        9.18     266      444.0
   05/04/2016 11:40      64.1      63.4       69     53.2      0.00      8.16      72.8     0.35      1014.0     4        59         6        74        9.18     267      487.1
   05/04/2016 11:30      63.4      61.9       71     53.3      0.00      8.16      72.9     0.35      1014.0     4        42         7         6        9.18     266      351.8
   05/04/2016 11:20      62.9      62.0       71     53.0      0.00      8.16      72.9     0.35      1014.0     4        47         7        63        9.18     266      287.9
   05/04/2016 11:10      62.4      61.6       72     52.9      0.00      8.16      72.7     0.35      1014.0     4        54         6        89        9.18     266      228.6
   05/04/2016 11:00      61.8      61.3       74     53.2      0.00      8.16      73.0     0.35      1014.0     3        41         4        32        9.18     266      214.8
   05/04/2016 10:50      61.5      61.0       75     53.2      0.00      8.16      72.8     0.35      1014.0     3        51         6        81        9.18     266      235.3
   05/04/2016 10:40      61.0      60.4       76     53.1      0.00      8.16      72.8     0.35      1014.0     3        37         5        11        9.18     266      172.3
   05/04/2016 10:30      60.4      59.4       76     52.5      0.00      8.16      73.3     0.35      1014.0     2        68         4        96        9.18     267      141.2
   05/04/2016 10:20      59.5      59.2       77     52.2      0.00      8.16      73.2     0.35      1014.0     2       108         2        88        9.18     266      125.4
   05/04/2016 10:10      59.3      58.6       79     52.3      0.00      8.16      73.3     0.35      1014.0     1        35         3       352        9.18     266      114.7
   05/04/2016 10:00      58.8      58.5       79     52.3      0.00      8.16      73.2     0.35      1014.0     2       316         3       343        9.19     266       97.6
   05/04/2016 09:50      58.5      57.4       82     52.4      0.00      8.16      73.2     0.35      1014.0     2       276         3       317        9.19     266       93.5
   05/04/2016 09:40      57.5      57.4       83     52.5      0.00      8.16      73.6     0.35      1014.0     2       200         3       199        9.19     266       76.5
   05/04/2016 09:30      57.5      57.0       84     52.5      0.00      8.16      72.9     0.35      1014.0     3       190         4       182        9.19     266       56.1
   05/04/2016 09:20      57.1      56.5       86     52.5      0.00      8.16      73.2     0.35      1015.0     3       214         4       204        9.19     266       44.5
   05/04/2016 09:10      56.6      56.4       86     52.5      0.00      8.16      73.4     0.35      1015.0     3       204         4       203        9.19     266       37.5
   05/04/2016 09:00      57.0      56.6       85     52.5      0.00      8.16      73.5     0.35      1015.0     3       184         4       193        9.19     266       34.9
   05/04/2016 08:50      57.2      57.0       83     51.9      0.00      8.16      73.2     0.35      1015.0     3       229         3       246        9.19     266       38.9
   05/04/2016 08:40      57.2      57.0       82     51.5      0.00      8.16      73.5     0.35      1015.0     3       268         4       253        9.19     266       36.8
   05/04/2016 08:30      57.2      56.9       82     51.7      0.00      8.16      73.5     0.35      1015.0     3       265         4       275        9.19     266       42.0
   05/04/2016 08:20      57.1      56.5       84     51.9      0.00      8.16      73.1     0.35      1014.0     1       240         3       272        9.19     266       57.4
   05/04/2016 08:10      56.5      56.0       85     51.9      0.00      8.16      73.5     0.35      1014.0     1       162         2       167        9.19     266       52.7
   05/04/2016 08:00      56.1      55.4       87     52.0      0.00      8.16      73.7     0.35      1014.0     1        67         2       356        9.19     266       44.0
   05/04/2016 07:50      55.8      55.5       88     52.2      0.00      8.16      73.5     0.35      1014.0     2       127         5       125        9.19     266       39.6
   05/04/2016 07:40      55.7      55.4       89     52.3      0.00      8.16      74.0     0.35      1014.0     2        93         4        78        9.19     266       26.9
   05/04/2016 07:30      55.7      55.2       89     52.4      0.00      8.16      73.8     0.35      1014.0     3        89         4        81        9.19     266       22.9
   05/04/2016 07:20      55.7      55.4       89     52.5      0.00      8.16      73.7     0.35      1014.0     2        78         4        75        9.19     266       22.9
   05/04/2016 07:10      55.7      55.4       90     52.6      0.00      8.16      73.6     0.35      1014.0     2        42         3        34        9.19     266       18.6
   05/04/2016 07:00      55.6      55.3       90     52.6      0.00      8.16      73.8     0.35      1013.0     3        40         4        34        9.19     266       21.3
   05/04/2016 06:50      55.4      55.1       91     52.6      0.00      8.16      73.7     0.35      1014.0     3        62         5        63        9.19     266       19.1
   05/04/2016 06:40      55.3      54.6       91     52.5      0.00      8.16      74.0     0.35      1014.0     3        63         3        68        9.19     266        9.6
   05/04/2016 06:30      54.6      53.4       92     51.7      0.00      8.16      73.8     0.35      1013.0     2        72         4        46        9.19     266        5.7
   05/04/2016 06:20      53.0      52.5       89     49.6      0.00      8.16      74.0     0.35      1013.0     1        73         3        73        9.19     266      -15.8
   05/04/2016 06:10      53.1      52.9       90     50.1      0.00      8.16      73.8     0.35      1013.0     1        56         1        65        9.20     266      -23.9
   05/04/2016 06:00      53.1      52.5       90     49.9      0.00      8.16      73.8     0.35      1013.0     1        96         1        94        9.19     266      -27.7
   05/04/2016 05:50      53.0      52.7       89     49.8      0.00      8.16      74.2     0.35      1013.0     1       138         1       134        9.20     266      -30.4
   05/04/2016 05:40      53.1      52.5       90     50.0      0.00      8.16      74.1     0.35      1013.0     1       176         2       159        9.20     266      -32.5
   05/04/2016 05:30      52.9      52.5       90     49.8      0.00      8.16      74.0     0.35      1013.0     2       138         3       141        9.20     266      -34.4
   05/04/2016 05:20      52.7      52.4       90     49.8      0.00      8.16      74.0     0.35      1013.0     1       174         2       146        9.20     266      -33.7
   05/04/2016 05:10      53.3      52.6       89     49.8      0.00      8.16      74.3     0.35      1013.0     2       143         2       142        9.20     266      -33.8
   05/04/2016 05:00      53.3      53.0       90     50.2      0.00      8.16      73.8     0.35      1013.0     1       156         2       192        9.20     266      -34.9
   05/04/2016 04:50      53.4      53.2       90     50.3      0.00      8.16      74.4     0.35      1013.0     1       200         2       202        9.20     266      -35.4
   05/04/2016 04:40      53.6      53.4       89     50.5      0.00      8.16      74.5     0.35      1013.0     1       148         1       141        9.20     266      -37.0
   05/04/2016 04:30      54.2      53.9       88     50.5      0.00      8.16      74.3     0.35      1013.0     0       175         1       185        9.20     266      -37.9
   05/04/2016 04:20      54.2      53.9       89     50.8      0.00      8.16      74.3     0.35      1013.0     1       174         1       142        9.20     266      -39.1
   05/04/2016 04:10      54.2      53.8       88     50.4      0.00      8.16      74.7     0.35      1013.0     1       129         2       129        9.20     266      -42.0
   05/04/2016 04:00      54.1      53.9       87     50.4      0.00      8.16      74.3     0.35      1013.0     1        92         2        69        9.20     266      -45.3
   05/04/2016 03:50      54.1      53.7       87     50.2      0.00      8.16      74.6     0.35      1013.0     1       103         2        96        9.20     266      -47.6
   05/04/2016 03:40      54.1      53.6       87     50.1      0.00      8.16      74.7     0.35      1013.0     2       144         2       157        9.20     266      -48.6
   05/04/2016 03:30      54.6      54.1       87     50.7      0.00      8.16      74.5     0.35      1013.0     1       155         2       157        9.20     265      -46.4
   05/04/2016 03:20      54.3      54.0       87     50.4      0.00      8.16      74.6     0.35      1013.0     1       126         1       162        9.20     266      -50.2
   05/04/2016 03:10      54.6      54.2       87     50.6      0.00      8.16      74.7     0.35      1013.0     1       106         1        78        9.20     265      -51.9
   05/04/2016 03:00      54.5      54.3       86     50.4      0.00      8.16      74.5     0.35      1013.0     1       116         1       118        9.20     265      -54.5
   05/04/2016 02:50      54.6      54.5       87     50.7      0.00      8.16      74.8     0.35      1014.0     1       135         2       128        9.20     265      -54.7
   05/04/2016 02:40      54.7      54.5       87     50.7      0.00      8.16      74.7     0.35      1014.0     1       142         2       148        9.20     265      -56.8
   05/04/2016 02:30      54.8      54.6       86     50.6      0.00      8.16      74.8     0.35      1014.0     2       140         2       138        9.20     265      -58.7
   05/04/2016 02:20      55.1      54.7       86     50.8      0.00      8.16      75.0     0.35      1014.0     1       156         2       153        9.20     265      -60.4
   05/04/2016 02:10      55.5      55.1       84     50.5      0.00      8.16      75.1     0.35      1014.0     1       139         2       139        9.20     265      -62.4
   05/04/2016 02:00      55.8      55.4       83     50.6      0.00      8.16      75.0     0.35      1014.0     1       194         2       238        9.20     265      -61.9
   05/04/2016 01:50      55.4      55.1       85     50.8      0.00      8.16      74.8     0.35      1014.0     1       198         2       250        9.20     265      -61.1
   05/04/2016 01:40      55.5      55.2       85     50.8      0.00      8.16      74.8     0.35      1014.0     1       135         1       139        9.20     265      -63.3
   05/04/2016 01:30      55.5      55.1       84     50.4      0.00      8.16      75.0     0.35      1014.0     1       124         1       132        9.21     265      -64.8
   05/04/2016 01:20      56.1      55.7       84     51.1      0.00      8.16      74.8     0.35      1014.0     1       139         2       140        9.21     265      -64.0
   05/04/2016 01:10      55.9      55.3       83     50.6      0.00      8.16      74.9     0.35      1014.0     1       167         2       143        9.21     264      -65.1
   05/04/2016 01:00      56.1      55.8       83     51.0      0.00      8.16      75.4     0.35      1014.0     2       158         3       150        9.21     265      -66.5
   05/04/2016 00:50      56.6      56.1       83     51.2      0.00      8.16      74.8     0.35      1014.0     1       148         2       145        9.21     265      -66.6
   05/04/2016 00:40      56.8      56.5       83     51.4      0.00      8.16      75.2     0.35      1014.0     1       190         1       178        9.21     265      -66.5
   05/04/2016 00:30      57.2      56.5       81     51.0      0.00      8.16      75.4     0.35      1014.0     1       145         2       146        9.21     264      -67.5
   05/04/2016 00:20      57.7      57.1       80     51.3      0.00      8.16      74.9     0.35      1014.0     1       197         2       194        9.21     265      -67.2
   05/04/2016 00:10      57.9      57.5       80     51.5      0.00      8.16      75.1     0.35      1014.0     1       209         1       186        9.21     264      -67.3
   05/04/2016 00:00      57.7      57.4       81     51.8      0.00      8.16      75.3     0.35      1014.0     1       182         1       194        9.21     264      -67.7
   05/03/2016 23:50      57.9      57.5       80     51.6      0.00      8.16      75.2     0.35      1014.0     1       116         2       106        9.21     264      -69.1
   05/03/2016 23:40      58.3      58.0       79     51.7      0.00      8.16      75.5     0.35      1014.0     1        99         1       105        9.21     264      -70.0
   05/03/2016 23:30      58.5      58.3       79     51.8      0.00      8.16      75.2     0.35      1014.0     1       134         1       142        9.21     264      -71.1
   05/03/2016 23:20      58.9      58.5       78     51.8      0.00      8.16      75.0     0.35      1014.0     1       127         2       137        9.22     264      -73.0
   05/03/2016 23:10      58.9      58.8       78     51.9      0.00      8.16      75.2     0.35      1014.0     2       126         2       122        9.22     264      -73.9
   05/03/2016 23:00      59.1      58.9       77     52.0      0.00      8.16      75.2     0.35      1014.0     2       115         3        76        9.22     264      -74.3
   05/03/2016 22:50      59.5      59.2       76     51.9      0.00      8.16      75.3     0.35      1014.0     2        98         4        80        9.22     264      -74.6
   05/03/2016 22:40      59.7      59.4       75     51.7      0.00      8.16      75.3     0.35      1014.0     2        69         2        62        9.22     264      -74.8
   05/03/2016 22:30      60.1      59.5       75     51.7      0.00      8.16      75.3     0.35      1014.0     2        85         3       108        9.22     264      -75.0
   05/03/2016 22:20      60.6      60.3       73     51.7      0.00      8.16      75.0     0.35      1014.0     2        60         4        82        9.23     264      -75.8
   05/03/2016 22:10      61.0      60.6       72     51.7      0.00      8.16      75.2     0.35      1014.0     2        43         3        66        9.23     264      -76.8
   05/03/2016 22:00      61.2      61.0       71     51.4      0.00      8.16      75.3     0.35      1014.0     2        55         3        27        9.23     264      -76.6
   05/03/2016 21:50      61.7      61.3       69     51.1      0.00      8.16      75.5     0.35      1014.0     2        66         2        89        9.23     264      -76.4
   05/03/2016 21:40      62.1      61.5       68     50.9      0.00      8.16      75.1     0.35      1014.0     1        65         2        59        9.24     264      -76.9
   05/03/2016 21:30      62.1      61.8       67     50.8      0.00      8.16      75.0     0.35      1013.0     1        62         2        55        9.24     264      -78.2
   05/03/2016 21:20      62.4      61.9       66     50.7      0.00      8.16      75.0     0.35      1013.0     2        81         4        59        9.24     264      -79.3
   05/03/2016 21:10      63.3      62.4       66     51.2      0.00      8.16      75.2     0.35      1013.0     3        76         4        99        9.24     264      -80.6
   05/03/2016 21:00      64.2      63.4       65     52.0      0.00      8.16      75.2     0.35      1013.0     3        86         4        93        9.25     264      -81.6
   05/03/2016 20:50      65.3      64.2       64     52.1      0.00      8.16      75.0     0.35      1013.0     3        91         4        74        9.25     264      -82.9
   05/03/2016 20:40      66.8      65.5       61     52.5      0.00      8.16      75.1     0.35      1013.0     2        73         3        86        9.25     264      -84.7
   05/03/2016 20:30      68.9      66.8       58     52.7      0.00      8.16      75.4     0.35      1013.0     2        57         3        52        9.25     263      -86.0
   05/03/2016 20:20      71.4      69.0       54     52.9      0.00      8.16      75.2     0.35      1012.0     3        53         5        67        9.26     263      -87.3
   05/03/2016 20:10      73.0      71.8       49     52.1      0.00      8.16      74.9     0.35      1012.0     2        54         3        29        9.26     263      -87.9
   05/03/2016 20:00      74.3      73.2       44     50.6      0.00      8.16      74.9     0.35      1012.0     2       104         4        70        9.26     263      -87.3
   05/03/2016 19:50      75.5      74.5       41     49.4      0.00      8.16      75.1     0.35      1012.0     2       185         5       186        9.26     263      -85.9
   05/03/2016 19:40      76.1      75.4       39     49.3      0.00      8.16      74.9     0.35      1012.0     3       220         5       215        9.26     263      -78.4
   05/03/2016 19:30      76.6      76.1       39     49.6      0.00      8.16      75.1     0.35      1012.0     5       238         7       232        9.26     263      -54.6
   05/03/2016 19:20      77.6      76.7       38     49.9      0.00      8.16      74.9     0.35      1011.0     5       236         7       236        9.27     262      -37.8
   05/03/2016 19:10      79.4      77.8       37     50.2      0.00      8.16      74.8     0.35      1011.0     4       253         5       241        9.27     262      -25.1
   05/03/2016 19:00      79.8      79.3       36     50.0      0.00      8.16      74.8     0.35      1011.0     3       287         5       279        9.27     263        6.8
   05/03/2016 18:50      79.8      78.5       35     48.7      0.00      8.16      74.8     0.35      1011.0     3       322         3       331        9.27     262       23.6
   05/03/2016 18:40      78.6      78.3       35     48.4      0.00      8.16      74.6     0.35      1011.0     2       286         4       285        9.28     262      -15.2
   05/03/2016 18:30      78.8      78.4       34     48.2      0.00      8.16      74.6     0.35      1011.0     3       326         4       303        9.28     262      -54.2
   05/03/2016 18:20      81.4      79.0       32     47.4      0.00      8.16      74.6     0.35      1011.0     4       308         8       281        9.28     262      -62.1
   05/03/2016 18:10      82.3      81.6       21     38.6      0.00      8.16      74.6     0.35      1011.0     3       198         5       169        9.28     262      -68.1
   05/03/2016 18:00      83.3      82.6       19     36.7      0.00      8.16      74.3     0.35      1011.0     4       166         6       173        9.29     262      -51.3
   05/03/2016 17:50      84.8      83.5       19     37.6      0.00      8.16      74.4     0.35      1011.0     5       161         8       171        9.29     262       15.2
   05/03/2016 17:40      84.9      83.8       19     37.8      0.00      8.16      74.3     0.35      1011.0     4       187         6       163        9.30     262      164.0
   05/03/2016 17:30      84.6      84.1       20     38.2      0.00      8.16      74.3     0.35      1011.0     6       170         9       237        9.30     262      225.0
   05/03/2016 17:20      84.2      83.3       20     38.1      0.00      8.16      74.2     0.35      1011.0     4       159         7       158        9.31     262      178.0
   05/03/2016 17:10      84.1      83.8       20     38.1      0.00      8.16      74.3     0.35      1011.0     4       190         6       193        9.31     262      141.6
   05/03/2016 17:00      84.5      83.8       19     37.7      0.00      8.16      74.2     0.35      1012.0     5       184         9       138        9.31     262      190.3
   05/03/2016 16:50      84.8      83.6       19     37.3      0.00      8.16      74.2     0.35      1012.0     7       188         9       178        9.31     262      237.6
   05/03/2016 16:40      85.1      84.5       18     37.1      0.00      8.16      74.0     0.35      1012.0     6       156         8       157        9.32     262      214.5
   05/03/2016 16:30      85.4      84.5       18     36.2      0.00      8.16      74.0     0.35      1011.0     6       145         9       137        9.33     262      223.1
   05/03/2016 16:20      85.5      84.8       17     35.7      0.00      8.16      73.9     0.35      1011.0     6       148         9       161        9.33     262      219.9
   05/03/2016 16:10      85.6      84.8       17     35.9      0.00      8.16      73.8     0.35      1012.0     7       159         9       144        9.34     262      261.3
   05/03/2016 16:00      86.6      85.4       16     35.2      0.00      8.16      73.7     0.35      1012.0     8       174        10       192        9.34     262      287.1
   05/03/2016 15:50      86.7      85.6       16     34.7      0.00      8.16      73.7     0.35      1012.0     6       166         8       183        9.35     262      290.3
   05/03/2016 15:40      87.6      86.0       15     34.3      0.00      8.16      73.5     0.35      1012.0     5       157         7       151        9.35     262      347.8
   05/03/2016 15:30      86.8      85.7       16     34.2      0.00      8.16      73.6     0.35      1012.0     6       156        10       148        9.35     262      381.2
   05/03/2016 15:20      86.2      85.5       16     34.5      0.00      8.16      73.4     0.35      1012.0     7       173         9       189        9.35     262      371.0
   05/03/2016 15:10      87.2      85.7       16     34.6      0.00      8.16      73.4     0.35      1012.0     7       163        11       190        9.35     262      370.0
   05/03/2016 15:00      86.8      86.1       16     34.8      0.00      8.16      73.4     0.35      1012.0     5       172         8       139        9.35     262      362.5
   05/03/2016 14:50      86.2      85.7       16     34.9      0.00      8.16      73.3     0.35      1013.0     7       144        12       162        9.35     263      414.8
   05/03/2016 14:40      86.1      85.6       16     34.4      0.00      8.16      73.2     0.35      1013.0     9       171        11       177        9.35     263      429.1
   05/03/2016 14:30      86.2      85.6       16     35.0      0.00      8.16      73.2     0.35      1013.0     8       172        12       165        9.35     263      451.3
   05/03/2016 14:20      86.4      85.9       17     35.5      0.00      8.16      73.1     0.35      1013.0     6       164        12       158        9.35     263      408.3
   05/03/2016 14:10      86.5      85.9       17     36.4      0.00      8.16      72.8     0.35      1013.0     8       129        10       170        9.35     263      429.1
   05/03/2016 14:00      86.8      85.2       17     35.4      0.00      8.16      72.8     0.35      1013.0     7       120        11       133        9.35     264      462.1
   05/03/2016 13:50      86.0      84.9       16     34.9      0.00      8.16      73.1     0.35      1013.0     8       130        12       149        9.35     264      464.6
   05/03/2016 13:40      86.1      85.2       17     35.3      0.00      8.16      73.2     0.35      1013.0     8       132        12       116        9.35     264      468.2
   05/03/2016 13:30      86.5      85.7       17     36.6      0.00      8.16      73.2     0.35      1013.0     8       148        10       124        9.35     264      450.3
   05/03/2016 13:20      86.6      85.6       17     36.5      0.00      8.16      72.9     0.35      1013.0     7       112        11       113        9.35     264      448.1
   05/03/2016 13:10      87.3      85.8       17     36.6      0.00      8.16      72.9     0.35      1013.0     7       120        14       142        9.36     264      418.2
   05/03/2016 13:00      88.2      86.2       17     37.1      0.00      8.16      73.0     0.35      1013.0     6       117        11       126        9.36     264      551.9
   05/03/2016 12:50      87.3      86.5       18     38.2      0.00      8.16      72.8     0.35      1013.0     7        76        12       133        9.36     264      558.1
   05/03/2016 12:40      86.5      85.7       18     37.2      0.00      8.16      72.8     0.35      1013.0     5        69         7        75        9.36     264      582.9
   05/03/2016 12:30      87.6      85.5       18     38.3      0.00      8.16      72.7     0.35      1013.0     5        87        11       100        9.36     265      578.0
   05/03/2016 12:20      86.1      85.3       23     43.2      0.00      8.16      72.8     0.35      1014.0     5        74         7        86        9.36     265      545.4
   05/03/2016 12:10      85.9      84.9       24     44.6      0.00      8.16      72.7     0.35      1014.0     4        62         7        30        9.36     266      547.7
   05/03/2016 12:00      85.7      84.5       28     48.0      0.00      8.16      72.7     0.35      1014.0     3        50         7        61        9.35     266      525.6
   05/03/2016 11:50      84.5      83.3       30     49.0      0.00      8.16      72.6     0.35      1014.0     3        62         5        56        9.36     266      526.6
   05/03/2016 11:40      84.3      83.4       28     47.2      0.00      8.16      73.0     0.35      1014.0     3        66         6        82        9.35     266      534.9
   05/03/2016 11:30      83.0      82.2       28     46.4      0.00      8.16      72.7     0.35      1014.0     3       355         6       355        9.35     266      532.3
   05/03/2016 11:20      82.5      81.7       29     46.8      0.00      8.16      72.9     0.35      1014.0     2        19         4        35        9.35     266      529.1
   05/03/2016 11:10      81.7      80.2       30     47.1      0.00      8.16      72.6     0.35      1014.0     2        40         4        76        9.35     267      520.6
   05/03/2016 11:00      80.4      79.6       31     46.6      0.00      8.16      72.8     0.35      1014.0     3         7         4        73        9.35     267      495.1
   05/03/2016 10:50      79.5      78.7       32     46.6      0.00      8.16      72.6     0.35      1014.0     2        20         3        29        9.35     268      504.2
   05/03/2016 10:40      78.6      77.4       34     47.4      0.00      8.16      73.1     0.35      1014.0     2       350         3        15        9.35     268      485.6
   05/03/2016 10:30      77.4      75.7       37     48.1      0.00      8.16      73.0     0.35      1014.0     2        32         4       354        9.35     268      456.7
   05/03/2016 10:20      76.4      75.4       38     48.3      0.00      8.16      73.1     0.35      1015.0     3         6         5       359        9.35     269      465.5
   05/03/2016 10:10      75.8      74.9       37     47.0      0.00      8.16      72.8     0.35      1014.0     3       346         4        32        9.35     269      447.6
   05/03/2016 10:00      75.2      74.0       37     46.4      0.00      8.16      72.9     0.35      1015.0     2        27         3         4        9.35     269      433.4
   05/03/2016 09:50      74.5      73.7       40     48.3      0.00      8.16      73.1     0.35      1015.0     2        57         3        95        9.35     269      417.0
   05/03/2016 09:40      73.6      72.0       45     50.4      0.00      8.16      73.2     0.35      1015.0     2        34         3        73        9.35     270      400.0
   05/03/2016 09:30      71.9      70.8       48     50.8      0.00      8.16      72.9     0.35      1015.0     2         9         3       325        9.35     270      381.5
   05/03/2016 09:20      70.8      69.5       50     51.0      0.00      8.16      72.8     0.35      1015.0     2       299         3       299        9.34     270      364.1
   05/03/2016 09:10      69.5      68.3       54     51.3      0.00      8.16      72.8     0.35      1015.0     2        12         3       354        9.34     271      342.7
   05/03/2016 09:00      68.2      66.9       55     50.8      0.00      8.16      73.0     0.35      1015.0     2       358         3       342        9.34     271      329.0
   05/03/2016 08:50      67.0      66.3       58     51.2      0.00      8.16      73.3     0.35      1015.0     2       342         3       336        9.34     276      303.3
   05/03/2016 08:40      66.4      64.4       61     51.4      0.00      8.16      73.4     0.35      1015.0     1       339         3       339        7.68     266      298.3
   05/03/2016 08:30      64.3      63.5       65     51.9      0.00      8.16      73.1     0.35      1015.0     1       324         2       346        7.68     266       31.9
   05/03/2016 08:20      63.3      62.7       67     51.8      0.00      8.16      73.2     0.35      1015.0     1       320         1       287        7.68     266      -16.4
   05/03/2016 08:10      62.7      62.1       68     51.6      0.00      8.16      73.4     0.35      1015.0     1        46         2         9        7.68     266      -31.1
   05/03/2016 08:00      62.2      61.3       70     51.7      0.00      8.16      73.3     0.35      1015.0     1       208         2       247        7.68     266      -25.1
   05/03/2016 07:50      61.4      60.3       72     51.6      0.00      8.16      73.2     0.35      1015.0     1        37         2        41        7.68     266       36.8
   05/03/2016 07:40      60.4      59.9       73     51.5      0.00      8.16      73.2     0.35      1015.0     2        65         2       115        7.68     266      -21.6
   05/03/2016 07:30      60.0      58.9       74     51.3      0.00      8.16      73.2     0.35      1015.0     1        75         2        62        7.69     266      -29.0
   05/03/2016 07:20      59.0      57.7       76     51.1      0.00      8.16      73.5     0.35      1015.0     1       129         1        84        7.69     266      -27.8
   05/03/2016 07:10      57.6      56.5       79     50.9      0.00      8.16      73.3     0.35      1015.0     1        86         1        45        7.69     266      -21.6
   05/03/2016 07:00      56.7      55.5       82     50.5      0.00      8.16      73.7     0.35      1015.0     1       185         1       188        7.69     266      -21.1
   05/03/2016 06:50      55.5      54.4       85     50.3      0.00      8.16      73.7     0.35      1015.0     1       144         1       139        7.69     266      -24.1
   05/03/2016 06:40      54.5      53.9       86     50.1      0.00      8.16      73.9     0.35      1015.0     1       178         1       171        7.69     266      -26.9
   05/03/2016 06:30      54.0      53.5       88     50.1      0.00      8.16      73.5     0.35      1015.0     1       194         2       147        7.69     266      -29.1
   05/03/2016 06:20      53.9      53.5       88     50.1      0.00      8.16      73.6     0.35      1014.0     1       168         2       142        7.69     266      -35.5
   05/03/2016 06:10      53.7      53.1       89     50.2      0.00      8.16      73.7     0.35      1014.0     1       171         2       135        7.69     266      -40.9
   05/03/2016 06:00      53.6      53.1       88     50.0      0.00      8.16      73.8     0.35      1014.0     1       156         2       153        7.69     266      -46.0
   05/03/2016 05:50      53.5      52.7       88     49.7      0.00      8.16      73.7     0.35      1014.0     1       151         2       153        7.69     266      -50.6
   05/03/2016 05:40      53.6      53.1       88     49.8      0.00      8.16      73.7     0.35      1014.0     1       137         2       137        7.69     266      -49.4
   05/03/2016 05:30      54.1      53.5       86     49.6      0.00      8.16      74.0     0.35      1014.0     1        98         1        92        7.69     266      -50.6
   05/03/2016 05:20      54.5      54.2       86     50.3      0.00      8.16      73.8     0.35      1014.0     1        37         1       112        7.69     265      -49.6
   05/03/2016 05:10      54.6      54.3       86     50.3      0.00      8.16      73.8     0.35      1014.0     0       302         1        32        7.69     265      -51.2
   05/03/2016 05:00      54.7      54.0       87     50.5      0.00      8.16      74.0     0.35      1014.0     1       195         1       154        7.69     265      -52.7
   05/03/2016 04:50      54.8      54.1       85     50.0      0.00      8.16      73.9     0.35      1014.0     1       118         1       144        7.70     265      -54.5
   05/03/2016 04:40      54.7      54.5       86     50.5      0.00      8.16      74.0     0.35      1014.0     1       142         1       124        7.70     265      -54.6
   05/03/2016 04:30      55.1      54.6       85     50.5      0.00      8.16      73.9     0.35      1014.0     1       152         2       143        7.70     265      -54.6
   05/03/2016 04:20      55.2      54.9       85     50.8      0.00      8.16      74.1     0.35      1014.0     0       269         0       144        7.70     265      -54.3
   05/03/2016 04:10      55.1      54.4       86     50.5      0.00      8.16      74.1     0.35      1014.0     1       119         1       143        7.70     265      -56.6
   05/03/2016 04:00      55.1      54.5       84     50.0      0.00      8.16      74.2     0.35      1014.0     1       133         2       111        7.70     265      -59.6
   05/03/2016 03:50      55.1      54.9       85     50.4      0.00      8.16      74.0     0.35      1014.0     1       202         2       197        7.70     265      -59.2
   05/03/2016 03:40      55.3      54.9       84     50.4      0.00      8.16      74.0     0.35      1014.0     1       172         2       145        7.70     265      -59.8
   05/03/2016 03:30      55.8      55.2       84     50.6      0.00      8.16      74.1     0.35      1014.0     1       167         2       160        7.70     265      -60.3
   05/03/2016 03:20      55.9      55.5       84     50.9      0.00      8.16      74.2     0.35      1014.0     1       172         2       156        7.70     265      -60.9
   05/03/2016 03:10      55.9      55.4       83     50.6      0.00      8.16      74.3     0.35      1014.0     1       162         2       143        7.70     265      -61.8
   05/03/2016 03:00      55.9      55.5       82     50.3      0.00      8.16      74.1     0.35      1014.0     3       148         3       146        7.70     265      -62.8
   05/03/2016 02:50      56.3      55.8       82     50.6      0.00      8.16      74.2     0.35      1015.0     2       148         2       140        7.70     265      -62.8
   05/03/2016 02:40      56.6      56.3       82     50.9      0.00      8.16      74.1     0.35      1015.0     2       163         2       140        7.70     265      -62.6
   05/03/2016 02:30      56.9      56.5       81     51.0      0.00      8.16      74.5     0.35      1015.0     2       166         2       146        7.70     265      -62.5
   05/03/2016 02:20      56.9      56.6       81     50.8      0.00      8.16      74.4     0.35      1015.0     1       185         2       206        7.70     265      -62.7
   05/03/2016 02:10      57.7      56.9       79     50.7      0.00      8.16      74.3     0.35      1015.0     1       195         2       190        7.70     264      -62.8
   05/03/2016 02:00      58.5      57.5       78     50.9      0.00      8.16      74.5     0.35      1015.0     1       171         1       127        7.70     265      -62.6
   05/03/2016 01:50      59.3      58.5       75     51.0      0.00      8.16      74.3     0.35      1015.0     1        70         1       132        7.70     265      -64.0
   05/03/2016 01:40      59.8      59.3       74     51.5      0.00      8.16      74.6     0.35      1015.0     1        32         2        27        7.70     264      -65.2
   05/03/2016 01:30      59.9      59.7       74     51.7      0.00      8.16      74.4     0.35      1015.0     2        11         3         2        7.70     265      -66.0
   05/03/2016 01:20      59.9      59.7       74     51.4      0.00      8.16      74.6     0.35      1015.0     2        22         2        10        7.70     264      -66.3
   05/03/2016 01:10      60.2      59.9       72     51.2      0.00      8.16      74.7     0.35      1015.0     1        22         2        39        7.71     264      -67.2
   05/03/2016 01:00      60.5      60.2       71     50.9      0.00      8.16      74.6     0.35      1015.0     2        26         2       333        7.71     264      -68.0
   05/03/2016 00:50      60.8      60.3       70     50.8      0.00      8.16      74.5     0.35      1015.0     2        39         3        22        7.71     264      -68.4
   05/03/2016 00:40      61.1      60.8       69     50.6      0.00      8.16      74.6     0.35      1015.0     2        41         4        57        7.71     264      -68.5
   05/03/2016 00:30      61.3      61.0       69     50.9      0.00      8.16      74.6     0.35      1015.0     2        35         3        13        7.71     264      -68.1
   05/03/2016 00:20      61.3      61.2       70     51.3      0.00      8.16      74.5     0.35      1015.0     2        74         3        68        7.71     264      -67.7
   05/03/2016 00:10      61.4      60.6       68     50.3      0.00      8.16      74.5     0.35      1015.0     2        51         3        34        7.71     264      -66.9
   05/03/2016 00:00      60.8      60.5       58     45.9      0.00      8.16      74.6     0.35      1015.0     1        48         2        61        7.71     264      -65.9
   05/02/2016 23:50      61.4      60.8       56     45.2      0.00      8.16      74.5     0.35      1015.0     1        98         2        75        7.71     264      -66.0
   05/02/2016 23:40      61.5      61.1       56     45.5      0.00      8.16      74.5     0.35      1015.0     1       103         2       118        7.71     264      -67.0
   05/02/2016 23:30      61.4      60.9       57     45.7      0.00      8.16      74.6     0.35      1015.0     2       129         2       131        7.71     264      -67.9
   05/02/2016 23:20      62.1      61.5       56     45.8      0.00      8.16      74.7     0.35      1015.0     1       136         2       126        7.71     264      -67.2
   05/02/2016 23:10      62.6      62.2       54     45.7      0.00      8.16      74.7     0.35      1015.0     1        44         1        35        7.71     264      -67.7
   05/02/2016 23:00      64.0      62.8       52     45.3      0.00      8.16      74.6     0.35      1015.0     1        78         2        77        7.71     264      -68.1
   05/02/2016 22:50      65.2      64.1       50     45.7      0.00      8.16      74.6     0.35      1015.0     1       270         2       330        7.71     264      -70.1
   05/02/2016 22:40      65.3      65.1       49     45.8      0.00      8.16      74.4     0.35      1015.0     1       321         3       318        7.72     264      -70.7
   05/02/2016 22:30      65.6      65.2       49     45.9      0.00      8.16      74.5     0.35      1015.0     2       291         3       262        7.72     264      -71.8
   05/02/2016 22:20      65.6      65.3       49     45.8      0.00      8.16      74.6     0.35      1015.0     1       275         2       235        7.72     264      -73.2
   05/02/2016 22:10      65.5      65.3       49     45.7      0.00      8.16      74.8     0.35      1015.0     2       217         5       268        7.72     263      -74.3
   05/02/2016 22:00      65.8      65.4       48     45.6      0.00      8.16      74.7     0.35      1015.0     2       230         4       221        7.72     263      -75.4
   05/02/2016 21:50      66.3      66.1       48     45.8      0.00      8.16      74.7     0.35      1015.0     2       248         3       232        7.72     263      -76.4
   05/02/2016 21:40      66.4      66.2       48     45.9      0.00      8.16      74.5     0.35      1015.0     3       292         5       266        7.72     264      -77.5
   05/02/2016 21:30      66.4      66.2       48     46.1      0.00      8.16      74.6     0.35      1015.0     3       255         7       209        7.73     263      -78.7
   05/02/2016 21:20      66.4      66.2       49     46.5      0.00      8.16      74.5     0.35      1015.0     3       204         5       207        7.73     263      -79.3
   05/02/2016 21:10      66.7      66.4       49     46.8      0.00      8.16      74.7     0.35      1014.0     3       189         5       175        7.73     263      -80.3
   05/02/2016 21:00      67.2      66.8       48     46.9      0.00      8.16      74.6     0.35      1014.0     4       217         7       230        7.73     263      -81.3
   05/02/2016 20:50      67.5      67.1       48     46.9      0.00      8.16      74.5     0.35      1014.0     3       225         5       212        7.74     263      -82.2
   05/02/2016 20:40      68.3      67.6       47     46.8      0.00      8.16      74.3     0.35      1014.0     4       208         5       200        7.74     263      -83.0
   05/02/2016 20:30      69.2      68.6       44     46.2      0.00      8.16      74.4     0.35      1014.0     4       222         6       230        7.75     263      -83.8
   05/02/2016 20:20      69.8      69.3       42     45.6      0.00      8.16      74.4     0.35      1014.0     4       244         7       224        7.75     263      -84.6
   05/02/2016 20:10      70.4      70.0       41     45.4      0.00      8.16      74.2     0.35      1014.0     5       241         8       242        7.76     263      -85.7
   05/02/2016 20:00      70.5      70.4       41     45.7      0.00      8.16      74.2     0.35      1014.0     5       238         7       238        7.76     263      -86.6
   05/02/2016 19:50      71.3      70.6       41     46.1      0.00      8.16      74.2     0.35      1014.0     5       218         7       187        7.76     263      -86.9
   05/02/2016 19:40      71.8      71.3       40     46.2      0.00      8.16      74.3     0.35      1014.0     5       237         7       237        7.77     263      -84.8
   05/02/2016 19:30      73.3      72.2       39     46.1      0.00      8.16      74.1     0.35      1013.0     5       228         8       245        7.77     263      -81.1
   05/02/2016 19:20      74.1      73.3       37     45.8      0.00      8.16      74.2     0.35      1013.0     4       240         7       253        7.77     262      -76.3
   05/02/2016 19:10      74.3      74.1       36     45.4      0.00      8.16      74.1     0.35      1013.0     3       292         6       311        7.78     262      -62.6
   05/02/2016 19:00      75.2      74.4       36     46.2      0.00      8.16      74.1     0.35      1013.0     4       295         6       290        7.78     262      -46.0
   05/02/2016 18:50      75.5      75.1       36     46.6      0.00      8.16      73.9     0.35      1013.0     5       304         8       320        7.79     263      -27.6
   05/02/2016 18:40      76.4      75.6       36     47.3      0.00      8.16      74.0     0.35      1013.0     6       299         7       286        7.79     262       -6.8
   05/02/2016 18:30      76.8      76.3       37     48.0      0.00      8.16      73.9     0.35      1013.0     6       303        10       296        7.79     262       14.1
   05/02/2016 18:20      77.4      76.7       36     48.4      0.00      8.16      73.8     0.35      1013.0     6       313         8       318        7.80     262       35.6
   05/02/2016 18:10      77.9      77.3       36     48.6      0.00      8.16      73.7     0.35      1013.0     5       286         7       302        7.80     262       57.1
   05/02/2016 18:00      78.8      78.2       34     48.2      0.00      8.16      73.7     0.35      1013.0     5       276         8       278        7.81     262       82.7
   05/02/2016 17:50      79.7      78.7       34     47.8      0.00      8.16      73.5     0.35      1013.0     5       227         7       237        7.81     262      110.1
   05/02/2016 17:40      79.9      79.1       33     48.0      0.00      8.16      73.7     0.35      1013.0     5       246         8       191        7.81     262      135.1
   05/02/2016 17:30      80.5      79.5       34     48.8      0.00      8.16      73.6     0.35      1013.0     7       249        10       265        7.82     263      160.9
   05/02/2016 17:20      81.0      80.4       34     49.6      0.00      8.16      73.2     0.35      1013.0     5       262         8       262        7.82     262      182.5
   05/02/2016 17:10      81.1      80.4       34     49.7      0.00      8.16      73.4     0.35      1013.0     5       284         8       341        7.82     263      208.0
   05/02/2016 17:00      80.7      80.3       34     49.8      0.00      8.16      73.3     0.35      1013.0     8       300        12       299        7.83     263      233.7
   05/02/2016 16:50      80.9      80.5       35     50.2      0.00      8.16      73.2     0.34      1013.0     6       302        10       314        7.83     263      258.6
   05/02/2016 16:40      83.2      80.7       32     49.3      0.00      8.16      73.2     0.34      1013.0     6       286         9       241        7.83     262      282.0
   05/02/2016 16:30      82.2      81.4       30     47.8      0.00      8.16      73.1     0.34      1013.0     7       262        10       280        7.84     263      301.0
   05/02/2016 16:20      82.1      81.5       31     48.5      0.00      8.16      73.1     0.34      1013.0     6       252        10       235        7.84     263      315.6
   05/02/2016 16:10      82.9      81.9       27     45.1      0.00      8.16      72.9     0.34      1013.0     6       236        11       265        7.84     263      338.5
   05/02/2016 16:00      83.2      82.8       24     42.2      0.00      8.16      72.8     0.34      1013.0     4       227         9       242        7.85     262      353.4
   05/02/2016 15:50      84.5      83.5       22     41.2      0.00      8.16      72.9     0.34      1013.0     5       163         9       162        7.85     263      371.4
   05/02/2016 15:40      83.9      82.5       23     41.2      0.00      8.16      72.7     0.34      1013.0     4       195         6       206        7.86     263      397.2
   05/02/2016 15:30      84.3      82.7       22     40.7      0.00      8.16      72.6     0.34      1013.0     4       162         7       171        7.86     263      416.4
   05/02/2016 15:20      83.8      82.6       22     40.1      0.00      8.16      72.6     0.34      1014.0     5       192         8       183        7.87     263      434.0
   05/02/2016 15:10      84.7      83.6       22     40.7      0.00      8.16      72.6     0.34      1014.0     5       156         9       147        7.87     264      450.5
   05/02/2016 15:00      85.0      83.5       22     41.8      0.00      8.16      72.5     0.34      1014.0     5       177         9       223        7.88     264      464.5
   05/02/2016 14:50      85.0      83.9       23     42.2      0.00      8.16      72.5     0.34      1014.0     4       138         9       147        7.89     264      482.1
   05/02/2016 14:40      85.2      84.9       23     43.0      0.00      8.16      72.5     0.34      1014.0     4        53         8        76        7.90     264      484.2
   05/02/2016 14:30      85.0      82.9       23     42.1      0.00      8.16      72.4     0.34      1014.0     3        51         5        34        7.91     264      496.4
   05/02/2016 14:20      83.9      82.7       26     45.1      0.00      8.16      72.1     0.34      1014.0     3       118         8        95        7.91     264      508.9
   05/02/2016 14:10      82.7      82.1       32     49.7      0.00      8.16      72.2     0.34      1014.0     2       123         3       117        7.92     264      521.7
   05/02/2016 14:00      84.2      82.7       32     50.7      0.00      8.16      72.1     0.34      1014.0     5        70         8        66        7.92     264      522.6
   05/02/2016 13:50      83.6      82.6       32     50.2      0.00      8.16      72.0     0.34      1014.0     3        22         6        54        7.92     265      529.1
   05/02/2016 13:40      83.1      81.6       31     48.5      0.00      8.16      72.1     0.34      1015.0     3        66         6        67        7.92     265      540.0
   05/02/2016 13:30      84.0      82.5       30     48.8      0.00      8.16      71.8     0.34      1015.0     3        20         6       334        7.93     264      547.5
   05/02/2016 13:20      82.1      79.6       34     50.1      0.00      8.16      72.2     0.34      1015.0     3        15         6        15        7.93     264      552.7
   05/02/2016 13:10      81.5      79.8       35     50.9      0.00      8.16      71.8     0.34      1015.0     4        10         5       357        7.93     264      551.9
   05/02/2016 13:00      81.2      80.3       36     50.8      0.00      8.16      71.8     0.34      1015.0     2         1         5       306        7.93     265      554.5
   05/02/2016 12:50      80.2      79.1       37     51.2      0.00      8.16      72.0     0.34      1015.0     3        14         4       353        7.93     265      556.4
   05/02/2016 12:40      80.1      78.2       38     51.5      0.00      8.16      71.6     0.34      1015.0     3       353         5       343        7.93     265      560.1
   05/02/2016 12:30      78.9      77.6       39     51.2      0.00      8.16      71.8     0.34      1015.0     2        10         5       347        7.93     265      562.4
   05/02/2016 12:20      78.2      77.3       40     51.3      0.00      8.16      71.7     0.34      1015.0     2        29         4        73        7.93     266      556.5
   05/02/2016 12:10      77.5      76.5       40     50.6      0.00      8.16      71.8     0.34      1016.0     3         8         4        33        7.94     266      552.3
   05/02/2016 12:00      76.9      76.0       40     50.2      0.00      8.16      71.7     0.34      1016.0     3       357         5       347        7.94     266      548.7
   05/02/2016 11:50      76.4      75.1       41     50.5      0.00      8.16      71.8     0.34      1016.0     3       329         4       294        7.94     266      543.7
   05/02/2016 11:40      75.6      73.4       43     50.4      0.00      8.16      71.7     0.34      1016.0     3        12         6       358        7.94     266      536.9
   05/02/2016 11:30      74.5      73.6       43     50.3      0.00      8.16      71.8     0.34      1016.0     4        94         5        73        7.94     266      531.0
   05/02/2016 11:20      74.6      73.0       44     50.3      0.00      8.16      71.8     0.34      1016.0     2        10         4       341        7.94     266      520.8
   05/02/2016 11:10      72.9      72.3       47     51.0      0.00      8.16      72.0     0.34      1016.0     4       342         6         3        7.94     266      509.6
   05/02/2016 11:00      72.7      72.2       47     51.3      0.00      8.16      71.8     0.34      1016.0     3       340         5        25        7.94     266      497.9
   05/02/2016 10:50      72.3      71.5       49     51.5      0.00      8.16      71.6     0.34      1016.0     3        16         5       351        7.94     266      486.2
   05/02/2016 10:40      71.7      70.2       51     51.6      0.00      8.16      71.9     0.34      1016.0     2        21         4        17        7.94     266      475.4
   05/02/2016 10:30      70.3      69.1       53     51.7      0.00      8.16      71.8     0.34      1016.0     3        87         5       135        7.94     266      462.3
   05/02/2016 10:20      69.4      68.2       54     51.5      0.00      8.16      71.9     0.34      1016.0     2        75         4        96        7.94     266      446.6
   05/02/2016 10:10      68.8      67.8       55     51.4      0.00      8.16      71.9     0.34      1017.0     2        47         4        65        7.94     266      432.0
   05/02/2016 10:00      68.3      67.5       56     51.5      0.00      8.16      72.1     0.34      1017.0     3        71         4        97        7.94     266      415.9
   05/02/2016 09:50      68.1      66.4       58     51.7      0.00      8.16      72.0     0.34      1017.0     3        41         4        50        7.95     267      396.0
   05/02/2016 09:40      67.0      65.3       59     51.6      0.00      8.16      71.8     0.35      1017.0     2        21         5         3        7.95     267      379.1
   05/02/2016 09:30      65.6      64.4       61     51.4      0.00      8.16      71.9     0.35      1017.0     3         1         3        29        7.95     267      361.6
   05/02/2016 09:20      64.6      63.8       63     51.4      0.00      8.16      71.9     0.35      1017.0     3        29         5        93        7.95     267      342.0
   05/02/2016 09:10      64.0      63.3       64     51.4      0.00      8.16      72.2     0.35      1017.0     3       353         4       324        7.95     267      323.1
   05/02/2016 09:00      63.3      62.7       66     51.3      0.00      8.16      71.9     0.35      1017.0     2       341         4       329        7.95     266      304.5
   05/02/2016 08:50      62.5      61.4       67     51.0      0.00      8.16      72.1     0.35      1017.0     1       324         3       359        7.95     267      288.2
   05/02/2016 08:40      61.3      59.7       70     50.8      0.00      8.16      72.3     0.35      1017.0     2       308         3       344        7.95     267      280.3
   05/02/2016 08:30      59.8      59.3       73     50.7      0.00      8.16      72.5     0.35      1017.0     2       349         3       352        7.95     267       53.9
   05/02/2016 08:20      59.5      58.6       74     50.7      0.00      8.16      72.2     0.35      1017.0     2       347         3         1        7.95     266      -11.6
   05/02/2016 08:10      58.6      58.1       75     50.6      0.00      8.16      72.2     0.35      1017.0     2       315         3        24        7.95     266      -19.6
   05/02/2016 08:00      58.2      57.8       76     50.5      0.00      8.16      72.2     0.35      1016.0     1       297         2       253        7.95     266      -14.0
   05/02/2016 07:50      57.8      57.0       78     50.4      0.00      8.16      72.3     0.35      1016.0     2       306         3       322        7.95     267       56.3
   05/02/2016 07:40      57.0      56.4       79     50.3      0.00      8.16      72.7     0.35      1016.0     1       339         2        10        7.95     267       12.9
   05/02/2016 07:30      56.4      55.8       80     50.1      0.00      8.16      72.3     0.35      1016.0     1       299         1       259        7.95     267        7.8
   05/02/2016 07:20      55.9      55.3       81     50.0      0.00      8.16      72.6     0.35      1016.0     1       190         2       144        7.95     266        6.2
   05/02/2016 07:10      55.2      54.2       83     49.8      0.00      8.16      72.3     0.35      1016.0     2       148         3       142        7.95     266        4.4
   05/02/2016 07:00      54.1      53.1       86     49.6      0.00      8.16      72.8     0.35      1016.0     1       147         2       154        7.95     267        3.2
   05/02/2016 06:50      53.3      52.5       88     49.4      0.00      8.16      72.4     0.35      1016.0     1       167         2       152        7.95     266       -1.6
   05/02/2016 06:40      52.6      51.5       90     49.2      0.00      8.16      72.8     0.35      1016.0     1       209         2       215        7.96     266       -7.2
   05/02/2016 06:30      51.5      50.9       92     49.1      0.00      8.16      72.6     0.35      1016.0     1       206         1       240        7.95     266      -13.4
   05/02/2016 06:20      51.0      50.2       93     48.5      0.00      8.16      72.5     0.35      1016.0     1       205         1       212        7.96     266      -20.8
   05/02/2016 06:10      50.7      50.0       91     47.9      0.00      8.16      72.4     0.35      1016.0     1       174         2       165        7.96     266      -26.3
   05/02/2016 06:00      50.8      50.5       92     48.3      0.00      8.16      72.9     0.35      1016.0     2       139         2       142        7.96     266      -29.2
   05/02/2016 05:50      51.3      50.9       91     48.7      0.00      8.16      72.7     0.35      1016.0     1       174         2       137        7.96     266      -30.4
   05/02/2016 05:40      51.4      50.9       92     49.0      0.00      8.16      72.8     0.35      1016.0     1       168         1       173        7.96     266      -32.3
   05/02/2016 05:30      51.0      50.8       92     48.5      0.00      8.16      72.9     0.35      1015.0     1       156         2       152        7.96     266      -34.5
   05/02/2016 05:20      51.4      51.1       92     48.8      0.00      8.16      72.9     0.35      1016.0     2       142         2       138        7.96     266      -35.2
   05/02/2016 05:10      51.5      51.2       92     49.1      0.00      8.16      72.5     0.35      1016.0     1       139         2       142        7.96     266      -36.4
   05/02/2016 05:00      51.7      51.3       92     49.2      0.00      8.16      72.8     0.35      1016.0     1       158         1       148        7.96     266      -38.2
   05/02/2016 04:50      51.9      51.4       91     49.0      0.00      8.16      73.0     0.35      1016.0     1       166         1       133        7.96     266      -40.3
   05/02/2016 04:40      52.3      52.0       90     49.5      0.00      8.16      72.8     0.35      1016.0     1       175         2       160        7.96     266      -41.6
   05/02/2016 04:30      52.4      52.2       90     49.3      0.00      8.16      72.9     0.35      1016.0     1       149         1       126        7.96     266      -44.7
   05/02/2016 04:20      52.5      52.0       89     49.1      0.00      8.16      73.2     0.35      1016.0     2       163         3       139        7.96     266      -47.0
   05/02/2016 04:10      52.4      51.9       90     49.3      0.00      8.16      73.2     0.35      1016.0     1       152         3       133        7.96     266      -48.5
   05/02/2016 04:00      52.5      52.2       89     49.1      0.00      8.16      73.4     0.35      1016.0     1       141         2       144        7.96     266      -50.5
   05/02/2016 03:50      52.4      52.2       89     49.2      0.00      8.16      73.0     0.35      1016.0     1       144         2       141        7.96     266      -52.8
   05/02/2016 03:40      52.3      52.1       89     48.9      0.00      8.16      72.8     0.35      1016.0     2       139         2       134        7.96     266      -56.2
   05/02/2016 03:30      52.8      52.3       88     48.9      0.00      8.16      73.2     0.35      1016.0     1       140         2       145        7.96     266      -57.5
   05/02/2016 03:20      53.2      52.6       88     49.6      0.00      8.16      73.5     0.35      1016.0     1       167         2       164        7.96     265      -57.4
   05/02/2016 03:10      53.2      52.8       87     49.3      0.00      8.16      73.0     0.35      1016.0     1       143         2       137        7.96     265      -59.3
   05/02/2016 03:00      53.6      53.3       87     49.6      0.00      8.16      73.2     0.35      1016.0     1       138         2       155        7.96     265      -58.8
   05/02/2016 02:50      54.1      53.5       84     49.1      0.00      8.16      73.3     0.35      1015.0     1       103         1       112        7.96     265      -60.2
   05/02/2016 02:40      54.5      54.1       84     49.8      0.00      8.16      73.4     0.35      1015.0     1       105         1       118        7.96     265      -56.9
   05/02/2016 02:30      54.5      54.3       85     49.9      0.00      8.16      72.9     0.35      1016.0     1       177         2       181        7.96     265      -51.7
   05/02/2016 02:20      54.7      54.3       85     50.1      0.00      8.16      73.5     0.35      1016.0     1       151         2       148        7.96     265      -52.4
   05/02/2016 02:10      54.7      54.5       85     50.0      0.00      8.16      73.4     0.35      1016.0     2       155         2       158        7.96     265      -54.2
   05/02/2016 02:00      55.1      54.7       84     50.1      0.00      8.16      73.5     0.35      1016.0     1       161         2       160        7.96     265      -50.4
   05/02/2016 01:50      55.2      54.7       84     50.4      0.00      8.16      73.3     0.35      1016.0     2       165         2       157        7.96     265      -46.1
   05/02/2016 01:40      54.7      54.5       84     50.0      0.00      8.16      73.5     0.35      1016.0     1       149         2       140        7.96     265      -44.8
   05/02/2016 01:30      54.6      54.5       84     49.7      0.00      8.16      73.2     0.35      1016.0     1       138         1       127        7.96     265      -48.0
   05/02/2016 01:20      55.2      54.8       83     49.8      0.00      8.16      73.3     0.35      1016.0     1       135         2       137        7.96     265      -56.7
   05/02/2016 01:10      55.7      55.3       82     50.1      0.00      8.16      73.7     0.35      1016.0     1       100         1       103        7.96     265      -59.8
   05/02/2016 01:00      55.9      55.5       82     50.3      0.00      8.16      73.3     0.35      1016.0     1        58         2        51        7.96     265      -58.0
   05/02/2016 00:50      56.1      55.9       81     50.4      0.00      8.16      73.8     0.35      1016.0     1        60         2        35        7.96     265      -59.0
   05/02/2016 00:40      56.3      56.1       81     50.5      0.00      8.16      73.7     0.35      1016.0     1        79         3        79        7.96     265      -62.5
   05/02/2016 00:30      56.3      55.9       81     50.3      0.00      8.16      73.5     0.35      1016.0     2        79         3        81        7.96     265      -62.6
   05/02/2016 00:20      55.9      55.5       81     49.9      0.00      8.16      73.7     0.35      1016.0     1        78         2        75        7.96     265      -61.2
   05/02/2016 00:10      55.9      55.5       81     49.9      0.00      8.16      73.8     0.35      1016.0     0       110         1       130        7.96     265      -59.6
   05/02/2016 00:00      56.0      55.7       81     49.9      0.00      8.16      73.4     0.35      1016.0     0       127         1       122        7.97     265      -59.0
   05/01/2016 23:50      56.0      55.5       80     49.6      0.00      8.16      73.7     0.35      1016.0     1       126         1       127        7.97     265      -62.8
   05/01/2016 23:40      56.5      56.3       79     50.1      0.00      8.16      73.8     0.35      1016.0     1       131         1       101        7.97     265      -63.8
   05/01/2016 23:30      56.6      56.5       79     50.2      0.00      8.16      73.8     0.35      1016.0     0       106         0        91        7.97     265      -64.3
   05/01/2016 23:20      57.1      56.9       78     50.2      0.00      8.16      73.7     0.35      1016.0     1       163         2       158        7.97     265      -65.3
   05/01/2016 23:10      57.2      57.0       77     50.1      0.00      8.16      73.8     0.35      1016.0     2       147         2       158        7.97     265      -65.6
   05/01/2016 23:00      57.7      57.3       76     50.0      0.00      8.16      73.8     0.35      1016.0     1       128         2       132        7.97     265      -66.2
   05/01/2016 22:50      58.0      57.7       76     50.3      0.00      8.16      73.7     0.35      1016.0     2       121         2       112        7.97     265      -67.0
   05/01/2016 22:40      58.0      57.9       75     50.2      0.00      8.16      73.6     0.35      1016.0     1       111         2       141        7.97     265      -65.1
   05/01/2016 22:30      57.9      57.4       73     49.1      0.00      8.16      73.6     0.35      1016.0     1        59         3        23        7.97     265      -62.8
   05/01/2016 22:20      57.8      57.5       72     48.7      0.00      8.16      73.7     0.35      1016.0     1        78         1       113        7.97     264      -64.4
   05/01/2016 22:10      58.5      57.8       72     49.1      0.00      8.16      73.4     0.35      1016.0     0       148         1       131        7.98     264      -66.8
   05/01/2016 22:00      58.9      58.5       70     49.1      0.00      8.16      73.5     0.35      1015.0     1       168         1       169        7.98     264      -68.7
   05/01/2016 21:50      59.4      59.0       69     49.0      0.00      8.16      73.6     0.35      1015.0     1       184         2       186        7.98     264      -69.6
   05/01/2016 21:40      59.5      59.4       69     49.2      0.00      8.16      73.2     0.35      1015.0     2       206         2       204        7.98     264      -69.4
   05/01/2016 21:30      59.7      59.5       68     49.1      0.00      8.16      73.7     0.35      1015.0     1       190         1       211        7.98     264      -70.8
   05/01/2016 21:20      60.4      59.8       67     49.4      0.00      8.16      73.7     0.35      1015.0     2       144         2       177        7.99     264      -71.6
   05/01/2016 21:10      60.6      60.4       67     49.5      0.00      8.16      73.6     0.35      1015.0     2       117         4        84        7.99     264      -72.7
   05/01/2016 21:00      60.7      60.5       67     49.4      0.00      8.16      73.7     0.35      1014.0     2        92         2       104        7.99     264      -73.5
   05/01/2016 20:50      61.0      60.6       66     49.3      0.00      8.16      73.5     0.35      1014.0     3       162         3       149        7.99     264      -74.0
   05/01/2016 20:40      61.3      61.1       65     49.3      0.00      8.16      73.6     0.35      1014.0     3       153         4       174        7.99     264      -75.2
   05/01/2016 20:30      61.8      61.4       63     49.0      0.00      8.16      73.6     0.35      1014.0     3       175         4       183        7.99     264      -76.1
   05/01/2016 20:20      62.5      61.9       62     49.1      0.00      8.16      73.4     0.35      1014.0     4       176         5       162        7.99     264      -77.5
   05/01/2016 20:10      62.8      62.7       61     49.2      0.00      8.16      73.5     0.35      1014.0     3       151         6       168        8.00     264      -78.8
   05/01/2016 20:00      63.3      62.8       60     49.1      0.00      8.16      73.4     0.35      1013.0     4       185         5       172        8.00     264      -79.1
   05/01/2016 19:50      64.2      63.3       59     49.2      0.00      8.16      73.4     0.35      1013.0     3       168         4       163        8.00     264      -79.9
   05/01/2016 19:40      64.8      64.5       58     49.5      0.00      8.16      73.3     0.35      1013.0     3       149         4       160        8.00     264      -78.6
   05/01/2016 19:30      65.7      65.1       57     49.7      0.00      8.16      73.3     0.35      1013.0     4       154         6       135        8.00     264      -73.9
   05/01/2016 19:20      66.1      65.8       55     49.4      0.00      8.16      73.3     0.35      1012.0     3       134         4       122        8.00     264      -68.1
   05/01/2016 19:10      66.4      66.1       54     49.3      0.00      8.16      73.3     0.35      1012.0     4       158         6       146        8.00     264      -56.3
   05/01/2016 19:00      67.2      66.3       54     49.8      0.00      8.16      73.2     0.35      1012.0     5       178         6       190        8.00     263      -39.2
   05/01/2016 18:50      68.2      67.2       53     49.9      0.00      8.16      73.1     0.35      1012.0     5       177         7       178        8.01     263      -21.7
   05/01/2016 18:40      69.2      68.3       51     50.1      0.00      8.16      73.3     0.35      1012.0     4       182         6       160        8.01     264       -2.0
   05/01/2016 18:30      70.0      69.2       50     49.9      0.00      8.16      73.2     0.35      1012.0     5       160         7       170        8.01     263       17.6
   05/01/2016 18:20      70.3      69.8       49     50.0      0.00      8.16      73.1     0.35      1012.0     5       155         7       134        8.01     263       40.2
   05/01/2016 18:10      70.9      70.1       49     50.4      0.00      8.16      72.9     0.35      1012.0     5       157         7       169        8.02     263       66.3
   05/01/2016 18:00      70.8      70.4       49     50.6      0.00      8.16      73.1     0.35      1012.0     6       137         8       124        8.02     263       91.5
   05/01/2016 17:50      72.0      70.5       49     50.8      0.00      8.16      73.1     0.35      1012.0     6       169         8       146        8.02     263      115.7
   05/01/2016 17:40      72.4      71.8       47     51.1      0.00      8.16      72.9     0.35      1012.0     5       170         9       171        8.02     263      142.6
   05/01/2016 17:30      72.4      71.8       47     51.0      0.00      8.16      72.7     0.35      1012.0     6       167         9       156        8.03     264      168.7
   05/01/2016 17:20      72.6      72.3       47     51.0      0.00      8.16      72.8     0.35      1012.0     4       159         8       192        8.03     263      194.0
   05/01/2016 17:10      72.4      71.5       47     50.8      0.00      8.16      72.8     0.35      1012.0     4       167         8       172        8.04     263      216.4
   05/01/2016 17:00      72.4      71.8       47     50.8      0.00      8.16      72.7     0.35      1012.0     4       183         7       191        8.04     263      243.4
   05/01/2016 16:50      72.4      71.6       47     50.6      0.00      8.16      72.6     0.35      1012.0     5       168         6       199        8.05     263      267.4
   05/01/2016 16:40      73.1      72.4       46     50.6      0.00      8.16      72.3     0.35      1012.0     5       164         7       180        8.05     264      287.6
   05/01/2016 16:30      73.0      72.1       46     50.4      0.00      8.16      72.5     0.35      1012.0     5       156         8       131        8.05     264      308.4
   05/01/2016 16:20      72.7      72.0       46     50.4      0.00      8.16      72.5     0.35      1012.0     5       164         6       145        8.06     264      328.1
   05/01/2016 16:10      73.0      72.3       46     50.5      0.00      8.16      72.2     0.35      1012.0     6       167         8       155        8.06     263      350.7
   05/01/2016 16:00      72.3      71.6       47     50.5      0.00      8.16      72.3     0.35      1012.0     6       165         9       162        8.06     264      373.1
   05/01/2016 15:50      71.8      70.8       48     50.4      0.00      8.16      72.1     0.35      1012.0     6       184        10       148        8.07     264      390.6
   05/01/2016 15:40      72.8      71.5       47     50.5      0.00      8.16      72.0     0.35      1012.0     5       179         7       172        8.07     264      405.2
   05/01/2016 15:30      72.9      72.1       47     50.9      0.00      8.16      72.0     0.35      1012.0     4       140         7       124        8.08     264      422.6
   05/01/2016 15:20      72.7      71.5       47     51.2      0.00      8.16      72.0     0.35      1012.0     5       123         8       135        8.08     264      443.8
   05/01/2016 15:10      72.4      71.3       48     51.4      0.00      8.16      72.2     0.35      1012.0     6       103         8       136        8.09     264      459.2
   05/01/2016 15:00      72.4      71.5       48     51.5      0.00      8.16      71.9     0.35      1012.0     4       105         6        70        8.09     264      472.6
   05/01/2016 14:50      72.2      70.7       50     51.6      0.00      8.16      71.7     0.35      1012.0     7       105        10        90        8.09     264      489.7
   05/01/2016 14:40      73.4      72.1       48     52.1      0.00      8.16      71.8     0.35      1012.0     4       102         6       143        8.10     264      497.2
   05/01/2016 14:30      72.6      70.7       51     52.0      0.00      8.16      71.6     0.35      1012.0     7       139        10       148        8.10     264      511.0
   05/01/2016 14:20      71.9      70.8       50     51.8      0.00      8.16      71.7     0.35      1012.0     6       162         9       176        8.11     264      522.5
   05/01/2016 14:10      73.0      71.9       48     51.9      0.00      8.16      71.5     0.34      1012.0     7       151         9       173        8.11     264      529.7
   05/01/2016 14:00      73.7      71.9       48     51.9      0.00      8.16      71.6     0.34      1012.0     7       129        10       146        8.11     264      536.9
   05/01/2016 13:50      73.8      72.2       48     51.9      0.00      8.16      71.5     0.34      1012.0     6       169         9       190        8.12     264      539.6
   05/01/2016 13:40      74.6      73.4       46     52.2      0.00      8.16      71.6     0.34      1012.0     4        86         7        98        8.12     264      544.1
   05/01/2016 13:30      74.9      73.3       46     52.0      0.00      8.16      71.5     0.34      1012.0     5        63        11        79        8.12     264      549.0
   05/01/2016 13:20      74.6      73.8       45     51.6      0.00      8.16      71.3     0.34      1012.0     4        27         6        23        8.12     264      553.3
   05/01/2016 13:10      74.1      72.6       45     50.8      0.00      8.16      71.5     0.34      1012.0     5        58         7        48        8.13     264      559.4
   05/01/2016 13:00      74.9      73.2       42     49.8      0.00      8.16      71.3     0.34      1012.0     4        45         6        83        8.13     264      556.4
   05/01/2016 12:50      73.2      71.8       44     49.5      0.00      8.16      71.4     0.34      1012.0     4        33         7         2        8.13     264      560.7
   05/01/2016 12:40      73.4      71.8       43     49.2      0.00      8.16      71.3     0.34      1012.0     4       353         8        17        8.13     264      560.7
   05/01/2016 12:30      73.7      71.6       44     49.2      0.00      8.16      71.1     0.34      1012.0     3        43         6        24        8.13     265      564.4
   05/01/2016 12:20      72.0      71.2       44     48.8      0.00      8.16      71.3     0.34      1012.0     3       319         5       248        8.13     265      556.9
   05/01/2016 12:10      72.8      70.5       45     49.0      0.00      8.16      71.2     0.34      1013.0     3        23         4        30        8.13     265      552.5
   05/01/2016 12:00      71.0      70.3       47     49.1      0.00      8.16      71.2     0.34      1012.0     3         5         4       324        8.13     265      548.5
   05/01/2016 11:50      70.5      69.8       47     49.0      0.00      8.16      71.2     0.34      1013.0     4         4         6        19        8.13     265      543.6
   05/01/2016 11:40      70.5      69.6       47     49.0      0.00      8.16      71.2     0.34      1013.0     3        39         6        77        8.13     265      536.4
   05/01/2016 11:30      70.4      68.7       48     49.3      0.00      8.16      71.4     0.34      1013.0     3       353         4       353        8.13     265      529.4
   05/01/2016 11:20      68.7      67.2       51     49.0      0.00      8.16      71.4     0.34      1013.0     2        23         5        16        8.13     266      522.2
   05/01/2016 11:10      68.0      67.1       51     49.1      0.00      8.16      71.3     0.34      1013.0     4       352         7       337        8.13     265      510.3
   05/01/2016 11:00      67.0      65.8       53     49.0      0.00      8.16      71.3     0.34      1013.0     3        15         4       348        8.13     266      502.4
   05/01/2016 10:50      66.9      65.8       53     49.1      0.00      8.16      71.1     0.34      1013.0     2        47         5       356        8.13     266      486.3
   05/01/2016 10:40      66.8      65.2       54     49.1      0.00      8.16      71.2     0.34      1013.0     3        59         6        91        8.14     266      476.7
   05/01/2016 10:30      65.2      64.0       57     48.8      0.00      8.16      71.4     0.35      1013.0     2       348         3       356        8.14     265      462.6
   05/01/2016 10:20      64.4      62.9       59     48.7      0.00      8.16      71.5     0.35      1013.0     2       121         4       224        8.14     265      446.8
   05/01/2016 10:10      63.9      63.2       59     48.7      0.00      8.16      71.2     0.35      1013.0     3       166         4       123        8.14     265      392.5
   05/01/2016 10:00      64.2      62.8       59     49.0      0.00      8.16      71.6     0.35      1013.0     2        96         4       130        8.14     266      401.9
   05/01/2016 09:50      63.5      62.2       61     49.0      0.00      8.16      71.5     0.35      1013.0     2        41         4       356        8.14     266      396.5
   05/01/2016 09:40      62.8      61.8       61     48.9      0.00      8.16      71.6     0.35      1013.0     3        57         5        80        8.14     266      380.6
   05/01/2016 09:30      62.5      61.8       62     48.8      0.00      8.16      71.7     0.35      1013.0     2        27         4        43        8.14     266      375.6
   05/01/2016 09:20      62.1      61.1       63     49.0      0.00      8.16      71.5     0.35      1013.0     3        34         6        83        8.14     266      327.1
   05/01/2016 09:10      61.1      59.9       67     49.3      0.00      8.16      71.3     0.35      1013.0     3        23         4         8        8.14     266      304.2
   05/01/2016 09:00      60.1      59.5       68     49.3      0.00      8.16      71.4     0.35      1013.0     3        43         5        21        8.14     266      198.1
   05/01/2016 08:50      60.3      59.9       67     49.3      0.00      8.16      71.6     0.35      1013.0     3        44         6        80        8.14     266      220.2
   05/01/2016 08:40      60.3      58.5       71     49.7      0.00      8.16      71.7     0.35      1013.0     3        15         5         8        8.14     266      353.1
   05/01/2016 08:30      58.6      58.1       72     49.5      0.00      8.16      71.6     0.35      1013.0     3        51         4        79        8.14     266      131.1
   05/01/2016 08:20      58.1      57.4       74     49.5      0.00      8.16      72.0     0.35      1013.0     2        28         3        30        8.14     266      109.6
   05/01/2016 08:10      57.5      57.0       75     49.2      0.00      8.16      71.5     0.35      1013.0     2        31         4        12        8.15     266       96.0
   05/01/2016 08:00      57.1      56.3       75     48.9      0.00      8.16      71.6     0.35      1013.0     2        19         2        47        8.15     266       77.4
   05/01/2016 07:50      56.3      55.6       76     48.5      0.00      8.16      71.6     0.35      1013.0     2        25         2        32        8.15     266       59.1
   05/01/2016 07:40      55.7      55.3       76     48.0      0.00      8.16      71.7     0.35      1012.0     2        27         3         3        8.15     266       46.5
   05/01/2016 07:30      55.4      55.0       76     47.8      0.00      8.16      71.7     0.35      1012.0     2        16         3       355        8.15     266       30.7
   05/01/2016 07:20      55.2      54.6       77     47.7      0.00      8.16      72.3     0.35      1012.0     1        60         2        70        8.15     266       23.8
   05/01/2016 07:10      54.6      54.1       78     47.7      0.00      8.16      72.1     0.35      1012.0     1       136         2       132        8.15     266       21.6
   05/01/2016 07:00      54.2      53.6       80     47.8      0.00      8.16      71.9     0.35      1012.0     1       131         1        99        8.15     266       13.8
   05/01/2016 06:50      53.7      52.7       81     47.6      0.00      8.16      71.7     0.35      1012.0     1       155         1       142        8.15     266       11.4
   05/01/2016 06:40      52.7      51.7       84     47.6      0.00      8.16      71.8     0.35      1012.0     1       189         1       211        8.15     266        5.0
   05/01/2016 06:30      51.8      51.0       86     47.5      0.00      8.16      72.0     0.35      1012.0     1       170         1       169        8.15     266        1.3
   05/01/2016 06:20      50.9      49.8       89     47.2      0.00      8.16      72.1     0.35      1011.0     1       153         2       162        8.15     266       -5.1
   05/01/2016 06:10      49.8      49.1       90     46.7      0.00      8.16      72.2     0.35      1011.0     1       213         1       251        8.15     266      -11.4
   05/01/2016 06:00      49.3      48.8       90     46.3      0.00      8.16      72.6     0.35      1011.0     1       170         3       137        8.15     266      -12.1
   05/01/2016 05:50      49.3      49.0       91     46.4      0.00      8.16      71.8     0.35      1011.0     1       136         2       135        8.15     266      -31.3
   05/01/2016 05:40      49.3      48.8       91     46.6      0.00      8.16      71.9     0.35      1011.0     1       151         1       140        8.15     266      -30.3
   05/01/2016 05:30      49.0      48.8       91     46.5      0.00      8.16      72.4     0.35      1011.0     1       149         2       149        8.15     266      -33.9
   05/01/2016 05:20      49.1      48.6       90     46.1      0.00      8.16      72.3     0.35      1011.0     1       139         2       134        8.15     265      -36.1
   05/01/2016 05:10      49.4      49.0       91     46.7      0.00      8.16      72.4     0.35      1011.0     1       156         1       162        8.15     266      -37.9
   05/01/2016 05:00      49.6      49.1       89     46.1      0.00      8.16      72.4     0.35      1011.0     1       138         1       143        8.15     266      -41.3
   05/01/2016 04:50      49.6      49.4       90     46.6      0.00      8.16      72.3     0.35      1011.0     1       181         1       248        8.15     265      -42.4
   05/01/2016 04:40      49.7      49.4       89     46.4      0.00      8.16      72.2     0.35      1011.0     1       141         1       150        8.15     265      -45.5
   05/01/2016 04:30      49.8      49.4       88     46.3      0.00      8.16      72.5     0.35      1011.0     1       120         1       145        8.15     266      -49.0
   05/01/2016 04:20      50.2      49.7       87     46.3      0.00      8.16      72.5     0.35      1011.0     0        83         0       122        8.15     265      -51.1
   05/01/2016 04:10      50.2      49.7       88     46.7      0.00      8.16      72.5     0.35      1011.0     1       188         2       180        8.15     265      -52.8
   05/01/2016 04:00      50.0      49.7       87     46.1      0.00      8.16      72.6     0.35      1011.0     1       146         2       160        8.15     265      -56.8
   05/01/2016 03:50      50.5      49.8       85     45.8      0.00      8.16      72.6     0.35      1011.0     1       125         2       122        8.15     265      -59.1
   05/01/2016 03:40      50.8      50.5       85     46.2      0.00      8.16      72.3     0.35      1011.0     1       138         2       133        8.15     265      -58.5
   05/01/2016 03:30      50.8      50.6       85     46.4      0.00      8.16      72.4     0.35      1010.0     2       147         2       146        8.15     265      -60.0
   05/01/2016 03:20      51.1      50.8       84     46.4      0.00      8.16      72.5     0.35      1010.0     2       148         3       148        8.15     265      -61.7
   05/01/2016 03:10      51.1      50.7       84     46.3      0.00      8.16      72.6     0.35      1010.0     2       143         3       141        8.16     265      -61.5
   05/01/2016 03:00      51.4      50.9       84     46.5      0.00      8.16      73.0     0.35      1010.0     2       154         3       139        8.16     265      -61.6
   05/01/2016 02:50      51.5      50.8       84     46.5      0.00      8.16      72.9     0.35      1010.0     2       139         3       141        8.16     265      -62.2
   05/01/2016 02:40      51.4      50.8       84     46.3      0.00      8.16      72.8     0.35      1010.0     1       152         2       138        8.16     265      -62.9
   05/01/2016 02:30      51.7      51.3       83     46.5      0.00      8.16      73.0     0.35      1010.0     2       142         3       144        8.16     265      -63.9
   05/01/2016 02:20      52.1      51.7       83     46.8      0.00      8.16      73.0     0.35      1010.0     1       150         2       132        8.16     265      -63.2
   05/01/2016 02:10      52.6      51.7       81     46.4      0.00      8.16      72.8     0.35      1010.0     2       171         3       152        8.16     265      -64.5
   05/01/2016 02:00      52.8      52.5       82     47.2      0.00      8.16      73.0     0.35      1011.0     1       144         2       145        8.16     265      -63.0
   05/01/2016 01:50      52.8      52.6       80     46.8      0.00      8.16      73.0     0.35      1011.0     1       121         1       130        8.16     265      -64.2
   05/01/2016 01:40      53.5      53.1       79     47.1      0.00      8.16      73.1     0.35      1011.0     1       137         2       123        8.16     265      -64.1
   05/01/2016 01:30      53.4      53.1       80     47.1      0.00      8.16      73.0     0.35      1011.0     1       130         1       128        8.16     265      -64.2
   05/01/2016 01:20      53.3      52.6       80     47.1      0.00      8.16      73.0     0.35      1011.0     1       130         1        75        8.16     265      -65.0
   05/01/2016 01:10      53.1      52.8       78     46.4      0.00      8.16      73.0     0.35      1011.0     1        95         2        88        8.16     264      -65.9
   05/01/2016 01:00      54.1      53.2       77     46.6      0.00      8.16      72.9     0.35      1011.0     1        97         2       106        8.16     264      -66.1
   05/01/2016 00:50      54.2      54.0       78     47.3      0.00      8.16      73.0     0.35      1011.0     0       116         1       154        8.16     264      -66.2
   05/01/2016 00:40      54.8      54.4       77     47.4      0.00      8.16      73.0     0.35      1011.0     1        62         1        56        8.16     264      -66.3
   05/01/2016 00:30      55.2      54.7       76     47.4      0.00      8.16      73.3     0.35      1011.0     1       142         1       159        8.16     264      -66.6
   05/01/2016 00:20      55.7      55.3       74     47.3      0.00      8.16      73.2     0.35      1011.0     1        82         1        54        8.16     264      -68.1
   05/01/2016 00:10      56.0      55.8       73     47.4      0.00      8.16      73.0     0.35      1011.0     1        62         2        81        8.16     264      -68.6
   05/01/2016 00:00      56.3      56.0       72     47.0      0.00      8.16      73.1     0.35      1010.0     2        84         3        83        8.16     264      -68.8


<<Back to data home page